<<back to data home page
Ready for rain this Winter season?? Stay in touch!! - DONATE ANY AMOUNT BY CLICKING THIS LINK!!!


    Month/Day/Year       Maximum   Minimum    Rel    Dew       Rainfall  Seasonal  Soil     Soil      Baro       Wind    Wind        Peak     Peak Speed    Leaf     Net       EvapPan  EvapPan    EvapPan   EvapPan
    and                  Air Temp  Air Temp   Hum    Point     Inches    Rainfall  Temp     Moisture  Pressure   Speed   Direction   Speed    Direction    Wetness  Radiation   Wind    WindRun    H20Temp   Level  
    Local Time           Deg F     Deg F      %      Deg F               Inches    Deg F    dS/m      mbar       MPH     comp  deg   MPH      comp  deg      mV        W_m2     MPH      Miles     Deg F     Inches
---------------------------------------------------------------------------------------------------------------------------------------------------------------------------------------------------------------------
   01/19/2020 20:00      56.0      55.6       42     33.3      0.00      7.53      55.5     0.46      1018.5     1.4     SSW   204   4.0      SE     132     267       -25       0.7       7.8      55.3      9.54
   01/19/2020 19:50      56.4      55.6       43     33.6      0.00      7.53      55.5     0.46      1018.6     0.3     SSW   208   1.1      SW     217     266       -26       0.0       7.7      55.3      9.54
   01/19/2020 19:40      56.7      56.0       41     33.0      0.00      7.53      55.5     0.46      1018.6     0.4     SSE   166   1.4     SSE     168     266       -29       0.2       7.7      55.4      9.54
   01/19/2020 19:30      57.2      56.5       40     33.0      0.00      7.53      55.5     0.46      1018.4     0.1       S   169   0.8       S     188     266       -28       0.0       7.6      55.5      9.54
   01/19/2020 19:20      57.4      57.0       39     32.7      0.00      7.53      55.5     0.46      1018.5     0.0     ESE   123   0.5     ENE      62     266       -26       0.0       7.6      55.6      9.54
   01/19/2020 19:10      58.0      57.2       39     32.8      0.00      7.53      55.3     0.46      1018.4     0.3       S   185   1.5       S     181     266       -27       0.2       7.6      55.7      9.54
   01/19/2020 19:00      58.3      57.5       38     32.6      0.00      7.53      55.4     0.46      1018.3     1.0     SSE   154   3.9     SSW     195     266       -31       0.4       7.6      55.7      9.54
   01/19/2020 18:50      57.7      57.1       41     34.0      0.00      7.53      55.3     0.46      1017.9     1.7       S   175   4.3      SW     222     266       -36       1.0       7.5      55.8      9.54
   01/19/2020 18:40      57.5      56.9       42     34.3      0.00      7.53      55.2     0.46      1017.8     1.4     SSE   151   2.5      SE     136     266       -33       0.4       7.4      55.9      9.54
   01/19/2020 18:30      58.3      57.5       42     34.6      0.00      7.53      55.2     0.46      1017.7     0.5     SSE   151   2.3      SE     142     266       -32       0.3       7.3      56.0      9.54
   01/19/2020 18:20      59.0      58.1       38     33.3      0.00      7.53      55.2     0.46      1017.8     0.3     SSE   165   1.1      SE     138     266       -32       0.2       7.3      56.1      9.54
   01/19/2020 18:10      59.2      58.8       38     33.2      0.00      7.53      55.1     0.46      1017.9     0.4      SW   223   1.3     WSW     243     266       -35       0.2       7.2      56.2      9.54
   01/19/2020 18:00      59.9      59.1       37     33.2      0.00      7.53      55.0     0.46      1017.9     0.1       S   171   0.9       S     184     266       -33       0.0       7.2      56.3      9.54
   01/19/2020 17:50      60.3      59.7       35     32.5      0.00      7.53      54.9     0.46      1017.8     1.0       S   174   2.1     SSW     209     266       -30       0.3       7.2      56.5      9.54
   01/19/2020 17:40      62.1      60.1       36     33.6      0.00      7.53      54.8     0.46      1017.9     0.8       E   100   2.6      SE     124     266       -32       0.0       7.1      56.5      9.55
   01/19/2020 17:30      62.1      60.6       32     31.2      0.00      7.53      54.8     0.46      1018.0     1.7     SSW   196   4.1      SW     224     266       -31       0.7       7.1      56.6      9.55
   01/19/2020 17:20      61.9      61.2       34     33.1      0.00      7.53      54.7     0.46      1017.8     1.3     SSW   195   2.4     WSW     238     266       -32       0.6       7.0      56.7      9.55
   01/19/2020 17:10      63.1      61.7       32     32.6      0.00      7.53      54.7     0.46      1017.7     1.0     SSE   164   2.8     SSW     195     266       -34       0.4       6.9      56.6      9.55
   01/19/2020 17:00      63.0      61.7       32     32.1      0.00      7.53      54.5     0.46      1017.6     1.9       S   174   3.2       S     176     265       -32       1.5       6.9      56.8      9.55
   01/19/2020 16:50      62.9      61.9       36     35.2      0.00      7.53      54.5     0.46      1017.5     0.4       S   171   1.9       S     184     265       -29       0.3       6.6      56.8      9.55
   01/19/2020 16:40      63.7      62.8       35     35.4      0.00      7.53      54.4     0.46      1017.5     0.2     SSE   151   1.7      SE     145     265       -28       0.0       6.6      56.8      9.55
   01/19/2020 16:30      64.5      63.6       33     34.5      0.00      7.53      54.3     0.46      1017.6     0.3       S   170   1.2       S     181     265       -21       0.0       6.6      56.8      9.55
   01/19/2020 16:20      65.4      64.3       31     33.7      0.00      7.53      54.3     0.46      1017.6     0.4     SSE   153   1.2     SSE     147     264       -12       0.0       6.5      56.8      9.55
   01/19/2020 16:10      66.3      65.3       28     31.6      0.00      7.53      54.1     0.46      1017.8     0.4     SSE   160   1.6      SE     136     264        -4       0.2       6.5      56.8      9.55
   01/19/2020 16:00      66.9      66.2       26     30.1      0.00      7.53      54.1     0.46      1018.0     0.9      SW   233   1.6     WSW     255     264         3       0.3       6.5      56.7      9.55
   01/19/2020 15:50      67.4      66.7       22     26.9      0.00      7.53      54.0     0.46      1018.1     0.6       S   169   1.6     SSW     193     264        -4       0.2       6.5      56.6      9.55
   01/19/2020 15:40      68.3      67.4       21     26.7      0.00      7.53      53.9     0.46      1018.1     0.5     SSE   148   1.6     SSE     161     264        -8       0.1       6.4      56.5      9.56
   01/19/2020 15:30      69.1      68.2       21     26.7      0.00      7.53      53.7     0.46      1018.1     0.6      NE    48   2.2     NNE      14     264         3       0.0       6.4      56.4      9.56
   01/19/2020 15:20      69.7      68.9       20     26.0      0.00      7.53      53.6     0.46      1018.2     0.6      NE    44   2.2      NE      48     264        16       0.0       6.4      56.2      9.56
   01/19/2020 15:10      70.0      69.6       19     26.1      0.00      7.53      53.6     0.46      1018.1     0.4     ENE    69   1.5      NE      37     263        38       0.0       6.4      56.0      9.56
   01/19/2020 15:00      70.1      69.7       18     24.3      0.00      7.53      53.5     0.46      1018.2     0.8      NE    38   2.4     ENE      62     263        60       0.0       6.4      55.7      9.56
   01/19/2020 14:50      70.0      69.6       18     25.0      0.00      7.53      53.4     0.46      1018.1     0.8      NE    36   1.8      NE      56     263        81       0.0       6.4      55.5      9.56
   01/19/2020 14:40      70.0      69.5       18     23.9      0.00      7.53      53.2     0.46      1018.2     1.3     NNE    30   3.0      NE      49     263        81       0.2       6.4      55.3      9.56
   01/19/2020 14:30      70.0      69.5       17     23.6      0.00      7.53      53.1     0.46      1018.4     1.5     NNE    19   3.6     NNW     333     263        90       0.3       6.3      55.0      9.56
   01/19/2020 14:20      70.2      69.4       17     22.7      0.00      7.53      53.0     0.46      1018.4     3.0       N    10   6.0       N       6     263        86       0.7       6.3      54.6      9.56
   01/19/2020 14:10      70.5      70.1       18     24.7      0.00      7.53      52.9     0.46      1018.3     1.4     NNE    12   4.9     NNE      27     263        57       0.2       6.2      54.3      9.56
   01/19/2020 14:00      70.8      70.2       18     24.5      0.00      7.53      52.8     0.46      1018.6     1.2       N   354   3.3       N     349     263        58       0.1       6.1      54.1      9.56
   01/19/2020 13:50      71.2      70.7       17     24.4      0.00      7.53      52.7     0.46      1018.8     1.4      NW   313   3.9      NE      52     263        75       0.5       6.1      53.9      9.56
   01/19/2020 13:40      71.3      70.8       17     24.1      0.00      7.53      52.6     0.46      1018.9     1.3      NW   310   2.8     WNW     285     263        83       0.2       6.0      53.5      9.56
   01/19/2020 13:30      71.6      71.1       17     24.0      0.00      7.53      52.6     0.46      1019.0     1.2      NW   309   2.9     WNW     300     263        68       0.0       6.0      53.3      9.56
   01/19/2020 13:20      71.5      71.1       17     24.8      0.00      7.53      52.6     0.46      1019.1     1.3       W   277   3.2       W     262     263        68       0.6       6.0      53.0      9.56
   01/19/2020 13:10      71.7      71.1       17     24.2      0.00      7.53      52.6     0.46      1019.1     2.3     WSW   248   3.7       W     260     264        71       1.6       5.9      52.7      9.56
   01/19/2020 13:00      72.9      71.7       17     24.4      0.00      7.53      52.6     0.46      1019.1     2.2     WSW   249   4.4      SW     222     263        76       1.5       5.6      52.4      9.56
   01/19/2020 12:50      73.0      72.5       16     23.8      0.00      7.53      53.6     0.46      1019.1     0.3      NW   308   1.8       W     264     263        94       0.1       5.4      53.1      9.57
   01/19/2020 12:40      72.8      72.0       15     22.7      0.00      7.53      53.6     0.46      1019.1     0.8     NNW   339   3.3       W     263     263       126       0.6       5.4      52.9      9.57
   01/19/2020 12:30      73.3      72.5       16     23.4      0.00      7.53      53.6     0.46      1019.3     1.1     WNW   292   3.3      NW     313     263       175       0.6       5.3      52.4      9.57
   01/19/2020 12:20      73.2      72.3       15     22.3      0.00      7.53      53.6     0.46      1019.5     1.1     ESE   107   2.4      NE      50     263       265       0.7       5.2      52.0      9.57
   01/19/2020 12:10      72.5      71.6       16     22.9      0.00      7.53      53.7     0.46      1019.6     2.2       S   187   4.3     SSW     213     263       329       1.8       5.0      51.4      9.57
   01/19/2020 12:00      74.2      72.5       16     23.9      0.00      7.53      53.7     0.46      1019.8     1.4     SSW   211   3.7     SSW     197     263       251       1.2       4.7      50.6      9.57
   01/19/2020 11:50      73.0      71.5       17     24.6      0.00      7.53      53.0     0.46      1019.9     0.4     NNW   348   1.9       N       6     263       256       0.2       4.5      49.6      9.57
   01/19/2020 11:40      71.6      70.8       16     23.2      0.00      7.53      53.0     0.46      1020.0     1.0     NNE    25   2.3     ENE      70     263       239       0.4       4.5      49.3      9.57
   01/19/2020 11:30      71.1      70.6       17     23.3      0.00      7.53      53.0     0.46      1020.0     2.3     ESE   115   4.6     ESE     124     263       350       1.3       4.4      49.0      9.57
   01/19/2020 11:20      70.7      68.8       17     23.2      0.00      7.53      53.0     0.46      1020.0     1.1     SSE   151   2.2     ESE     122     263       315       0.7       4.2      48.5      9.57
   01/19/2020 11:10      69.2      68.6       18     23.8      0.00      7.53      53.1     0.46      1020.3     1.1     SSE   161   3.3      SE     142     264       185       0.9       4.1      48.1      9.57
   01/19/2020 11:00      69.1      68.6       19     24.6      0.00      7.53      53.1     0.46      1020.5     0.8     ESE   121   1.9     SSE     152     264       135       0.4       4.0      47.6      9.57
   01/19/2020 10:50      69.2      68.6       17     22.9      0.00      7.53      53.2     0.46      1020.7     0.6     ESE   116   2.1     ESE     119     264       153       0.2       3.9      47.1      9.57
   01/19/2020 10:40      69.8      68.7       17     22.5      0.00      7.53      53.3     0.46      1020.9     1.2       E    80   2.9      NE      50     264       152       0.6       3.9      46.7      9.57
   01/19/2020 10:30      70.2      69.0       17     22.7      0.00      7.53      53.3     0.45      1021.0     0.7      NE    51   2.9      NE      51     264       203       0.2       3.8      46.2      9.57
   01/19/2020 10:20      70.7      69.4       16     21.5      0.00      7.53      53.3     0.45      1021.2     1.1     NNE    16   3.9       N       9     263       342       0.6       3.7      45.7      9.57
   01/19/2020 10:10      70.1      68.7       16     21.0      0.00      7.53      53.4     0.46      1021.4     0.6     SSE   148   2.0     SSE     150     263       295       0.3       3.6      45.2      9.57
   01/19/2020 10:00      68.9      67.6       16     20.6      0.00      7.53      53.4     0.46      1021.4     1.0     SSE   167   2.3     SSW     211     263       282       0.7       3.6      44.7      9.57
   01/19/2020 09:50      68.1      67.2       19     23.5      0.00      7.53      53.5     0.46      1021.3     1.0       W   272   2.6       W     262     263       249       0.4       3.5      44.4      9.57
   01/19/2020 09:40      67.2      63.0       27     29.8      0.00      7.53      53.5     0.46      1021.3     0.1       E    80   0.9     ENE      62     265       246       0.2       3.4      44.1      9.57
   01/19/2020 09:30      63.0      60.3       38     35.5      0.00      7.53      53.6     0.46      1021.3     0.2     NNE    20   1.3       N     352     265       220       0.0       3.4      43.7      9.57
   01/19/2020 09:20      60.1      58.5       41     35.4      0.00      7.53      53.9     0.46      1021.3     0.4       E    97   1.3       E      91     266       156       0.1       3.4      43.6      9.57
   01/19/2020 09:10      58.6      57.0       40     33.4      0.00      7.53      54.0     0.46      1021.2     0.1     ENE    68   1.3     ENE      75     266       128       0.0       3.4      43.5      9.57
   01/19/2020 09:00      57.2      55.5       39     32.2      0.00      7.53      54.0     0.46      1021.1     0.6     NNE    21   1.6     NNE      23     266       167       0.0       3.4      43.2      9.57
   01/19/2020 08:50      55.5      54.0       42     32.4      0.00      7.53      54.0     0.46      1021.0     0.0       N     0   0.0      NE      47     266       147       0.0       3.4      43.0      9.57
   01/19/2020 08:40      54.0      51.7       43     30.7      0.00      7.53      54.0     0.46      1020.9     0.0     WNW   284   0.2     WNW     294     266       104       0.0       3.4      42.7      9.57
   01/19/2020 08:30      51.8      48.3       44     29.1      0.00      7.53      54.1     0.46      1020.9     0.0      SE   145   0.9      SE     146     267       102       0.0       3.4      42.6      9.57
   01/19/2020 08:20      48.5      46.5       47     28.0      0.00      7.53      54.1     0.46      1020.8     0.0      NW   316   0.8      NW     316     267        65       0.0       3.4      42.3      9.57
   01/19/2020 08:10      46.7      45.7       48     27.6      0.00      7.53      54.1     0.46      1020.7     0.1     NNE    17   1.0     NNE      21     267         4       0.0       3.4      42.1      9.57
   01/19/2020 08:00      45.9      44.8       49     27.5      0.00      7.53      54.2     0.46      1020.6     0.4      NE    55   1.6     NNE      13     268       -13       0.1       3.4      42.0      9.57
   01/19/2020 07:50      44.7      41.7       54     27.0      0.00      7.53      54.1     0.46      1020.5     0.4       S   184   1.7     SSW     192     268       -21       0.3       3.3      42.1      9.57
   01/19/2020 07:40      41.7      41.0       54     26.0      0.00      7.53      54.2     0.46      1020.5     0.5     SSE   161   2.0     SSE     155     268       -27       0.2       3.3      42.1      9.57
   01/19/2020 07:30      41.3      40.7       55     26.0      0.00      7.53      54.2     0.46      1020.5     0.1      SE   128   0.8       N       7     268       -35       0.0       3.3      42.1      9.57
   01/19/2020 07:20      41.1      40.8       56     26.2      0.00      7.53      54.2     0.46      1020.5     0.3       N   350   1.9       S     181     268       -34       0.1       3.3      42.2      9.57
   01/19/2020 07:10      41.0      40.4       55     25.8      0.00      7.53      54.3     0.46      1020.5     0.7     SSE   154   1.9       S     184     268       -38       0.4       3.2      42.3      9.57
   01/19/2020 07:00      40.8      40.4       54     25.1      0.00      7.53      54.3     0.46      1020.5     0.2       S   170   1.6     SSE     163     268       -37       0.0       3.2      42.3      9.57
   01/19/2020 06:50      40.8      40.2       54     25.2      0.00      7.53      54.3     0.46      1020.6     0.5      SW   231   1.5     WSW     249     268       -42       0.2       3.1      42.5      9.57
   01/19/2020 06:40      41.6      40.7       52     24.8      0.00      7.53      54.4     0.46      1020.5     0.0     ENE    70   0.7     ENE      69     268       -49       0.0       3.1      42.6      9.57
   01/19/2020 06:30      42.1      41.2       50     24.4      0.00      7.53      54.4     0.46      1020.5     0.3     SSE   149   1.1       S     173     268       -51       0.3       3.1      42.7      9.57
   01/19/2020 06:20      42.9      41.9       47     23.8      0.00      7.53      54.5     0.46      1020.4     0.5     SSW   193   1.5       W     280     268       -52       0.2       3.1      42.8      9.57
   01/19/2020 06:10      42.3      40.8       51     24.5      0.00      7.53      54.5     0.46      1020.3     1.3      SW   223   2.4       S     187     268       -53       0.7       3.0      43.1      9.57
   01/19/2020 06:00      42.1      40.8       51     24.7      0.00      7.53      54.5     0.46      1020.2     0.3       W   261   1.9     NNE      21     268       -55       0.0       2.9      43.2      9.58
   01/19/2020 05:50      42.8      41.8       49     24.2      0.00      7.53      53.9     0.46      1020.1     0.3     ENE    74   1.1      NE      44     267       -54       0.2       2.9      42.8      9.58
   01/19/2020 05:40      42.9      42.4       47     23.9      0.00      7.53      53.8     0.46      1020.0     0.4     SSE   161   1.5      SE     143     267       -55       0.0       2.9      43.0      9.57
   01/19/2020 05:30      44.5      42.7       45     23.9      0.00      7.53      53.9     0.46      1019.8     0.7     ESE   108   2.6     NNE      25     267       -56       0.2       2.9      43.1      9.58
   01/19/2020 05:20      44.6      44.0       43     22.9      0.00      7.53      53.8     0.46      1019.8     1.2      SE   132   2.6      SE     142     267       -56       0.3       2.8      43.1      9.58
   01/19/2020 05:10      44.2      43.2       43     22.8      0.00      7.53      53.8     0.46      1019.8     0.7     SSE   158   2.1      SE     126     267       -56       0.3       2.8      43.3      9.58
   01/19/2020 05:00      44.1      43.2       45     23.4      0.00      7.53      53.9     0.46      1019.8     1.3       S   170   3.2       S     181     267       -55       1.0       2.7      43.4      9.58
   01/19/2020 04:50      44.4      43.3       44     23.1      0.00      7.53      53.8     0.46      1019.8     1.2      SE   139   2.7       N     352     267       -55       0.7       2.6      43.5      9.58
   01/19/2020 04:40      44.1      43.4       44     23.1      0.00      7.53      53.9     0.46      1019.8     1.2     SSE   154   1.9     SSE     148     267       -54       0.3       2.5      43.6      9.58
   01/19/2020 04:30      43.5      42.5       46     23.7      0.00      7.53      53.9     0.46      1019.9     1.0     SSW   202   2.4      SW     227     267       -54       0.3       2.4      43.8      9.58
   01/19/2020 04:20      43.5      42.6       48     24.2      0.00      7.53      54.0     0.46      1020.0     0.2      NW   321   1.9       N       2     267       -56       0.0       2.4      43.9      9.58
   01/19/2020 04:10      44.1      43.1       45     23.8      0.00      7.53      53.9     0.46      1020.0     1.0      SE   127   2.3     NNE      12     267       -56       0.5       2.3      44.1      9.58
   01/19/2020 04:00      43.3      43.0       45     23.4      0.00      7.53      54.0     0.46      1020.0     0.6       S   170   1.8       S     174     267       -56       0.7       2.3      44.3      9.58
   01/19/2020 03:50      43.3      42.5       46     23.4      0.00      7.53      54.0     0.46      1020.2     0.6     SSW   206   2.7     SSW     193     267       -56       0.5       2.1      44.4      9.58
   01/19/2020 03:40      43.7      42.7       47     24.2      0.00      7.53      54.0     0.46      1020.3     0.6     SSE   153   2.1       S     179     267       -56       0.7       2.1      44.6      9.58
   01/19/2020 03:30      44.4      43.7       44     23.7      0.00      7.53      54.1     0.46      1020.4     0.4      SE   130   1.2     SSE     159     267       -56       0.3       1.9      44.8      9.58
   01/19/2020 03:20      45.0      44.3       43     23.8      0.00      7.53      54.1     0.46      1020.4     0.6       S   170   1.7      SE     137     267       -56       0.2       1.9      45.0      9.58
   01/19/2020 03:10      44.9      44.0       43     23.4      0.00      7.53      54.1     0.46      1020.6     0.8     SSE   166   1.7      SE     142     267       -56       0.3       1.9      45.2      9.58
   01/19/2020 03:00      45.0      44.3       43     23.5      0.00      7.53      54.1     0.46      1020.7     0.2     SSE   163   1.2     SSE     168     267       -58       0.0       1.8      45.4      9.58
   01/19/2020 02:50      45.8      44.9       41     23.3      0.00      7.53      54.2     0.46      1020.8     0.6      SE   145   1.8     SSE     154     267       -58       0.3       1.8      45.5      9.58
   01/19/2020 02:40      45.8      45.5       41     23.0      0.00      7.53      54.1     0.46      1021.0     0.6     SSE   152   2.0      SE     141     267       -58       0.2       1.7      45.7      9.58
   01/19/2020 02:30      46.6      45.4       41     23.3      0.00      7.53      54.1     0.46      1021.0     1.0     SSE   159   2.2     SSE     151     267       -59       0.6       1.7      45.9      9.58
   01/19/2020 02:20      47.1      46.3       39     23.1      0.00      7.53      54.2     0.46      1021.1     1.1      SE   126   2.4      SE     131     267       -60       0.4       1.6      46.0      9.58
   01/19/2020 02:10      47.0      45.4       39     22.4      0.00      7.53      54.2     0.46      1021.2     1.2     SSE   148   2.8      SE     143     267       -59       0.6       1.5      46.2      9.58
   01/19/2020 02:00      46.6      45.5       41     23.4      0.00      7.53      54.2     0.46      1021.2     1.1     SSE   167   2.1       S     181     267       -60       0.6       1.4      46.4      9.58
   01/19/2020 01:50      47.0      46.0       39     22.7      0.00      7.53      54.2     0.46      1021.3     1.4     SSE   147   2.8      SE     136     267       -60       0.4       1.3      46.5      9.58
   01/19/2020 01:40      46.8      45.7       41     23.5      0.00      7.53      54.3     0.46      1021.4     1.5     SSE   157   3.0      SE     139     267       -60       0.6       1.3      46.8      9.58
   01/19/2020 01:30      47.5      46.7       38     22.9      0.00      7.53      54.6     0.46      1021.5     1.0     SSE   153   2.2      SE     136     267       -61       0.6       1.2      47.3      9.58
   01/19/2020 01:20      47.6      46.9       38     22.8      0.00      7.53      54.5     0.46      1021.6     2.1      SE   144   3.5      SE     134     267       -61       0.5       1.1      47.5      9.58
   01/19/2020 01:10      47.8      47.0       38     23.1      0.00      7.53      54.6     0.46      1021.6     2.1     SSE   149   3.5      SE     140     267       -62       0.6       1.0      47.6      9.58
   01/19/2020 01:00      47.9      47.2       38     23.1      0.00      7.53      54.7     0.46      1021.7     2.3     SSE   147   3.7     SSE     156     267       -62       0.8       0.9      47.8      9.58
   01/19/2020 00:50      48.5      47.4       37     23.2      0.00      7.53      54.6     0.46      1021.8     2.2     SSE   147   3.1     SSE     155     267       -62       0.6       0.8      48.0      9.59
   01/19/2020 00:40      49.0      48.2       35     22.5      0.00      7.53      54.7     0.46      1022.0     1.9     SSE   156   4.4     SSE     164     267       -62       1.0       0.7      48.2      9.59
   01/19/2020 00:30      51.4      48.4       34     22.7      0.00      7.53      54.5     0.46      1022.0     1.9     SSE   156   3.7     SSE     149     267       -62       1.0       0.5      48.4      9.59
   01/19/2020 00:20      51.9      50.5       31     21.3      0.00      7.53      54.6     0.46      1022.2     1.7       S   176   3.3      SE     135     266       -62       1.1       0.3      48.5      9.59
   01/19/2020 00:10      52.5      50.9       30     21.0      0.00      7.53      54.6     0.46      1022.2     1.7      SE   141   4.1      SE     139     266       -63       0.8       0.1      48.6      9.59
   01/19/2020 00:00      52.0      50.3       30     21.1      0.00      7.53      54.7     0.46      1022.1     1.3     SSE   159   3.2       S     173     266       -63       0.8      17.2      48.8      9.59
   01/18/2020 23:50      51.2      50.3       32     21.9      0.00      7.53      54.6     0.46      1022.3     1.4     SSE   156   3.7     SSE     164     266       -63       0.8      17.1      49.0      9.59
   01/18/2020 23:40      52.0      49.5       31     21.6      0.00      7.53      54.7     0.46      1022.5     1.9       S   173   3.4     SSW     208     266       -63       1.1      17.0      49.1      9.59
   01/18/2020 23:30      51.0      49.9       33     22.6      0.00      7.53      54.6     0.46      1022.6     2.0     SSE   157   3.3      SE     135     266       -63       0.8      16.8      49.3      9.59
   01/18/2020 23:20      53.1      50.1       32     22.8      0.00      7.53      54.6     0.46      1022.5     2.0     SSE   166   3.5       S     191     266       -63       1.2      16.7      49.5      9.59
   01/18/2020 23:10      54.2      51.8       28     20.5      0.00      7.53      54.6     0.46      1022.7     1.1     SSE   166   3.3       S     189     266       -64       1.0      16.5      49.7      9.59
   01/18/2020 23:00      52.9      51.2       30     21.5      0.00      7.53      54.7     0.46      1022.6     1.8       S   179   3.7     SSW     199     266       -63       0.9      16.3      49.9      9.59
   01/18/2020 22:50      55.2      51.4       31     22.9      0.00      7.53      54.6     0.46      1022.6     1.7     SSE   168   3.6       S     175     266       -64       1.5      16.1      50.1      9.59
   01/18/2020 22:40      55.2      53.3       26     20.2      0.00      7.53      54.7     0.46      1022.5     1.0     WSW   249   3.9     WSW     253     266       -64       0.7      15.9      50.2      9.59
   01/18/2020 22:30      54.1      51.2       30     21.5      0.00      7.53      54.7     0.46      1022.5     1.9       S   182   3.1     SSE     153     266       -64       1.2      15.8      50.5      9.60
   01/18/2020 22:20      53.1      51.2       31     22.5      0.00      7.53      54.7     0.46      1022.6     1.7     SSE   160   3.7      SW     227     266       -65       1.2      15.6      50.6      9.60
   01/18/2020 22:10      53.1      51.3       31     22.4      0.00      7.53      54.6     0.46      1022.6     1.8     SSE   167   3.3      SE     130     266       -65       1.1      15.4      50.8      9.60
   01/18/2020 22:00      53.1      52.2       29     21.6      0.00      7.53      54.7     0.46      1022.5     1.7       S   169   3.3      SE     138     266       -65       1.0      15.2      51.0      9.60
   01/18/2020 21:50      53.3      52.0       30     22.2      0.00      7.53      54.7     0.46      1022.5     1.7     SSE   169   3.6       S     184     266       -65       1.2      15.0      51.3      9.60
   01/18/2020 21:40      54.0      51.7       31     22.8      0.00      7.53      54.7     0.46      1022.4     1.5       S   171   3.2       S     186     266       -66       0.9      14.8      51.6      9.60
   01/18/2020 21:30      57.5      53.9       26     21.4      0.00      7.53      54.7     0.46      1022.5     1.3     SSE   158   2.8      SE     144     266       -67       1.1      14.7      51.9      9.60
   01/18/2020 21:20      59.3      57.6       21     18.9      0.00      7.53      54.7     0.46      1022.4     0.5     WSW   246   1.5     WSW     256     265       -70       0.3      14.5      52.1      9.60
   01/18/2020 21:10      59.4      58.8       20     18.4      0.00      7.53      54.7     0.46      1022.3     1.4      NW   317   5.8     WNW     299     265       -70       0.6      14.4      52.3      9.60
   01/18/2020 21:00      59.1      58.5       21     18.8      0.00      7.53      54.8     0.46      1022.2     1.7       N   354   6.1     NNE      28     265       -70       0.4      14.3      52.4      9.60
   01/18/2020 20:50      59.3      58.7       20     18.5      0.00      7.53      54.8     0.46      1022.3     1.1     NNW   347   3.4      NW     321     265       -70       0.5      14.3      52.5      9.60
   01/18/2020 20:40      59.3      58.8       21     18.8      0.00      7.53      54.8     0.46      1022.3     1.3       N   354   4.1      NW     312     265       -70       0.4      14.2      52.7      9.61
   01/18/2020 20:30      59.3      58.9       21     18.7      0.00      7.53      54.8     0.46      1022.3     2.1     NNW   344   5.7     NNW     345     265       -70       0.6      14.1      52.8      9.61
   01/18/2020 20:20      58.9      57.2       22     19.4      0.00      7.53      54.6     0.46      1022.2     1.9     NNW   347   6.0       N       3     266       -69       0.8      14.0      52.6      9.61
   01/18/2020 20:10      57.5      55.6       25     20.7      0.00      7.53      54.4     0.46      1022.2     1.4     ESE   102   3.6       N       5     266       -68       0.6      13.9      52.5      9.61
   01/18/2020 20:00      56.1      55.3       26     21.4      0.00      7.53      54.4     0.46      1022.0     0.9     SSE   157   2.3      SE     138     266       -69       0.5      13.8      52.8      9.61
   01/18/2020 19:50      58.8      56.1       24     21.2      0.00      7.53      54.4     0.46      1021.9     1.5     SSE   156   3.9      SE     144     266       -70       1.0      13.7      53.0      9.61
   01/18/2020 19:40      59.1      58.5       21     19.4      0.00      7.53      54.4     0.46      1021.8     0.8     NNE    31   2.9     NNE      24     265       -70       0.5      13.5      53.2      9.61
   01/18/2020 19:30      59.3      58.5       21     19.1      0.00      7.53      54.4     0.46      1021.7     1.1     NNW   327   4.9      NW     312     265       -71       0.2      13.4      53.4      9.61
   01/18/2020 19:20      58.4      55.5       24     20.3      0.00      7.53      54.6     0.46      1021.6     1.7       N   354   6.4     NNE      19     266       -70       0.9      13.4      53.6      9.61
   01/18/2020 19:10      55.5      53.9       29     22.7      0.00      7.53      54.7     0.46      1021.8     0.8     ESE   117   2.5     SSE     167     266       -69       0.5      13.3      54.0      9.61
   01/18/2020 19:00      54.2      52.5       32     24.4      0.00      7.53      54.8     0.46      1021.8     1.6      SE   134   4.9       E      80     266       -69       1.2      13.2      54.2      9.62
   01/18/2020 18:50      53.3      51.8       36     26.3      0.00      7.53      54.6     0.46      1021.8     1.4     SSE   153   3.2       S     174     266       -70       0.9      13.0      54.4      9.62
   01/18/2020 18:40      53.7      53.0       33     25.3      0.00      7.53      54.6     0.46      1021.7     1.2     SSE   162   2.4     SSW     195     266       -70       0.5      12.8      54.6      9.62
   01/18/2020 18:30      56.0      53.6       32     25.3      0.00      7.53      54.5     0.46      1021.6     1.4     SSE   154   2.8      SE     137     266       -71       0.4      12.8      54.9      9.62
   01/18/2020 18:20      57.1      55.3       29     24.0      0.00      7.53      54.6     0.46      1021.6     1.9       S   178   3.1      SW     223     266       -71       1.2      12.7      55.2      9.62
   01/18/2020 18:10      58.0      56.9       26     22.9      0.00      7.53      54.4     0.46      1021.5     1.9     SSW   199   4.0      SW     229     265       -71       1.4      12.5      55.4      9.62
   01/18/2020 18:00      58.2      57.5       26     22.9      0.00      7.53      54.4     0.46      1021.3     2.0     SSW   193   3.9     WSW     254     265       -70       1.4      12.2      55.7      9.62
   01/18/2020 17:50      59.7      57.7       25     23.0      0.00      7.53      54.3     0.46      1021.2     1.9       S   190   4.0      SW     226     265       -71       1.1      12.0      55.9      9.62
   01/18/2020 17:40      61.1      59.4       22     21.0      0.00      7.53      54.3     0.46      1021.1     0.9     SSE   159   2.5       S     180     264       -73       0.8      11.8      56.2      9.63
   01/18/2020 17:30      62.5      60.4       21     20.8      0.00      7.53      54.2     0.46      1021.1     2.0      SW   225   3.7      SW     234     265       -72       0.9      11.7      56.5      9.63
   01/18/2020 17:20      62.9      62.2       19     20.1      0.00      7.53      54.1     0.46      1021.0     0.6       N     4   3.3     NNE      27     264       -73       0.0      11.5      56.7      9.63
   01/18/2020 17:10      63.4      62.8       19     20.4      0.00      7.53      54.1     0.46      1021.2     1.0       N     7   4.7       N       2     264       -72       0.1      11.5      56.8      9.63
   01/18/2020 17:00      63.6      63.1       19     20.3      0.00      7.53      54.0     0.46      1021.0     2.7       N   359   5.9     NNE      14     264       -70       0.6      11.5      57.0      9.63
   01/18/2020 16:50      63.9      63.5       19     20.2      0.00      7.53      53.8     0.46      1021.0     4.5       N     3  10.6       N       9     264       -64       1.3      11.4      57.1      9.64
   01/18/2020 16:40      64.2      63.6       19     20.4      0.00      7.53      53.7     0.46      1021.0     4.2     NNE    15  10.4     NNE      14     264       -61       0.9      11.2      57.1      9.64
   01/18/2020 16:30      64.5      64.0       19     20.9      0.00      7.53      53.5     0.46      1021.0     3.7       N     4   9.7     NNE      15     264       -43       0.9      11.0      57.1      9.64
   01/18/2020 16:20      64.4      64.1       19     21.0      0.00      7.53      53.5     0.46      1021.1     4.6       N     4   9.3      NW     310     264       -38       1.1      10.9      57.3      9.64
   01/18/2020 16:10      64.8      64.3       19     21.5      0.00      7.53      53.4     0.46      1021.1     4.2       N     3   9.7       N     349     264       -30       1.2      10.7      57.4      9.64
   01/18/2020 16:00      65.3      64.7       19     22.2      0.00      7.53      53.2     0.46      1021.2     4.9       N   357  13.5       N       0     264        -7       1.3      10.5      57.4      9.65
   01/18/2020 15:50      65.5      65.0       20     23.3      0.00      7.53      53.8     0.46      1021.2     3.8       N   355   9.2      NW     320     264        25       1.2      10.3      57.9      9.65
   01/18/2020 15:40      65.9      65.1       20     23.6      0.00      7.53      54.0     0.46      1021.2     3.5       N     2   9.2     NNE      22     264       -16       1.0      10.1      58.2      9.65
   01/18/2020 15:30      66.1      65.7       20     24.0      0.00      7.53      53.9     0.46      1021.2     4.0       N     6   8.2       N       8     264        35       1.2       9.9      58.2      9.65
   01/18/2020 15:20      65.9      65.5       20     24.1      0.00      7.53      53.8     0.46      1021.3     4.9       N     2  10.4     NNE      24     264        78       1.3       9.7      58.1      9.65
   01/18/2020 15:10      66.1      65.4       21     24.3      0.00      7.53      53.7     0.46      1021.2     4.5       N     4  12.7     NNE      21     264        66       1.1       9.5      58.0      9.65
   01/18/2020 15:00      66.5      65.8       21     24.7      0.00      7.53      53.6     0.46      1021.3     3.7       N   352   6.6     WNW     301     264       159       1.0       9.3      57.7      9.66
   01/18/2020 14:50      65.9      65.3       21     24.3      0.00      7.53      53.5     0.46      1021.4     5.1       N   355  12.5      NW     308     264       187       1.4       9.2      57.4      9.66
   01/18/2020 14:40      66.5      65.4       20     23.9      0.00      7.53      53.4     0.46      1021.4     4.4       N   359   8.5     NNE      32     264        83       1.2       8.9      57.1      9.66
   01/18/2020 14:30      66.5      66.2       20     23.8      0.00      7.53      53.4     0.46      1021.4     3.8     NNW   346   7.9     NNW     335     263       136       1.0       8.7      56.8      9.66
   01/18/2020 14:20      66.3      65.9       20     23.6      0.00      7.53      53.3     0.46      1021.4     3.5       N   355   8.3     NNW     338     264       139       1.0       8.6      56.5      9.66
   01/18/2020 14:10      66.9      65.9       19     23.0      0.00      7.53      53.2     0.46      1021.4     6.0       N   354  11.8     NNE      24     263       220       1.7       8.4      56.2      9.66
   01/18/2020 14:00      67.3      66.7       19     23.2      0.00      7.53      53.1     0.46      1021.6     4.1       N   351  12.3     NNE      28     264       263       1.2       8.1      55.8      9.66
   01/18/2020 13:50      67.3      65.2       19     23.2      0.00      7.53      53.0     0.46      1021.7     3.9       N   357  10.0     NNE      25     263       281       1.1       7.9      55.2      9.67
   01/18/2020 13:40      66.0      65.2       19     22.6      0.00      7.53      52.9     0.46      1021.8     5.6       N     6  11.3       N     352     264        86       1.7       7.7      54.8      9.67
   01/18/2020 13:30      66.5      65.8       19     22.4      0.00      7.53      52.8     0.46      1022.0     6.3       N     6  13.7      NE      43     264       263       2.2       7.4      54.5      9.67
   01/18/2020 13:20      66.5      65.5       19     22.4      0.00      7.53      52.7     0.46      1022.0     6.3       N     6  13.3     NNE      31     264       326       1.8       7.1      53.9      9.67
   01/18/2020 13:10      65.8      65.3       19     21.9      0.00      7.53      52.8     0.46      1022.0     6.3       N     2  11.7       W     269     264       267       1.6       6.8      53.5      9.67
   01/18/2020 13:00      65.6      65.3       19     22.4      0.00      7.53      53.9     0.46      1022.2     5.9       N     7  12.2     NNW     345     264       284       1.8       6.5      54.0      9.67
   01/18/2020 12:50      65.9      65.3       19     22.7      0.00      7.53      53.8     0.46      1022.3     5.7       N   356  13.2     NNW     330     264       300       1.9       6.2      53.5      9.67
   01/18/2020 12:40      66.0      65.2       19     22.8      0.00      7.53      53.8     0.46      1022.4     4.6       N   358  11.2     NNW     337     264       349       1.5       5.9      53.0      9.67
   01/18/2020 12:30      65.5      65.0       20     22.7      0.00      7.53      53.8     0.46      1022.4     5.4       N   360  13.8     NNE      22     264       327       1.6       5.6      52.4      9.67
   01/18/2020 12:20      65.6      65.2       19     22.7      0.00      7.53      53.7     0.46      1022.6     5.1       N     1  10.6      NW     313     264       343       1.5       5.4      51.8      9.67
   01/18/2020 12:10      65.3      64.0       20     22.7      0.00      7.53      53.7     0.46      1022.9     4.5       N     4   8.7     NNE      12     264       355       1.3       5.1      51.2      9.67
   01/18/2020 12:00      65.0      64.0       20     22.8      0.00      7.53      53.6     0.46      1023.1     4.7       N   356   9.9     WSW     256     265       131       1.1       4.9      50.7      9.68
   01/18/2020 11:50      65.1      64.3       21     23.7      0.00      7.53      53.6     0.46      1023.3     3.8       N     7   8.5       N     352     264       208       1.0       4.7      50.2      9.68
   01/18/2020 11:40      65.5      64.8       21     23.7      0.00      7.53      53.5     0.46      1023.4     4.4       N     3  10.7       N      10     264       244       1.3       4.6      49.8      9.68
   01/18/2020 11:30      65.9      65.3       21     24.2      0.00      7.53      53.5     0.46      1023.7     4.2       N     6  10.6     NNE      28     265       358       1.4       4.3      49.1      9.68
   01/18/2020 11:20      65.3      64.7       21     24.3      0.00      7.53      53.4     0.46      1023.8     4.4       N     0   7.9       N     353     265       348       1.0       4.1      48.5      9.68
   01/18/2020 11:10      65.0      64.7       22     24.7      0.00      7.53      53.4     0.46      1023.9     4.3       N   358   8.5       N     354     264       334       1.2       3.9      47.8      9.68
   01/18/2020 11:00      65.1      63.9       22     24.8      0.00      7.53      53.3     0.46      1024.1     3.8       N     8   9.6       N     349     264       344       1.2       3.7      47.2      9.68
   01/18/2020 10:50      64.1      63.4       23     24.8      0.00      7.53      53.3     0.46      1024.1     4.2       N     9   8.6     NNE      17     265       305       1.1       3.5      46.5      9.68
   01/18/2020 10:40      63.6      63.3       23     25.3      0.00      7.53      53.3     0.46      1024.2     3.6       N     3   7.3      NW     322     265       287       1.0       3.4      46.0      9.68
   01/18/2020 10:30      63.4      62.8       24     26.0      0.00      7.53      53.3     0.46      1024.3     3.0       N   359   5.2       N       3     265       272       0.7       3.2      45.4      9.68
   01/18/2020 10:20      63.3      62.4       25     26.8      0.00      7.53      53.3     0.46      1024.4     2.7       N     2   6.8     NNW     331     265       296       0.6       3.1      44.8      9.68
   01/18/2020 10:10      62.5      61.4       26     27.0      0.00      7.53      53.3     0.46      1024.5     1.9       N     7   4.5      NE      38     265       275       0.6       3.0      44.2      9.68
   01/18/2020 10:00      61.4      60.5       28     27.4      0.00      7.53      53.3     0.46      1024.5     2.1       N     8   4.3     NNE      23     265       275       0.8       2.9      43.7      9.68
   01/18/2020 09:50      60.7      60.0       29     28.2      0.00      7.53      53.3     0.46      1024.6     2.1     NNE    13   6.4     NNE      12     266       240       0.7       2.8      43.3      9.68
   01/18/2020 09:40      61.4      60.4       29     28.2      0.00      7.53      53.3     0.46      1024.7     1.2       N     6   4.0     NNE      32     266       236       0.6       2.6      43.0      9.68
   01/18/2020 09:30      61.4      60.0       30     29.1      0.00      7.53      53.3     0.46      1024.7     0.6     WSW   258   2.6     WSW     250     266       218       0.4       2.5      42.7      9.68
   01/18/2020 09:20      60.1      58.5       31     28.2      0.00      7.53      53.3     0.46      1024.5     0.7     ESE   115   2.5     ESE     102     266       181       0.4       2.5      42.4      9.68
   01/18/2020 09:10      58.8      57.1       32     28.0      0.00      7.53      53.3     0.46      1024.4     0.9     SSE   148   2.4      SE     138     266       187       0.6       2.4      42.1      9.68
   01/18/2020 09:00      57.3      55.1       35     29.1      0.00      7.53      53.7     0.46      1024.4     1.6      SE   141   2.8     SSE     146     267       162       0.6       2.3      42.0      9.68
   01/18/2020 08:50      55.1      53.3       43     32.4      0.00      7.53      53.7     0.46      1024.3     1.0     ESE   119   2.3     SSE     152     267       150       0.3       2.2      41.8      9.68
   01/18/2020 08:40      53.2      49.7       50     33.6      0.00      7.53      53.8     0.46      1024.3     1.0      SE   133   2.0       S     182     268       130       0.5       2.2      41.5      9.68
   01/18/2020 08:30      49.9      47.7       56     33.6      0.00      7.53      53.9     0.46      1024.2     1.1      SE   144   2.3     SSE     158     269        91       0.4       2.1      41.2      9.68
   01/18/2020 08:20      47.8      45.9       58     32.7      0.00      7.53      53.9     0.46      1024.1     0.5     NNW   330   1.6       N     355     269        81       0.0       2.0      40.9      9.68
   01/18/2020 08:10      45.7      44.3       61     32.1      0.00      7.53      53.9     0.46      1024.1     0.2       E    82   1.1     SSW     192     269        26       0.0       2.0      40.7      9.68
   01/18/2020 08:00      44.3      43.4       61     31.2      0.00      7.53      53.9     0.46      1024.1     0.4     SSE   153   1.3     SSE     168     271       -23       0.1       2.0      40.6      9.68
   01/18/2020 07:50      43.8      42.1       62     30.6      0.00      7.53      54.1     0.46      1024.1     1.0      SE   130   3.2      SE     134     271       -30       0.5       2.0      40.6      9.68
   01/18/2020 07:40      42.2      40.6       64     30.1      0.00      7.53      54.0     0.46      1024.1     0.6     SSE   156   2.0       S     181     271       -36       0.6       1.9      40.7      9.68
   01/18/2020 07:30      41.2      40.6       64     29.9      0.00      7.53      54.0     0.46      1024.0     0.8     SSE   159   2.2      SE     142     271       -41       0.3       1.8      40.7      9.68
   01/18/2020 07:20      41.0      40.5       64     29.6      0.00      7.53      54.0     0.46      1023.8     0.7     SSE   155   2.1      SE     140     271       -45       0.5       1.7      40.7      9.68
   01/18/2020 07:10      41.0      40.3       64     29.4      0.00      7.53      54.1     0.46      1023.7     1.5     SSE   149   2.6      SE     139     271       -50       0.3       1.7      40.9      9.68
   01/18/2020 07:00      41.0      39.0       65     29.2      0.00      7.53      54.2     0.46      1023.7     1.2     SSE   157   2.3     SSE     148     271       -53       0.4       1.6      41.0      9.68
   01/18/2020 06:50      39.3      38.4       69     29.7      0.00      7.53      54.2     0.46      1023.6     1.1     SSE   165   3.2      SE     138     271       -55       0.7       1.6      41.1      9.68
   01/18/2020 06:40      40.5      39.3       66     29.5      0.00      7.53      54.2     0.46      1023.7     0.9       E   101   2.3      NE      40     271       -56       0.5       1.4      41.2      9.68
   01/18/2020 06:30      40.3      39.9       66     29.6      0.00      7.53      54.3     0.46      1023.6     0.7      SE   136   1.4     SSE     152     271       -56       0.0       1.4      41.3      9.68
   01/18/2020 06:20      40.4      39.8       65     29.3      0.00      7.53      54.2     0.46      1023.6     0.6     SSW   192   1.7     NNE      17     271       -55       0.2       1.4      41.5      9.68
   01/18/2020 06:10      40.2      39.3       66     29.5      0.00      7.53      54.3     0.46      1023.4     0.7      SE   145   1.6      SE     139     271       -55       0.0       1.3      41.6      9.69
   01/18/2020 06:00      39.6      38.8       69     29.8      0.00      7.53      54.4     0.46      1023.4     0.7     SSE   160   1.8      SE     138     271       -55       0.4       1.3      41.7      9.69
   01/18/2020 05:50      39.6      38.8       69     29.9      0.00      7.53      54.4     0.46      1023.3     0.3     SSE   150   1.1       S     171     272       -55       0.0       1.3      41.9      9.69
   01/18/2020 05:40      39.8      39.2       67     29.7      0.00      7.53      54.5     0.46      1023.3     0.4     SSE   147   1.6      SE     144     272       -55       0.2       1.3      42.0      9.69
   01/18/2020 05:30      39.5      38.3       71     30.3      0.00      7.53      54.4     0.46      1023.1     1.0      SE   127   2.4       S     182     271       -55       0.7       1.2      42.2      9.69
   01/18/2020 05:20      38.7      38.2       75     31.1      0.00      7.53      54.5     0.46      1023.1     1.3      SE   143   2.6      SE     140     272       -56       0.4       1.1      42.4      9.69
   01/18/2020 05:10      38.5      37.5       75     30.7      0.00      7.53      54.5     0.46      1023.2     1.3     SSE   148   2.3      SE     141     272       -56       0.4       1.0      42.4      9.69
   01/18/2020 05:00      37.7      37.5       76     30.9      0.00      7.53      54.4     0.46      1023.2     0.3     SSE   146   1.7     SSE     160     272       -56       0.0       1.0      42.7      9.69
   01/18/2020 04:50      38.0      37.5       76     30.9      0.00      7.53      54.5     0.46      1023.2     0.1     SSW   208   1.0      SW     215     272       -56       0.0       1.0      42.9      9.69
   01/18/2020 04:40      38.5      38.0       74     30.8      0.00      7.53      54.5     0.46      1023.3     0.2       S   180   0.9       S     171     272       -57       0.0       1.0      43.0      9.69
   01/18/2020 04:30      38.6      38.2       73     30.6      0.00      7.53      54.5     0.46      1023.2     0.5     SSE   153   1.5     ESE     104     272       -57       0.1       1.0      43.2      9.69
   01/18/2020 04:20      38.6      38.2       75     31.1      0.00      7.53      54.5     0.46      1023.3     0.5     SSE   159   1.5     SSE     166     272       -57       0.3       0.9      43.3      9.69
   01/18/2020 04:10      38.5      38.0       75     31.1      0.00      7.53      54.6     0.46      1023.3     0.2     SSE   161   0.9       S     174     272       -58       0.0       0.9      43.5      9.69
   01/18/2020 04:00      38.5      38.2       75     31.0      0.00      7.53      54.6     0.46      1023.3     0.0      NW   323   1.1      NW     322     272       -57       0.0       0.9      43.7      9.69
   01/18/2020 03:50      39.1      38.2       73     30.9      0.00      7.53      54.6     0.46      1023.4     0.0     NNE    14   0.9     NNE      15     272       -57       0.0       0.9      43.9      9.69
   01/18/2020 03:40      39.1      38.6       72     30.7      0.00      7.53      54.7     0.46      1023.4     0.5       S   184   1.7     SSE     148     272       -57       0.3       0.9      44.1      9.69
   01/18/2020 03:30      39.3      38.6       73     31.1      0.00      7.53      54.7     0.46      1023.4     0.5     SSE   166   2.3     SSW     199     271       -57       0.5       0.8      44.2      9.69
   01/18/2020 03:20      39.0      38.5       74     31.2      0.00      7.53      54.7     0.46      1023.5     0.2     SSE   155   1.1     SSE     147     272       -57       0.1       0.8      44.4      9.69
   01/18/2020 03:10      38.9      38.5       75     31.5      0.00      7.53      54.8     0.46      1023.5     0.3     SSE   160   1.6       S     169     272       -59       0.0       0.7      44.5      9.69
   01/18/2020 03:00      38.9      37.8       76     31.6      0.00      7.53      54.9     0.46      1023.4     0.9       S   184   2.0       S     177     272       -58       0.5       0.7      44.8      9.69
   01/18/2020 02:50      38.5      37.8       76     31.4      0.00      7.53      54.9     0.46      1023.5     1.2     SSW   202   3.5     SSW     204     272       -58       0.9       0.7      45.0      9.69
   01/18/2020 02:40      38.8      38.2       76     31.7      0.00      7.53      54.8     0.46      1023.5     0.7       S   186   2.1       S     185     272       -58       0.2       0.5      45.2      9.69
   01/18/2020 02:30      38.9      38.4       77     32.0      0.00      7.53      54.8     0.46      1023.5     0.1     SSE   153   1.0     SSE     154     272       -58       0.0       0.5      45.4      9.69
   01/18/2020 02:20      39.2      38.6       76     31.9      0.00      7.53      54.9     0.46      1023.4     0.0      NE    41   0.4      NE      41     272       -58       0.0       0.5      45.6      9.69
   01/18/2020 02:10      39.1      38.7       76     32.1      0.00      7.53      54.9     0.46      1023.3     0.3     SSW   209   1.0      SW     231     271       -57       0.0       0.5      45.8      9.69
   01/18/2020 02:00      39.3      38.8       76     32.2      0.00      7.53      55.0     0.46      1023.4     0.1     SSE   160   1.0      SE     139     271       -58       0.0       0.5      46.0      9.69
   01/18/2020 01:50      39.9      39.2       75     32.2      0.00      7.53      55.0     0.46      1023.5     0.4      SE   139   1.2      SE     142     271       -58       0.0       0.5      46.1      9.69
   01/18/2020 01:40      39.9      39.4       75     32.3      0.00      7.53      55.0     0.46      1023.7     0.6     SSE   152   1.6     SSE     160     271       -57       0.2       0.5      46.4      9.69
   01/18/2020 01:30      39.7      39.3       76     32.6      0.00      7.53      55.1     0.46      1023.7     0.0     SSE   154   0.8     SSE     155     271       -58       0.0       0.4      46.6      9.69
   01/18/2020 01:20      39.8      39.4       76     32.6      0.00      7.53      55.1     0.46      1023.7     0.3     SSE   155   1.3     SSE     149     271       -59       0.0       0.4      46.8      9.69
   01/18/2020 01:10      39.7      39.0       76     32.5      0.00      7.53      55.1     0.46      1023.7     0.3     SSE   165   1.4     SSE     154     271       -59       0.3       0.4      47.0      9.69
   01/18/2020 01:00      40.4      39.5       74     32.5      0.00      7.53      55.1     0.46      1023.7     0.3      SE   133   1.4     SSE     148     271       -59       0.0       0.4      47.2      9.69
   01/18/2020 00:50      40.5      40.2       75     32.9      0.00      7.53      55.7     0.46      1023.8     0.7       S   172   2.1       S     190     271       -60       0.4       0.4      47.7      9.69
   01/18/2020 00:40      40.4      39.9       75     32.8      0.00      7.53      55.9     0.46      1023.8     1.0     SSW   192   3.0       S     188     271       -59       0.6       0.3      48.2      9.69
   01/18/2020 00:30      40.9      40.0       74     32.8      0.00      7.53      55.9     0.46      1023.9     0.4     SSE   165   1.7       S     170     271       -60       0.5       0.2      48.4      9.70
   01/18/2020 00:20      41.3      40.4       73     32.9      0.00      7.53      56.0     0.46      1024.0     0.3     ESE   121   1.1       S     170     271       -60       0.3       0.1      48.6      9.70
   01/18/2020 00:10      40.6      40.2       76     33.4      0.00      7.53      56.0     0.46      1024.0     0.9     SSW   212   1.7      SW     236     271       -59       0.4       0.0      48.9      9.70
   01/18/2020 00:00      41.3      40.5       74     33.4      0.00      7.53      56.0     0.46      1024.0     0.0     SSE   160   0.4     SSE     160     272       -60       0.0      16.5      49.2      9.70
   01/17/2020 23:50      41.3      41.0       73     33.2      0.00      7.53      55.9     0.46      1024.0     0.1       S   177   0.8     SSE     161     271       -60       0.0      16.5      49.3      9.70
   01/17/2020 23:40      41.5      41.1       74     33.5      0.00      7.53      55.0     0.46      1024.0     0.0     SSE   161   0.4     SSE     161     271       -60       0.0      16.5      48.6      9.70
   01/17/2020 23:30      41.6      41.2       75     33.9      0.00      7.53      55.0     0.46      1024.0     0.2     SSW   204   0.8     WSW     249     271       -60       0.0      16.5      48.9      9.70
   01/17/2020 23:20      42.0      41.5       74     34.2      0.00      7.53      55.0     0.46      1024.0     0.2      SE   143   1.2      SE     140     271       -62       0.0      16.5      49.1      9.70
   01/17/2020 23:10      42.5      42.0       72     34.0      0.00      7.53      55.0     0.46      1024.0     0.5     SSE   165   1.1     SSE     168     271       -62       0.1      16.4      49.3      9.70
   01/17/2020 23:00      43.0      42.2       72     34.0      0.00      7.53      55.0     0.46      1024.0     0.5     SSW   198   2.0     SSW     204     270       -63       0.6      16.4      49.6      9.70
   01/17/2020 22:50      43.0      42.6       71     34.0      0.00      7.53      55.0     0.46      1023.9     0.6       S   178   1.9     SSW     199     270       -63       0.5      16.3      49.8      9.70
   01/17/2020 22:40      43.9      43.0       69     33.9      0.00      7.53      55.0     0.46      1023.8     0.3       S   175   1.4     ENE      78     270       -64       0.5      16.2      50.2      9.70
   01/17/2020 22:30      44.4      43.6       69     34.5      0.00      7.53      55.0     0.46      1023.8     0.3     SSE   165   1.2       S     178     270       -64       0.0      16.2      50.4      9.70
   01/17/2020 22:20      45.1      44.1       67     34.3      0.00      7.53      55.1     0.46      1023.8     0.2     SSE   159   1.0      SE     142     270       -65       0.0      16.1      50.6      9.70
   01/17/2020 22:10      45.2      44.7       69     35.2      0.00      7.53      55.0     0.46      1023.8     0.8     SSE   157   1.4       S     182     270       -65       0.0      16.1      50.9      9.70
   01/17/2020 22:00      45.9      44.9       67     35.1      0.00      7.53      55.1     0.46      1023.6     0.5     SSE   151   1.4     SSE     168     270       -65       0.0      16.1      51.1      9.70
   01/17/2020 21:50      46.5      45.9       66     35.5      0.00      7.53      54.9     0.46      1023.6     0.7     SSE   165   2.2       S     183     270       -66       0.4      16.1      51.3      9.70
   01/17/2020 21:40      46.0      45.4       70     36.3      0.00      7.53      55.1     0.46      1023.5     1.6     SSE   157   3.6     SSW     194     270       -65       0.6      16.1      51.5      9.70
   01/17/2020 21:30      46.0      45.5       69     36.3      0.00      7.53      55.0     0.46      1023.4     1.3     SSE   148   2.4      SE     141     270       -66       0.0      16.0      51.8      9.71
   01/17/2020 21:20      46.7      45.8       68     36.2      0.00      7.53      55.0     0.46      1023.5     0.6     SSE   155   1.6      SE     132     270       -66       0.0      16.0      51.9      9.71
   01/17/2020 21:10      48.0      46.5       65     36.2      0.00      7.53      55.1     0.46      1023.4     0.6     SSE   158   1.4     SSE     164     270       -67       0.3      16.0      52.2      9.71
   01/17/2020 21:00      49.8      48.0       60     35.6      0.00      7.53      55.1     0.46      1023.3     1.8       S   169   3.9     SSW     200     269       -67       1.2      15.9      52.4      9.71
   01/17/2020 20:50      49.7      48.0       61     35.9      0.00      7.53      55.1     0.46      1023.4     2.0      SW   219   6.7      SW     236     269       -67       1.4      15.7      52.7      9.71
   01/17/2020 20:40      50.3      49.0       59     36.0      0.00      7.53      55.1     0.46      1023.3     0.8      SW   215   3.0     SSW     210     269       -70       0.4      15.5      53.0      9.71
   01/17/2020 20:30      51.2      50.2       56     35.7      0.00      7.53      55.1     0.46      1023.1     2.7     SSW   209   4.3      SW     220     269       -71       1.5      15.4      53.2      9.71
   01/17/2020 20:20      51.1      50.7       56     35.9      0.00      7.53      55.1     0.46      1023.1     3.6      SW   229   5.3      SW     223     269       -72       2.2      15.2      53.5      9.71
   01/17/2020 20:10      51.9      50.2       55     35.1      0.00      7.53      55.0     0.46      1023.1     2.4      SW   226   6.0      SW     233     269       -72       1.5      14.8      53.7      9.71
   01/17/2020 20:00      52.1      51.7       52     34.9      0.00      7.53      55.0     0.46      1023.1     2.3      SW   228   5.1      SW     223     269       -73       1.3      14.6      53.8      9.71
   01/17/2020 19:50      52.0      51.2       55     35.8      0.00      7.53      55.1     0.46      1023.1     3.4      SW   218   5.5      SW     228     269       -72       2.1      14.4      54.1      9.71
   01/17/2020 19:40      51.9      51.2       57     36.7      0.00      7.53      55.0     0.46      1023.0     4.3     SSW   210   7.8      SW     215     269       -72       2.8      14.0      54.4      9.71
   01/17/2020 19:30      51.5      51.2       61     38.4      0.00      7.53      55.0     0.46      1023.0     3.3     SSW   211   5.0     SSW     203     269       -73       2.2      13.6      54.7      9.72
   01/17/2020 19:20      52.1      51.2       61     38.8      0.00      7.53      55.0     0.46      1023.0     3.2      SW   219   4.5      SW     225     269       -73       2.1      13.2      55.0      9.72
   01/17/2020 19:10      52.1      51.7       58     37.4      0.00      7.53      55.0     0.46      1023.1     3.4      SW   229   4.7      SW     231     269       -72       1.8      12.8      55.3      9.72
   01/17/2020 19:00      52.5      51.8       59     38.4      0.00      7.53      54.9     0.46      1023.1     2.7      SW   219   4.3      SW     231     269       -72       1.6      12.6      55.5      9.72
   01/17/2020 18:50      52.9      52.3       64     40.7      0.00      7.53      54.9     0.46      1023.2     2.4     WSW   238   3.9     SSW     210     270       -71       1.3      12.3      55.8      9.72
   01/17/2020 18:40      52.8      52.0       66     41.5      0.00      7.53      54.9     0.46      1023.2     3.1      SW   235   5.3     WSW     239     270       -69       1.9      12.1      56.0      9.72
   01/17/2020 18:30      52.2      51.5       69     41.8      0.00      7.53      54.8     0.46      1023.3     1.8      SW   228   3.7      SW     215     270       -66       1.1      11.7      56.3      9.72
   01/17/2020 18:20      51.7      51.1       70     42.0      0.00      7.53      54.8     0.46      1023.3     1.6     SSW   211   2.2     SSW     203     270       -63       0.9      11.6      56.6      9.72
   01/17/2020 18:10      51.6      51.0       71     42.0      0.00      7.53      54.8     0.46      1023.3     1.1     SSW   192   1.9     SSW     202     270       -64       0.4      11.4      56.8      9.72
   01/17/2020 18:00      52.4      51.6       68     41.9      0.00      7.53      54.8     0.46      1023.3     1.0       S   180   1.8     SSW     200     270       -66       0.6      11.3      57.1      9.73
   01/17/2020 17:50      53.5      52.3       65     41.5      0.00      7.53      54.8     0.46      1023.2     1.1       S   175   2.3     SSW     210     269       -68       1.0      11.2      57.4      9.73
   01/17/2020 17:40      53.8      53.2       64     41.5      0.00      7.53      54.7     0.46      1023.1     1.7     SSW   213   2.4      SW     217     269       -67       1.1      11.1      57.7      9.73
   01/17/2020 17:30      55.1      53.7       60     41.0      0.00      7.53      54.7     0.46      1023.1     1.6     SSW   209   2.1     SSW     203     269       -68       1.0      10.9      58.0      9.73
   01/17/2020 17:20      55.9      54.9       58     40.8      0.00      7.53      54.7     0.46      1023.1     1.7     SSW   195   2.9      SW     217     269       -66       1.2      10.7      58.3      9.73
   01/17/2020 17:10      56.2      55.5       57     41.0      0.00      7.53      54.6     0.46      1023.0     1.1       S   183   1.9       S     184     269       -62       1.0      10.5      58.6      9.73
   01/17/2020 17:00      56.8      56.0       57     41.4      0.00      7.53      54.6     0.46      1022.9     1.2       S   181   2.6       S     170     269       -58       0.9      10.3      58.8      9.73
   01/17/2020 16:50      57.3      56.6       57     41.9      0.00      7.53      54.6     0.46      1022.9     2.0       S   174   4.1     SSE     157     268       -53       1.4      10.2      59.1      9.74
   01/17/2020 16:40      57.9      57.2       56     42.1      0.00      7.53      55.0     0.46      1022.8     2.7       S   174   5.6     SSE     164     268       -39       2.0      10.0      60.0      9.74
   01/17/2020 16:30      59.4      57.7       55     42.2      0.00      7.53      54.9     0.46      1022.8     3.5       S   190   5.7      SW     216     268       -10       2.6       9.6      60.4      9.74
   01/17/2020 16:20      59.9      59.3       51     41.6      0.00      7.53      54.8     0.46      1022.8     2.4      SE   143   4.3     ESE     114     267         8       1.3       9.2      60.4      9.74
   01/17/2020 16:10      59.7      59.4       50     41.2      0.00      7.53      54.8     0.46      1022.8     2.1       E   100   4.8     ESE     115     267        24       0.9       9.0      60.4      9.74
   01/17/2020 16:00      60.1      59.6       49     40.9      0.00      7.53      54.7     0.46      1022.7     2.5     SSE   154   5.8     SSE     147     267        39       1.7       8.8      60.4      9.75
   01/17/2020 15:50      60.4      59.9       49     40.9      0.00      7.53      54.6     0.46      1022.7     2.3      SE   131   5.4      SE     132     267        59       1.4       8.6      60.3      9.75
   01/17/2020 15:40      60.3      59.8       49     40.8      0.00      7.53      54.6     0.46      1022.7     2.6      SE   138   6.4      SE     140     267        70       1.5       8.3      60.3      9.75
   01/17/2020 15:30      60.9      59.9       48     40.6      0.00      7.53      54.4     0.46      1022.5     2.7      SE   132   4.8      SE     142     267        84       1.6       8.1      60.1      9.76
   01/17/2020 15:20      61.2      60.8       47     40.3      0.00      7.53      54.3     0.46      1022.4     2.0     ESE   112   5.0      SE     128     267       116       1.1       7.8      60.0      9.76
   01/17/2020 15:10      62.0      61.0       42     38.1      0.00      7.53      54.2     0.46      1022.4     2.2     ESE   111   4.8     ESE     107     266       125       1.4       7.6      59.8      9.77
   01/17/2020 15:00      62.0      61.3       42     38.5      0.00      7.53      54.1     0.46      1022.4     1.7     ENE    62   4.1      NE      46     266       144       0.8       7.4      59.6      9.77
   01/17/2020 14:50      61.6      60.8       42     38.3      0.00      7.53      54.0     0.46      1022.3     1.8      NE    37   3.4     NNE      12     266       172       0.6       7.2      59.3      9.78
   01/17/2020 14:40      61.6      61.0       42     38.2      0.00      7.53      53.9     0.46      1022.3     2.5     ESE   108   6.0       E      95     266       201       1.8       7.1      59.1      9.78
   01/17/2020 14:30      61.8      59.9       43     38.0      0.00      7.53      53.8     0.46      1022.3     2.0       E    84   8.6      SE     134     266       219       0.9       6.8      58.9      9.79
   01/17/2020 14:20      60.4      59.9       42     37.2      0.00      7.53      53.8     0.46      1022.3     3.8      SE   128   7.9     ESE     107     266       259       2.4       6.7      58.6      9.79
   01/17/2020 14:10      60.7      59.8       42     37.1      0.00      7.53      53.6     0.46      1022.4     4.0     ESE   122   9.2       E     100     266       273       2.2       6.3      58.2      9.80
   01/17/2020 14:00      61.2      60.4       41     37.0      0.00      7.53      53.6     0.46      1022.4     2.8     ENE    59   7.1     ENE      69     266       275       1.3       5.9      57.9      9.80
   01/17/2020 13:50      61.1      59.9       42     37.4      0.00      7.53      53.5     0.46      1022.3     2.6       E    90   6.2     ENE      77     266       302       1.5       5.7      57.6      9.80
   01/17/2020 13:40      60.7      59.9       42     37.2      0.00      7.53      53.5     0.46      1022.4     2.4     ENE    57   5.6      NE      43     266       310       1.2       5.5      57.1      9.81
   01/17/2020 13:30      60.8      59.8       43     37.8      0.00      7.53      53.5     0.46      1022.5     2.3     ESE   104   6.6       E      90     266       327       1.5       5.3      56.8      9.81
   01/17/2020 13:20      60.1      59.4       45     38.3      0.00      7.53      53.5     0.46      1022.6     1.9       E    93   4.3      NE      54     267       295       1.0       5.0      56.5      9.82
   01/17/2020 13:10      59.7      59.0       46     38.4      0.01      7.53      53.4     0.46      1022.6     2.5     ENE    57   5.7      NE      50     267       277       0.9       4.8      56.2      9.83
   01/17/2020 13:00      60.4      59.5       44     38.2      0.00      7.52      53.4     0.46      1022.7     2.0     ENE    74   4.4     ENE      69     267       309       1.0       4.7      55.9      9.83
   01/17/2020 12:50      60.1      59.3       45     38.1      0.00      7.52      53.4     0.46      1022.9     1.8      NE    36   4.1     NNE      31     267       355       0.6       4.5      55.6      9.84
   01/17/2020 12:40      59.8      58.7       45     38.2      0.00      7.52      53.4     0.46      1023.1     1.4     ENE    70   3.4      SE     124     267       321       0.9       4.4      55.2      9.85
   01/17/2020 12:30      58.8      57.6       47     38.1      0.00      7.52      53.4     0.46      1023.3     1.5     ENE    70   3.1      SE     144     267       355       1.0       4.3      54.8      9.86
   01/17/2020 12:20      58.1      57.1       50     39.4      0.00      7.52      53.4     0.46      1023.3     2.0      NE    55   5.2      NE      39     267       319       0.7       4.1      54.5      9.86
   01/17/2020 12:10      58.0      57.4       52     40.2      0.00      7.52      53.4     0.46      1023.5     1.8     ENE    78   4.0     ENE      71     268       300       1.0       4.0      54.2      9.87
   01/17/2020 12:00      57.5      56.6       53     40.1      0.00      7.52      53.5     0.46      1023.7     1.9     ENE    59   3.8       E      81     268       358       1.0       3.8      53.8      9.88
   01/17/2020 11:50      57.1      56.4       53     39.9      0.00      7.52      53.5     0.46      1023.8     2.0      NE    40   3.8       N       3     268       320       0.9       3.7      53.5      9.89
   01/17/2020 11:40      57.3      56.6       51     38.8      0.00      7.52      53.5     0.46      1024.0     1.6     ENE    57   3.2     ENE      73     268       237       0.5       3.5      53.1      9.90
   01/17/2020 11:30      57.1      56.5       49     37.6      0.00      7.52      53.5     0.46      1024.2     1.4     ENE    59   2.7      NE      45     268       283       0.9       3.4      52.8      9.92
   01/17/2020 11:20      56.9      55.6       48     36.6      0.00      7.52      53.6     0.46      1024.2     1.2     ENE    76   3.0       E      80     267       313       0.6       3.3      52.5      9.94
   01/17/2020 11:10      56.8      55.8       48     36.9      0.00      7.52      53.9     0.46      1024.3     2.0       N     9   4.6     NNW     330     267       306       0.6       3.2      52.4      9.95
   01/17/2020 11:00      57.0      55.5       50     37.5      0.00      7.52      54.0     0.46      1024.4     1.2     NNE    31   3.0     ENE      78     267       335       0.5       3.1      52.1      9.98
   01/17/2020 10:50      55.9      55.3       51     37.7      0.00      7.52      54.0     0.46      1024.5     1.6      NE    47   3.2      NE      50     267       346       0.8       3.0      51.8     10.00
   01/17/2020 10:40      56.0      55.1       53     38.8      0.00      7.52      54.2     0.46      1024.4     2.2      NE    56   4.1     ENE      58     267       409       0.7       2.9      51.4     10.03
   01/17/2020 10:30      56.1      55.5       50     37.5      0.00      7.52      54.2     0.46      1024.4     1.7      NE    56   3.7      NE      49     268       389       0.5       2.8      51.1     10.07
   01/17/2020 10:20      56.3      55.5       47     35.9      0.00      7.52      54.3     0.46      1024.5     1.2      NE    55   3.2      NE      37     267       368       0.5       2.7      49.5     10.14
   01/17/2020 10:10      55.7      54.2       50     36.6      0.00      7.52      54.3     0.46      1024.3     1.1       E    86   3.4     NNE      25     268       379       0.5       2.6      49.0      9.38
   01/17/2020 10:00      54.2      53.3       58     39.2      0.00      7.52      54.3     0.46      1024.1     1.2     WNW   294   2.3      SW     230     269       344       0.8       2.5      48.6      9.37
   01/17/2020 09:50      53.6      53.1       60     39.7      0.00      7.52      54.3     0.46      1024.1     1.3     WNW   289   3.0     SSW     192     269       309       1.0       2.4      48.3      9.37
   01/17/2020 09:40      53.4      52.8       64     41.1      0.00      7.52      54.3     0.46      1024.2     0.8     WSW   252   2.1     WSW     248     272       282       0.5       2.2      48.2      9.37
   01/17/2020 09:30      53.0      51.6       66     41.2      0.00      7.52      54.4     0.46      1024.1     0.3      SW   226   1.6      SW     227     280       251       0.3       2.1      47.9      9.37
   01/17/2020 09:20      51.7      50.2       70     41.5      0.00      7.52      54.4     0.46      1023.9     0.3     ENE    68   1.1     ESE     114     286       212       0.0       2.1      47.7      9.37
   01/17/2020 09:10      50.1      49.5       71     40.8      0.00      7.52      54.4     0.46      1023.8     1.4       W   273   2.7       W     264     293       190       0.8       2.1      47.5      9.37
   01/17/2020 09:00      49.8      48.7       77     42.3      0.00      7.52      54.4     0.46      1023.7     0.9     WSW   243   2.7       W     280     299       213       0.6       1.9      47.4      9.37
   01/17/2020 08:50      48.8      48.4       86     44.8      0.00      7.52      54.5     0.46      1023.6     0.4       S   174   2.2       S     182     326       200       0.2       1.8      47.2      9.37
   01/17/2020 08:40      48.7      47.0       92     45.6      0.00      7.52      54.5     0.46      1023.4     0.0     SSE   156   1.1     SSW     208     353       188       0.0       1.8      47.0      9.37
   01/17/2020 08:30      47.0      44.9       93     44.3      0.00      7.52      54.5     0.46      1023.4     0.2      SE   136   1.1     ESE     110     379       172       0.0       1.8      46.8      9.37
   01/17/2020 08:20      45.1      44.0       94     42.9      0.00      7.52      54.5     0.46      1023.3     0.7     ESE   113   1.7     ESE     113     407       121       0.2       1.8      46.6      9.37
   01/17/2020 08:10      44.1      43.3       94     42.1      0.00      7.52      54.5     0.46      1023.2     1.8     SSE   155   4.3      NE      54     429        63       1.0       1.7      46.5      9.37
   01/17/2020 08:00      43.4      42.7       94     41.6      0.00      7.52      54.5     0.46      1023.0     0.6     ESE   104   1.8     NNE      21     433        43       0.0       1.6      46.5      9.37
   01/17/2020 07:50      42.7      42.1       95     41.0      0.00      7.52      54.5     0.46      1022.9     1.1       E    83   2.0     ENE      60     431        35       0.2       1.6      46.5      9.37
   01/17/2020 07:40      42.0      41.1       95     40.2      0.00      7.52      54.6     0.46      1022.8     0.6       S   191   2.7       S     186     429        25       0.6       1.5      46.6      9.37
   01/17/2020 07:30      41.5      40.8       94     39.6      0.00      7.52      54.6     0.46      1022.7     0.2       S   183   1.4     SSE     156     426        14       0.0       1.4      46.7      9.37
   01/17/2020 07:20      41.6      40.9       94     39.8      0.00      7.52      54.6     0.46      1022.6     1.1      SE   124   2.2     ESE     110     418         6       0.3       1.4      46.8      9.37
   01/17/2020 07:10      41.7      40.9       95     39.9      0.00      7.52      54.6     0.46      1022.5     1.8      SW   222   3.2     SSW     211     430        -0       0.3       1.4      47.0      9.37
   01/17/2020 07:00      42.0      41.4       94     40.2      0.00      7.52      54.6     0.46      1022.4     1.2       S   186   2.5     SSW     213     424        -4       0.8       1.3      47.2      9.37
   01/17/2020 06:50      42.6      42.0       94     40.7      0.00      7.52      54.6     0.46      1022.2     0.7     SSW   212   1.6      SW     221     415        -6       0.1       1.2      47.4      9.37
   01/17/2020 06:40      42.8      42.5       94     41.1      0.00      7.52      54.6     0.46      1022.1     0.2     SSW   209   0.9     SSW     211     405        -7       0.0       1.2      47.6      9.37
   01/17/2020 06:30      43.6      42.7       94     41.5      0.00      7.52      54.6     0.46      1022.1     0.8       S   173   1.6      SE     144     395        -6       0.4       1.2      47.8      9.37
   01/17/2020 06:20      43.7      43.1       94     41.9      0.00      7.52      54.6     0.46      1022.0     0.5     ESE   124   1.5      SE     141     387        -7       0.0       1.1      48.0      9.37
   01/17/2020 06:10      43.8      43.0       94     41.7      0.00      7.52      54.7     0.46      1021.8     0.6     SSE   153   1.8       S     174     372        -6       0.3       1.1      48.1      9.37
   01/17/2020 06:00      44.7      43.8       94     42.6      0.00      7.52      54.7     0.46      1021.7     1.8     SSE   163   3.0      SW     225     359        -5       0.5       1.1      48.3      9.37
   01/17/2020 05:50      44.8      44.1       94     42.8      0.00      7.52      54.7     0.46      1021.6     0.9     SSW   204   2.0      SW     221     348        -6       0.8       1.0      48.5      9.37
   01/17/2020 05:40      45.5      44.7       94     43.3      0.00      7.52      54.7     0.46      1021.5     0.5     SSE   163   1.5      SE     143     340        -7       0.3       0.9      48.7      9.37
   01/17/2020 05:30      46.0      45.4       93     43.8      0.00      7.52      54.7     0.46      1021.4     0.0      SW   223   0.8      SW     218     331        -6       0.0       0.8      48.9      9.37
   01/17/2020 05:20      46.6      46.0       94     44.5      0.00      7.52      54.7     0.46      1021.3     0.8       S   187   1.2     SSW     193     325        -6       0.3       0.8      49.2      9.37
   01/17/2020 05:10      47.2      46.6       94     45.2      0.00      7.52      54.7     0.46      1021.1     0.2     SSE   149   0.8      SE     143     317        -6       0.0       0.8      49.4      9.37
   01/17/2020 05:00      47.4      47.1       94     45.5      0.00      7.52      54.7     0.46      1021.1     0.5       S   190   1.6       S     189     308        -3       0.3       0.8      49.4      9.37
   01/17/2020 04:50      47.5      47.2       94     45.6      0.00      7.52      54.7     0.46      1021.2     0.0      SW   235   0.4     WSW     246     307        -4       0.0       0.7      49.5      9.37
   01/17/2020 04:40      47.5      47.1       94     45.6      0.00      7.52      54.7     0.46      1021.1     1.3     SSW   212   2.0       S     189     305        -3       0.8       0.7      49.5      9.37
   01/17/2020 04:30      47.6      47.2       94     45.7      0.00      7.52      54.7     0.46      1021.1     0.7       S   174   1.5       S     180     304        -3       0.4       0.6      49.6      9.37
   01/17/2020 04:20      47.6      47.2       94     45.7      0.00      7.52      54.7     0.46      1021.1     0.2       E    97   0.9       E      98     305        -2       0.0       0.5      49.6      9.37
   01/17/2020 04:10      47.5      47.1       94     45.6      0.00      7.52      54.8     0.46      1021.0     0.7     SSW   210   1.4      SW     221     306        -3       0.2       0.5      49.6      9.37
   01/17/2020 04:00      47.4      47.1       94     45.6      0.00      7.52      54.8     0.46      1021.0     1.3     WSW   253   2.1     WNW     283     308        -2       0.9       0.5      49.6      9.37
   01/17/2020 03:50      47.5      47.1       94     45.6      0.00      7.52      54.8     0.46      1021.1     0.4      NW   307   1.8     NNW     338     314        -2       0.0       0.3      49.7      9.37
   01/17/2020 03:40      47.5      47.1       94     45.6      0.00      7.52      54.8     0.46      1021.1     0.0     ENE    78   0.5      NE      46     317        -2       0.0       0.3      49.7      9.37
   01/17/2020 03:30      47.6      47.1       94     45.7      0.00      7.52      54.8     0.46      1021.2     0.0     ENE    58   0.4     ENE      69     320        -2       0.0       0.3      49.7      9.37
   01/17/2020 03:20      47.5      47.1       94     45.5      0.00      7.52      54.8     0.46      1021.3     0.8     ENE    58   1.6     ENE      60     322        -2       0.0       0.3      49.7      9.37
   01/17/2020 03:10      47.4      47.0       94     45.5      0.00      7.52      54.8     0.46      1021.3     0.2     NNW   327   1.6     WNW     301     326        -2       0.0       0.3      49.7      9.37
   01/17/2020 03:00      47.3      47.0       94     45.4      0.00      7.52      54.8     0.46      1021.1     0.5       W   263   1.4     WSW     258     331        -3       0.0       0.3      49.8      9.37
   01/17/2020 02:50      47.3      46.9       94     45.4      0.00      7.52      54.8     0.46      1021.1     0.9       W   276   1.8       W     276     333        -3       0.3       0.3      49.8      9.37
   01/17/2020 02:40      47.1      46.8       94     45.2      0.00      7.52      54.8     0.46      1020.9     0.2     WNW   295   1.4     WNW     285     335        -4       0.1       0.2      49.9      9.37
   01/17/2020 02:30      47.2      46.9       94     45.3      0.00      7.52      54.8     0.46      1021.1     0.4     ESE   123   1.6      SE     125     331        -5       0.0       0.2      50.0      9.37
   01/17/2020 02:20      47.4      47.0       94     45.4      0.00      7.52      54.8     0.46      1021.1     1.2       E    96   2.4     ENE      67     323        -3       0.3       0.2      50.0      9.37
   01/17/2020 02:10      47.4      47.0       94     45.4      0.00      7.52      54.8     0.46      1021.1     0.0     ENE    79   1.1       E      93     350        -3       0.0       0.2      50.1      9.37
   01/17/2020 02:00      47.2      46.9       93     45.3      0.00      7.52      54.8     0.46      1021.0     0.3       E   100   1.7     ENE      76     358        -3       0.0       0.2      50.1      9.37
   01/17/2020 01:50      47.2      46.9       93     45.2      0.00      7.52      54.8     0.46      1020.8     0.1      SE   128   1.0     SSE     153     368        -5       0.0       0.2      50.2      9.37
   01/17/2020 01:40      47.7      47.1       93     45.5      0.00      7.52      54.8     0.46      1020.8     0.3     ENE    63   1.2     ENE      71     373        -6       0.0       0.2      50.3      9.37
   01/17/2020 01:30      48.0      47.5       93     45.9      0.00      7.52      54.8     0.46      1020.7     0.5      NE    44   1.9     ENE      57     375        -4       0.0       0.2      50.4      9.37
   01/17/2020 01:20      48.1      47.7       93     46.0      0.00      7.52      54.8     0.46      1020.7     1.1     NNE    21   2.3     ENE      64     378        -3       0.2       0.2      50.4      9.37
   01/17/2020 01:10      48.1      47.8       93     46.0      0.00      7.52      54.8     0.46      1020.5     0.2       N   352   1.7       N     352     368        -3       0.0       0.1      50.5      9.37
   01/17/2020 01:00      48.1      47.8       93     46.0      0.01      7.52      54.8     0.46      1020.3     0.6      NE    48   2.1      NE      45     455        -3       0.0       0.1      50.5      9.37
   01/17/2020 00:50      48.1      47.8       93     46.0      0.01      7.51      54.8     0.46      1020.4     1.0      NE    36   2.3       N       0     496        -3       0.2       0.1      50.5      9.36
   01/17/2020 00:40      48.2      47.8       93     46.0      0.00      7.50      54.9     0.46      1020.4     0.8      NW   309   2.8     WNW     287     383        -3       0.7       0.1      50.5      9.36
   01/17/2020 00:30      48.0      47.8       93     46.0      0.00      7.50      54.8     0.46      1020.4     0.3      NE    43   1.5      NE      52     344        -3       0.0       0.0      50.6      9.36
   01/17/2020 00:20      48.2      47.8       93     46.0      0.00      7.50      54.9     0.46      1020.5     0.4     ENE    69   1.3       E      81     345        -3       0.0       0.0      50.6      9.36
   01/17/2020 00:10      48.0      47.5       93     45.9      0.00      7.50      54.9     0.46      1020.5     0.6      NE    54   1.5      NE      52     355        -3       0.0       0.0      50.6      9.36
   01/17/2020 00:00      47.9      47.6       93     45.8      0.00      7.50      54.9     0.46      1020.5     0.7     ENE    60   1.8     ENE      63     365        -3       0.0      24.2      50.6      9.36
   01/16/2020 23:50      47.9      47.6       93     45.7      0.00      7.50      54.9     0.46      1020.6     0.2      NE    54   2.8     ENE      68     380        -4       0.1      24.2      50.7      9.36
   01/16/2020 23:40      48.0      47.5       93     45.8      0.02      7.50      54.9     0.46      1020.5     2.1     ENE    67   5.2     ENE      64     459        -3       0.8      24.1      50.9      9.36
   01/16/2020 23:30      48.1      47.9       92     45.9      0.02      7.48      54.9     0.46      1021.0     2.5     NNW   348   5.9       N      10     496        -3       0.3      24.0      51.0      9.34
   01/16/2020 23:20      48.3      47.9       92     46.0      0.00      7.46      54.9     0.46      1020.7     1.2      NW   305   3.7       E      88     407        -3       1.0      24.0      51.0      9.33
   01/16/2020 23:10      48.5      48.2       92     46.2      0.00      7.46      54.9     0.46      1020.4     0.3     ENE    57   1.8      NE      45     425        -3       0.0      23.8      51.0      9.32
   01/16/2020 23:00      48.5      48.2       92     46.2      0.01      7.46      54.9     0.46      1020.3     0.9     ENE    57   2.0      NE      53     451        -3       0.0      23.8      51.1      9.32
   01/16/2020 22:50      48.5      48.2       92     46.1      0.00      7.45      54.9     0.46      1020.3     1.0     ENE    60   2.1     ENE      66     447        -3       0.0      23.8      51.1      9.32
   01/16/2020 22:40      48.5      48.2       92     46.0      0.00      7.45      54.9     0.46      1020.2     0.4     ENE    64   1.6     ENE      78     462        -3       0.0      23.8      51.2      9.32
   01/16/2020 22:30      48.3      48.0       91     45.8      0.01      7.45      54.9     0.46      1020.0     0.7     ENE    60   1.9      NE      46     382        -3       0.0      23.8      51.2      9.31
   01/16/2020 22:20      48.3      47.9       91     45.6      0.00      7.44      54.9     0.46      1020.0     0.8     ENE    67   2.4     ENE      63     389        -4       0.2      23.8      51.3      9.31
   01/16/2020 22:10      48.2      47.9       91     45.5      0.00      7.44      54.9     0.46      1020.1     1.0     ENE    61   2.5      NE      34     414        -4       0.1      23.8      51.3      9.31
   01/16/2020 22:00      48.3      47.9       90     45.4      0.00      7.44      54.9     0.46      1020.0     1.4       E    79   3.6     ENE      69     396        -4       0.3      23.7      51.3      9.31
   01/16/2020 21:50      48.4      48.1       90     45.5      0.00      7.44      54.9     0.46      1020.0     0.7     ENE    66   1.7     ENE      67     430        -4       0.0      23.7      51.4      9.31
   01/16/2020 21:40      48.5      48.0       90     45.3      0.00      7.44      54.8     0.46      1019.9     0.8     ENE    74   3.1     ENE      69     438        -4       0.1      23.7      51.5      9.31
   01/16/2020 21:30      48.5      48.1       89     45.2      0.01      7.44      54.9     0.46      1019.8     0.5     ENE    73   1.9     ENE      66     453        -4       0.0      23.7      51.5      9.30
   01/16/2020 21:20      48.3      48.0       88     45.0      0.00      7.43      54.9     0.46      1019.7     1.0     ESE   116   2.6      SE     132     440        -4       0.4      23.7      51.5      9.30
   01/16/2020 21:10      48.4      48.1       88     44.8      0.00      7.43      54.8     0.46      1019.6     0.6     ESE   120   3.0       S     170     355        -5       0.1      23.6      51.5      9.30
   01/16/2020 21:00      48.5      48.1       87     44.5      0.00      7.43      54.8     0.46      1019.6     0.8       E    89   1.8      SE     140     424        -5       0.2      23.6      51.6      9.30
   01/16/2020 20:50      48.6      48.2       85     44.1      0.01      7.43      54.8     0.46      1019.5     0.9       S   185   3.0     SSW     198     410        -5       0.4      23.6      51.7      9.30
   01/16/2020 20:40      48.6      48.3       84     43.7      0.00      7.42      54.8     0.46      1019.3     1.1     SSW   201   2.3     SSW     211     406        -6       0.6      23.5      51.7      9.30
   01/16/2020 20:30      48.8      48.4       82     43.4      0.00      7.42      54.8     0.46      1019.2     1.4     SSW   210   2.5     SSE     158     374        -6       0.8      23.4      51.8      9.29
   01/16/2020 20:20      49.1      48.6       80     43.0      0.00      7.42      54.8     0.46      1019.0     1.6       S   176   3.9     SSE     158     367        -7       1.1      23.2      51.9      9.29
   01/16/2020 20:10      49.4      48.8       78     42.5      0.00      7.42      54.8     0.46      1018.9     2.9      SE   145   5.2      SE     124     333        -8       1.6      23.1      52.0      9.29
   01/16/2020 20:00      49.8      49.1       76     42.1      0.00      7.42      54.8     0.46      1018.8     3.1      SE   131   5.5      SE     146     314       -10       1.7      22.8      52.1      9.30
   01/16/2020 19:50      50.3      49.8       71     41.0      0.00      7.42      54.8     0.46      1018.8     3.6     SSE   167   7.0     SSW     206     284       -12       2.3      22.5      52.3      9.30
   01/16/2020 19:40      50.5      50.3       68     40.2      0.00      7.42      54.8     0.46      1018.5     4.1     SSE   165   7.9       S     171     271       -13       2.6      22.1      52.5      9.30
   01/16/2020 19:30      50.7      50.4       66     39.8      0.00      7.42      54.8     0.46      1018.2     4.1     SSE   161   8.4     SSW     195     270       -13       2.6      21.7      52.5      9.30
   01/16/2020 19:20      50.9      50.5       66     39.8      0.00      7.42      54.8     0.46      1018.1     4.4     SSE   158   9.6     SSW     192     270       -14       2.6      21.3      52.7      9.30
   01/16/2020 19:10      50.9      50.5       66     39.8      0.00      7.42      54.8     0.46      1018.2     4.5     SSE   158   8.5     SSE     159     270       -13       2.8      20.8      52.8      9.30
   01/16/2020 19:00      50.9      50.5       66     39.8      0.00      7.42      54.7     0.46      1018.2     3.0     SSE   149   6.2       S     170     270       -13       1.7      20.3      52.9      9.30
   01/16/2020 18:50      50.7      50.4       66     39.7      0.00      7.42      54.7     0.46      1018.3     3.4     SSE   162   7.3     SSE     158     270       -14       2.3      20.1      53.0      9.30
   01/16/2020 18:40      50.7      50.4       66     39.5      0.00      7.42      54.7     0.46      1018.1     3.6     SSE   168   7.7     ESE     123     270       -14       2.4      19.7      53.1      9.30
   01/16/2020 18:30      50.6      50.4       66     39.4      0.00      7.42      54.7     0.46      1018.0     3.1      SE   136   6.2      SE     138     270       -18       2.2      19.3      53.2      9.30
   01/16/2020 18:20      50.7      50.4       66     39.6      0.00      7.42      54.7     0.46      1018.0     3.4     ESE   119   6.4      SE     139     270       -18       1.7      18.9      53.3      9.30
   01/16/2020 18:10      50.7      50.4       66     39.8      0.00      7.42      54.6     0.46      1018.1     2.9     ESE   120   6.3       E      88     270       -19       1.5      18.6      53.4      9.30
   01/16/2020 18:00      50.7      50.4       67     39.9      0.00      7.42      54.6     0.46      1018.0     2.2      SE   124   5.8     ESE     123     270       -17       1.2      18.4      53.5      9.30
   01/16/2020 17:50      50.9      50.5       66     40.0      0.00      7.42      54.6     0.46      1018.3     2.0      SE   136   4.3      SE     129     270       -20       1.3      18.2      53.6      9.30
   01/16/2020 17:40      51.0      50.7       67     40.2      0.00      7.42      54.6     0.46      1018.3     2.4      SE   133   4.9     ESE     106     270       -25       1.1      18.0      53.7      9.30
   01/16/2020 17:30      51.0      50.7       66     40.0      0.00      7.42      54.5     0.46      1018.2     2.6      SE   141   4.4     SSE     160     270       -29       1.3      17.8      53.8      9.30
   01/16/2020 17:20      51.1      50.7       66     40.0      0.00      7.42      54.5     0.46      1018.1     2.7     SSE   163   4.6      SE     136     270       -37       1.7      17.6      54.0      9.30
   01/16/2020 17:10      51.4      50.9       66     40.2      0.00      7.42      54.5     0.46      1018.0     2.2       S   175   4.3       S     189     270       -43       1.4      17.3      54.2      9.31
   01/16/2020 17:00      52.0      51.3       66     40.5      0.00      7.42      54.4     0.46      1017.9     2.2     SSW   196   4.5     SSW     193     270       -36       1.5      17.1      54.4      9.31
   01/16/2020 16:50      52.0      51.7       66     40.7      0.00      7.42      54.4     0.46      1017.8     2.0       S   170   4.7      SW     217     269       -26       1.3      16.8      54.6      9.31
   01/16/2020 16:40      52.2      51.7       65     40.7      0.00      7.42      54.4     0.46      1017.8     3.4       S   191   7.4      SW     214     269        -8       2.6      16.6      54.8      9.31
   01/16/2020 16:30      52.5      52.1       65     41.0      0.00      7.42      54.4     0.46      1017.6     3.0       S   185   5.4       S     170     269        -8       2.3      16.2      54.9      9.31
   01/16/2020 16:20      52.9      52.3       65     41.0      0.00      7.42      54.3     0.46      1017.5     3.3       S   170   6.8       S     188     269         3       2.4      15.8      55.0      9.31
   01/16/2020 16:10      53.0      52.4       64     40.8      0.00      7.42      54.3     0.46      1017.5     4.6       S   182   7.9       S     173     269         3       3.6      15.4      55.2      9.31
   01/16/2020 16:00      53.4      52.9       63     40.9      0.00      7.42      54.3     0.46      1017.5     4.3       S   173   8.0     SSE     152     269        -6       3.5      14.8      55.3      9.31
   01/16/2020 15:50      54.0      53.2       61     40.5      0.00      7.42      54.2     0.46      1017.4     4.7       S   177   9.5     SSW     197     269       -18       3.6      14.2      55.5      9.31
   01/16/2020 15:40      55.8      54.0       59     41.2      0.00      7.42      54.2     0.46      1017.3     4.9       S   180   9.7       S     188     269        29       3.6      13.6      55.5      9.31
   01/16/2020 15:30      55.7      55.2       58     41.1      0.00      7.42      54.2     0.46      1017.2     5.0     SSE   153   9.4     SSE     152     269       130       3.0      13.0      55.4      9.31
   01/16/2020 15:20      55.4      54.1       61     41.6      0.00      7.42      54.1     0.46      1017.2     4.0     SSE   151   9.5      SE     136     269       127       2.3      12.5      55.3      9.32
   01/16/2020 15:10      55.3      54.3       63     42.4      0.00      7.42      54.1     0.46      1017.2     3.9     SSE   158   7.5     ESE     122     269        12       2.5      12.1      55.2      9.32
   01/16/2020 15:00      56.2      55.1       62     42.7      0.00      7.42      54.1     0.46      1017.1     3.4     SSE   150   6.8       S     188     269       115       2.1      11.7      55.1      9.32
   01/16/2020 14:50      55.7      54.5       63     42.6      0.00      7.42      54.0     0.46      1017.1     3.3      SE   128   6.9      SE     144     269       198       1.9      11.4      54.9      9.32
   01/16/2020 14:40      54.8      54.1       64     42.5      0.00      7.42      54.0     0.46      1017.1     3.4      SE   146   7.9      SE     133     269        42       1.6      11.0      54.8      9.32
   01/16/2020 14:30      55.1      54.5       64     42.9      0.00      7.42      54.0     0.46      1017.2     3.5     SSE   155   7.1      SE     126     269        42       2.0      10.8      54.8      9.32
   01/16/2020 14:20      56.6      54.8       63     43.4      0.00      7.42      53.9     0.46      1017.1     4.4      SE   146   9.9     SSE     147     269       244       2.5      10.4      54.6      9.32
   01/16/2020 14:10      54.8      54.5       64     42.8      0.00      7.42      53.9     0.46      1017.1     4.1     SSE   157   6.9      SE     145     269       141       3.0      10.0      54.4      9.32
   01/16/2020 14:00      55.2      54.7       63     42.5      0.00      7.42      53.9     0.46      1017.0     5.0       S   169   8.3     SSW     209     269        79       3.3       9.5      54.2      9.32
   01/16/2020 13:50      55.5      54.6       62     42.3      0.00      7.42      53.9     0.46      1017.0     4.3       S   172   7.9     SSW     196     269        77       3.1       9.0      54.0      9.32
   01/16/2020 13:40      56.1      55.1       61     42.1      0.00      7.42      53.8     0.46      1017.0     4.1     SSE   154   7.4      SE     141     269        71       2.5       8.4      53.8      9.32
   01/16/2020 13:30      57.2      56.2       59     42.3      0.00      7.42      53.8     0.46      1016.9     4.7     SSE   146   9.9      SE     127     269       147       2.7       8.0      53.6      9.32
   01/16/2020 13:20      57.1      56.4       57     41.9      0.00      7.42      53.8     0.46      1017.0     4.3     SSW   193   8.5       S     182     269       319       3.3       7.6      53.2      9.32
   01/16/2020 13:10      56.5      55.5       55     40.0      0.00      7.42      53.8     0.46      1017.1     4.1     SSE   151   9.0      SE     140     269       228       2.7       7.0      52.8      9.32
   01/16/2020 13:00      57.0      56.2       55     40.8      0.00      7.42      53.7     0.46      1017.2     4.2       S   170   9.0     SSE     164     269       159       2.8       6.6      52.4      9.32
   01/16/2020 12:50      57.6      56.6       54     40.6      0.00      7.42      53.7     0.46      1017.2     5.5     SSE   156   9.6       S     180     268       321       3.7       6.1      52.1      9.32
   01/16/2020 12:40      57.0      56.1       56     41.3      0.00      7.42      53.7     0.46      1017.2     3.8     SSE   158   7.2     SSW     195     269       266       2.6       5.5      51.7      9.32
   01/16/2020 12:30      56.5      55.7       57     40.9      0.00      7.42      53.7     0.46      1017.2     4.3       S   183   8.9     SSW     209     269       197       3.2       5.1      51.2      9.32
   01/16/2020 12:20      57.5      56.3       55     40.9      0.00      7.42      53.7     0.46      1017.2     3.7       S   171   7.3     SSW     198     269       142       2.3       4.5      50.9      9.32
   01/16/2020 12:10      57.6      56.2       55     40.9      0.00      7.42      53.7     0.46      1017.3     4.3     SSW   202   7.1     SSW     200     269       287       3.4       4.1      50.4      9.32
   01/16/2020 12:00      57.6      56.4       55     41.2      0.00      7.42      53.7     0.46      1017.4     4.3     SSW   195   8.3      SW     218     269       463       3.3       3.6      50.0      9.32
   01/16/2020 11:50      57.5      55.7       56     41.3      0.00      7.42      53.7     0.46      1017.5     4.0       S   170   9.7      SW     226     269       454       3.0       3.0      49.5      9.32
   01/16/2020 11:40      56.6      55.9       58     41.7      0.00      7.42      53.7     0.46      1017.6     2.1      SE   127   5.5     ENE      63     269       189       1.3       2.5      49.1      9.32
   01/16/2020 11:30      55.7      54.4       61     41.8      0.00      7.42      53.6     0.46      1017.8     1.4      SE   133   5.6      SE     135     270       233       0.8       2.3      48.8      9.32
   01/16/2020 11:20      54.7      54.1       67     43.7      0.00      7.42      53.6     0.46      1017.9     3.0     ESE   113   6.8     ENE      69     272       166       2.2       2.2      48.5      9.32
   01/16/2020 11:10      54.3      53.4       70     44.4      0.00      7.42      53.6     0.46      1018.1     1.1      NE    56   3.8     ENE      57     285       156       0.7       1.8      48.2      9.32
   01/16/2020 11:00      53.7      53.1       72     44.7      0.00      7.42      53.6     0.46      1018.3     0.8     NNE    12   2.5      NE      39     293       123       0.2       1.7      47.9      9.32
   01/16/2020 10:50      53.3      53.0       73     44.9      0.00      7.42      53.6     0.46      1018.5     0.9     WSW   242   2.5     NNW     329     299       122       0.8       1.7      47.8      9.32
   01/16/2020 10:40      53.3      52.6       74     45.0      0.00      7.42      53.6     0.46      1018.6     1.3     NNE    18   3.3      NE      50     302       144       0.5       1.5      47.5      9.32
   01/16/2020 10:30      53.1      52.3       75     45.1      0.00      7.42      53.6     0.46      1018.6     0.3     NNE    13   2.1       N       0     307       118       0.2       1.5      47.3      9.32
   01/16/2020 10:20      52.8      51.7       76     45.1      0.00      7.42      53.6     0.46      1018.6     0.8     NNE    26   3.2     NNE      24     310       119       0.4       1.4      47.1      9.32
   01/16/2020 10:10      52.0      51.7       78     45.1      0.00      7.42      53.6     0.46      1018.6     0.9     NNE    30   2.3     NNE      14     312       140       0.4       1.3      46.9      9.32
   01/16/2020 10:00      51.8      51.2       79     45.3      0.00      7.42      53.6     0.46      1018.6     1.0     ENE    64   2.1     ENE      78     314       140       0.3       1.3      46.7      9.32
   01/16/2020 09:50      51.5      50.8       81     45.4      0.00      7.42      53.7     0.46      1018.5     0.7      NE    56   2.1       E     100     316       113       0.3       1.2      46.5      9.32
   01/16/2020 09:40      50.9      50.3       82     45.5      0.00      7.42      53.6     0.46      1018.4     0.4     NNE    14   1.9      NE      45     318       110       0.0       1.2      46.3      9.32
   01/16/2020 09:30      50.5      50.2       83     45.5      0.00      7.42      53.7     0.46      1018.3     0.4     NNE    11   1.7     NNE      14     319        79       0.1       1.2      46.1      9.32
   01/16/2020 09:20      50.4      49.8       84     45.6      0.00      7.42      53.7     0.46      1018.2     0.5     NNE    31   1.5     NNE      17     320        72       0.0       1.2      46.0      9.32
   01/16/2020 09:10      50.0      49.6       85     45.5      0.00      7.42      53.7     0.46      1018.1     0.7     NNE    30   1.8      NE      46     322        76       0.0       1.2      45.9      9.32
   01/16/2020 09:00      49.9      49.3       86     45.8      0.00      7.42      53.7     0.46      1017.9     0.3     ENE    58   1.5     NNW     344     327        77       0.0       1.1      45.8      9.32
   01/16/2020 08:50      49.5      48.9       88     45.7      0.00      7.42      53.7     0.46      1017.8     0.2      SE   145   0.9       E      94     333        69       0.1       1.1      45.7      9.32
   01/16/2020 08:40      49.1      48.7       88     45.5      0.00      7.42      53.7     0.46      1017.7     0.8      SE   128   2.1      SE     137     339        60       0.2       1.1      45.6      9.32
   01/16/2020 08:30      48.9      48.2       89     45.4      0.00      7.42      53.8     0.46      1017.6     0.4     ESE   107   1.2       E      97     348        60       0.0       1.1      45.5      9.32
   01/16/2020 08:20      48.5      48.0       89     45.1      0.00      7.42      53.8     0.46      1017.5     1.2       S   173   2.3       S     186     355        46       0.7       1.1      45.4      9.32
   01/16/2020 08:10      48.1      47.6       89     44.8      0.00      7.42      53.8     0.46      1017.4     0.4     SSE   164   1.1     SSE     164     359        39       0.2       1.0      45.3      9.32
   01/16/2020 08:00      47.8      47.1       87     43.9      0.00      7.42      53.8     0.46      1017.3     1.0       S   175   2.5       S     184     361        40       0.5       0.9      45.2      9.32
   01/16/2020 07:50      47.3      46.8       87     43.2      0.00      7.42      53.8     0.46      1017.2     0.9      SE   139   2.3      SE     138     363        19       0.1       0.9      45.1      9.32
   01/16/2020 07:40      47.0      46.3       87     42.9      0.00      7.42      53.8     0.46      1017.3     0.7     SSE   163   1.8     SSE     149     368        15       0.3       0.8      45.1      9.32
   01/16/2020 07:30      46.5      45.9       88     42.8      0.00      7.42      53.8     0.46      1017.2     1.3     SSE   162   2.6     SSE     165     371        10       0.5       0.8      45.0      9.32
   01/16/2020 07:20      46.0      45.4       89     42.7      0.00      7.42      53.9     0.46      1017.1     0.8     SSE   150   1.7      SE     142     376         5       0.0       0.7      45.0      9.32
   01/16/2020 07:10      45.6      45.0       89     42.5      0.00      7.42      53.9     0.46      1017.1     0.5       S   188   1.4     SSW     195     380         2       0.0       0.7      44.9      9.32
   01/16/2020 07:00      45.2      44.7       90     42.1      0.00      7.42      53.9     0.46      1017.0     0.4     SSE   159   1.5      SE     145     382        -0       0.0       0.7      44.9      9.32
   01/16/2020 06:50      44.8      44.4       90     42.0      0.00      7.42      53.9     0.46      1017.0     0.8     SSE   165   2.1      SE     145     385        -1       0.1       0.7      44.9      9.32
   01/16/2020 06:40      44.7      44.3       91     42.0      0.00      7.42      53.9     0.46      1017.1     0.7      SW   234   1.3     SSE     149     388        -0       0.2       0.7      44.9      9.32
   01/16/2020 06:30      44.4      44.1       92     42.1      0.00      7.42      53.9     0.46      1017.3     0.6       W   272   2.5       W     270     391        -0       0.3       0.6      44.8      9.32
   01/16/2020 06:20      44.3      44.0       93     42.1      0.00      7.42      54.0     0.46      1017.2     0.5     WNW   298   3.2     WSW     255     395         0       0.2       0.6      44.8      9.32
   01/16/2020 06:10      44.3      43.9       93     42.2      0.00      7.42      54.0     0.46      1017.1     1.3       W   275   2.1     WSW     256     399         0       0.5       0.6      44.8      9.32
   01/16/2020 06:00      44.2      43.8       93     42.2      0.00      7.42      54.0     0.46      1016.8     1.0     WNW   298   2.5     WNW     291     402         0       0.0       0.5      44.7      9.32
   01/16/2020 05:50      44.1      43.6       94     42.1      0.00      7.42      54.0     0.46      1016.7     0.7      NW   307   1.7      NW     308     405         0       0.0       0.5      44.7      9.32
   01/16/2020 05:40      43.8      43.3       94     41.9      0.00      7.42      54.0     0.46      1016.5     0.3     NNW   329   1.8      NW     307     406        -0       0.0       0.5      44.7      9.32
   01/16/2020 05:30      43.5      43.1       94     41.6      0.00      7.42      54.1     0.46      1016.6     0.3     ESE   109   1.3      SE     129     408        -0       0.0       0.5      44.7      9.32
   01/16/2020 05:20      43.4      43.1       94     41.6      0.00      7.42      54.1     0.46      1016.9     0.3       E    97   1.7      SE     128     411        -0       0.0       0.5      44.6      9.32
   01/16/2020 05:10      43.3      43.0       94     41.6      0.00      7.42      54.1     0.46      1017.0     0.0       N     0   0.0      NE      35     413        -0       0.0       0.5      44.6      9.32
   01/16/2020 05:00      43.5      43.0       94     41.6      0.00      7.42      54.2     0.46      1017.1     0.3      NE    48   1.1     ENE      60     415        -0       0.0       0.5      44.6      9.32
   01/16/2020 04:50      43.5      42.9       94     41.6      0.00      7.42      54.2     0.46      1017.2     0.1      SE   128   1.1      SE     133     417        -0       0.0       0.5      44.6      9.32
   01/16/2020 04:40      43.2      42.5       94     41.2      0.00      7.42      54.2     0.46      1017.2     0.0       N     0   0.0     ENE      60     420        -0       0.0       0.5      44.5      9.32
   01/16/2020 04:30      42.7      42.4       94     41.0      0.00      7.42      54.3     0.46      1017.2     0.0     ENE    61   0.7     ENE      61     422         0       0.0       0.5      44.5      9.32
   01/16/2020 04:20      42.6      42.1       95     40.9      0.00      7.42      54.3     0.46      1017.2     0.3     SSE   147   1.1      SE     139     425        -0       0.0       0.5      44.5      9.32
   01/16/2020 04:10      42.2      41.6       95     40.5      0.00      7.42      54.3     0.46      1017.2     0.4     SSE   164   1.4      SE     138     429        -2       0.0       0.5      44.5      9.32
   01/16/2020 04:00      41.8      40.7       95     39.8      0.00      7.42      54.3     0.46      1017.1     0.8       S   180   2.1     SSW     198     432        -3       0.3       0.5      44.5      9.32
   01/16/2020 03:50      40.8      40.4       95     39.1      0.00      7.42      54.4     0.46      1017.0     0.2      SE   136   1.1      SE     141     434        -3       0.0       0.4      44.5      9.32
   01/16/2020 03:40      40.6      39.9       95     38.9      0.00      7.42      54.4     0.46      1017.0     0.1      SE   138   0.9      SE     133     437        -0       0.0       0.4      44.5      9.32
   01/16/2020 03:30      40.0      39.4       95     38.4      0.00      7.42      54.4     0.46      1017.0     0.2     SSW   203   1.7      SE     139     442        -2       0.1       0.4      44.5      9.32
   01/16/2020 03:20      39.6      39.0       95     37.9      0.00      7.42      54.5     0.46      1017.0     0.9       S   182   2.9     SSE     151     454        -7       0.2       0.4      44.5      9.32
   01/16/2020 03:10      39.4      38.9       94     37.7      0.00      7.42      54.5     0.46      1017.1     0.3       S   172   1.3     SSE     150     468       -14       0.2       0.4      44.6      9.32
   01/16/2020 03:00      39.6      38.5       95     37.8      0.00      7.42      54.5     0.46      1017.1     0.0     NNE    28   0.7       N       9     470       -16       0.0       0.3      44.8      9.32
   01/16/2020 02:50      38.9      38.0       94     36.8      0.00      7.42      54.5     0.46      1017.2     0.5     SSE   156   1.7     SSE     159     466       -16       0.2       0.3      44.9      9.32
   01/16/2020 02:40      39.1      38.5       94     37.3      0.00      7.42      54.5     0.46      1017.2     1.0       S   177   2.9     SSW     203     465       -16       0.9       0.3      45.2      9.32
   01/16/2020 02:30      39.2      38.5       94     37.3      0.00      7.42      54.6     0.46      1017.2     0.4       S   172   1.1     SSE     149     464       -16       0.2       0.1      45.4      9.32
   01/16/2020 02:20      38.6      38.0       94     36.7      0.00      7.42      54.6     0.46      1017.2     0.3     SSE   162   1.2     SSE     147     458       -16       0.0       0.1      45.6      9.32
   01/16/2020 02:10      39.7      38.5       94     37.5      0.00      7.42      54.6     0.46      1017.2     0.4     SSE   158   1.1     SSE     147     456       -17       0.1       0.1      45.8      9.32
   01/16/2020 02:00      39.6      39.2       94     37.8      0.00      7.42      54.6     0.46      1017.1     0.1     SSE   168   0.8       S     169     451       -17       0.0       0.0      46.0      9.32
   01/16/2020 01:50      40.1      39.5       94     38.2      0.00      7.42      54.7     0.46      1017.0     0.0       N     0   0.0       S     170     448       -18       0.0       0.0      46.2      9.32
   01/16/2020 01:40      39.8      39.4       94     37.9      0.00      7.42      54.7     0.46      1016.8     0.4     SSE   158   0.9     SSE     154     447       -17       0.0       0.0      46.4      9.32
   01/16/2020 01:30      40.3      39.4       94     38.1      0.00      7.42      54.7     0.46      1016.8     0.4     SSE   160   1.0     SSE     162     446       -18       0.0       0.0      46.6      9.32
   01/16/2020 01:20      40.3      39.5       93     38.3      0.00      7.42      54.7     0.46      1016.7     0.2      SE   129   1.2      SE     132     439       -19       0.0       0.0      46.8      9.32
   01/16/2020 01:10      40.3      39.6       93     38.1      0.00      7.42      54.8     0.46      1016.5     0.2     WNW   292   0.9     WNW     303     428       -18       0.0       0.0      47.0      9.32
   01/16/2020 01:00      40.4      39.9       93     38.3      0.00      7.42      54.8     0.46      1016.5     0.2     SSE   149   0.8      SE     145     423       -19       0.0       0.0      47.1      9.32
   01/16/2020 00:50      40.9      40.2       93     38.6      0.00      7.42      54.8     0.46      1016.4     0.2      SE   138   0.9     SSE     163     423       -19       0.0       0.0      47.4      9.32
   01/16/2020 00:40      41.1      40.5       93     39.0      0.00      7.42      54.8     0.46      1016.5     0.3      SE   142   1.5      SE     142     422       -19       0.2       0.0      47.5      9.32
   01/16/2020 00:30      41.5      40.8       93     39.3      0.00      7.42      54.8     0.46      1016.6     0.4     SSE   157   1.0     SSE     153     417       -19       0.2       0.0      47.8      9.32
   01/16/2020 00:20      41.8      41.2       93     39.6      0.00      7.42      54.9     0.46      1016.6     0.0     SSE   153   0.7     SSE     153     415       -19       0.0       0.0      48.0      9.32
   01/16/2020 00:10      42.1      41.7       93     40.0      0.00      7.42      54.9     0.46      1016.6     0.0       N     0   0.0     SSE     150     411       -19       0.0       0.0      48.2      9.32
   01/16/2020 00:00      41.9      41.0       93     39.5      0.00      7.42      54.9     0.46      1016.6     0.6     SSE   152   1.0     SSE     150     407       -20       0.0       8.6      48.4      9.33
   01/15/2020 23:50      42.3      41.3       93     39.8      0.00      7.42      54.9     0.46      1016.7     0.9      SE   146   1.5      SE     145     404       -20       0.0       8.6      48.6      9.33
   01/15/2020 23:40      42.1      41.6       93     40.0      0.00      7.42      54.9     0.46      1016.8     0.0       N     0   0.0      SE     142     399       -20       0.0       8.6      48.8      9.33
   01/15/2020 23:30      42.4      41.8       93     40.1      0.00      7.42      54.9     0.46      1016.9     0.5     SSE   146   1.7      SE     142     396       -20       0.2       8.6      49.0      9.33
   01/15/2020 23:20      42.5      42.2       93     40.4      0.00      7.42      54.9     0.46      1017.0     0.7     SSE   153   1.5      SE     141     391       -20       0.1       8.6      49.2      9.33
   01/15/2020 23:10      42.7      42.2       93     40.4      0.00      7.42      54.9     0.46      1017.0     0.8     SSE   151   1.6      SE     141     386       -21       0.3       8.6      49.4      9.33
   01/15/2020 23:00      42.7      42.2       92     40.3      0.00      7.42      54.9     0.46      1017.1     0.7     SSE   154   1.4      SE     141     393       -21       0.3       8.5      49.6      9.33
   01/15/2020 22:50      43.2      42.4       92     40.4      0.00      7.42      54.9     0.46      1017.1     0.6     SSE   152   1.3     SSE     149     385       -22       0.1       8.5      49.8      9.33
   01/15/2020 22:40      43.3      42.6       92     40.8      0.00      7.42      55.0     0.46      1017.1     0.4     SSE   157   1.2     SSE     165     377       -22       0.0       8.4      50.0      9.33
   01/15/2020 22:30      43.8      42.7       91     41.0      0.00      7.42      55.0     0.46      1017.1     0.7     SSE   161   1.2      SE     144     369       -22       0.0       8.4      50.3      9.33
   01/15/2020 22:20      43.5      42.9       91     40.7      0.00      7.42      55.0     0.46      1017.1     0.4     SSE   164   0.9     SSE     147     361       -23       0.0       8.4      50.5      9.33
   01/15/2020 22:10      44.0      43.2       91     41.1      0.00      7.42      55.0     0.46      1016.9     0.5     SSE   165   1.1     SSE     156     355       -23       0.0       8.4      50.8      9.33
   01/15/2020 22:00      44.2      43.3       90     40.9      0.00      7.42      55.0     0.46      1016.8     0.0     SSE   150   0.5     SSE     150     348       -25       0.0       8.4      51.0      9.33
   01/15/2020 21:50      44.9      44.1       90     41.7      0.00      7.42      55.0     0.46      1016.6     0.0     SSE   155   0.8     SSE     149     342       -25       0.0       8.4      51.2      9.33
   01/15/2020 21:40      44.8      44.3       89     41.6      0.00      7.42      55.0     0.46      1016.5     0.5     SSE   161   1.0     SSE     158     336       -25       0.0       8.4      51.4      9.33
   01/15/2020 21:30      45.3      44.6       89     41.9      0.00      7.42      55.0     0.46      1016.5     0.2       S   173   1.1     SSE     157     329       -27       0.0       8.4      51.7      9.33
   01/15/2020 21:20      45.5      44.9       89     42.1      0.00      7.42      55.0     0.46      1016.3     0.7      SW   217   1.2      SW     230     324       -28       0.2       8.4      51.9      9.33
   01/15/2020 21:10      45.4      44.9       88     41.9      0.00      7.42      55.0     0.46      1016.2     0.6     SSE   153   1.4       S     186     320       -31       0.3       8.4      52.1      9.33
   01/15/2020 21:00      45.8      45.0       88     42.0      0.00      7.42      55.0     0.46      1016.2     0.3     SSE   148   1.1      SE     144     315       -33       0.0       8.3      52.3      9.33
   01/15/2020 20:50      46.1      45.4       87     42.2      0.00      7.42      55.0     0.46      1016.1     0.9       S   171   1.8       S     190     311       -35       0.5       8.3      52.5      9.33
   01/15/2020 20:40      46.0      45.6       86     41.9      0.00      7.42      55.0     0.46      1016.0     0.3       S   177   0.9       S     184     306       -39       0.0       8.2      52.8      9.33
   01/15/2020 20:30      46.1      45.7       85     41.8      0.00      7.42      54.9     0.46      1015.9     0.2     ESE   119   1.2      SE     132     302       -43       0.1       8.2      53.0      9.33
   01/15/2020 20:20      46.9      46.0       85     42.0      0.00      7.42      54.9     0.46      1015.8     0.6      SE   143   1.3      SE     136     295       -44       0.0       8.2      53.3      9.33
   01/15/2020 20:10      47.4      46.8       84     42.5      0.00      7.42      54.9     0.46      1015.8     0.2     SSE   162   0.9     SSE     169     290       -47       0.0       8.2      53.5      9.33
   01/15/2020 20:00      47.3      46.9       83     42.3      0.00      7.42      54.9     0.46      1015.8     0.7     SSE   153   1.2     SSE     164     285       -51       0.1       8.2      53.7      9.33
   01/15/2020 19:50      47.6      47.1       83     42.5      0.00      7.42      54.9     0.46      1015.7     1.2     SSE   156   2.1      SE     141     282       -54       0.4       8.2      53.9      9.33
   01/15/2020 19:40      47.9      47.1       82     42.3      0.00      7.42      54.8     0.46      1015.7     0.4      SE   145   1.3      SE     131     280       -57       0.0       8.1      54.2      9.33
   01/15/2020 19:30      48.5      47.7       82     42.8      0.00      7.42      54.8     0.46      1015.7     0.4     SSE   146   1.2      SE     141     276       -58       0.0       8.1      54.4      9.34
   01/15/2020 19:20      48.6      48.2       81     42.9      0.00      7.42      54.8     0.46      1015.7     0.6     SSE   163   1.3     SSE     154     269       -59       0.1       8.1      54.6      9.34
   01/15/2020 19:10      49.0      48.3       80     42.7      0.00      7.42      54.7     0.46      1015.8     0.7     SSE   148   1.8      SE     141     266       -62       0.0       8.1      54.9      9.34
   01/15/2020 19:00      49.0      48.7       79     42.7      0.00      7.42      54.7     0.46      1015.7     0.5     SSE   159   1.2     SSE     156     267       -62       0.0       8.1      55.1      9.34
   01/15/2020 18:50      49.5      48.6       77     42.2      0.00      7.42      54.7     0.46      1015.7     0.2     SSE   150   1.1      SE     144     269       -63       0.0       8.1      55.3      9.34
   01/15/2020 18:40      50.4      49.3       76     42.7      0.00      7.42      54.6     0.46      1015.7     0.5     SSE   161   1.1     SSE     166     269       -63       0.1       8.1      55.6      9.34
   01/15/2020 18:30      50.9      50.3       75     42.9      0.00      7.42      54.6     0.46      1015.7     0.4       S   176   1.3     SSW     205     271       -64       0.1       8.0      55.8      9.34
   01/15/2020 18:20      51.1      50.7       75     43.3      0.00      7.42      54.5     0.46      1015.7     0.5       S   188   1.6      SW     224     271       -67       0.3       8.0      56.1      9.34
   01/15/2020 18:10      52.3      50.8       72     42.9      0.00      7.42      54.5     0.46      1015.6     0.6     SSE   159   1.6     SSW     201     271       -69       0.3       8.0      56.3      9.34
   01/15/2020 18:00      53.4      52.2       71     43.5      0.00      7.42      54.5     0.46      1015.5     0.5      SW   215   1.9     SSW     214     271       -69       0.2       7.9      56.6      9.35
   01/15/2020 17:50      54.0      53.4       70     43.9      0.00      7.42      54.4     0.46      1015.4     0.2     SSW   195   1.1     SSW     204     270       -71       0.0       7.9      56.9      9.35
   01/15/2020 17:40      54.9      53.6       68     43.8      0.00      7.42      54.4     0.46      1015.3     0.5     SSW   207   1.4     WSW     241     269       -74       0.3       7.9      57.1      9.35
   01/15/2020 17:30      56.0      55.0       66     44.4      0.00      7.42      54.3     0.46      1015.2     1.0     SSE   155   1.8     SSE     152     269       -77       0.5       7.8      57.4      9.35
   01/15/2020 17:20      57.1      56.0       64     44.5      0.00      7.42      54.2     0.46      1015.2     1.5     SSE   164   3.0       S     172     269       -75       0.7       7.7      57.7      9.35
   01/15/2020 17:10      57.8      57.0       62     44.6      0.00      7.42      54.2     0.46      1015.2     2.4       S   184   3.9     SSW     205     269       -73       1.6       7.6      58.0      9.35
   01/15/2020 17:00      58.8      57.6       60     44.6      0.00      7.42      54.1     0.46      1015.1     1.6       S   184   2.8     SSW     203     269       -68       1.2       7.4      58.3      9.35
   01/15/2020 16:50      60.1      58.8       58     44.8      0.00      7.42      54.1     0.46      1015.0     2.5       S   190   3.8       S     175     268       -65       1.8       7.1      58.6      9.35
   01/15/2020 16:40      61.9      60.1       56     45.0      0.00      7.42      54.0     0.46      1015.1     2.1       S   182   3.2     SSW     214     268       -61       1.5       6.8      58.8      9.35
   01/15/2020 16:30      63.6      61.8       50     43.7      0.00      7.42      54.0     0.46      1015.0     2.4     SSE   159   4.8       S     190     267       -46       1.5       6.6      58.9      9.36
   01/15/2020 16:20      64.6      63.5       45     42.5      0.00      7.42      53.9     0.46      1014.9     1.9     ESE   114   4.5      SE     130     266       -36       1.1       6.3      58.9      9.36
   01/15/2020 16:10      66.0      64.6       38     39.0      0.00      7.42      53.8     0.46      1014.8     1.5     ESE   105   4.8      SE     128     266       -15       0.8       6.2      58.9      9.36
   01/15/2020 16:00      66.6      65.8       36     38.3      0.00      7.42      53.8     0.46      1014.8     0.8     ESE   107   2.4     ENE      60     266         2       0.4       6.0      58.7      9.36
   01/15/2020 15:50      66.3      65.8       36     38.2      0.00      7.42      53.7     0.46      1014.8     1.0      SE   136   2.1      SE     133     266        27       0.6       6.0      58.5      9.36
   01/15/2020 15:40      66.8      65.9       35     38.1      0.00      7.42      53.6     0.46      1014.8     1.6       E    94   4.6       E      83     266        45       0.8       5.9      58.4      9.36
   01/15/2020 15:30      67.5      66.6       34     38.0      0.00      7.42      53.6     0.46      1014.7     1.0       E    97   2.7      NE      42     266        70       0.6       5.7      58.1      9.36
   01/15/2020 15:20      67.2      66.3       35     38.0      0.00      7.42      53.5     0.46      1014.7     1.2     SSW   201   2.6       S     180     266        96       1.2       5.7      57.9      9.36
   01/15/2020 15:10      67.6      66.2       35     38.0      0.00      7.42      53.5     0.46      1014.7     1.2     NNE    29   3.5     ESE     122     265       122       0.4       5.5      57.6      9.36
   01/15/2020 15:00      66.9      66.3       35     38.0      0.00      7.42      53.4     0.46      1014.7     1.2     SSE   158   3.1      SE     135     266       138       0.9       5.4      57.3      9.36
   01/15/2020 14:50      67.3      66.4       35     38.2      0.00      7.42      53.4     0.46      1014.7     1.0      NW   316   2.6      SW     223     265       156       0.6       5.2      57.0      9.36
   01/15/2020 14:40      67.5      66.6       35     38.2      0.00      7.42      53.4     0.46      1014.6     0.7       N   356   2.3     NNE      33     265       177       0.3       5.1      56.6      9.37
   01/15/2020 14:30      66.7      66.0       35     38.1      0.00      7.42      53.3     0.46      1014.7     0.8     NNE    11   2.3       N       9     265       191       0.4       5.1      56.3      9.37
   01/15/2020 14:20      66.2      65.1       36     37.9      0.00      7.42      53.3     0.46      1014.8     1.5     WNW   300   5.0     WSW     244     266       211       1.2       5.0      55.9      9.37
   01/15/2020 14:10      65.7      65.4       36     38.0      0.00      7.42      53.2     0.46      1014.8     2.3     WNW   301   3.9      SW     234     266       230       1.6       4.8      55.5      9.37
   01/15/2020 14:00      66.0      64.7       36     37.9      0.00      7.42      53.2     0.46      1014.8     1.4     WNW   293   4.6       W     261     266       239       1.2       4.6      55.0      9.37
   01/15/2020 13:50      65.6      64.7       36     37.2      0.00      7.42      53.1     0.46      1014.8     1.8     SSW   204   4.4     WNW     285     266       249       1.5       4.4      54.6      9.37
   01/15/2020 13:40      65.1      63.4       36     37.3      0.00      7.42      53.1     0.46      1014.8     1.0     SSW   199   3.3       S     185     266       269       1.0       4.1      54.1      9.37
   01/15/2020 13:30      64.4      63.2       38     37.4      0.00      7.42      53.1     0.46      1014.8     3.2      SW   219   5.0       W     260     266       281       2.6       3.9      53.6      9.37
   01/15/2020 13:20      65.1      64.3       37     37.8      0.00      7.42      53.0     0.46      1015.0     2.3     WSW   252   4.2       W     261     266       283       2.0       3.5      53.1      9.37
   01/15/2020 13:10      65.5      65.0       38     38.8      0.00      7.42      53.0     0.46      1015.1     1.2     NNW   336   3.0      NE      45     266       297       1.0       3.2      52.6      9.37
   01/15/2020 13:00      65.1      63.7       38     38.3      0.00      7.42      53.0     0.46      1015.2     0.7     WNW   285   3.0      NW     313     266       320       0.8       3.0      52.2      9.37
   01/15/2020 12:50      63.9      62.9       40     38.8      0.00      7.42      53.0     0.46      1015.4     1.0       N   356   3.0     NNE      27     266       320       0.5       2.9      51.7      9.37
   01/15/2020 12:40      64.3      63.2       41     39.6      0.00      7.42      53.0     0.46      1015.6     1.3     NNE    23   3.9      NE      54     266       331       0.5       2.8      51.2      9.37
   01/15/2020 12:30      64.0      62.5       42     40.0      0.00      7.42      53.0     0.46      1015.7     0.8     NNE    25   2.9     NNE      27     266       264       0.6       2.7      50.7      9.37
   01/15/2020 12:20      63.4      61.2       45     40.4      0.00      7.42      53.0     0.46      1015.9     0.8     NNW   341   3.0      NW     323     266       314       1.0       2.6      50.2      9.37
   01/15/2020 12:10      61.6      61.0       45     40.0      0.00      7.42      53.0     0.46      1016.1     2.2     NNW   333   4.6     WSW     253     267       343       1.3       2.4      49.7      9.37
   01/15/2020 12:00      61.3      60.5       46     40.1      0.00      7.42      53.0     0.46      1016.3     1.6      SE   134   3.0     ESE     122     267       342       1.1       2.2      49.1      9.37
   01/15/2020 11:50      60.8      59.4       47     39.7      0.00      7.42      53.0     0.46      1016.6     2.0     WSW   245   4.8     WSW     246     267       340       1.6       2.0      48.5      9.37
   01/15/2020 11:40      60.5      59.9       46     39.1      0.00      7.42      53.0     0.46      1016.9     1.6       W   267   3.5      NW     304     267       331       1.5       1.8      48.0      9.37
   01/15/2020 11:30      60.5      59.5       45     38.6      0.00      7.42      53.0     0.46      1017.1     1.0       N     9   2.7     NNW     338     268       324       0.7       1.5      47.5      9.37
   01/15/2020 11:20      60.6      59.6       44     38.1      0.00      7.42      53.0     0.46      1017.3     1.1     NNW   336   3.3       N       0     267       323       0.8       1.4      47.0      9.37
   01/15/2020 11:10      60.1      58.0       45     38.0      0.00      7.42      53.0     0.46      1017.5     0.7     WNW   294   2.1     NNW     327     266       320       0.7       1.3      46.5      9.37
   01/15/2020 11:00      58.5      57.6       46     37.7      0.00      7.42      53.0     0.46      1017.7     1.1       N   355   2.4     NNE      16     267       318       0.7       1.1      45.9      9.37
   01/15/2020 10:50      58.7      57.5       46     37.4      0.00      7.42      53.0     0.46      1018.0     1.5     NNW   327   3.5      NW     320     267       310       0.9       1.0      45.4      9.37
   01/15/2020 10:40      58.5      56.9       46     37.2      0.00      7.42      53.1     0.46      1018.2     0.8     NNE    12   2.4     ENE      60     266       303       0.5       0.9      44.9      9.37
   01/15/2020 10:30      56.9      56.2       48     37.3      0.00      7.42      53.1     0.46      1018.3     0.9       N     4   2.6       N       8     267       291       0.7       0.8      44.4      9.37
   01/15/2020 10:20      56.4      55.5       51     38.3      0.00      7.42      53.1     0.46      1018.4     0.7     NNE    25   1.9      NW     317     267       287       0.5       0.7      43.9      9.37
   01/15/2020 10:10      55.8      53.9       54     38.7      0.00      7.42      53.2     0.46      1018.5     0.8       N     0   2.8     NNE      13     267       273       0.4       0.6      43.4      9.37
   01/15/2020 10:00      54.4      53.9       55     38.4      0.00      7.42      53.2     0.46      1018.5     1.3       N     5   3.2       N     355     268       266       0.5       0.5      43.0      9.37
   01/15/2020 09:50      53.9      53.0       58     39.2      0.00      7.42      53.2     0.46      1018.5     1.0     NNW   336   2.1       N       0     268       302       0.6       0.4      42.7      9.37
   01/15/2020 09:40      53.5      52.8       60     39.5      0.00      7.42      53.3     0.46      1018.4     0.8       N   358   2.3       N       8     269       311       0.3       0.3      42.4      9.37
   01/15/2020 09:30      53.6      52.0       61     39.9      0.00      7.42      53.3     0.46      1018.4     0.5      NE    52   2.1       N      11     269       278       0.0       0.3      42.1      9.37
   01/15/2020 09:20      52.0      50.8       67     40.8      0.00      7.42      53.4     0.46      1018.2     0.1      NW   317   0.8      NW     326     269       276       0.0       0.3      41.9      9.37
   01/15/2020 09:10      50.8      49.9       71     41.3      0.00      7.42      53.4     0.46      1018.1     0.2       N     7   1.2     ENE      60     284       256       0.0       0.3      41.5      9.37
   01/15/2020 09:00      49.9      48.1       80     43.1      0.00      7.42      53.4     0.46      1018.1     0.0     WNW   300   1.0       W     275     329       226       0.0       0.3      41.2      9.37
   01/15/2020 08:50      48.1      45.7       87     43.7      0.00      7.42      53.4     0.46      1017.9     0.0       N     0   0.0      SW     222     357       193       0.0       0.3      41.0      9.37
   01/15/2020 08:40      45.8      43.6       92     42.3      0.00      7.42      53.5     0.46      1017.8     0.0     SSW   197   0.5     SSW     196     378       166       0.0       0.3      40.6      9.37
   01/15/2020 08:30      43.7      41.3       94     40.9      0.00      7.42      53.5     0.46      1017.8     0.4      SE   145   1.0       S     179     394       123       0.0       0.3      40.4      9.37
   01/15/2020 08:20      41.3      40.2       95     39.5      0.00      7.42      53.5     0.46      1017.7     0.3       S   189   1.2       S     185     409        93       0.0       0.3      40.1      9.37
   01/15/2020 08:10      40.0      38.2       95     37.8      0.00      7.42      53.6     0.46      1017.6     0.0       S   185   0.8       S     185     447        63       0.0       0.3      39.9      9.37
   01/15/2020 08:00      38.2      36.9       95     36.0      0.00      7.42      53.6     0.46      1017.5     0.6       S   175   1.4       S     185     459        24       0.1       0.3      39.9      9.37
   01/15/2020 07:50      36.9      36.0       95     35.0      0.00      7.42      53.6     0.46      1017.5     0.0       S   172   0.8     SSE     168     471        17       0.0       0.2      39.9      9.37
   01/15/2020 07:40      36.3      35.9       95     34.6      0.00      7.42      53.7     0.46      1017.4     0.2     ESE   113   0.9      SE     132     472        10       0.0       0.2      40.0      9.37
   01/15/2020 07:30      36.3      35.6       94     34.4      0.00      7.42      53.7     0.46      1017.3     0.0     NNE    26   0.4     NNE      26     469         3       0.0       0.2      40.0      9.37
   01/15/2020 07:20      36.4      35.5       95     34.6      0.00      7.42      53.8     0.46      1017.3     0.3     SSE   159   1.1      SE     126     467        -2       0.0       0.2      40.1      9.37
   01/15/2020 07:10      35.8      34.9       95     34.0      0.00      7.42      53.8     0.46      1017.3     0.3       S   175   1.3       S     186     462        -7       0.0       0.2      40.3      9.37
   01/15/2020 07:00      35.8      34.9       94     33.8      0.00      7.42      53.8     0.46      1017.3     0.0     SSE   165   0.6     SSE     163     458       -10       0.0       0.2      40.4      9.37
   01/15/2020 06:50      36.2      35.7       94     34.5      0.00      7.42      53.9     0.46      1017.3     0.0     SSW   200   0.3     SSW     200     466       -12       0.0       0.2      40.6      9.37
   01/15/2020 06:40      36.1      35.8       94     34.5      0.00      7.42      53.9     0.46      1017.3     0.0     SSW   204   0.6     SSW     203     463       -12       0.0       0.2      40.7      9.37
   01/15/2020 06:30      36.4      35.8       94     34.5      0.00      7.42      53.9     0.46      1017.2     0.0     SSE   156   0.7      SE     136     459       -12       0.0       0.2      40.9      9.37
   01/15/2020 06:20      37.0      35.9       94     34.9      0.00      7.42      53.9     0.46      1017.1     0.9       S   183   2.1     SSW     209     456       -12       0.0       0.2      41.0      9.37
   01/15/2020 06:10      36.4      36.0       94     34.7      0.00      7.42      54.0     0.46      1017.2     0.1       S   169   0.7     SSE     167     466       -12       0.0       0.2      41.2      9.37
   01/15/2020 06:00      36.3      35.6       95     34.6      0.00      7.42      54.0     0.46      1017.2     0.2      SW   235   1.1      SW     235     463       -12       0.0       0.2      41.4      9.37
   01/15/2020 05:50      36.0      35.6       94     34.1      0.00      7.42      54.0     0.46      1017.2     0.0       N     0   0.0       E      98     461       -13       0.0       0.2      41.5      9.37
   01/15/2020 05:40      36.7      35.8       94     34.5      0.00      7.42      54.0     0.46      1017.3     0.0       N     0   0.0     SSE     147     458       -13       0.0       0.2      41.7      9.37
   01/15/2020 05:30      36.9      36.3       94     35.0      0.00      7.42      54.1     0.46      1017.3     0.6       S   186   1.6     WSW     251     467       -13       0.0       0.2      41.9      9.37
   01/15/2020 05:20      36.3      35.8       94     34.4      0.00      7.42      54.1     0.46      1017.3     0.2       S   175   1.2      SW     225     465       -13       0.0       0.2      42.1      9.37
   01/15/2020 05:10      36.9      36.1       94     34.8      0.00      7.42      54.1     0.46      1017.3     0.5      SE   144   1.6      SE     142     464       -13       0.0       0.2      42.2      9.37
   01/15/2020 05:00      37.2      36.7       94     35.3      0.00      7.42      54.1     0.46      1017.3     0.0     SSE   149   0.6     SSE     149     461       -13       0.0       0.2      42.4      9.37
   01/15/2020 04:50      37.2      36.7       94     35.3      0.00      7.42      54.2     0.46      1017.3     0.2     SSE   150   1.1     SSE     149     458       -13       0.0       0.2      42.6      9.37
   01/15/2020 04:40      37.2      36.8       94     35.4      0.00      7.42      54.2     0.46      1017.3     0.1      SW   222   0.7      SW     224     454       -13       0.0       0.2      42.8      9.37
   01/15/2020 04:30      37.3      36.9       94     35.4      0.00      7.42      54.2     0.46      1017.3     0.0       N     0   0.0      SW     226     452       -14       0.0       0.2      42.9      9.37
   01/15/2020 04:20      37.7      36.9       94     35.6      0.00      7.42      54.3     0.46      1017.4     0.0       N     0   0.0     SSE     166     464       -14       0.0       0.2      43.1      9.37
   01/15/2020 04:10      37.7      37.0       94     35.7      0.00      7.42      54.3     0.46      1017.5     0.3     SSE   158   0.9     SSE     159     461       -14       0.0       0.2      43.2      9.37
   01/15/2020 04:00      37.5      37.0       94     35.5      0.00      7.42      54.3     0.46      1017.5     0.6      SE   143   1.2      SE     142     461       -14       0.0       0.2      43.4      9.37
   01/15/2020 03:50      37.4      36.9       94     35.5      0.00      7.42      54.4     0.46      1017.6     0.7       S   169   1.5      SE     143     456       -15       0.4       0.2      43.6      9.37
   01/15/2020 03:40      37.8      37.2       93     35.8      0.00      7.42      54.4     0.46      1017.8     0.4     SSE   159   0.9     SSE     156     466       -15       0.1       0.2      43.8      9.37
   01/15/2020 03:30      37.7      37.0       94     35.8      0.00      7.42      54.4     0.46      1017.9     0.3       S   180   0.9     SSW     192     470       -15       0.0       0.1      44.0      9.37
   01/15/2020 03:20      38.1      36.9       93     35.5      0.00      7.42      54.4     0.46      1018.0     0.2     SSE   147   1.0     SSE     148     463       -15       0.0       0.1      44.2      9.37
   01/15/2020 03:10      38.1      37.8       93     36.2      0.00      7.42      54.5     0.46      1018.1     0.0       S   172   0.4       S     172     458       -15       0.0       0.1      44.4      9.37
   01/15/2020 03:00      38.3      37.7       93     36.1      0.00      7.42      54.5     0.46      1018.2     0.0       N     0   0.0     SSE     160     457       -15       0.0       0.1      44.5      9.37
   01/15/2020 02:50      38.6      38.0       93     36.4      0.00      7.42      54.5     0.46      1018.2     0.0       N     0   0.0     SSE     160     461       -16       0.0       0.1      44.7      9.37
   01/15/2020 02:40      38.8      38.4       93     36.7      0.00      7.42      54.5     0.46      1018.3     0.0       S   182   0.4       S     182     460       -16       0.0       0.1      44.9      9.37
   01/15/2020 02:30      38.8      38.3       93     36.6      0.00      7.42      54.6     0.46      1018.3     0.3       S   172   0.7       S     181     458       -16       0.0       0.1      45.1      9.37
   01/15/2020 02:20      38.8      38.3       93     36.6      0.00      7.42      54.6     0.46      1018.4     0.0     SSE   162   0.6     SSE     161     458       -16       0.0       0.1      45.3      9.37
   01/15/2020 02:10      39.4      38.8       93     37.1      0.00      7.42      54.6     0.46      1018.3     0.8     SSW   197   1.7      SW     216     454       -16       0.0       0.1      45.5      9.37
   01/15/2020 02:00      39.4      38.9       93     37.2      0.00      7.42      54.6     0.46      1018.4     0.0     SSE   164   0.4     SSE     155     457       -17       0.0       0.1      45.7      9.37
   01/15/2020 01:50      39.9      39.1       92     37.4      0.00      7.42      54.7     0.46      1018.4     0.0       N     0   0.0     SSE     164     454       -17       0.0       0.0      45.9      9.37
   01/15/2020 01:40      39.9      39.5       93     37.8      0.00      7.42      54.7     0.46      1018.3     0.0       N     0   0.0     SSE     169     452       -17       0.0       0.0      46.0      9.37
   01/15/2020 01:30      39.9      39.4       93     37.7      0.00      7.42      54.7     0.46      1018.4     0.0       S   185   0.6     SSE     169     445       -17       0.0       0.0      46.3      9.37
   01/15/2020 01:20      39.6      39.2       92     37.4      0.00      7.42      54.7     0.46      1018.5     0.0       S   177   0.7       S     177     439       -17       0.0       0.0      46.5      9.37
   01/15/2020 01:10      39.9      39.4       92     37.6      0.00      7.42      54.8     0.46      1018.5     0.0       N     0   0.0      SE     144     455       -18       0.0       0.0      46.6      9.37
   01/15/2020 01:00      40.5      39.7       92     37.9      0.00      7.42      54.8     0.46      1018.6     0.0      SE   144   0.5      SE     144     452       -18       0.0       0.0      46.8      9.37
   01/15/2020 00:50      40.6      40.2       92     38.3      0.00      7.42      54.8     0.46      1018.6     0.5     SSE   149   1.0      SE     144     448       -18       0.1       0.0      47.0      9.37
   01/15/2020 00:40      41.0      40.3       92     38.4      0.00      7.42      54.8     0.46      1018.7     0.7     SSE   149   1.2     SSE     150     431       -18       0.3       0.0      47.2      9.37
   01/15/2020 00:30      41.0      40.6       92     38.6      0.00      7.42      54.8     0.46      1018.8     0.3     SSE   154   0.8      SE     146     428       -18       0.0       0.0      47.4      9.37
   01/15/2020 00:20      41.5      40.8       92     39.0      0.00      7.42      54.8     0.46      1018.8     0.3     SSE   165   1.1       S     177     424       -18       0.0       0.0      47.6      9.38
   01/15/2020 00:10      41.4      40.7       92     39.0      0.00      7.42      54.9     0.46      1018.9     0.2       S   173   0.8     SSW     194     421       -18       0.0       0.0      47.8      9.38
   01/15/2020 00:00      41.6      40.9       92     39.0      0.00      7.42      54.9     0.46      1019.0     0.2     SSE   164   0.7     SSE     149     415       -19       0.1      10.2      48.0      9.38
   01/14/2020 23:50      41.9      41.3       91     39.2      0.00      7.42      54.9     0.46      1019.1     0.5     SSE   151   1.0      SE     146     411       -19       0.0      10.2      48.2      9.38
   01/14/2020 23:40      41.8      41.5       91     39.4      0.00      7.42      54.9     0.46      1019.2     0.3     SSE   159   1.1       S     179     407       -20       0.0      10.2      48.4      9.38
   01/14/2020 23:30      41.9      41.3       91     39.2      0.00      7.42      54.9     0.46      1019.4     0.4     SSE   162   1.1       S     179     403       -20       0.0      10.2      48.6      9.38
   01/14/2020 23:20      41.8      41.3       91     39.1      0.00      7.42      54.9     0.46      1019.4     0.7     SSE   161   1.5      SE     145     399       -21       0.3      10.2      48.8      9.38
   01/14/2020 23:10      42.2      41.7       91     39.4      0.00      7.42      54.9     0.46      1019.6     0.7     SSE   150   2.1     SSE     151     396       -21       0.1      10.1      49.0      9.38
   01/14/2020 23:00      42.2      41.9       91     39.5      0.00      7.42      54.9     0.46      1019.6     0.5       S   180   1.2      SW     222     391       -21       0.5      10.1      49.3      9.38
   01/14/2020 22:50      42.9      41.9       91     39.8      0.00      7.42      54.9     0.46      1019.7     0.7     SSE   158   1.4      SE     142     389       -21       0.2      10.0      49.5      9.38
   01/14/2020 22:40      42.9      42.2       91     40.0      0.00      7.42      55.0     0.46      1019.7     1.2     SSE   157   2.0      SE     140     396       -22       0.3      10.0      49.6      9.38
   01/14/2020 22:30      43.3      42.2       91     40.2      0.00      7.42      55.0     0.46      1019.6     1.6       S   178   2.7     SSW     213     391       -21       0.5       9.9      49.9      9.38
   01/14/2020 22:20      43.3      42.9       91     40.8      0.00      7.42      55.0     0.46      1019.7     0.7       S   189   1.8      SW     235     383       -21       0.0       9.8      50.1      9.38
   01/14/2020 22:10      43.6      43.2       91     40.9      0.00      7.42      55.0     0.46      1019.7     0.3     SSW   192   1.0     SSW     193     378       -23       0.1       9.8      50.4      9.38
   01/14/2020 22:00      44.1      43.4       90     41.1      0.00      7.42      55.0     0.46      1019.6     0.0       N     0   0.0       E      97     372       -24       0.0       9.8      50.6      9.38
   01/14/2020 21:50      44.7      44.0       91     41.7      0.00      7.42      55.0     0.46      1019.5     0.2     ESE   121   1.2      SE     126     367       -24       0.1       9.8      50.8      9.38
   01/14/2020 21:40      44.6      43.8       91     41.6      0.00      7.42      55.0     0.46      1019.3     0.5     SSE   158   1.6      SE     145     360       -25       0.1       9.8      51.0      9.38
   01/14/2020 21:30      45.3      44.6       91     42.3      0.00      7.42      55.0     0.46      1019.2     0.3     SSE   160   1.8      SE     141     353       -25       0.0       9.8      51.2      9.38
   01/14/2020 21:20      45.3      44.9       90     42.4      0.00      7.42      55.0     0.46      1019.1     0.3       S   175   0.8     SSE     153     346       -25       0.2       9.8      51.5      9.38
   01/14/2020 21:10      45.3      44.8       90     42.4      0.00      7.42      55.0     0.46      1018.9     0.3     SSE   154   1.2      SE     128     340       -27       0.0       9.7      51.7      9.38
   01/14/2020 21:00      45.1      44.7       90     42.2      0.00      7.42      55.0     0.46      1018.8     0.4     SSE   154   1.5     SSW     206     334       -28       0.1       9.7      51.9      9.38
   01/14/2020 20:50      45.1      44.5       90     41.9      0.00      7.42      55.0     0.46      1018.7     0.4       S   191   1.3       S     182     329       -29       0.2       9.7      52.0      9.38
   01/14/2020 20:40      45.7      44.6       89     42.1      0.00      7.42      55.0     0.46      1018.7     0.9     SSE   167   1.8      SE     136     324       -30       0.4       9.7      52.2      9.38
   01/14/2020 20:30      46.1      45.4       89     42.6      0.00      7.42      55.0     0.46      1018.6     0.7       S   171   1.9     SSE     148     319       -31       0.3       9.6      52.5      9.38
   01/14/2020 20:20      46.1      45.7       89     42.9      0.00      7.42      55.0     0.46      1018.6     1.2     SSE   148   2.3      SE     140     315       -33       0.1       9.5      52.6      9.38
   01/14/2020 20:10      46.1      45.8       89     42.9      0.00      7.42      54.9     0.46      1018.5     1.1      SE   145   1.9      SE     142     310       -35       0.1       9.5      52.8      9.38
   01/14/2020 20:00      46.2      45.8       89     42.8      0.00      7.42      54.9     0.46      1018.4     0.9     SSE   153   2.0      SE     144     305       -36       0.0       9.5      53.0      9.38
   01/14/2020 19:50      46.6      46.0       89     43.1      0.00      7.42      54.9     0.46      1018.3     1.1       S   179   2.3      SE     142     301       -38       0.3       9.5      53.3      9.38
   01/14/2020 19:40      46.6      46.1       88     43.0      0.00      7.42      54.9     0.46      1018.2     0.7       S   174   1.7       S     187     297       -43       0.3       9.4      53.5      9.38
   01/14/2020 19:30      46.8      46.2       87     42.9      0.00      7.42      54.9     0.46      1018.3     0.8       S   175   1.6       S     176     293       -48       0.6       9.4      53.7      9.39
   01/14/2020 19:20      47.1      46.4       87     43.0      0.00      7.42      54.8     0.46      1018.3     0.5     SSE   148   1.3      SE     144     288       -52       0.0       9.3      53.9      9.39
   01/14/2020 19:10      47.5      46.4       86     42.8      0.00      7.42      54.8     0.46      1018.2     0.5       S   170   1.1     SSE     160     282       -55       0.4       9.3      54.1      9.38
   01/14/2020 19:00      48.1      47.3       85     43.5      0.00      7.42      54.8     0.46      1018.3     0.6       S   174   1.5       S     170     278       -56       0.2       9.2      54.4      9.39
   01/14/2020 18:50      48.6      48.0       84     43.6      0.00      7.42      54.7     0.46      1018.3     0.6       S   176   1.3       S     176     273       -59       0.4       9.2      54.6      9.39
   01/14/2020 18:40      49.2      48.3       83     43.9      0.00      7.42      54.7     0.46      1018.3     0.7       S   176   1.7       S     184     268       -60       0.3       9.1      54.8      9.39
   01/14/2020 18:30      49.2      49.0       83     44.0      0.00      7.42      54.7     0.46      1018.3     0.6     SSW   194   1.5     SSW     195     265       -60       0.2       9.1      55.1      9.39
   01/14/2020 18:20      49.9      49.2       81     43.8      0.00      7.42      54.6     0.46      1018.3     0.2       S   169   1.0     SSE     152     266       -61       0.1       9.0      55.3      9.39
   01/14/2020 18:10      51.0      50.0       78     44.1      0.00      7.42      54.6     0.46      1018.3     1.1       S   185   1.8     SSW     208     269       -60       0.6       9.0      55.5      9.39
   01/14/2020 18:00      51.6      50.9       77     44.3      0.00      7.42      54.5     0.46      1018.4     1.7      SW   229   2.1      SW     231     271       -61       0.6       8.9      55.8      9.39
   01/14/2020 17:50      52.1      51.5       76     44.5      0.00      7.42      54.5     0.46      1018.3     1.4      SW   226   1.9      SW     225     271       -63       0.5       8.8      56.0      9.39
   01/14/2020 17:40      52.6      52.0       75     44.5      0.00      7.42      54.5     0.46      1018.3     1.6      SW   220   2.2     SSW     198     271       -63       0.6       8.7      56.2      9.39
   01/14/2020 17:30      53.3      52.5       73     44.5      0.00      7.42      54.4     0.46      1018.1     1.1      SW   219   2.5      SW     224     270       -66       0.7       8.6      56.5      9.39
   01/14/2020 17:20      54.7      53.2       70     44.5      0.00      7.42      54.4     0.46      1018.0     1.3     SSW   196   1.8     SSW     209     270       -68       0.9       8.5      56.8      9.39
   01/14/2020 17:10      55.4      54.6       68     44.7      0.00      7.42      54.3     0.46      1017.9     1.0     SSE   164   2.5       S     190     270       -69       0.5       8.4      57.1      9.40
   01/14/2020 17:00      56.2      55.4       67     44.9      0.00      7.42      54.3     0.46      1017.8     1.9     SSE   169   3.7     SSE     158     269       -65       1.3       8.3      57.3      9.40
   01/14/2020 16:50      56.6      55.9       66     45.0      0.00      7.42      54.2     0.46      1017.8     2.1       S   179   5.3     SSW     202     269       -59       1.7       8.1      57.6      9.40
   01/14/2020 16:40      57.7      56.6       65     45.4      0.00      7.42      54.1     0.46      1017.7     2.0       S   178   3.6     SSW     208     269       -51       1.4       7.8      57.8      9.40
   01/14/2020 16:30      58.2      57.5       64     46.0      0.00      7.42      54.1     0.46      1017.6     3.0       S   181   4.6     SSE     163     269       -30       2.2       7.6      58.0      9.40
   01/14/2020 16:20      58.5      58.0       64     46.2      0.00      7.42      54.0     0.46      1017.7     3.1     SSE   162   5.9     SSE     154     268       -14       2.0       7.2      58.0      9.40
   01/14/2020 16:10      58.6      58.0       64     46.2      0.00      7.42      54.0     0.46      1017.6     3.8       S   173   8.1      SE     144     268        -3       2.6       6.9      57.9      9.40
   01/14/2020 16:00      59.9      58.5       63     46.6      0.00      7.42      53.9     0.46      1017.7     4.3     SSW   197   7.6     SSW     210     268        15       3.2       6.4      57.8      9.40
   01/14/2020 15:50      61.3      59.7       61     46.9      0.00      7.42      53.9     0.46      1017.7     3.8     SSE   158   6.9      SE     134     268        33       2.6       5.9      57.7      9.40
   01/14/2020 15:40      63.9      61.4       52     45.2      0.00      7.42      53.8     0.46      1017.6     2.9     SSE   151   6.5     SSE     166     267        52       2.1       5.4      57.4      9.40
   01/14/2020 15:30      63.9      63.0       50     44.5      0.00      7.42      53.8     0.46      1017.6     0.9      NE    55   2.6     NNE      15     267        69       0.5       5.1      57.2      9.40
   01/14/2020 15:20      63.6      62.9       50     44.6      0.00      7.42      53.7     0.46      1017.6     1.5     ENE    58   3.8     ENE      70     267        88       0.7       5.0      57.0      9.41
   01/14/2020 15:10      63.1      62.8       52     44.8      0.00      7.42      53.7     0.46      1017.6     2.1       E   101   4.2      SE     141     267       116       1.1       4.9      56.7      9.41
   01/14/2020 15:00      64.5      63.2       51     45.4      0.00      7.42      53.6     0.46      1017.6     2.4     ESE   102   4.8      NE      55     267       134       1.2       4.7      56.4      9.41
   01/14/2020 14:50      64.7      63.8       49     44.8      0.00      7.42      53.6     0.46      1017.7     1.1      NE    34   3.5     ESE     102     266       149       0.6       4.5      56.1      9.41
   01/14/2020 14:40      64.4      63.7       49     44.6      0.00      7.42      53.5     0.46      1017.8     1.5     ENE    75   5.4     ESE     106     266       176       0.7       4.4      55.7      9.41
   01/14/2020 14:30      64.2      63.1       50     44.8      0.00      7.42      53.5     0.46      1017.8     0.9      NE    36   4.0      NE      39     267       188       0.5       4.3      55.4      9.41
   01/14/2020 14:20      63.6      62.9       51     44.8      0.00      7.42      53.5     0.46      1018.0     1.3     NNE    19   3.0     NNE      23     267       170       0.5       4.2      55.0      9.41
   01/14/2020 14:10      63.4      62.8       52     45.2      0.00      7.42      53.4     0.46      1018.0     1.5      NE    45   3.4     ENE      68     267       205       0.8       4.1      54.7      9.41
   01/14/2020 14:00      63.7      62.6       52     45.4      0.00      7.42      53.4     0.46      1018.1     1.7      SE   129   3.4       S     189     267       223       1.2       4.0      54.3      9.41
   01/14/2020 13:50      63.5      62.0       53     45.5      0.00      7.42      53.3     0.46      1018.3     1.0      NW   322   3.0       N       0     267       235       0.6       3.8      53.9      9.41
   01/14/2020 13:40      62.2      61.4       55     45.4      0.00      7.42      53.3     0.46      1018.4     1.6       W   276   4.1     NNE      18     267       188       1.0       3.7      53.5      9.41
   01/14/2020 13:30      62.4      61.8       54     45.4      0.00      7.42      53.3     0.46      1018.5     2.1       W   270   5.1     WSW     247     268       186       1.5       3.5      53.1      9.41
   01/14/2020 13:20      62.1      61.0       56     45.6      0.00      7.42      53.3     0.46      1018.6     1.5      NE    47   3.5      NE      43     267       246       0.5       3.3      52.7      9.41
   01/14/2020 13:10      62.4      61.2       55     45.7      0.00      7.42      53.2     0.46      1018.7     2.0     NNE    30   3.4      NE      55     268       150       0.8       3.2      52.3      9.41
   01/14/2020 13:00      62.3      61.5       55     45.7      0.00      7.42      53.2     0.46      1018.9     1.9     NNE    28   3.8     NNE      16     268       250       0.8       3.0      52.0      9.41
   01/14/2020 12:50      62.1      61.7       56     45.9      0.00      7.42      53.2     0.46      1019.0     1.5     ENE    62   2.9       E     101     268       229       0.7       2.9      51.5      9.41
   01/14/2020 12:40      62.0      61.5       55     45.4      0.00      7.42      53.2     0.46      1019.1     1.4       N    10   2.9       N       4     268       196       0.7       2.8      51.1      9.41
   01/14/2020 12:30      61.6      60.9       57     45.9      0.00      7.42      53.2     0.46      1019.4     1.9     NNE    12   5.6      NE      44     267       334       0.8       2.7      50.6      9.41
   01/14/2020 12:20      61.9      61.1       56     45.8      0.00      7.42      53.2     0.46      1019.6     1.9      NE    44   4.5     ENE      57     268       324       1.1       2.5      50.1      9.41
   01/14/2020 12:10      62.3      61.0       55     45.4      0.00      7.42      53.1     0.46      1020.0     1.5     NNE    27   3.8     NNW     346     268       223       0.8       2.4      49.6      9.41
   01/14/2020 12:00      62.3      61.4       53     44.5      0.00      7.42      53.1     0.46      1020.3     1.5      NE    54   3.1     ENE      64     268       318       0.8       2.2      49.1      9.41
   01/14/2020 11:50      61.7      60.7       53     44.0      0.00      7.42      53.1     0.46      1020.7     1.2     ESE   103   3.4     NNE      17     267       305       0.9       2.1      48.6      9.41
   01/14/2020 11:40      61.3      60.5       54     43.9      0.00      7.42      53.1     0.46      1020.8     2.2       E    83   4.6       E      81     268       310       1.0       2.0      48.1      9.41
   01/14/2020 11:30      61.7      60.4       53     43.9      0.00      7.42      53.2     0.46      1021.0     1.8     ENE    68   5.6       E      84     268       314       0.9       1.8      47.6      9.41
   01/14/2020 11:20      61.8      60.6       53     43.8      0.00      7.42      53.2     0.46      1021.1     2.5       E    86   5.2       E     100     268       309       1.2       1.6      47.1      9.41
   01/14/2020 11:10      61.5      60.4       52     43.6      0.00      7.42      53.2     0.46      1021.3     0.9      NW   316   2.1     WNW     291     267       304       0.8       1.4      46.6      9.41
   01/14/2020 11:00      61.2      60.2       53     43.5      0.00      7.42      53.2     0.46      1021.5     1.3      NW   311   3.4      NW     311     267       300       0.9       1.3      46.1      9.41
   01/14/2020 10:50      61.3      60.3       53     43.4      0.00      7.42      53.3     0.46      1021.7     1.1     NNE    13   3.1     NNE      31     268       291       0.3       1.2      45.6      9.41
   01/14/2020 10:40      60.7      59.8       54     43.2      0.00      7.42      53.3     0.46      1021.7     1.0      SW   219   3.3     WSW     240     268       282       0.9       1.1      45.0      9.41
   01/14/2020 10:30      60.5      59.8       55     43.7      0.00      7.42      53.3     0.46      1021.8     1.0     WNW   285   3.7       W     263     268       281       0.8       1.0      44.6      9.41
   01/14/2020 10:20      60.5      58.8       56     43.9      0.00      7.42      53.3     0.46      1021.8     0.5     SSW   213   2.1      SW     234     268       269       0.4       0.8      44.1      9.41
   01/14/2020 10:10      58.9      57.4       60     44.3      0.00      7.42      53.4     0.46      1021.9     0.3       S   175   1.1     SSW     202     269       262       0.5       0.8      43.6      9.41
   01/14/2020 10:00      57.4      55.5       65     44.5      0.00      7.42      53.4     0.46      1021.9     1.1     ENE    59   2.3      NE      55     269       299       0.4       0.7      43.3      9.41
   01/14/2020 09:50      55.6      54.7       66     43.8      0.00      7.42      53.4     0.46      1021.9     1.0      NE    42   2.0       N     349     269       298       0.3       0.6      43.0      9.41
   01/14/2020 09:40      55.1      53.1       68     43.5      0.00      7.42      53.5     0.46      1021.7     0.5      NE    37   1.8     NNE      13     269       284       0.2       0.6      42.8      9.41
   01/14/2020 09:30      53.0      51.8       70     42.9      0.00      7.42      53.5     0.46      1021.8     0.6      NE    36   1.5       N     354     278       264       0.2       0.5      42.5      9.41
   01/14/2020 09:20      52.2      50.8       74     43.4      0.00      7.42      53.5     0.46      1021.7     0.3      NE    50   1.2      NE      44     299       244       0.0       0.5      42.2      9.41
   01/14/2020 09:10      50.9      48.9       83     44.8      0.00      7.42      53.5     0.46      1021.6     0.0     ENE    58   0.8     NNE      33     338       222       0.0       0.5      42.0      9.41
   01/14/2020 09:00      48.9      46.8       89     44.6      0.00      7.42      53.6     0.46      1021.5     0.0     ENE    58   0.5     ENE      67     366       197       0.0       0.5      41.7      9.41
   01/14/2020 08:50      46.7      45.9       91     43.9      0.00      7.42      53.6     0.46      1021.3     0.0     NNE    26   0.7     NNE      24     385       171       0.0       0.5      41.5      9.41
   01/14/2020 08:40      46.0      43.7       94     43.1      0.00      7.42      53.6     0.46      1021.1     0.0       N     0   0.0     SSE     151     400       145       0.0       0.5      41.3      9.41
   01/14/2020 08:30      43.7      43.2       94     41.7      0.00      7.42      53.7     0.46      1021.1     0.2     SSW   197   1.0      SW     222     413       114       0.0       0.5      41.0      9.41
   01/14/2020 08:20      43.7      40.9       96     41.4      0.00      7.42      53.7     0.46      1021.1     0.0       N     0   0.0     ENE      72     428        85       0.0       0.5      40.8      9.41
   01/14/2020 08:10      40.8      39.5       95     38.7      0.00      7.42      53.7     0.46      1020.9     0.0       N     0   0.0      SE     136     467        59       0.0       0.5      40.6      9.41
   01/14/2020 08:00      39.9      39.5       95     38.4      0.00      7.42      53.8     0.46      1020.8     0.0       N     0   0.0     ESE     110     483        25       0.0       0.5      40.5      9.41
   01/14/2020 07:50      40.0      37.9       96     37.8      0.00      7.42      53.8     0.46      1020.7     0.0       N     0   0.0       S     180     484        19       0.0       0.5      40.5      9.41
   01/14/2020 07:40      38.0      36.6       95     36.0      0.00      7.42      53.8     0.46      1020.7     0.3       S   180   1.6       S     180     481        13       0.0       0.5      40.5      9.41
   01/14/2020 07:30      36.7      36.4       95     35.3      0.00      7.42      53.8     0.46      1020.7     0.0       N     0   0.0      NE      42     480         6       0.0       0.5      40.6      9.41
   01/14/2020 07:20      36.7      36.1       95     35.3      0.00      7.42      53.9     0.46      1020.6     0.0       N     0   0.0     NNE      13     478        -1       0.0       0.5      40.7      9.41
   01/14/2020 07:10      36.9      36.1       95     35.1      0.00      7.42      53.9     0.46      1020.6     0.2      NE    51   1.5      NE      45     489        -7       0.0       0.5      40.8      9.41
   01/14/2020 07:00      37.1      36.2       95     35.2      0.00      7.42      53.9     0.46      1020.6     0.5     SSE   167   2.1       S     177     486       -11       0.2       0.5      40.9      9.41
   01/14/2020 06:50      36.8      36.4       95     35.3      0.00      7.42      54.0     0.46      1020.6     0.4     ESE   102   1.4      SE     144     484       -13       0.0       0.4      41.0      9.41
   01/14/2020 06:40      37.0      36.4       95     35.3      0.00      7.42      54.0     0.46      1020.5     0.5     SSE   166   1.3       S     172     478       -13       0.3       0.4      41.1      9.41
   01/14/2020 06:30      37.1      36.6       95     35.5      0.00      7.42      54.0     0.46      1020.5     0.8     SSE   151   1.6      SE     137     474       -13       0.4       0.4      41.3      9.41
   01/14/2020 06:20      37.4      37.0       95     35.9      0.00      7.42      54.0     0.46      1020.4     0.0       N     0   0.0     SSW     196     480       -13       0.0       0.3      41.4      9.41
   01/14/2020 06:10      37.3      36.6       95     35.6      0.00      7.42      54.1     0.46      1020.1     0.7     SSW   206   1.7      SW     215     477       -13       0.2       0.3      41.6      9.41
   01/14/2020 06:00      36.9      36.5       95     35.4      0.00      7.42      54.1     0.46      1020.0     0.5       S   182   1.4       S     184     486       -13       0.1       0.3      41.8      9.41
   01/14/2020 05:50      37.0      36.4       95     35.4      0.00      7.42      54.1     0.46      1020.0     0.0       N     0   0.0     ENE      63     484       -14       0.0       0.3      42.0      9.41
   01/14/2020 05:40      37.1      36.8       95     35.6      0.00      7.42      54.2     0.46      1020.0     0.0       N     0   0.0      SE     145     481       -14       0.0       0.3      42.1      9.41
   01/14/2020 05:30      37.2      36.6       95     35.5      0.00      7.42      54.2     0.46      1020.0     0.0       N     0   0.0     ESE     111     476       -13       0.0       0.3      42.3      9.41
   01/14/2020 05:20      37.6      36.6       94     35.5      0.00      7.42      54.2     0.46      1020.0     0.0      SE   146   0.6      SE     141     473       -13       0.0       0.3      42.4      9.41
   01/14/2020 05:10      37.7      37.0       95     36.1      0.00      7.42      54.3     0.46      1020.0     0.0     WNW   294   1.0     WNW     288     469       -13       0.0       0.3      42.5      9.41
   01/14/2020 05:00      37.6      37.0       95     35.9      0.00      7.42      54.3     0.46      1020.0     0.3      SE   141   1.2      SE     139     465       -14       0.0       0.3      42.7      9.41
   01/14/2020 04:50      38.3      37.1       94     36.2      0.00      7.42      54.3     0.46      1019.9     0.2     SSE   155   1.2     SSE     152     475       -13       0.3       0.3      42.8      9.41
   01/14/2020 04:40      38.2      37.5       95     36.6      0.00      7.42      54.3     0.46      1020.0     0.5     SSW   195   1.3     SSW     201     472       -13       0.0       0.2      43.0      9.41
   01/14/2020 04:30      38.0      37.1       94     35.9      0.00      7.42      54.4     0.46      1020.0     0.6     SSE   159   1.8      SE     141     469       -14       0.0       0.2      43.2      9.41
   01/14/2020 04:20      38.0      37.7       94     36.4      0.00      7.42      54.4     0.46      1020.1     0.3       S   175   1.5       S     185     467       -14       0.1       0.2      43.4      9.41
   01/14/2020 04:10      39.1      37.8       94     37.0      0.00      7.42      54.4     0.46      1020.1     0.2     NNE    15   1.1       N      10     464       -14       0.0       0.2      43.6      9.41
   01/14/2020 04:00      39.1      38.2       95     37.4      0.00      7.42      54.4     0.46      1020.0     0.5     SSE   148   1.1     SSE     163     460       -14       0.0       0.2      43.7      9.41
   01/14/2020 03:50      38.6      37.8       95     36.9      0.00      7.42      54.5     0.46      1020.1     1.1     SSE   148   2.5      SE     132     456       -14       0.0       0.2      43.8      9.41
   01/14/2020 03:40      38.7      38.1       94     36.9      0.00      7.42      54.5     0.46      1020.2     0.3     SSE   148   1.1      SE     142     471       -14       0.0       0.2      44.0      9.41
   01/14/2020 03:30      38.9      38.3       94     37.1      0.00      7.42      54.5     0.46      1020.2     0.3     SSE   149   1.0      SE     145     465       -14       0.0       0.2      44.2      9.41
   01/14/2020 03:20      39.2      38.7       94     37.4      0.00      7.42      54.5     0.46      1020.2     1.1      SW   218   1.9     WSW     242     464       -14       0.3       0.2      44.4      9.41
   01/14/2020 03:10      39.0      38.3       95     37.1      0.00      7.42      54.5     0.46      1020.1     0.1       W   259   0.8     WSW     255     462       -14       0.0       0.1      44.5      9.41
   01/14/2020 03:00      38.8      38.2       94     36.9      0.00      7.42      54.6     0.46      1020.1     0.0       N     0   0.0      SE     146     459       -15       0.0       0.1      44.7      9.41
   01/14/2020 02:50      39.4      38.6       94     37.5      0.00      7.42      54.6     0.46      1020.3     0.1     SSE   154   0.9      SE     141     469       -14       0.0       0.1      44.8      9.41
   01/14/2020 02:40      39.6      38.9       95     37.9      0.00      7.42      54.6     0.46      1020.3     0.2     SSE   160   0.8     SSE     157     468       -15       0.0       0.1      45.0      9.41
   01/14/2020 02:30      39.4      38.8       94     37.4      0.00      7.42      54.6     0.46      1020.2     0.4     SSE   150   1.3      SE     146     469       -15       0.1       0.1      45.2      9.41
   01/14/2020 02:20      39.6      39.3       94     37.9      0.00      7.42      54.7     0.46      1020.4     0.3     SSE   161   1.3     SSE     156     468       -15       0.4       0.1      45.4      9.41
   01/14/2020 02:10      39.5      38.9       94     37.6      0.00      7.42      54.7     0.46      1020.2     0.4      SE   136   1.7      SE     136     466       -16       0.0       0.0      45.5      9.41
   01/14/2020 02:00      40.0      38.9       94     37.9      0.00      7.42      54.7     0.46      1020.1     0.7     SSE   151   1.8      SE     139     465       -15       0.1       0.0      45.7      9.41
   01/14/2020 01:50      40.2      39.8       94     38.4      0.00      7.42      54.7     0.46      1020.2     0.0       N     0   0.0     SSE     161     464       -15       0.0       0.0      45.9      9.41
   01/14/2020 01:40      40.0      39.5       94     38.2      0.00      7.42      54.8     0.46      1020.1     0.0       N     0   0.0     SSE     161     462       -16       0.0       0.0      46.1      9.41
   01/14/2020 01:30      39.8      39.4       94     37.9      0.00      7.42      54.8     0.46      1020.0     0.0       N     0   0.0     SSE     161     461       -16       0.0       0.0      46.3      9.41
   01/14/2020 01:20      40.6      39.6       93     38.5      0.00      7.42      54.8     0.46      1020.0     0.0     SSE   152   0.9     SSE     148     459       -16       0.0       0.0      46.5      9.41
   01/14/2020 01:10      40.9      40.4       94     39.0      0.00      7.42      54.8     0.46      1019.9     0.1     SSE   156   0.6     SSE     156     456       -16       0.0       0.0      46.7      9.41
   01/14/2020 01:00      40.6      40.2       94     38.7      0.00      7.42      54.9     0.46      1019.9     0.0     SSE   168   0.5       S     171     452       -17       0.0       0.0      46.8      9.41
   01/14/2020 00:50      41.1      40.4       93     38.8      0.00      7.42      54.9     0.46      1019.8     0.0     SSE   156   0.4     SSE     156     452       -18       0.0       0.0      47.0      9.42
   01/14/2020 00:40      41.5      41.0       93     39.5      0.00      7.42      54.9     0.46      1019.9     0.2     SSE   160   0.6     SSE     157     449       -17       0.0       0.0      47.2      9.42
   01/14/2020 00:30      41.5      41.0       93     39.5      0.00      7.42      54.9     0.46      1019.9     0.1       S   180   0.7       S     182     445       -18       0.0       0.0      47.4      9.42
   01/14/2020 00:20      41.8      41.1       93     39.5      0.00      7.42      54.9     0.46      1019.9     0.0       N     0   0.0     SSE     153     439       -18       0.0       0.0      47.6      9.42
   01/14/2020 00:10      41.9      41.2       93     39.8      0.00      7.42      54.9     0.46      1020.0     0.1     SSE   159   0.9     SSE     153     438       -19       0.0       0.0      47.8      9.42
   01/14/2020 00:00      42.2      41.2       93     39.6      0.00      7.42      54.9     0.46      1020.0     0.0     SSE   158   0.7     SSE     147     431       -19       0.0      11.4      48.0      9.42
   01/13/2020 23:50      42.3      41.5       93     40.1      0.00      7.42      54.9     0.46      1020.1     0.5       S   184   1.6     SSW     196     425       -19       0.0      11.4      48.1      9.42
   01/13/2020 23:40      42.5      41.5       92     40.1      0.00      7.42      55.0     0.46      1020.1     0.8       S   172   1.6      SE     146     415       -20       0.2      11.4      48.4      9.42
   01/13/2020 23:30      42.6      42.2       92     40.4      0.00      7.42      55.0     0.46      1020.2     0.0     SSW   207   0.9     SSW     212     406       -20       0.0      11.4      48.5      9.42
   01/13/2020 23:20      43.2      42.5       92     40.8      0.00      7.42      55.0     0.46      1020.3     0.0       N   355   0.5     NNW     344     402       -21       0.0      11.4      48.7      9.42
   01/13/2020 23:10      43.2      42.2       93     40.9      0.00      7.42      55.0     0.46      1020.3     0.0       N     0   0.0     SSW     207     404       -21       0.0      11.4      48.9      9.42
   01/13/2020 23:00      42.7      42.2       92     40.1      0.00      7.42      55.0     0.46      1020.3     0.3     SSE   158   1.3     SSE     152     391       -21       0.2      11.4      49.1      9.42
   01/13/2020 22:50      43.7      42.7       92     41.1      0.00      7.42      55.0     0.46      1020.3     0.4     SSE   152   1.3     SSE     149     387       -21       0.2      11.3      49.3      9.42
   01/13/2020 22:40      44.2      43.5       92     41.6      0.00      7.42      55.0     0.46      1020.4     0.0     SSE   165   0.7     SSE     165     381       -22       0.0      11.3      49.5      9.42
   01/13/2020 22:30      44.1      43.6       92     41.7      0.00      7.42      55.0     0.46      1020.4     0.0     SSE   168   0.6     SSE     168     375       -22       0.0      11.3      49.6      9.42
   01/13/2020 22:20      44.1      43.2       92     41.4      0.00      7.42      55.0     0.46      1020.4     0.1     SSE   165   0.8       S     170     368       -23       0.0      11.3      49.8      9.42
   01/13/2020 22:10      43.7      43.0       91     41.0      0.00      7.42      55.0     0.46      1020.3     0.8     SSE   160   1.6     SSE     147     363       -24       0.4      11.3      50.0      9.42
   01/13/2020 22:00      44.2      43.5       91     41.4      0.00      7.42      55.0     0.46      1020.2     0.8     SSE   164   1.4       S     172     357       -24       0.9      11.2      50.2      9.42
   01/13/2020 21:50      44.4      44.0       91     41.8      0.00      7.42      55.0     0.46      1020.2     0.4     SSE   167   1.1     SSW     209     352       -24       0.0      11.1      50.5      9.42
   01/13/2020 21:40      44.6      44.1       91     41.8      0.00      7.42      55.0     0.46      1020.2     0.5     SSE   158   1.5       S     176     346       -25       0.0      11.1      50.6      9.42
   01/13/2020 21:30      44.4      44.1       91     41.8      0.00      7.42      55.0     0.46      1020.0     0.8     SSE   168   1.6     SSE     152     340       -25       0.3      11.1      50.8      9.42
   01/13/2020 21:20      44.4      44.0       91     41.7      0.00      7.42      55.0     0.46      1019.9     1.0     SSE   159   1.7      SE     137     335       -27       0.6      11.0      51.0      9.42
   01/13/2020 21:10      44.6      44.1       90     41.6      0.00      7.42      55.0     0.46      1019.9     0.7       S   172   1.8      SE     145     330       -28       0.3      10.9      51.2      9.42
   01/13/2020 21:00      45.1      44.6       90     42.2      0.00      7.42      55.0     0.46      1019.7     0.5     SSE   157   1.0     SSE     147     325       -28       0.2      10.8      51.5      9.42
   01/13/2020 20:50      45.1      44.6       90     42.0      0.00      7.42      55.0     0.46      1019.6     0.6       S   182   1.5       S     175     319       -29       0.4      10.8      51.7      9.42
   01/13/2020 20:40      45.7      44.9       89     42.2      0.00      7.42      55.0     0.46      1019.6     0.4     SSE   151   1.2      SE     143     315       -31       0.0      10.8      51.9      9.42
   01/13/2020 20:30      46.4      45.5       88     42.7      0.00      7.42      55.0     0.46      1019.7     0.6       S   177   1.5       S     184     311       -32       0.1      10.8      52.1      9.43
   01/13/2020 20:20      46.6      46.0       88     43.0      0.00      7.42      55.0     0.46      1019.7     0.4     SSW   212   1.7      SW     226     305       -34       0.2      10.7      52.3      9.43
   01/13/2020 20:10      46.7      46.3       88     43.2      0.00      7.42      55.0     0.46      1019.7     0.3     SSW   195   1.1     SSW     209     302       -37       0.2      10.7      52.6      9.43
   01/13/2020 20:00      46.8      46.5       88     43.1      0.00      7.42      54.9     0.46      1019.7     0.0       S   181   0.4       S     179     298       -41       0.0      10.7      52.8      9.43
   01/13/2020 19:50      47.0      46.5       87     43.0      0.00      7.42      54.9     0.46      1019.6     0.2     SSE   168   0.8     SSE     153     293       -47       0.0      10.7      53.0      9.43
   01/13/2020 19:40      46.8      46.3       86     42.6      0.00      7.42      54.9     0.46      1019.6     0.2      SE   136   0.9      SE     140     288       -52       0.0      10.7      53.2      9.43
   01/13/2020 19:30      47.5      46.6       85     42.8      0.00      7.42      54.9     0.46      1019.5     0.1      SE   144   1.0      SE     137     284       -54       0.0      10.7      53.4      9.43
   01/13/2020 19:20      48.3      47.4       84     43.3      0.00      7.42      54.8     0.46      1019.4     0.1      SE   141   0.9      SE     139     278       -56       0.0      10.7      53.6      9.43
   01/13/2020 19:10      48.5      48.2       84     43.7      0.00      7.42      54.8     0.46      1019.4     0.2     SSE   168   0.7       S     178     271       -58       0.0      10.7      53.8      9.43
   01/13/2020 19:00      49.0      48.2       83     43.5      0.00      7.42      54.8     0.46      1019.5     0.6     SSE   154   1.2      SE     142     265       -60       0.1      10.7      54.0      9.43
   01/13/2020 18:50      49.5      48.5       81     43.3      0.00      7.42      54.7     0.46      1019.5     0.4       S   178   1.2       S     172     265       -61       0.2      10.6      54.2      9.43
   01/13/2020 18:40      50.4      49.3       79     43.5      0.00      7.42      54.7     0.46      1019.4     1.0       S   175   1.6     SSE     166     269       -63       0.8      10.6      54.4      9.43
   01/13/2020 18:30      51.1      50.3       77     43.9      0.00      7.42      54.7     0.46      1019.4     1.4       S   172   2.4       S     180     271       -64       1.2      10.4      54.6      9.43
   01/13/2020 18:20      51.3      50.7       77     43.9      0.00      7.42      54.6     0.46      1019.3     1.6       S   170   3.0     SSE     163     271       -64       1.1      10.3      54.9      9.44
   01/13/2020 18:10      52.8      50.9       74     43.6      0.00      7.42      54.6     0.46      1019.3     1.2       S   172   2.1       S     185     270       -64       1.1      10.1      55.1      9.44
   01/13/2020 18:00      53.4      52.6       71     44.1      0.00      7.42      54.5     0.46      1019.2     1.4     SSW   202   1.9       S     188     270       -65       1.0       9.9      55.4      9.44
   01/13/2020 17:50      53.7      53.2       70     44.1      0.00      7.42      54.5     0.46      1019.1     2.3       S   189   3.7       S     189     270       -67       1.4       9.7      55.5      9.44
   01/13/2020 17:40      53.7      53.0       71     44.0      0.00      7.42      54.4     0.46      1019.0     1.5       S   191   2.9     SSW     197     270       -67       1.3       9.5      55.8      9.44
   01/13/2020 17:30      54.8      53.7       68     44.0      0.00      7.42      54.4     0.46      1018.9     1.4       S   191   2.2     SSW     211     269       -68       1.3       9.3      56.1      9.44
   01/13/2020 17:20      55.5      54.6       67     44.1      0.00      7.42      54.4     0.46      1018.7     1.6       S   184   2.7     SSW     195     269       -69       1.0       9.1      56.4      9.44
   01/13/2020 17:10      55.9      55.3       66     44.2      0.00      7.42      54.3     0.46      1018.6     1.7       S   184   3.5       S     178     269       -69       1.0       8.9      56.6      9.44
   01/13/2020 17:00      56.7      55.7       64     44.2      0.00      7.42      54.2     0.46      1018.6     1.9       S   179   3.8       S     180     269       -67       1.2       8.7      56.9      9.44
   01/13/2020 16:50      57.3      56.5       62     44.1      0.00      7.42      54.2     0.46      1018.5     2.8       S   182   4.6      SE     140     269       -64       1.9       8.5      57.2      9.45
   01/13/2020 16:40      58.1      57.1       61     44.2      0.00      7.42      54.1     0.46      1018.6     2.9       S   177   4.8       S     185     268       -58       1.9       8.2      57.4      9.45
   01/13/2020 16:30      59.1      57.9       59     44.1      0.00      7.42      54.1     0.46      1018.5     3.5       S   178   5.8       S     188     267       -37       2.6       7.9      57.5      9.45
   01/13/2020 16:20      60.2      59.0       56     43.7      0.00      7.42      54.0     0.46      1018.4     3.1       S   189   5.6      SW     219     267       -24       2.2       7.4      57.5      9.45
   01/13/2020 16:10      61.3      60.1       52     42.9      0.00      7.42      54.0     0.46      1018.3     2.7       S   191   4.7     SSE     167     267        -6       2.2       7.1      57.5      9.45
   01/13/2020 16:00      64.0      61.4       45     40.8      0.00      7.42      53.9     0.46      1018.2     2.5     SSW   193   5.3     SSW     201     266        10       2.0       6.7      57.4      9.45
   01/13/2020 15:50      64.8      63.7       39     39.1      0.00      7.42      53.9     0.46      1018.2     1.1     WSW   240   2.2     WSW     251     266        27       0.9       6.4      57.2      9.45
   01/13/2020 15:40      64.2      63.4       40     39.3      0.00      7.42      53.8     0.46      1018.2     0.5      NW   326   1.6      NW     316     266        50       0.5       6.2      57.0      9.45
   01/13/2020 15:30      64.0      62.5       42     39.5      0.00      7.42      53.8     0.46      1018.2     0.8     WSW   247   2.0       W     263     266        74       0.9       6.1      56.8      9.45
   01/13/2020 15:20      63.5      62.5       41     39.2      0.00      7.42      53.7     0.46      1018.2     1.5     SSW   202   2.7     SSW     203     266        95       1.2       6.0      56.5      9.45
   01/13/2020 15:10      63.4      62.6       42     39.4      0.00      7.42      53.7     0.46      1018.2     2.1      SW   218   3.7       S     169     266       117       1.6       5.8      56.3      9.45
   01/13/2020 15:00      63.3      62.0       42     39.3      0.00      7.42      53.6     0.46      1018.3     2.1     SSW   211   5.0      SW     217     266       141       1.6       5.5      56.0      9.45
   01/13/2020 14:50      63.2      62.8       41     39.3      0.00      7.42      53.6     0.46      1018.3     1.7     SSW   199   5.5      SW     216     266       160       1.3       5.3      55.6      9.45
   01/13/2020 14:40      63.7      63.0       41     39.2      0.00      7.42      53.5     0.46      1018.4     1.3     NNE    16   3.2       S     189     266       178       0.6       5.1      55.3      9.46
   01/13/2020 14:30      63.5      62.5       41     38.9      0.00      7.42      53.5     0.46      1018.5     0.8     SSW   193   2.0     WSW     247     266       197       0.7       5.0      54.9      9.46
   01/13/2020 14:20      63.2      62.6       41     38.6      0.00      7.42      53.5     0.46      1018.6     2.0     WSW   240   4.5      SW     221     266       212       1.5       4.8      54.5      9.46
   01/13/2020 14:10      63.1      62.3       41     38.9      0.00      7.42      53.4     0.46      1018.7     1.7       W   277   4.3     WNW     303     266       228       1.4       4.6      54.1      9.46
   01/13/2020 14:00      62.6      62.0       42     38.9      0.00      7.42      53.4     0.46      1018.8     1.8      NW   314   4.1     WSW     252     266       244       1.3       4.4      53.7      9.46
   01/13/2020 13:50      62.9      62.0       42     39.2      0.00      7.42      53.4     0.46      1019.0     1.6      SE   134   5.4     ESE     122     266       253       1.0       4.1      53.3      9.46
   01/13/2020 13:40      63.3      61.9       43     39.6      0.00      7.42      53.3     0.46      1019.0     1.6     ESE   111   4.3      SE     133     266       263       0.9       4.0      52.8      9.46
   01/13/2020 13:30      62.6      61.5       43     39.5      0.00      7.42      53.3     0.46      1019.1     1.3       N    11   3.6       S     186     266       266       0.8       3.8      52.4      9.46
   01/13/2020 13:20      61.6      61.3       44     39.1      0.00      7.42      53.3     0.46      1019.3     1.8       N    10   3.8       N       6     266       276       0.7       3.7      51.9      9.46
   01/13/2020 13:10      62.5      61.3       44     39.8      0.00      7.42      53.3     0.46      1019.4     1.9      NW   308   3.7      SW     231     266       293       1.3       3.6      51.4      9.46
   01/13/2020 13:00      62.1      60.6       47     40.7      0.00      7.42      53.2     0.46      1019.5     0.9     ESE   116   2.2     NNE      12     266       301       0.7       3.4      51.0      9.46
   01/13/2020 12:50      60.9      60.0       48     40.8      0.00      7.42      53.2     0.46      1019.7     1.1     NNE    23   3.1      NE      43     267       313       0.8       3.2      50.5      9.46
   01/13/2020 12:40      61.3      60.0       48     40.9      0.00      7.42      53.2     0.46      1019.8     1.3     NNW   346   4.3      NE      35     267       312       0.6       3.1      50.0      9.46
   01/13/2020 12:30      60.0      58.8       50     41.0      0.00      7.42      53.2     0.46      1019.9     1.5      SW   230   5.7     WSW     252     267       320       1.3       3.0      49.6      9.46
   01/13/2020 12:20      59.1      58.6       51     41.0      0.00      7.42      53.2     0.46      1020.1     2.1      SW   217   3.6     SSW     209     267       327       1.7       2.8      49.1      9.46
   01/13/2020 12:10      59.8      58.1       51     41.1      0.00      7.42      53.2     0.46      1020.3     1.6       W   272   4.9       W     266     267       313       1.0       2.5      48.5      9.46
   01/13/2020 12:00      60.0      58.1       51     41.1      0.00      7.42      53.2     0.46      1020.5     2.6      SW   228   3.8      SW     214     267       320       2.0       2.3      48.0      9.46
   01/13/2020 11:50      60.4      59.4       51     41.5      0.00      7.42      53.2     0.46      1020.7     0.9     WSW   245   3.3       W     263     267       329       1.0       2.0      47.5      9.46
   01/13/2020 11:40      59.6      58.3       53     41.6      0.00      7.42      53.2     0.46      1020.9     0.9       N   358   2.9       N     355     267       326       0.7       1.8      47.0      9.46
   01/13/2020 11:30      58.3      57.2       54     41.4      0.00      7.42      53.2     0.46      1021.0     1.5     WNW   297   3.8      NW     317     268       314       1.1       1.7      46.5      9.46
   01/13/2020 11:20      57.5      57.0       55     41.4      0.00      7.42      53.2     0.46      1021.1     1.4       N   358   2.8       N       0     268       309       0.7       1.5      46.1      9.46
   01/13/2020 11:10      58.0      57.0       55     41.6      0.00      7.42      53.3     0.46      1021.3     1.4       N   349   4.1       N       6     267       306       0.6       1.4      45.6      9.46
   01/13/2020 11:00      57.1      55.8       56     41.2      0.00      7.42      53.3     0.46      1021.4     1.7       W   265   4.0       W     259     267       305       1.5       1.3      45.1      9.46
   01/13/2020 10:50      57.4      56.0       56     41.0      0.00      7.42      53.3     0.46      1021.4     1.2     NNW   339   3.7       N       3     267       300       0.7       1.1      44.6      9.46
   01/13/2020 10:40      57.1      55.7       55     40.4      0.00      7.42      53.4     0.46      1021.4     1.0      NW   324   2.8     NNW     338     267       296       0.7       1.0      44.0      9.46
   01/13/2020 10:30      56.1      55.1       55     39.8      0.00      7.42      53.4     0.46      1021.5     0.9     ENE    77   2.1     ENE      71     267       287       0.5       0.8      43.6      9.46
   01/13/2020 10:20      55.3      53.3       56     38.8      0.00      7.42      53.4     0.46      1021.7     0.7       E    84   2.3     ENE      60     267       274       0.7       0.8      43.1      9.46
   01/13/2020 10:10      53.4      52.5       57     38.0      0.00      7.42      53.4     0.46      1021.7     1.4       N     5   4.1       N     354     268       261       0.6       0.6      42.6      9.46
   01/13/2020 10:00      53.1      52.6       58     38.3      0.00      7.42      53.5     0.46      1021.7     0.9       N     4   2.8     NNE      32     268       289       0.4       0.5      42.3      9.46
   01/13/2020 09:50      52.8      51.9       59     38.5      0.00      7.42      53.5     0.46      1021.6     0.7      NW   314   2.5     NNW     348     268       292       0.6       0.5      42.0      9.46
   01/13/2020 09:40      52.4      50.6       62     39.0      0.00      7.42      53.5     0.46      1021.6     0.3     NNW   335   1.9      NW     318     269       283       0.2       0.4      41.9      9.46
   01/13/2020 09:30      50.7      50.0       64     38.8      0.00      7.42      53.6     0.46      1021.5     0.4      NW   323   1.5     WNW     297     270       267       0.2       0.4      41.6      9.46
   01/13/2020 09:20      50.2      49.3       68     39.8      0.00      7.42      53.6     0.46      1021.4     0.4      NW   314   1.4     WNW     294     282       245       0.0       0.3      41.4      9.46
   01/13/2020 09:10      49.2      47.4       74     40.4      0.00      7.42      53.6     0.46      1021.4     0.0     WNW   297   0.5     WNW     288     322       222       0.0       0.3      41.1      9.46
   01/13/2020 09:00      47.5      46.6       83     42.0      0.00      7.42      53.7     0.46      1021.3     0.0     WNW   287   0.6     WNW     287     353       196       0.0       0.3      40.8      9.46
   01/13/2020 08:50      47.0      44.1       89     42.6      0.00      7.42      53.7     0.46      1021.3     0.0       N     0   0.0     WSW     238     377       169       0.0       0.3      40.5      9.46
   01/13/2020 08:40      44.2      42.5       92     41.1      0.00      7.42      53.7     0.46      1021.3     0.0       N     0   0.0     WSW     243     393       142       0.0       0.3      40.3      9.46
   01/13/2020 08:30      42.4      41.1       94     40.1      0.00      7.42      53.8     0.46      1021.2     0.0       N     0   0.0     SSW     210     408       110       0.0       0.3      39.9      9.46
   01/13/2020 08:20      41.0      38.9       96     38.7      0.00      7.42      53.8     0.46      1021.0     0.0       N     0   0.0       S     188     424        80       0.0       0.3      39.7      9.46
   01/13/2020 08:10      38.8      37.3       95     36.5      0.00      7.42      53.9     0.46      1020.8     0.0       N     0   0.0     SSW     195     465        58       0.0       0.3      39.5      9.46
   01/13/2020 08:00      37.5      37.1       95     36.0      0.00      7.42      53.9     0.46      1020.7     0.0       N     0   0.0     NNE      26     479        20       0.0       0.3      39.5      9.46
   01/13/2020 07:50      37.1      35.6       96     35.3      0.00      7.42      53.9     0.46      1020.5     0.0       N     4   1.0       N       3     478        15       0.0       0.3      39.6      9.46
   01/13/2020 07:40      35.7      35.0       95     34.0      0.00      7.42      54.0     0.46      1020.5     0.2     SSE   151   1.1     SSE     152     476        10       0.3       0.3      39.6      9.46
   01/13/2020 07:30      35.3      34.7       95     33.6      0.00      7.42      54.0     0.46      1020.4     0.0       N     0   0.0     SSE     150     471         5       0.0       0.3      39.7      9.46
   01/13/2020 07:20      35.4      34.7       95     33.8      0.00      7.42      54.0     0.46      1020.4     0.0       N     0   0.0       S     172     477        -0       0.2       0.2      39.8      9.46
   01/13/2020 07:10      35.6      35.0       95     33.9      0.00      7.42      54.0     0.46      1020.4     0.0       N     0   0.0     SSE     156     479        -6       0.0       0.2      39.9      9.46
   01/13/2020 07:00      35.9      35.1       95     34.2      0.00      7.42      54.1     0.46      1020.4     0.0       N     0   0.0     SSE     158     478        -9       0.0       0.2      40.1      9.46
   01/13/2020 06:50      35.3      35.0       95     33.9      0.00      7.42      54.1     0.46      1020.4     0.0       S   169   0.6       S     169     474       -11       0.0       0.2      40.2      9.46
   01/13/2020 06:40      35.4      34.8       95     33.7      0.00      7.42      54.1     0.46      1020.4     0.2     SSE   166   0.9       S     172     470       -11       0.0       0.2      40.4      9.46
   01/13/2020 06:30      35.7      35.0       95     33.9      0.00      7.42      54.2     0.46      1020.3     0.0       N     0   0.0     SSE     169     480       -12       0.0       0.2      40.5      9.46
   01/13/2020 06:20      35.6      35.1       95     34.0      0.00      7.42      54.2     0.46      1020.1     0.0       N     0   0.0       S     181     476       -12       0.0       0.2      40.7      9.46
   01/13/2020 06:10      35.8      35.3       95     34.2      0.00      7.42      54.2     0.46      1020.0     0.0       N     0   0.0       S     187     473       -12       0.0       0.2      40.9      9.46
   01/13/2020 06:00      36.0      35.5       95     34.4      0.00      7.42      54.3     0.46      1019.8     0.0       N     0   0.0       S     172     470       -12       0.0       0.2      41.1      9.47
   01/13/2020 05:50      36.1      35.6       95     34.5      0.00      7.42      54.3     0.46      1019.6     0.0       N     0   0.0     SSE     167     466       -12       0.0       0.2      41.2      9.47
   01/13/2020 05:40      36.7      35.7       94     34.7      0.00      7.42      54.3     0.46      1019.6     0.0       N     0   0.0     SSE     167     463       -13       0.0       0.2      41.4      9.47
   01/13/2020 05:30      36.6      36.1       95     35.0      0.00      7.42      54.3     0.46      1019.6     0.0     SSE   151   0.7     SSE     151     473       -12       0.0       0.2      41.5      9.47
   01/13/2020 05:20      36.4      35.9       95     34.7      0.00      7.42      54.4     0.46      1019.6     0.4     SSE   153   1.1     SSE     147     471       -13       0.0       0.2      41.8      9.47
   01/13/2020 05:10      36.7      36.1       94     34.9      0.00      7.42      54.4     0.46      1019.6     0.3     SSE   154   1.0      SE     146     469       -13       0.0       0.2      41.9      9.47
   01/13/2020 05:00      36.7      36.3       95     35.1      0.00      7.42      54.4     0.46      1019.6     0.0      SE   146   0.8      SE     146     465       -13       0.0       0.2      42.1      9.47
   01/13/2020 04:50      37.0      36.3       95     35.2      0.00      7.42      54.5     0.46      1019.5     0.0       N     0   0.0     SSE     153     463       -13       0.0       0.2      42.3      9.47
   01/13/2020 04:40      36.9      36.3       94     35.0      0.00      7.42      54.5     0.46      1019.4     0.2       S   173   0.9       S     179     460       -13       0.1       0.2      42.5      9.47
   01/13/2020 04:30      37.2      36.7       95     35.5      0.00      7.42      54.5     0.46      1019.3     0.0     SSE   166   0.7     SSE     167     457       -13       0.0       0.2      42.7      9.47
   01/13/2020 04:20      37.2      36.8       94     35.5      0.00      7.42      54.5     0.46      1019.3     0.0       N     0   0.0       S     190     466       -14       0.0       0.2      42.8      9.47
   01/13/2020 04:10      37.1      36.6       94     35.3      0.00      7.42      54.6     0.46      1019.3     0.0       N     0   0.0      SE     139     462       -14       0.0       0.2      43.0      9.47
   01/13/2020 04:00      37.5      36.9       94     35.7      0.00      7.42      54.6     0.46      1019.3     0.0       N     0   0.0     SSE     156     461       -14       0.0       0.2      43.2      9.47
   01/13/2020 03:50      37.6      36.8       94     35.6      0.00      7.42      54.6     0.46      1019.3     0.3     SSE   158   1.1     SSE     147     458       -14       0.0       0.2      43.4      9.47
   01/13/2020 03:40      37.8      37.4       94     36.0      0.00      7.42      54.6     0.46      1019.3     0.0      SE   145   0.2      SE     145     455       -15       0.0       0.2      43.5      9.47
   01/13/2020 03:30      38.1      37.4       94     36.2      0.00      7.42      54.7     0.46      1019.4     0.0     SSE   149   0.9     SSE     149     461       -15       0.0       0.2      43.7      9.47
   01/13/2020 03:20      38.0      37.4       94     36.1      0.00      7.42      54.7     0.46      1019.5     0.5     SSW   194   1.4       S     188     476       -15       0.0       0.2      43.9      9.47
   01/13/2020 03:10      38.0      37.4       94     35.9      0.00      7.42      54.7     0.46      1019.5     0.1     ESE   116   0.7     ESE     116     476       -15       0.0       0.2      44.1      9.47
   01/13/2020 03:00      38.4      37.8       94     36.5      0.00      7.42      54.8     0.46      1019.6     0.1     SSW   213   0.7      SW     231     473       -15       0.0       0.2      44.3      9.47
   01/13/2020 02:50      38.5      37.8       93     36.4      0.00      7.42      54.8     0.46      1019.5     0.0     SSW   206   0.6     SSW     204     473       -16       0.1       0.2      44.5      9.47
   01/13/2020 02:40      39.1      38.5       94     37.1      0.00      7.42      54.8     0.46      1019.5     0.0     SSE   166   0.8      SE     140     471       -16       0.0       0.2      44.6      9.47
   01/13/2020 02:30      38.9      38.3       94     37.0      0.00      7.42      54.8     0.46      1019.5     0.2     SSE   166   1.0       S     189     465       -16       0.0       0.2      44.8      9.47
   01/13/2020 02:20      39.2      38.4       93     37.0      0.00      7.42      54.8     0.46      1019.5     0.3     SSE   153   1.2     SSW     192     461       -16       0.0       0.2      45.0      9.47
   01/13/2020 02:10      39.1      38.7       94     37.3      0.00      7.42      54.9     0.46      1019.5     0.1     SSE   162   0.6     SSE     165     461       -16       0.0       0.1      45.2      9.47
   01/13/2020 02:00      39.3      38.8       93     37.2      0.00      7.42      54.9     0.46      1019.5     0.2     SSE   155   1.0     SSE     148     462       -16       0.0       0.1      45.4      9.47
   01/13/2020 01:50      39.3      38.9       93     37.4      0.00      7.42      54.9     0.46      1019.5     0.2     SSE   155   1.0     SSE     160     459       -17       0.0       0.1      45.6      9.47
   01/13/2020 01:40      39.4      39.0       93     37.4      0.00      7.42      54.9     0.46      1019.5     0.0       N     0   0.0     SSE     157     456       -17       0.0       0.1      45.7      9.47
   01/13/2020 01:30      39.7      39.2       93     37.7      0.00      7.42      55.0     0.46      1019.4     0.4     SSE   149   1.1      SE     145     452       -16       0.0       0.1      45.9      9.47
   01/13/2020 01:20      40.0      39.5       93     38.0      0.00      7.42      55.0     0.46      1019.3     0.6     SSE   157   1.2     SSE     162     449       -16       0.1       0.1      46.1      9.47
   01/13/2020 01:10      40.2      39.5       93     38.0      0.00      7.42      55.0     0.46      1019.4     0.5     SSE   162   1.1     SSE     152     455       -17       0.2       0.0      46.3      9.47
   01/13/2020 01:00      40.2      39.8       93     38.2      0.00      7.42      55.0     0.46      1019.3     0.3     SSE   153   0.8     SSE     153     452       -17       0.0       0.0      46.5      9.47
   01/13/2020 00:50      40.5      40.0       93     38.4      0.00      7.42      55.0     0.46      1019.2     0.2     SSE   150   1.0     SSE     151     449       -17       0.0       0.0      46.7      9.47
   01/13/2020 00:40      40.5      40.0       93     38.5      0.00      7.42      55.1     0.46      1019.2     0.6     SSE   164   1.3       S     175     446       -18       0.2       0.0      46.9      9.47
   01/13/2020 00:30      40.5      40.1       93     38.5      0.00      7.42      55.1     0.46      1019.3     0.0       N     0   0.0     SSE     148     441       -18       0.0       0.0      47.1      9.47
   01/13/2020 00:20      41.0      40.4       93     38.8      0.00      7.42      55.1     0.46      1019.3     0.5       S   177   1.6     SSW     199     436       -18       0.0       0.0      47.3      9.47
   01/13/2020 00:10      40.9      40.6       93     38.9      0.00      7.42      55.1     0.46      1019.2     0.5     SSE   167   1.0       S     189     427       -19       0.0       0.0      47.5      9.47
   01/13/2020 00:00      41.0      40.6       93     38.9      0.00      7.42      55.1     0.47      1019.2     0.3       S   180   1.1     SSE     157     425       -19       0.0      19.2      47.7      9.47
   01/12/2020 23:50      41.3      40.5       93     38.9      0.00      7.42      55.1     0.46      1019.3     0.4     SSE   157   1.3      SE     145     415       -20       0.2      19.2      47.9      9.47
   01/12/2020 23:40      41.5      41.0       92     39.2      0.00      7.42      55.2     0.46      1019.4     0.0       N     0   0.0     SSE     150     411       -21       0.0      19.2      48.1      9.47
   01/12/2020 23:30      41.9      41.3       92     39.6      0.00      7.42      55.2     0.46      1019.3     0.1     SSE   153   0.6     SSE     160     407       -21       0.0      19.2      48.3      9.48
   01/12/2020 23:20      42.1      41.7       92     39.9      0.00      7.42      55.2     0.47      1019.2     0.1     SSE   166   0.6     SSE     159     400       -22       0.0      19.2      48.5      9.48
   01/12/2020 23:10      42.1      41.6       92     39.7      0.00      7.42      55.2     0.47      1019.2     0.2       S   174   1.0       S     179     397       -22       0.0      19.2      48.7      9.48
   01/12/2020 23:00      42.2      41.4       92     39.7      0.00      7.42      55.2     0.46      1019.3     0.2       S   175   1.2       S     173     389       -23       0.0      19.1      48.9      9.48
   01/12/2020 22:50      42.0      41.3       91     39.2      0.00      7.42      55.2     0.46      1019.3     0.2      SE   141   0.8      SE     124     389       -24       0.0      19.1      49.1      9.48
   01/12/2020 22:40      42.9      41.9       92     40.3      0.00      7.42      55.2     0.46      1019.4     0.3     SSE   156   1.1     SSE     146     381       -23       0.3      19.1      49.3      9.48
   01/12/2020 22:30      42.9      42.4       92     40.4      0.00      7.42      55.2     0.47      1019.4     0.7       S   186   2.1       S     181     377       -24       0.5      19.1      49.6      9.48
   01/12/2020 22:20      43.0      42.7       91     40.6      0.00      7.42      55.2     0.47      1019.4     0.1     SSE   164   1.3       S     188     373       -25       0.0      19.0      49.8      9.48
   01/12/2020 22:10      43.3      42.7       91     40.6      0.00      7.42      55.2     0.47      1019.3     0.0     SSE   163   0.7     SSE     147     367       -25       0.0      19.0      50.0      9.48
   01/12/2020 22:00      43.4      42.8       91     40.7      0.00      7.42      55.2     0.47      1019.1     0.4     SSE   164   1.1     SSE     167     364       -26       0.3      19.0      50.2      9.48
   01/12/2020 21:50      43.2      42.5       91     40.4      0.00      7.42      55.2     0.47      1019.0     0.5     SSE   165   1.2     SSE     152     359       -27       0.3      18.9      50.4      9.48
   01/12/2020 21:40      43.5      42.7       91     40.5      0.00      7.42      55.2     0.47      1019.0     0.8     SSE   168   1.8       S     184     355       -27       0.4      18.9      50.6      9.48
   01/12/2020 21:30      44.1      43.1       90     40.8      0.00      7.42      55.2     0.47      1019.0     0.8     SSE   155   1.5      SE     144     353       -28       0.3      18.8      50.8      9.48
   01/12/2020 21:20      44.3      43.6       90     41.3      0.00      7.42      55.2     0.47      1019.1     0.5     SSW   204   2.1       S     189     346       -29       0.4      18.8      51.1      9.48
   01/12/2020 21:10      44.1      43.5       90     41.0      0.00      7.42      55.2     0.47      1018.9     0.0       N     0   0.0     ESE     113     342       -31       0.0      18.7      51.3      9.48
   01/12/2020 21:00      44.8      43.6       89     41.1      0.00      7.42      55.2     0.47      1018.8     0.3      SE   141   1.1      SE     145     338       -32       0.0      18.7      51.5      9.48
   01/12/2020 20:50      44.9      44.5       89     41.7      0.00      7.42      55.2     0.47      1018.8     0.4     SSE   167   1.8       S     173     334       -33       0.4      18.7      51.7      9.48
   01/12/2020 20:40      45.1      44.6       89     41.7      0.00      7.42      55.2     0.47      1018.6     0.5      SE   146   1.6      SE     142     327       -36       0.0      18.6      51.9      9.48
   01/12/2020 20:30      46.1      44.7       88     41.9      0.00      7.42      55.2     0.47      1018.5     0.8       S   170   3.2     SSW     191     322       -36       0.6      18.6      52.0      9.48
   01/12/2020 20:20      46.2      45.7       88     42.8      0.00      7.42      55.2     0.47      1018.6     2.0     SSW   198   3.2       S     191     318       -37       1.2      18.5      52.4      9.48
   01/12/2020 20:10      46.5      46.0       88     42.8      0.00      7.42      55.2     0.47      1018.4     0.5     SSW   192   1.5     SSW     207     311       -43       0.4      18.3      52.6      9.48
   01/12/2020 20:00      46.9      46.3       87     42.8      0.00      7.42      55.1     0.47      1018.3     0.4       S   185   1.5     SSW     193     301       -48       0.2      18.3      52.9      9.49
   01/12/2020 19:50      46.9      46.5       86     42.6      0.00      7.42      55.1     0.47      1018.2     0.0     SSW   193   0.5     SSW     199     295       -55       0.0      18.2      53.1      9.49
   01/12/2020 19:40      47.5      46.6       84     42.2      0.00      7.42      55.1     0.47      1018.1     0.0     WSW   243   0.5     WSW     243     284       -61       0.1      18.2      53.3      9.49
   01/12/2020 19:30      48.5      47.3       83     43.1      0.00      7.42      55.1     0.47      1018.1     0.8      SE   139   1.5      SE     146     277       -62       0.2      18.2      53.5      9.49
   01/12/2020 19:20      49.3      48.3       81     43.2      0.00      7.42      55.0     0.47      1018.2     0.8     SSE   160   1.3     SSE     165     266       -62       0.5      18.2      53.8      9.49
   01/12/2020 19:10      50.4      49.1       79     43.5      0.00      7.42      55.0     0.47      1018.0     0.4       E    91   1.5       N       2     260       -64       0.0      18.1      54.0      9.49
   01/12/2020 19:00      50.9      50.3       79     44.2      0.00      7.42      55.0     0.47      1017.8     1.0       S   176   2.0     SSE     163     258       -65       0.4      18.1      54.2      9.49
   01/12/2020 18:50      50.8      50.3       80     44.6      0.00      7.42      55.0     0.47      1017.8     1.0     SSW   197   2.2     WSW     255     258       -64       0.2      18.0      54.4      9.49
   01/12/2020 18:40      50.9      50.4       81     44.9      0.00      7.42      54.9     0.47      1017.7     0.8     SSW   200   1.7     SSW     201     258       -64       0.3      18.0      54.6      9.49
   01/12/2020 18:30      51.4      50.7       80     45.1      0.00      7.42      54.9     0.47      1017.7     1.1     SSW   197   2.7     SSW     201     261       -66       0.7      17.9      54.8      9.49
   01/12/2020 18:20      52.2      51.2       78     45.2      0.00      7.42      54.8     0.47      1017.7     1.7      SW   218   2.4     SSW     206     268       -66       1.1      17.8      55.1      9.49
   01/12/2020 18:10      52.8      52.1       77     45.5      0.00      7.42      54.8     0.47      1017.6     1.9     SSW   209   3.5       S     184     270       -69       1.2      17.6      55.3      9.50
   01/12/2020 18:00      53.1      52.6       76     45.4      0.00      7.42      54.7     0.47      1017.6     2.3     SSW   207   3.5     SSW     204     270       -69       1.6      17.4      55.5      9.50
   01/12/2020 17:50      53.9      53.0       74     45.3      0.00      7.42      54.7     0.47      1017.6     2.2     SSW   203   3.4      SW     216     270       -71       1.4      17.2      55.8      9.50
   01/12/2020 17:40      54.2      53.5       72     45.0      0.00      7.42      54.6     0.47      1017.6     2.5       S   184   3.6     SSW     192     269       -72       1.6      16.9      56.0      9.50
   01/12/2020 17:30      55.3      54.1       69     44.7      0.00      7.42      54.6     0.47      1017.6     2.0       S   182   4.1       S     184     269       -73       1.5      16.7      56.3      9.50
   01/12/2020 17:20      56.0      55.1       61     42.4      0.00      7.42      54.5     0.47      1017.5     2.3       S   188   3.4     SSW     199     269       -74       1.6      16.4      56.5      9.50
   01/12/2020 17:10      57.1      55.9       56     41.0      0.00      7.42      54.5     0.47      1017.4     2.7     SSW   212   5.0      SW     222     268       -73       1.9      16.1      56.8      9.50
   01/12/2020 17:00      58.1      57.0       53     40.5      0.00      7.42      54.5     0.47      1017.5     2.1     WSW   251   4.4       W     260     268       -70       1.4      15.8      57.1      9.50
   01/12/2020 16:50      58.7      58.0       51     40.3      0.00      7.42      54.4     0.47      1017.3     1.8       W   276   3.9     WSW     237     267       -67       1.3      15.6      57.4      9.51
   01/12/2020 16:40      59.6      58.6       48     39.7      0.00      7.42      54.3     0.47      1017.0     1.7     WNW   303   4.2     WNW     295     267       -63       0.8      15.4      57.5      9.51
   01/12/2020 16:30      60.5      59.6       45     38.9      0.00      7.42      54.3     0.47      1016.9     2.4     WNW   285   5.0       W     265     266       -43       1.5      15.3      57.6      9.51
   01/12/2020 16:20      61.1      60.4       44     38.8      0.00      7.42      54.2     0.47      1016.8     1.8     WNW   295   4.3     WNW     289     266       -28       1.1      15.0      57.7      9.51
   01/12/2020 16:10      61.8      60.8       44     39.0      0.00      7.42      54.2     0.46      1016.8     2.5     WNW   283   6.3     WSW     236     266        -8       1.8      14.8      57.6      9.51
   01/12/2020 16:00      61.6      61.3       44     39.1      0.00      7.42      54.1     0.46      1016.9     2.8       W   280   5.5     WSW     258     266        14       2.2      14.5      57.6      9.51
   01/12/2020 15:50      62.5      61.5       43     39.1      0.00      7.42      54.1     0.47      1016.9     3.7     WNW   288   6.8     WSW     250     266        35       2.1      14.2      57.5      9.51
   01/12/2020 15:40      63.3      62.3       42     39.5      0.00      7.42      54.0     0.46      1016.9     3.1     WNW   295   6.5       W     275     266        57       2.3      13.8      57.4      9.51
   01/12/2020 15:30      63.4      62.8       42     39.5      0.00      7.42      54.0     0.46      1016.8     2.3      NW   307   5.0     WSW     255     266        78       1.5      13.4      57.2      9.52
   01/12/2020 15:20      63.4      62.9       42     39.5      0.00      7.42      53.9     0.46      1016.8     3.3     WNW   298   6.5       W     269     266       100       2.1      13.2      56.9      9.52
   01/12/2020 15:10      63.4      62.9       42     39.8      0.00      7.42      53.9     0.46      1016.4     3.6      SW   230   6.2       W     268     266       122       2.5      12.8      56.7      9.52
   01/12/2020 15:00      64.0      63.1       39     38.4      0.00      7.42      53.8     0.46      1016.3     4.1      SW   234   6.8      SW     235     266       143       3.0      12.4      56.4      9.52
   01/12/2020 14:50      64.6      63.4       35     36.1      0.00      7.42      53.8     0.46      1016.4     2.4      SW   231   5.7     SSW     206     265       161       1.9      11.9      56.0      9.52
   01/12/2020 14:40      64.6      63.7       36     36.3      0.00      7.42      53.7     0.46      1016.4     2.5     WSW   246   5.4     SSW     203     266       180       2.0      11.6      55.6      9.52
   01/12/2020 14:30      63.9      63.2       36     36.3      0.00      7.42      53.7     0.46      1016.4     2.6     WSW   239   5.0     WSW     237     266       199       2.2      11.2      55.3      9.52
   01/12/2020 14:20      65.1      63.2       37     36.9      0.00      7.42      53.6     0.46      1016.5     4.4     WSW   241   8.2      SW     233     266       215       3.3      10.9      54.9      9.52
   01/12/2020 14:10      65.5      63.5       36     37.1      0.00      7.42      53.6     0.46      1016.6     1.4      SW   230   4.5       S     177     265       228       1.4      10.3      54.5      9.52
   01/12/2020 14:00      64.3      63.2       37     36.8      0.00      7.42      53.6     0.46      1016.7     2.7     WSW   258   6.1     WNW     287     266       244       2.2      10.1      54.1      9.53
   01/12/2020 13:50      63.5      62.9       37     36.8      0.00      7.42      53.5     0.46      1016.7     3.3     SSW   197   6.4     SSW     195     266       258       2.5       9.7      53.6      9.53
   01/12/2020 13:40      63.5      63.1       38     37.3      0.00      7.42      53.5     0.46      1016.9     3.6     WSW   257   6.4       W     262     266       270       2.9       9.3      53.2      9.53
   01/12/2020 13:30      63.4      62.3       39     37.4      0.00      7.42      53.5     0.46      1017.0     3.0       S   186   7.3       S     184     266       282       2.5       8.8      52.8      9.53
   01/12/2020 13:20      63.6      62.5       39     37.6      0.00      7.42      53.4     0.46      1017.1     3.7     SSW   207   6.9       S     184     266       292       2.9       8.4      52.2      9.53
   01/12/2020 13:10      63.4      62.1       38     36.7      0.00      7.42      53.4     0.46      1017.2     2.3     SSW   212   5.2      SW     223     266       301       1.6       8.0      51.7      9.53
   01/12/2020 13:00      62.6      62.1       37     35.8      0.00      7.42      53.4     0.46      1017.3     3.3       S   181   5.9       S     180     266       311       2.6       7.7      51.2      9.53
   01/12/2020 12:50      63.6      62.5       36     35.6      0.00      7.42      53.4     0.46      1017.3     3.0      SW   229   6.9     SSW     198     266       316       2.2       7.3      50.7      9.53
   01/12/2020 12:40      64.7      62.6       34     35.0      0.00      7.42      53.4     0.46      1017.7     1.2      SW   223   5.4      SW     218     265       320       1.0       6.9      50.2      9.53
   01/12/2020 12:30      63.1      61.8       35     34.4      0.00      7.42      53.4     0.46      1017.9     1.6       W   262   4.7     WSW     240     266       326       1.5       6.7      49.7      9.53
   01/12/2020 12:20      63.0      61.5       34     33.9      0.00      7.42      53.4     0.46      1018.2     1.7       W   269   5.7     WSW     252     266       330       1.5       6.5      49.2      9.53
   01/12/2020 12:10      61.9      61.0       35     33.9      0.00      7.42      53.4     0.46      1018.4     1.7     WNW   291   4.1     WSW     253     266       333       1.3       6.2      48.6      9.53
   01/12/2020 12:00      61.9      59.9       36     33.7      0.00      7.42      53.4     0.46      1018.6     1.7     WSW   256   5.7     WSW     239     266       334       1.4       6.0      48.1      9.53
   01/12/2020 11:50      60.4      59.9       35     32.6      0.00      7.42      53.4     0.46      1018.9     2.1      SW   224   4.8     SSW     207     266       332       1.5       5.8      47.5      9.53
   01/12/2020 11:40      60.4      59.2       36     32.6      0.00      7.42      53.4     0.46      1019.0     2.0       W   260   4.8     WNW     293     266       329       1.4       5.5      47.0      9.53
   01/12/2020 11:30      60.4      59.2       35     32.4      0.00      7.42      53.4     0.46      1019.2     2.6     WSW   249   5.2       W     265     266       327       2.1       5.3      46.5      9.53
   01/12/2020 11:20      59.8      58.8       37     32.9      0.00      7.42      53.4     0.46      1019.4     0.9       N     6   2.7       N       9     266       320       0.7       4.9      46.0      9.53
   01/12/2020 11:10      60.1      59.0       37     33.5      0.00      7.42      53.4     0.46      1019.5     1.9      NW   309   4.3     WSW     248     266       316       1.3       4.8      45.5      9.53
   01/12/2020 11:00      59.9      59.3       39     34.2      0.00      7.42      53.4     0.46      1019.7     0.8       N   352   2.9       N       2     266       308       0.4       4.6      45.0      9.53
   01/12/2020 10:50      60.6      59.7       37     34.1      0.00      7.42      53.5     0.46      1019.9     0.7      NW   317   3.2      NW     311     266       299       0.6       4.5      44.5      9.53
   01/12/2020 10:40      60.3      59.0       39     34.4      0.00      7.42      53.5     0.46      1020.1     0.6     ESE   118   3.1     SSE     155     266       292       0.5       4.4      43.9      9.54
   01/12/2020 10:30      59.2      57.6       41     35.0      0.00      7.42      53.5     0.46      1020.2     0.6       E    86   2.0       W     273     266       282       0.5       4.3      43.5      9.54
   01/12/2020 10:20      57.6      56.4       44     35.2      0.00      7.42      53.6     0.46      1020.5     0.7       E    83   2.8      SE     140     266       270       0.5       4.3      43.0      9.54
   01/12/2020 10:10      56.9      55.6       47     36.0      0.00      7.42      53.6     0.46      1020.7     0.6     WNW   289   2.0     SSE     149     267       257       0.5       4.2      42.5      9.54
   01/12/2020 10:00      55.8      53.7       50     36.4      0.00      7.42      53.6     0.46      1021.0     0.6       N    10   2.0       N       0     267       243       0.1       4.1      42.2      9.54
   01/12/2020 09:50      54.3      53.5       53     37.1      0.00      7.42      53.7     0.46      1021.0     1.3     NNE    13   3.4     NNE      33     267       230       0.4       4.1      41.9      9.54
   01/12/2020 09:40      53.5      51.5       55     36.8      0.00      7.42      53.7     0.46      1021.0     1.1     WNW   296   2.6       W     273     267       215       0.6       4.0      41.8      9.54
   01/12/2020 09:30      52.0      51.3       56     36.4      0.00      7.42      53.8     0.46      1021.0     2.6       W   262   3.7       W     266     267       199       1.9       3.9      41.5      9.54
   01/12/2020 09:20      52.7      51.8       55     36.6      0.00      7.42      53.8     0.46      1021.1     1.1       W   276   3.4     WSW     238     267       182       0.9       3.6      41.2      9.54
   01/12/2020 09:10      51.9      50.9       55     35.9      0.00      7.42      53.8     0.46      1021.1     0.6      NW   318   1.8     WNW     297     267       161       0.0       3.5      40.9      9.54
   01/12/2020 09:00      51.1      50.1       56     35.7      0.00      7.42      53.9     0.46      1020.9     0.4     NNW   329   2.1      NW     322     267       140       0.0       3.5      40.5      9.54
   01/12/2020 08:50      50.0      46.7       61     35.4      0.00      7.42      53.9     0.46      1020.7     0.7     SSE   148   2.3       S     180     268       121       0.4       3.4      40.3      9.54
   01/12/2020 08:40      46.8      44.4       69     35.9      0.00      7.42      53.9     0.46      1020.7     1.4       S   169   3.0       S     174     269       115       1.2       3.4      40.0      9.54
   01/12/2020 08:30      44.5      42.5       74     35.8      0.00      7.42      54.0     0.46      1020.8     1.6     SSE   159   3.0     SSE     164     271       126       1.4       3.2      39.6      9.54
   01/12/2020 08:20      42.3      39.4       81     35.7      0.00      7.42      54.0     0.46      1020.9     0.7     SSE   163   1.8     SSW     203     303       124       0.3       2.9      39.4      9.54
   01/12/2020 08:10      39.3      37.7       86     34.6      0.00      7.42      54.0     0.46      1020.7     1.2     SSE   153   2.9       S     183     347       103       0.7       2.9      39.3      9.54
   01/12/2020 08:00      37.9      36.6       88     33.9      0.00      7.42      54.1     0.46      1020.5     1.1       S   176   1.7     SSE     158     353         2       1.0       2.8      39.2      9.54
   01/12/2020 07:50      36.9      36.0       89     33.6      0.00      7.42      54.1     0.46      1020.3     0.7       S   175   2.2       S     182     352        -3       0.6       2.6      39.3      9.54
   01/12/2020 07:40      35.9      35.0       90     32.6      0.00      7.42      54.1     0.46      1020.1     0.1      SE   146   1.3     WSW     244     350        -7       0.0       2.5      39.3      9.54
   01/12/2020 07:30      35.2      34.4       90     32.0      0.00      7.42      54.2     0.46      1020.0     0.9     WSW   238   2.2     WSW     258     348       -13       0.7       2.5      39.3      9.54
   01/12/2020 07:20      35.2      34.5       89     32.1      0.00      7.42      54.2     0.46      1020.0     0.8     ENE    61   1.7      NE      42     345       -18       0.1       2.4      39.4      9.54
   01/12/2020 07:10      35.2      34.7       90     32.2      0.00      7.42      54.2     0.46      1020.0     0.4       S   171   1.5       S     177     343       -22       0.4       2.4      39.5      9.54
   01/12/2020 07:00      35.2      34.6       89     32.0      0.00      7.42      54.3     0.46      1020.2     0.4       E    91   2.2     ENE      71     338       -26       0.1       2.3      39.6      9.55
   01/12/2020 06:50      35.3      34.5       89     32.1      0.00      7.42      54.3     0.46      1020.3     0.2      SE   128   1.1       E      85     338       -29       0.0       2.3      39.7      9.55
   01/12/2020 06:40      35.0      34.6       89     31.7      0.00      7.42      54.3     0.46      1020.3     0.8     SSE   149   1.5     SSE     154     333       -31       0.4       2.3      39.9      9.55
   01/12/2020 06:30      34.9      34.5       88     31.6      0.00      7.42      54.4     0.46      1020.4     0.7     SSE   159   1.4      SE     143     328       -32       0.2       2.2      40.0      9.55
   01/12/2020 06:20      34.8      34.2       88     31.3      0.00      7.42      54.4     0.46      1020.3     0.8       S   182   1.8     SSW     191     325       -32       0.4       2.2      40.2      9.55
   01/12/2020 06:10      35.3      34.5       87     31.3      0.00      7.42      54.4     0.46      1020.1     0.9     SSW   196   1.6       S     190     321       -34       0.8       2.1      40.4      9.55
   01/12/2020 06:00      35.3      34.8       88     31.7      0.00      7.42      54.5     0.46      1019.8     0.9      SW   220   2.0     SSW     207     319       -35       0.5       2.0      40.6      9.55
   01/12/2020 05:50      35.1      34.7       87     31.5      0.00      7.42      54.5     0.46      1019.8     0.5       N   350   1.5      NW     318     317       -36       0.1       1.9      40.8      9.55
   01/12/2020 05:40      35.5      34.6       86     31.2      0.00      7.42      54.5     0.46      1019.8     0.9      SE   146   2.1      SE     140     313       -37       0.1       1.9      40.9      9.55
   01/12/2020 05:30      36.1      35.3       85     31.7      0.00      7.42      54.5     0.46      1020.0     0.2       S   170   1.2       S     180     308       -39       0.2       1.9      41.1      9.55
   01/12/2020 05:20      36.3      35.7       86     32.1      0.00      7.42      54.6     0.46      1020.1     0.5      SW   221   1.3      SW     227     304       -39       0.2       1.8      41.3      9.55
   01/12/2020 05:10      36.4      35.8       86     32.3      0.00      7.42      54.6     0.46      1020.0     0.0       S   169   0.5       S     169     302       -41       0.0       1.8      41.4      9.55
   01/12/2020 05:00      36.4      35.9       86     32.3      0.00      7.42      54.6     0.46      1019.9     0.1     SSE   166   0.8     SSE     156     298       -43       0.0       1.8      41.6      9.55
   01/12/2020 04:50      36.7      35.6       85     31.8      0.00      7.42      54.6     0.46      1019.8     0.5     SSE   148   1.6      SE     138     295       -45       0.3       1.8      41.8      9.55
   01/12/2020 04:40      36.6      36.1       85     32.1      0.00      7.42      54.7     0.46      1019.9     1.0       S   188   2.1     SSW     203     290       -46       0.6       1.7      42.0      9.55
   01/12/2020 04:30      37.1      36.4       83     32.2      0.00      7.42      54.7     0.46      1019.9     0.0     SSE   160   0.2     SSE     160     287       -49       0.0       1.6      42.2      9.55
   01/12/2020 04:20      37.4      36.9       83     32.4      0.00      7.42      54.7     0.46      1019.8     0.0     SSW   193   0.9     SSW     198     281       -50       0.0       1.6      42.4      9.55
   01/12/2020 04:10      37.8      37.2       83     32.7      0.00      7.42      54.8     0.46      1019.9     0.0       N     0   0.0     SSE     150     278       -53       0.0       1.6      42.5      9.55
   01/12/2020 04:00      37.8      36.9       83     32.7      0.00      7.42      54.8     0.46      1019.9     0.5     SSE   151   1.0     SSE     152     273       -55       0.0       1.6      42.7      9.55
   01/12/2020 03:50      37.3      36.5       82     32.0      0.00      7.42      54.8     0.46      1019.8     0.6     SSE   161   1.7     SSW     192     269       -57       0.3       1.6      42.9      9.55
   01/12/2020 03:40      37.8      37.1       81     32.3      0.00      7.42      54.9     0.46      1019.9     0.8     SSE   153   1.5       S     171     264       -57       0.3       1.6      43.0      9.55
   01/12/2020 03:30      38.1      37.4       80     32.0      0.00      7.42      54.9     0.46      1020.0     0.7     SSE   148   1.2      SE     137     260       -57       0.0       1.5      43.2      9.55
   01/12/2020 03:20      39.1      38.1       79     32.8      0.00      7.42      54.9     0.46      1019.8     1.7     SSW   212   3.8     WNW     284     262       -58       0.6       1.5      43.4      9.55
   01/12/2020 03:10      38.1      37.4       80     32.1      0.00      7.42      54.9     0.46      1019.8     1.9      SW   227   4.5       W     266     265       -58       0.7       1.4      43.6      9.56
   01/12/2020 03:00      37.7      37.3       81     32.3      0.00      7.42      55.0     0.46      1019.6     1.7     WSW   236   3.4     WSW     255     268       -58       0.3       1.3      43.8      9.56
   01/12/2020 02:50      37.3      36.9       81     31.7      0.00      7.42      55.0     0.46      1019.6     0.4      SW   219   1.6      SW     231     267       -59       0.2       1.2      44.0      9.56
   01/12/2020 02:40      37.7      37.2       80     31.9      0.00      7.42      55.0     0.47      1019.7     0.5     NNE    30   1.7      NE      42     264       -60       0.0       1.2      44.2      9.56
   01/12/2020 02:30      38.7      37.5       78     31.4      0.00      7.42      55.0     0.46      1019.7     0.4      SE   127   1.3     SSE     148     261       -60       0.0       1.2      44.4      9.56
   01/12/2020 02:20      39.5      38.7       76     32.2      0.00      7.42      55.1     0.46      1019.8     0.7      SE   141   3.1      SE     141     266       -61       0.0       1.2      44.6      9.56
   01/12/2020 02:10      40.2      39.2       74     31.9      0.00      7.42      55.1     0.47      1019.8     0.5     SSW   213   2.6      SE     144     269       -61       0.5       1.2      44.8      9.56
   01/12/2020 02:00      40.8      40.0       71     32.0      0.00      7.42      55.1     0.47      1019.9     0.9      SE   138   2.4      SE     135     271       -61       0.4       1.1      45.0      9.56
   01/12/2020 01:50      41.0      40.6       71     32.1      0.00      7.42      55.1     0.47      1020.0     0.7       S   181   2.1     SSW     193     271       -62       0.4       1.0      45.2      9.56
   01/12/2020 01:40      42.6      40.6       69     31.7      0.00      7.42      55.2     0.47      1019.8     0.7     SSE   165   2.5       S     176     271       -62       0.5       1.0      45.4      9.56
   01/12/2020 01:30      43.9      42.6       64     31.9      0.00      7.42      55.2     0.47      1019.6     1.0      NW   320   3.9     WSW     257     271       -63       0.5       0.9      45.6      9.56
   01/12/2020 01:20      42.9      42.1       67     32.4      0.00      7.42      55.2     0.47      1019.5     1.3       W   261   2.5      SW     230     271       -62       0.5       0.8      45.8      9.56
   01/12/2020 01:10      44.1      42.3       64     32.2      0.00      7.42      55.2     0.47      1019.4     0.8      SE   138   2.5      SE     144     271       -63       0.3       0.7      45.9      9.56
   01/12/2020 01:00      44.1      43.2       66     32.7      0.00      7.42      55.3     0.47      1019.4     1.3      SW   229   3.0     WSW     240     271       -64       0.8       0.7      46.1      9.56
   01/12/2020 00:50      43.7      42.1       67     33.1      0.00      7.42      55.3     0.47      1019.3     2.1     SSE   159   3.6     SSW     196     271       -63       1.0       0.5      46.2      9.57
   01/12/2020 00:40      42.1      41.5       73     33.8      0.00      7.42      55.3     0.47      1019.3     2.1     SSE   157   3.3     SSE     163     271       -63       1.0       0.4      46.5      9.57
   01/12/2020 00:30      42.5      41.7       71     33.3      0.00      7.42      55.3     0.47      1019.3     0.5       S   173   1.9       S     190     271       -63       0.3       0.2      46.7      9.57
   01/12/2020 00:20      42.1      40.6       75     33.7      0.00      7.42      55.3     0.47      1019.4     1.2       S   185   2.9     SSW     198     271       -63       0.7       0.2      46.9      9.57
   01/12/2020 00:10      42.6      41.5       72     33.6      0.00      7.42      55.4     0.47      1019.5     0.7     SSE   158   1.7     WSW     249     270       -62       0.2       0.0      47.1      9.57
   01/12/2020 00:00      43.4      41.8       71     33.8      0.00      7.42      55.4     0.47      1019.7     0.8     SSE   159   1.9      SE     141     270       -62       0.1      12.3      47.3      9.57
   01/11/2020 23:50      44.3      43.2       68     34.0      0.00      7.42      55.4     0.47      1019.6     0.6     SSE   164   2.9       S     186     271       -63       0.1      12.3      47.5      9.57
   01/11/2020 23:40      45.3      44.0       66     33.6      0.00      7.42      55.4     0.47      1019.7     1.4     SSW   203   3.7     SSW     210     271       -63       0.6      12.3      47.7      9.57
   01/11/2020 23:30      45.8      45.1       63     33.8      0.00      7.42      55.4     0.47      1019.7     0.4       S   191   1.4       S     171     271       -63       0.2      12.2      47.9      9.57
   01/11/2020 23:20      45.1      42.9       69     34.3      0.00      7.42      55.4     0.47      1019.7     2.0     SSE   147   3.6     SSE     149     271       -63       0.7      12.1      48.0      9.57
   01/11/2020 23:10      43.0      41.7       75     34.8      0.00      7.42      55.4     0.47      1019.7     1.1     SSE   163   2.8      SE     145     271       -63       0.7      12.0      48.2      9.57
   01/11/2020 23:00      42.3      41.7       76     34.7      0.00      7.42      55.4     0.47      1019.6     1.1     SSE   152   2.9     SSE     155     271       -64       0.2      11.9      48.4      9.57
   01/11/2020 22:50      42.8      42.0       74     34.6      0.00      7.42      55.4     0.47      1019.6     1.2     SSE   168   3.4      SE     140     270       -64       0.5      11.9      48.6      9.57
   01/11/2020 22:40      42.9      42.2       75     35.0      0.00      7.42      55.4     0.47      1019.8     1.4       S   178   2.8     SSW     194     269       -63       0.6      11.8      48.9      9.57
   01/11/2020 22:30      43.2      42.2       73     34.9      0.00      7.42      55.5     0.47      1019.8     0.3      SE   142   1.3      SW     218     267       -65       0.1      11.7      49.1      9.57
   01/11/2020 22:20      44.6      43.0       70     34.7      0.00      7.42      55.5     0.47      1019.5     0.6     ESE   113   1.8     ENE      62     271       -65       0.2      11.7      49.3      9.58
   01/11/2020 22:10      45.4      44.6       68     35.0      0.00      7.42      55.5     0.47      1019.3     1.2     SSW   199   3.5     WSW     256     271       -65       0.7      11.7      49.5      9.58
   01/11/2020 22:00      45.8      44.0       69     35.2      0.00      7.42      55.5     0.47      1019.3     2.0       S   171   3.1     SSW     199     271       -65       1.3      11.5      49.7      9.58
   01/11/2020 21:50      44.4      43.7       70     35.0      0.00      7.42      55.5     0.47      1019.1     1.3     SSE   159   2.8     SSE     163     271       -65       0.8      11.3      50.0      9.58
   01/11/2020 21:40      45.6      44.3       67     34.7      0.00      7.42      55.5     0.47      1019.1     2.0     SSE   161   3.6      SE     135     271       -64       1.0      11.2      50.3      9.58
   01/11/2020 21:30      45.7      45.0       66     34.8      0.00      7.42      55.5     0.47      1019.2     1.4      SW   217   2.8     WSW     251     271       -64       0.7      11.0      50.5      9.58
   01/11/2020 21:20      45.2      44.4       68     34.9      0.00      7.42      55.5     0.47      1019.2     1.2     SSE   166   3.2     SSW     202     271       -64       0.8      10.9      50.8      9.58
   01/11/2020 21:10      45.2      44.8       67     34.9      0.00      7.42      55.5     0.47      1019.2     0.3     SSE   155   1.6       S     184     271       -64       0.0      10.8      51.0      9.58
   01/11/2020 21:00      45.8      44.5       68     35.1      0.00      7.42      55.5     0.47      1019.1     0.6     SSW   193   1.8      SE     138     271       -64       0.2      10.7      51.2      9.58
   01/11/2020 20:50      47.0      45.9       65     35.4      0.00      7.42      55.5     0.47      1018.9     1.0     SSE   151   2.1      SE     138     271       -65       0.1      10.7      51.5      9.58
   01/11/2020 20:40      48.0      46.9       62     35.2      0.00      7.42      55.5     0.47      1018.8     1.3       S   186   3.3     SSW     197     271       -64       0.7      10.7      51.7      9.58
   01/11/2020 20:30      49.5      47.9       60     35.5      0.00      7.42      55.5     0.47      1018.7     1.1     SSE   157   2.5      SE     145     271       -66       0.7      10.6      51.9      9.58
   01/11/2020 20:20      49.6      49.3       58     35.1      0.00      7.42      55.4     0.47      1018.6     1.5     SSE   156   3.0       S     181     270       -67       0.8      10.5      52.2      9.59
   01/11/2020 20:10      49.5      48.9       60     36.0      0.00      7.42      55.4     0.47      1018.6     1.7      SE   142   2.9     ENE      63     270       -67       0.5      10.3      52.4      9.59
   01/11/2020 20:00      49.0      47.9       69     38.5      0.00      7.42      55.4     0.47      1018.6     1.4      SE   131   2.4      SE     139     271       -66       0.2      10.2      52.6      9.59
   01/11/2020 19:50      48.8      48.0       73     40.1      0.00      7.42      55.4     0.47      1018.5     0.9      SE   131   1.8      SE     135     267       -66       0.0      10.2      52.8      9.59
   01/11/2020 19:40      48.5      47.9       76     41.1      0.00      7.42      55.4     0.47      1018.4     0.5      SE   139   2.6       E      94     271       -67       0.3      10.2      53.0      9.59
   01/11/2020 19:30      48.5      48.0       82     42.9      0.00      7.42      55.3     0.47      1018.2     1.0      SE   136   2.3      SE     145     267       -67       0.2      10.2      53.1      9.59
   01/11/2020 19:20      48.8      48.2       84     43.8      0.00      7.42      55.3     0.47      1018.4     2.0      SE   143   2.8      SE     145     269       -67       0.5      10.1      53.3      9.59
   01/11/2020 19:10      49.7      48.5       82     43.8      0.00      7.42      55.3     0.47      1018.4     1.0     SSE   151   2.5      SE     133     263       -66       0.4      10.1      53.6      9.59
   01/11/2020 19:00      50.9      49.6       81     44.5      0.00      7.42      55.3     0.47      1018.4     1.4     SSE   150   2.8     SSW     192     258       -66       0.5      10.0      53.8      9.59
   01/11/2020 18:50      50.7      49.8       83     44.9      0.00      7.42      55.2     0.47      1018.3     2.3       S   185   3.2     SSW     197     267       -63       1.2       9.9      54.0      9.60
   01/11/2020 18:40      50.1      49.8       82     44.7      0.00      7.42      55.2     0.47      1018.2     0.6     SSE   159   1.6      SE     142     266       -49       0.2       9.7      54.2      9.60
   01/11/2020 18:30      50.1      49.5       82     44.4      0.00      7.42      55.2     0.47      1018.3     0.4       S   182   1.3     SSW     195     270       -14       0.2       9.7      54.3      9.60
   01/11/2020 18:20      50.4      49.6       81     44.3      0.00      7.42      55.1     0.47      1018.3     0.5     SSE   151   1.2      SE     141     264       -43       0.0       9.6      54.4      9.60
   01/11/2020 18:10      51.8      50.3       78     44.3      0.00      7.42      55.1     0.47      1018.4     0.4     SSE   149   1.1     SSE     147     260       -62       0.1       9.6      54.6      9.60
   01/11/2020 18:00      52.5      51.6       76     44.7      0.00      7.42      55.1     0.47      1018.5     1.1     SSW   195   2.2     SSW     199     263       -61       0.3       9.6      54.8      9.60
   01/11/2020 17:50      52.6      52.1       75     44.8      0.00      7.42      55.0     0.47      1018.3     1.9     SSW   213   2.3      SW     214     269       -62       1.0       9.6      55.0      9.60
   01/11/2020 17:40      52.7      51.6       76     44.9      0.00      7.42      55.0     0.47      1018.2     2.4      SW   221   2.9      SW     234     269       -64       1.2       9.4      55.2      9.60
   01/11/2020 17:30      53.8      52.3       73     44.8      0.00      7.42      54.9     0.47      1018.0     1.6      SW   221   2.1     SSW     214     268       -65       0.3       9.2      55.4      9.61
   01/11/2020 17:20      54.5      53.6       72     45.1      0.00      7.42      54.9     0.47      1017.9     1.6     SSW   202   2.5     SSW     208     269       -67       0.7       9.1      55.7      9.61
   01/11/2020 17:10      55.2      54.5       70     45.4      0.00      7.42      54.8     0.47      1017.8     0.8     ESE   124   2.9      SE     144     269       -68       0.2       9.0      55.9      9.61
   01/11/2020 17:00      56.3      54.8       68     45.3      0.00      7.42      54.8     0.47      1017.7     0.9      SE   140   1.8     ESE     122     269       -65       0.5       9.0      56.2      9.61
   01/11/2020 16:50      57.1      56.2       66     45.6      0.00      7.42      54.7     0.47      1017.9     1.2       S   172   2.0       S     191     269       -62       0.7       8.9      56.5      9.61
   01/11/2020 16:40      58.1      57.0       64     45.5      0.00      7.42      54.7     0.47      1018.1     1.9       S   182   3.1       S     183     269       -57       1.2       8.8      56.8      9.61
   01/11/2020 16:30      58.7      57.9       63     45.6      0.00      7.42      54.6     0.47      1018.1     2.5       S   187   3.6       S     180     268       -38       1.7       8.6      56.9      9.62
   01/11/2020 16:20      59.4      58.5       60     45.0      0.00      7.42      54.6     0.47      1018.1     2.4     SSW   194   3.7       S     188     268       -20       1.7       8.3      56.9      9.62
   01/11/2020 16:10      59.3      58.7       61     45.4      0.00      7.42      54.5     0.47      1018.1     2.6     SSW   198   4.0     SSW     198     268        -3       1.8       8.0      56.8      9.62
   01/11/2020 16:00      59.8      58.6       60     45.3      0.00      7.42      54.5     0.47      1018.1     2.5       S   189   4.7     SSE     163     267       -22       1.7       7.7      56.7      9.62
   01/11/2020 15:50      61.4      59.7       56     45.2      0.00      7.42      54.5     0.47      1018.2     2.5     SSW   206   5.0     SSW     210     267        17       1.9       7.4      56.6      9.62
   01/11/2020 15:40      61.6      61.0       54     44.7      0.00      7.42      54.4     0.47      1018.3     1.2     SSE   149   2.9      SE     141     266        69       0.7       7.1      56.4      9.62
   01/11/2020 15:30      61.5      60.1       55     44.6      0.00      7.42      54.4     0.47      1018.3     0.8      SE   142   2.7      NE      51     267        81       0.5       7.0      56.2      9.62
   01/11/2020 15:20      60.4      59.4       57     44.7      0.00      7.42      54.3     0.47      1018.2     2.3     SSE   160   4.4      SE     142     267        91       1.6       6.9      56.0      9.62
   01/11/2020 15:10      60.9      60.3       55     44.5      0.00      7.42      54.3     0.47      1018.1     3.2     SSE   167   5.6       S     179     266       116       2.7       6.7      55.7      9.62
   01/11/2020 15:00      61.0      59.9       55     44.2      0.00      7.42      54.2     0.47      1018.2     3.5     SSE   166   6.4      SE     125     266       142       2.4       6.2      55.4      9.62
   01/11/2020 14:50      61.7      61.0       53     44.1      0.00      7.42      54.2     0.47      1018.4     2.2      SE   133   4.3     ESE     120     266       160       1.4       5.8      55.0      9.63
   01/11/2020 14:40      61.5      60.7       54     44.0      0.00      7.42      54.1     0.47      1018.5     2.1      SE   145   5.3      SE     130     266       184       1.5       5.6      54.7      9.63
   01/11/2020 14:30      61.2      59.9       53     43.7      0.00      7.42      54.1     0.47      1018.6     1.6      SE   133   4.4      SE     138     266       194       1.1       5.3      54.4      9.63
   01/11/2020 14:20      61.1      59.9       53     43.6      0.00      7.42      54.0     0.47      1018.6     2.5     ESE   119   5.5     ESE     107     267       128       1.4       5.1      54.1      9.63
   01/11/2020 14:10      61.2      59.9       54     43.5      0.00      7.42      54.0     0.47      1018.7     3.0      SE   141   7.6      SE     139     266       237       1.8       4.9      53.7      9.63
   01/11/2020 14:00      61.6      61.2       52     43.8      0.00      7.42      54.0     0.47      1018.5     2.3       E    86   5.6     ESE     121     266       242       1.3       4.6      53.2      9.63
   01/11/2020 13:50      61.6      60.5       53     43.8      0.00      7.42      53.9     0.47      1018.6     2.0      NE    53   4.1     NNE      25     266       252       0.9       4.4      52.8      9.63
   01/11/2020 13:40      61.0      60.3       54     43.9      0.00      7.42      53.9     0.47      1019.0     2.2     ENE    63   5.1     ENE      64     266       265       0.8       4.2      52.4      9.63
   01/11/2020 13:30      60.3      59.3       56     44.0      0.00      7.42      53.9     0.47      1019.1     2.3     ENE    74   6.9       E      96     267       286       1.0       4.1      52.0      9.63
   01/11/2020 13:20      59.4      57.9       59     44.1      0.00      7.42      53.8     0.47      1019.3     2.1      NE    54   4.2     ENE      68     267       204       0.7       3.9      51.7      9.63
   01/11/2020 13:10      58.8      58.2       58     44.0      0.00      7.42      53.8     0.46      1019.5     2.3     ENE    66   3.7      NE      34     268        52       0.9       3.8      51.5      9.63
   01/11/2020 13:00      59.3      58.6       58     44.0      0.00      7.42      53.8     0.46      1019.9     2.4      NE    40   4.8     NNE      17     268        77       0.6       3.7      51.3      9.64
   01/11/2020 12:50      60.0      59.2       56     44.1      0.00      7.42      53.8     0.46      1020.2     2.0     NNE    29   3.9      NE      45     268        66       0.7       3.6      51.0      9.64
   01/11/2020 12:40      61.6      60.0       54     44.4      0.00      7.42      53.8     0.46      1020.2     2.4     NNE    21   5.3      NW     317     267       207       1.0       3.4      50.7      9.64
   01/11/2020 12:30      62.1      61.2       54     44.7      0.00      7.42      53.8     0.46      1020.2     2.4       N   356   4.8     NNE      27     266       461       0.9       3.3      50.1      9.64
   01/11/2020 12:20      61.8      60.4       55     44.7      0.00      7.42      53.8     0.46      1020.2     1.4     NNW   342   4.5       N       0     267       334       0.9       3.1      49.5      9.64
   01/11/2020 12:10      61.3      59.1       56     44.3      0.00      7.42      53.8     0.46      1020.3     0.8     ENE    75   2.7     NNW     339     267       371       0.8       3.0      48.9      9.64
   01/11/2020 12:00      59.9      58.6       57     44.0      0.00      7.42      53.8     0.46      1020.5     3.5     ESE   103   7.5      SE     143     267       341       2.3       2.9      48.3      9.64
   01/11/2020 11:50      60.1      59.0       56     43.8      0.00      7.42      53.8     0.46      1020.9     1.8      SE   141   4.1       S     180     267       330       1.5       2.5      47.8      9.64
   01/11/2020 11:40      59.8      59.0       56     44.0      0.00      7.42      53.8     0.46      1021.2     1.7      NE    37   4.4     NNE      23     267       325       0.6       2.2      47.3      9.64
   01/11/2020 11:30      59.5      58.6       56     43.4      0.00      7.42      53.8     0.46      1021.4     1.5       N     6   3.9     WSW     241     268       322       1.0       2.1      46.8      9.64
   01/11/2020 11:20      58.7      57.7       57     43.1      0.00      7.42      53.8     0.46      1021.7     1.2      NE    35   4.2     ESE     101     268       315       0.5       2.0      46.4      9.64
   01/11/2020 11:10      58.7      57.5       57     43.1      0.00      7.42      53.9     0.46      1022.0     1.2       N     8   3.7     ENE      59     267       308       0.5       1.9      45.9      9.64
   01/11/2020 11:00      58.1      57.0       57     42.6      0.00      7.42      53.9     0.46      1022.3     0.9     ENE    67   3.1     ESE     104     267       301       0.8       1.8      45.4      9.65
   01/11/2020 10:50      57.0      56.0       58     41.8      0.00      7.42      53.9     0.46      1022.5     1.1       N     2   3.5       N       0     267       295       0.7       1.7      44.8      9.65
   01/11/2020 10:40      56.7      55.9       59     42.0      0.00      7.42      53.9     0.46      1022.8     1.3       N     3   3.1      NE      42     267       285       0.7       1.5      44.3      9.65
   01/11/2020 10:30      56.0      54.8       57     40.2      0.00      7.42      54.0     0.46      1023.2     1.5     NNE    12   3.8     NNE      32     267       275       0.5       1.4      43.8      9.65
   01/11/2020 10:20      55.4      54.0       54     38.6      0.00      7.42      54.0     0.46      1023.4     1.3       N   357   4.1     NNE      25     267       264       0.5       1.3      43.3      9.65
   01/11/2020 10:10      54.9      54.0       52     37.0      0.00      7.42      54.0     0.46      1023.3     1.2       N     8   2.9       N       8     268       253       0.3       1.3      42.9      9.65
   01/11/2020 10:00      54.4      53.3       51     36.2      0.00      7.42      54.0     0.46      1023.2     0.5      NW   320   1.6     NNE      17     280       240       0.6       1.2      42.5      9.65
   01/11/2020 09:50      53.5      52.1       51     35.3      0.00      7.42      54.1     0.46      1023.2     0.3     NNW   336   1.6      NW     306     289       224       0.3       1.1      42.3      9.65
   01/11/2020 09:40      52.3      50.8       52     34.6      0.00      7.42      54.1     0.46      1023.4     0.6       N     8   1.7     NNE      29     295       208       0.2       1.0      42.2      9.65
   01/11/2020 09:30      51.2      50.6       54     34.8      0.00      7.42      54.2     0.46      1023.4     0.9       N     2   2.5     NNE      16     301       191       0.3       1.0      42.0      9.65
   01/11/2020 09:20      50.9      49.9       59     36.5      0.00      7.42      54.2     0.46      1023.3     0.3     NNW   338   1.2      NW     309     306       196       0.2       1.0      41.7      9.65
   01/11/2020 09:10      50.0      49.3       61     36.9      0.00      7.42      54.2     0.46      1023.3     0.5       N     2   2.1       N       4     308       208       0.1       0.9      41.4      9.65
   01/11/2020 09:00      49.4      47.3       64     37.0      0.00      7.42      54.3     0.46      1023.0     0.2       N   356   1.4       N     354     313       197       0.0       0.9      41.1      9.65
   01/11/2020 08:50      47.4      45.9       69     36.9      0.00      7.42      54.3     0.46      1023.0     0.5     ENE    76   1.3      SE     125     327       180       0.1       0.9      40.8      9.65
   01/11/2020 08:40      45.9      43.5       79     38.9      0.00      7.42      54.3     0.46      1023.2     0.0     NNE    27   0.5     NNE      27     360       161       0.0       0.9      40.6      9.65
   01/11/2020 08:30      43.6      41.2       88     39.2      0.00      7.42      54.4     0.46      1023.2     0.1     NNE    30   1.1     NNE      28     387       139       0.0       0.9      40.3      9.65
   01/11/2020 08:20      41.4      39.3       92     37.9      0.00      7.42      54.4     0.46      1023.1     0.3      NW   322   1.1      NW     325     411       113       0.0       0.9      40.0      9.65
   01/11/2020 08:10      39.4      37.9       92     36.4      0.00      7.42      54.5     0.46      1022.9     0.0       N     0   0.0     ESE     124     436        84       0.0       0.9      39.8      9.66
   01/11/2020 08:00      38.0      37.4       92     35.5      0.00      7.42      54.5     0.46      1022.8     0.0       N     0   0.0     ESE     124     442        11       0.0       0.9      39.8      9.66
   01/11/2020 07:50      37.7      36.6       92     35.1      0.00      7.42      54.5     0.46      1022.7     0.0       N     0   0.0       E      97     439         6       0.0       0.9      39.8      9.66
   01/11/2020 07:40      36.9      35.9       93     34.5      0.00      7.42      54.5     0.46      1022.7     0.2     ESE   113   0.7       E      90     443         2       0.0       0.9      39.8      9.66
   01/11/2020 07:30      36.1      35.5       93     34.0      0.00      7.42      54.6     0.46      1022.6     0.3     SSE   162   1.3     WSW     241     445        -2       0.0       0.9      39.9      9.66
   01/11/2020 07:20      35.6      34.7       93     33.3      0.00      7.42      54.6     0.46      1022.5     0.3     SSW   194   1.4     WSW     241     440        -7       0.1       0.9      40.0      9.66
   01/11/2020 07:10      35.0      34.7       93     32.8      0.00      7.42      54.6     0.46      1022.5     0.3     SSE   160   1.0       S     177     436       -12       0.0       0.9      40.1      9.66
   01/11/2020 07:00      35.3      34.6       92     32.9      0.00      7.42      54.7     0.46      1022.5     0.7     SSE   157   1.4     SSE     147     436       -16       0.6       0.9      40.2      9.66
   01/11/2020 06:50      35.2      34.9       92     33.1      0.00      7.42      54.7     0.46      1022.6     0.0     WNW   303   1.0     WNW     303     428       -17       0.0       0.8      40.4      9.66
   01/11/2020 06:40      35.3      34.8       92     32.9      0.00      7.42      54.8     0.47      1022.5     0.3     SSW   193   1.2     WNW     303     424       -18       0.0       0.8      40.6      9.66
   01/11/2020 06:30      35.2      34.8       92     32.9      0.00      7.42      54.8     0.46      1022.7     0.1      SE   140   0.8      SE     140     419       -18       0.0       0.7      40.7      9.66
   01/11/2020 06:20      35.8      35.0       92     33.4      0.00      7.42      54.8     0.46      1022.7     0.5      SE   141   1.6      SE     143     414       -18       0.0       0.7      40.9      9.66
   01/11/2020 06:10      35.5      35.1       92     33.2      0.00      7.42      54.8     0.47      1022.6     0.0      SE   134   0.7      SE     134     409       -19       0.0       0.7      41.0      9.66
   01/11/2020 06:00      36.0      35.3       92     33.5      0.00      7.42      54.9     0.47      1022.6     0.3     SSE   147   1.4      SE     141     405       -19       0.2       0.7      41.2      9.67
   01/11/2020 05:50      35.8      35.3       92     33.4      0.00      7.42      54.9     0.47      1022.6     0.3       S   171   1.1       S     169     403       -19       0.0       0.7      41.4      9.67
   01/11/2020 05:40      35.7      35.2       91     33.1      0.00      7.42      54.9     0.47      1022.7     0.4     SSE   150   1.6     SSE     152     398       -20       0.2       0.7      41.5      9.67
   01/11/2020 05:30      36.2      35.2       91     33.4      0.00      7.42      55.0     0.47      1022.7     0.3     SSE   159   0.9     SSE     153     396       -20       0.2       0.7      41.7      9.67
   01/11/2020 05:20      36.1      35.6       91     33.5      0.00      7.42      55.0     0.47      1022.6     0.0     NNW   332   0.5      NW     320     392       -21       0.0       0.6      41.8      9.67
   01/11/2020 05:10      35.8      35.1       91     33.0      0.00      7.42      55.0     0.47      1022.6     0.1     SSE   163   0.7     SSE     163     388       -21       0.2       0.6      42.0      9.67
   01/11/2020 05:00      36.3      35.6       91     33.5      0.00      7.42      55.0     0.47      1022.8     0.5     SSE   160   1.0     SSE     168     385       -21       0.5       0.6      42.2      9.67
   01/11/2020 04:50      36.6      36.1       91     33.9      0.00      7.42      55.1     0.47      1022.8     0.2       N   359   1.0      NW     313     382       -22       0.0       0.5      42.4      9.67
   01/11/2020 04:40      36.9      36.1       91     34.0      0.00      7.42      55.1     0.47      1022.8     0.7     SSE   148   1.6      SE     142     377       -22       0.3       0.5      42.5      9.67
   01/11/2020 04:30      37.2      36.3       90     34.2      0.00      7.42      55.1     0.47      1022.9     0.7     SSE   166   1.7     SSE     148     371       -21       0.3       0.5      42.7      9.67
   01/11/2020 04:20      37.4      36.9       90     34.4      0.00      7.42      55.2     0.47      1023.0     0.0       N     0   0.0      SW     230     366       -22       0.0       0.4      42.9      9.67
   01/11/2020 04:10      37.8      37.3       90     35.0      0.00      7.42      55.2     0.47      1022.9     0.0       N     0   0.0     SSE     149     366       -22       0.0       0.4      43.1      9.67
   01/11/2020 04:00      37.7      36.9       91     34.8      0.00      7.42      55.2     0.47      1022.8     0.3     SSE   148   0.9     SSE     147     363       -22       0.0       0.4      43.3      9.68
   01/11/2020 03:50      37.1      36.7       90     34.2      0.00      7.42      55.3     0.47      1022.9     0.4     SSE   158   1.2      SE     145     360       -23       0.2       0.4      43.4      9.68
   01/11/2020 03:40      37.2      36.7       89     34.2      0.00      7.42      55.3     0.47      1022.8     0.5     SSE   163   1.2       S     169     356       -24       0.4       0.4      43.6      9.68
   01/11/2020 03:30      37.5      36.9       89     34.1      0.00      7.42      55.3     0.47      1022.9     0.0      SE   140   0.9      SE     140     352       -24       0.0       0.3      43.8      9.68
   01/11/2020 03:20      38.0      37.4       89     34.8      0.00      7.42      55.3     0.47      1022.9     0.6       S   174   2.0       S     186     349       -24       0.1       0.3      44.0      9.68
   01/11/2020 03:10      38.0      37.5       89     34.8      0.00      7.42      55.4     0.47      1023.0     0.1     SSE   168   1.2     SSE     167     346       -25       0.2       0.3      44.2      9.68
   01/11/2020 03:00      38.0      37.5       88     34.6      0.00      7.42      55.4     0.47      1023.0     0.2     NNE    12   1.0     NNE      18     344       -26       0.1       0.3      44.4      9.68
   01/11/2020 02:50      38.5      37.6       88     34.8      0.00      7.42      55.4     0.47      1022.9     0.3      SE   140   1.5      SE     146     341       -26       0.0       0.2      44.6      9.68
   01/11/2020 02:40      39.0      38.1       87     34.9      0.00      7.42      55.4     0.47      1023.1     0.2     SSE   153   0.9     SSE     152     336       -26       0.0       0.2      44.8      9.68
   01/11/2020 02:30      39.2      38.7       87     35.3      0.00      7.42      55.5     0.47      1023.2     0.0       N     0   0.0     SSE     154     333       -26       0.0       0.2      45.0      9.69
   01/11/2020 02:20      39.6      39.0       87     35.6      0.00      7.42      55.5     0.47      1023.3     0.2     SSE   157   0.8     SSE     154     330       -27       0.0       0.2      45.1      9.69
   01/11/2020 02:10      39.4      38.8       87     35.5      0.00      7.42      55.5     0.47      1023.5     0.5     SSE   154   1.1     SSE     160     327       -27       0.1       0.2      45.4      9.69
   01/11/2020 02:00      39.6      39.0       86     35.5      0.00      7.42      55.5     0.47      1023.5     0.5      SE   141   1.6      SE     145     324       -28       0.0       0.2      45.5      9.69
   01/11/2020 01:50      39.6      39.1       87     35.7      0.00      7.42      55.6     0.47      1023.6     0.2     SSE   165   1.2     SSE     158     323       -29       0.1       0.2      45.7      9.69
   01/11/2020 01:40      39.5      39.3       87     35.9      0.00      7.42      55.6     0.47      1023.7     0.4     SSE   159   1.0     SSE     166     321       -30       0.0       0.2      45.9      9.69
   01/11/2020 01:30      39.5      38.7       88     36.1      0.00      7.42      55.6     0.47      1023.7     0.7     SSE   146   1.2     SSE     151     317       -32       0.0       0.2      46.1      9.69
   01/11/2020 01:20      38.8      38.5       87     35.2      0.00      7.42      55.6     0.47      1023.7     0.5     SSE   156   1.2     SSE     153     314       -33       0.0       0.2      46.2      9.69
   01/11/2020 01:10      39.8      38.8       87     35.7      0.00      7.42      55.6     0.47      1023.8     0.5     SSE   162   1.2     SSE     150     310       -33       0.4       0.2      46.5      9.69
   01/11/2020 01:00      40.0      39.5       87     36.2      0.00      7.42      55.7     0.47      1023.9     0.6     SSE   162   1.1       S     172     307       -34       0.2       0.0      46.7      9.70
   01/11/2020 00:50      40.2      39.5       87     36.2      0.00      7.42      55.7     0.47      1023.9     0.4     SSE   151   1.0      SE     144     304       -37       0.0       0.0      46.9      9.70
   01/11/2020 00:40      40.1      39.5       86     36.0      0.00      7.42      55.7     0.47      1023.9     0.0       N     0   0.0      SE     144     299       -39       0.0       0.0      47.1      9.70
   01/11/2020 00:30      40.5      40.0       86     36.6      0.00      7.42      55.7     0.47      1023.9     0.6      SE   143   1.6      SE     141     297       -40       0.2       0.0      47.3      9.70
   01/11/2020 00:20      40.9      40.4       86     36.8      0.00      7.42      55.8     0.47      1024.1     0.2     SSE   156   0.8     SSE     156     293       -43       0.2       0.0      47.5      9.70
   01/11/2020 00:10      41.3      40.7       85     36.8      0.00      7.42      55.8     0.47      1024.2     0.0       N     0   0.0      SW     214     289       -46       0.0       0.0      47.7      9.70
   01/11/2020 00:00      41.5      40.8       84     36.9      0.00      7.42      55.8     0.47      1024.3     0.0       N     0   0.0       E     100     284       -49       0.0      13.2      47.9      9.71
   01/10/2020 23:50      41.6      41.2       83     36.7      0.00      7.42      55.8     0.47      1024.3     0.6     SSE   148   2.1      SE     129     280       -52       0.1      13.2      48.1      9.71
   01/10/2020 23:40      41.9      41.4       82     36.7      0.00      7.42      55.8     0.47      1024.2     1.1     SSE   151   2.3      SE     136     276       -54       0.5      13.2      48.3      9.71
   01/10/2020 23:30      42.2      41.8       82     36.9      0.00      7.42      55.8     0.47      1024.3     1.6     SSE   147   3.0      SE     140     274       -54       0.6      13.1      48.5      9.71
   01/10/2020 23:20      42.4      41.6       83     37.0      0.00      7.42      55.8     0.47      1024.4     0.9       S   171   2.2     SSW     203     275       -54       0.1      13.0      48.8      9.71
   01/10/2020 23:10      42.4      41.5       82     36.8      0.00      7.42      55.9     0.47      1024.4     0.4       S   183   1.4     SSW     194     271       -55       0.0      13.0      49.0      9.72
   01/10/2020 23:00      42.7      41.8       81     36.8      0.00      7.42      55.9     0.47      1024.5     0.1     SSE   147   0.8     SSE     147     267       -58       0.0      13.0      49.2      9.72
   01/10/2020 22:50      43.0      42.5       80     37.2      0.00      7.42      55.9     0.47      1024.6     0.6     SSE   154   1.3      SE     144     263       -57       0.0      13.0      49.4      9.72
   01/10/2020 22:40      43.3      42.9       80     37.4      0.00      7.42      55.9     0.47      1024.5     0.5     SSE   167   1.2       S     190     261       -58       0.0      13.0      49.6      9.72
   01/10/2020 22:30      43.3      42.8       80     37.4      0.00      7.42      55.9     0.47      1024.6     0.8     SSE   161   1.4      SE     142     260       -59       0.2      13.0      49.9      9.72
   01/10/2020 22:20      43.6      43.0       78     37.1      0.00      7.42      55.9     0.47      1024.6     0.9       S   171   1.5      SW     219     263       -60       0.2      13.0      50.1      9.73
   01/10/2020 22:10      44.3      43.3       78     37.3      0.00      7.42      55.9     0.47      1024.7     0.7     SSE   168   1.6      SE     140     264       -60       0.2      12.9      50.3      9.73
   01/10/2020 22:00      44.1      43.6       78     37.6      0.00      7.42      55.9     0.47      1024.7     0.7     SSW   203   1.6     SSW     201     266       -60       0.2      12.9      50.5      9.73
   01/10/2020 21:50      44.3      43.7       78     37.5      0.00      7.42      55.9     0.47      1024.6     0.5     SSE   165   1.3       S     172     262       -60       0.1      12.8      50.8      9.73
   01/10/2020 21:40      45.6      44.1       75     37.4      0.00      7.42      55.9     0.47      1024.5     0.4     SSE   150   1.4      SE     142     265       -61       0.0      12.8      51.0      9.74
   01/10/2020 21:30      45.5      44.1       78     38.1      0.00      7.42      55.9     0.47      1024.4     0.5     SSW   213   2.3     SSW     207     271       -60       0.3      12.8      51.2      9.74
   01/10/2020 21:20      44.7      43.9       77     37.5      0.00      7.42      55.9     0.47      1024.5     0.4     SSE   151   1.2      SE     137     266       -61       0.0      12.8      51.5      9.74
   01/10/2020 21:10      45.3      44.6       75     37.7      0.00      7.42      55.9     0.47      1024.5     0.3     SSE   149   1.1     ESE     111     268       -62       0.1      12.8      51.7      9.75
   01/10/2020 21:00      46.2      45.0       73     37.7      0.00      7.42      55.9     0.47      1024.5     0.4     SSE   149   1.4       S     171     269       -61       0.1      12.7      51.9      9.75
   01/10/2020 20:50      46.4      46.0       73     38.0      0.00      7.42      55.9     0.47      1024.4     0.4     SSE   169   1.0     SSE     161     270       -61       0.0      12.7      52.2      9.75
   01/10/2020 20:40      46.7      46.2       72     37.9      0.00      7.42      55.9     0.47      1024.3     0.0       N     0   0.0     SSW     209     270       -63       0.0      12.7      52.4      9.76
   01/10/2020 20:30      46.8      46.5       72     38.1      0.00      7.42      55.9     0.47      1024.2     0.2       S   184   1.1       S     180     270       -63       0.0      12.7      52.6      9.76
   01/10/2020 20:20      47.1      46.5       71     38.0      0.00      7.42      55.8     0.47      1024.2     0.4       S   176   1.4      SE     141     269       -63       0.1      12.7      52.9      9.77
   01/10/2020 20:10      47.2      46.5       71     37.9      0.00      7.42      55.8     0.47      1024.2     0.3     SSE   149   1.1      SE     138     269       -65       0.0      12.7      53.1      9.77
   01/10/2020 20:00      48.1      46.9       69     37.9      0.00      7.42      55.8     0.47      1024.2     0.5     SSE   153   1.6     SSE     151     269       -66       0.1      12.7      53.4      9.77
   01/10/2020 19:50      49.0      48.0       67     38.2      0.00      7.42      55.8     0.47      1024.2     0.6      SE   135   1.7      SE     136     269       -66       0.0      12.7      53.6      9.78
   01/10/2020 19:40      49.8      48.9       66     38.3      0.00      7.42      55.8     0.47      1024.2     0.5       S   182   1.4     SSW     206     269       -66       0.0      12.6      53.9      9.78
   01/10/2020 19:30      51.4      49.8       62     38.0      0.00      7.42      55.7     0.47      1024.1     0.6     SSE   164   1.3      SE     143     269       -66       0.0      12.6      54.1      9.79
   01/10/2020 19:20      53.1      51.4       60     38.5      0.00      7.42      55.7     0.47      1024.0     1.2     SSE   162   2.1      SE     137     268       -69       0.5      12.6      54.3      9.79
   01/10/2020 19:10      54.2      53.3       56     38.3      0.00      7.42      55.7     0.47      1024.0     1.7     SSW   203   3.5      SW     219     268       -71       1.0      12.5      54.5      9.80
   01/10/2020 19:00      54.3      54.0       56     38.6      0.00      7.42      55.6     0.47      1024.0     2.5      SW   232   5.1      SW     231     268       -70       1.5      12.4      54.7      9.80
   01/10/2020 18:50      54.2      53.1       56     38.6      0.00      7.42      55.6     0.47      1024.1     2.7     WSW   240   5.2     SSW     207     268       -68       1.5      12.1      54.9      9.81
   01/10/2020 18:40      53.6      53.1       57     38.5      0.00      7.42      55.6     0.47      1024.0     1.2      SW   216   1.8     SSW     212     268       -66       0.5      11.9      55.1      9.81
   01/10/2020 18:30      53.9      53.3       57     38.6      0.00      7.42      55.5     0.47      1024.0     1.0     WSW   237   2.0     SSW     207     268       -66       0.2      11.8      55.4      9.82
   01/10/2020 18:20      53.9      53.6       56     38.6      0.00      7.42      55.5     0.47      1024.0     1.5     SSW   208   2.3     SSW     205     268       -66       0.5      11.8      55.6      9.83
   01/10/2020 18:10      53.9      52.8       58     38.8      0.00      7.42      55.5     0.47      1024.0     1.4     SSW   210   2.4     SSW     204     268       -67       0.7      11.7      55.8      9.83
   01/10/2020 18:00      53.2      52.7       59     39.0      0.00      7.42      55.4     0.47      1024.0     0.3     SSW   207   1.2     SSW     201     268       -68       0.0      11.6      56.1      9.84
   01/10/2020 17:50      54.9      53.0       57     39.1      0.00      7.42      55.4     0.47      1023.9     0.6       S   176   1.3      SW     222     267       -69       0.1      11.6      56.3      9.85
   01/10/2020 17:40      55.3      54.8       55     39.3      0.00      7.42      55.3     0.47      1023.8     1.6     WSW   239   2.7     WSW     241     267       -69       1.1      11.5      56.5      9.86
   01/10/2020 17:30      55.4      54.7       55     39.0      0.00      7.42      55.3     0.47      1023.6     1.3     WSW   239   2.8     NNW     327     267       -71       0.8      11.4      56.9      9.86
   01/10/2020 17:20      56.9      55.3       53     39.1      0.00      7.42      55.2     0.47      1023.4     0.3      SW   229   1.5      SW     230     267       -73       0.0      11.2      57.1      9.87
   01/10/2020 17:10      58.4      56.9       50     39.2      0.00      7.42      55.2     0.47      1023.3     1.0       S   180   2.6     SSW     197     266       -75       0.7      11.2      57.3      9.88
   01/10/2020 17:00      58.8      58.2       48     38.9      0.00      7.42      55.1     0.47      1023.2     1.3       S   174   2.9       S     188     266       -75       0.7      11.1      57.5      9.89
   01/10/2020 16:50      60.9      58.7       45     38.2      0.00      7.42      55.0     0.47      1023.0     2.9       S   185   5.6       S     190     266       -74       1.9      11.0      57.8      9.90
   01/10/2020 16:40      63.1      60.9       40     37.7      0.00      7.42      55.0     0.47      1023.0     2.2     SSE   147   4.6       S     186     265       -73       1.4      10.7      58.2      9.91
   01/10/2020 16:30      65.7      62.9       34     35.5      0.00      7.42      54.9     0.47      1023.0     2.5      SE   133   4.6     SSE     161     264       -54       1.4      10.4      58.5      9.92
   01/10/2020 16:20      66.4      65.5       26     30.1      0.00      7.42      54.9     0.47      1022.9     1.4     ENE    60   2.8      SE     136     264       -37       0.4      10.2      58.6      9.93
   01/10/2020 16:10      66.5      65.8       23     26.8      0.00      7.42      54.8     0.47      1022.9     1.6      NE    55   6.0       E      99     263       -18       0.8      10.1      58.7      9.94
   01/10/2020 16:00      67.0      66.3       22     26.9      0.00      7.42      54.8     0.47      1022.9     2.2     ENE    77   4.4     ESE     120     263         1       0.9      10.0      58.7      9.96
   01/10/2020 15:50      67.6      67.0       19     24.0      0.00      7.42      54.7     0.47      1023.0     2.4     NNW   348   4.7     NNE      33     263        22       1.0       9.9      58.6      9.97
   01/10/2020 15:40      67.8      67.2       22     26.9      0.00      7.42      54.7     0.47      1023.0     1.3       E    82   3.5      NE      42     263        43       0.7       9.7      58.5      9.99
   01/10/2020 15:30      68.6      67.2       21     26.7      0.00      7.42      54.6     0.47      1022.9     2.0     NNE    29   4.5     NNE      26     263        65       0.3       9.6      58.2     10.00
   01/10/2020 15:20      69.7      68.6       20     26.1      0.00      7.42      54.6     0.47      1022.8     1.0     NNE    19   3.2       N       0     263        87       0.5       9.5      58.1     10.02
   01/10/2020 15:10      69.3      68.2       21     26.7      0.00      7.42      54.5     0.47      1022.9     1.1      NW   321   3.2     NNW     333     262       109       0.9       9.5      57.9     10.05
   01/10/2020 15:00      69.0      68.2       20     26.5      0.00      7.42      54.5     0.47      1022.8     1.0       N    10   2.5     NNE      18     263       131       0.6       9.3      57.8     10.08
   01/10/2020 14:50      68.2      67.3       21     26.1      0.00      7.42      54.4     0.47      1022.7     1.5      NW   316   4.4       N       0     263       151       0.9       9.2      56.9     10.14
   01/10/2020 14:40      67.7      67.2       20     25.5      0.00      7.42      54.4     0.47      1022.7     2.0     ENE    56   3.9     NNE      31     263       171       1.0       9.1      56.5      9.67
   01/10/2020 14:30      67.8      67.7       20     25.0      0.00      7.42      54.3     0.47      1022.7     1.6     NNE    17   3.0     NNE      20     263       181       0.4       8.9      56.3      9.67
   01/10/2020 14:20      67.6      67.4       22     26.9      0.00      7.42      54.3     0.47      1022.7     1.9      NE    56   2.8     ENE      67     263       190       1.2       8.9      56.0      9.68
   01/10/2020 14:10      68.7      67.7       21     27.2      0.00      7.42      54.3     0.47      1022.4     1.7     SSE   155   4.3       S     182     263       217       1.5       8.9      55.4      9.68
   01/10/2020 14:00      68.3      66.6       22     27.6      0.00      7.42      54.2     0.47      1022.5     1.0     SSE   162   2.7       E      93     263       232       1.0       8.7      54.9      9.68
   01/10/2020 13:50      67.5      66.4       22     26.6      0.00      7.42      54.2     0.47      1022.4     2.2      NE    44   4.5     NNE      13     263       245       0.8       8.5      54.5      9.68
   01/10/2020 13:40      68.5      67.2       20     25.7      0.00      7.42      54.2     0.47      1022.4     1.9     SSW   193   4.1       S     179     263       258       1.7       8.4      54.1      9.68
   01/10/2020 13:30      68.2      67.1       21     25.8      0.00      7.42      54.1     0.47      1022.3     1.1      NE    45   3.4      NE      42     263       268       0.5       8.1      53.6      9.68
   01/10/2020 13:20      67.5      66.9       20     25.1      0.00      7.42      54.1     0.47      1022.4     1.4     NNW   338   4.2     NNW     331     263       279       0.8       8.0      53.1      9.68
   01/10/2020 13:10      67.8      66.9       22     27.1      0.00      7.42      54.1     0.47      1022.3     1.3      NE    56   3.5       N       0     263       290       0.9       7.9      52.6      9.68
   01/10/2020 13:00      67.5      66.3       22     27.2      0.00      7.42      54.0     0.47      1022.3     1.3      NE    42   2.9     NNE      32     263       299       0.6       7.7      52.1      9.68
   01/10/2020 12:50      66.9      66.2       22     27.0      0.00      7.42      54.0     0.47      1022.5     1.6       E    81   5.0      SE     125     263       308       0.9       7.6      51.7      9.68
   01/10/2020 12:40      66.7      65.2       23     27.0      0.00      7.42      54.0     0.47      1022.7     1.2     ENE    56   3.5     NNE      17     263       313       0.6       7.5      51.2      9.68
   01/10/2020 12:30      65.3      64.1       23     26.0      0.00      7.42      54.0     0.47      1023.0     1.3     NNE    22   3.3     NNE      25     264       320       0.8       7.4      50.7      9.68
   01/10/2020 12:20      65.0      64.3       23     26.1      0.00      7.42      54.0     0.47      1023.3     2.9     NNE    20   5.8      NE      41     264       323       0.7       7.3      50.2      9.69
   01/10/2020 12:10      64.9      64.0       23     25.6      0.00      7.42      54.0     0.47      1023.4     2.3     NNE    22   5.4       N      10     264       324       1.0       7.1      49.6      9.69
   01/10/2020 12:00      64.1      63.5       24     26.8      0.00      7.42      54.0     0.47      1023.5     2.6     NNE    18   6.4      NE      39     264       326       0.8       7.0      49.0      9.69
   01/10/2020 11:50      63.7      62.6       26     27.1      0.00      7.42      54.0     0.47      1023.7     1.7       N   359   3.6     NNE      20     264       325       1.1       6.8      48.5      9.69
   01/10/2020 11:40      63.8      62.4       26     27.7      0.00      7.42      54.0     0.46      1023.9     1.1     NNW   331   3.3      NE      37     264       323       0.8       6.7      47.9      9.69
   01/10/2020 11:30      62.5      61.8       27     27.6      0.00      7.42      54.0     0.46      1024.0     1.2     NNW   329   3.7     NNE      22     265       320       1.0       6.5      47.5      9.69
   01/10/2020 11:20      62.1      61.4       27     27.2      0.00      7.42      54.1     0.46      1024.1     1.5     NNE    22   3.4     NNE      17     265       315       0.6       6.4      47.0      9.69
   01/10/2020 11:10      62.2      61.0       27     27.6      0.00      7.42      54.1     0.46      1024.3     1.5       E    86   4.7       N      11     264       311       0.8       6.3      46.5      9.69
   01/10/2020 11:00      61.9      61.0       28     28.2      0.00      7.42      54.1     0.47      1024.4     1.5      NE    51   3.5     NNE      27     264       303       0.7       6.1      46.0      9.69
   01/10/2020 10:50      61.8      60.9       29     28.6      0.00      7.42      54.1     0.47      1024.7     1.2     ENE    70   3.5       E      84     264       294       0.4       6.0      45.4      9.69
   01/10/2020 10:40      61.3      60.0       30     29.3      0.00      7.42      54.1     0.46      1024.9     0.7      NE    43   2.4     ESE     119     264       286       0.6       6.0      44.9      9.69
   01/10/2020 10:30      60.4      59.6       30     28.7      0.00      7.42      54.2     0.47      1025.2     1.2      SE   137   2.4     ESE     108     265       277       1.0       5.9      44.3      9.69
   01/10/2020 10:20      60.2      59.5       34     31.2      0.00      7.42      54.2     0.46      1025.2     0.9     NNW   348   2.3       N       8     265       265       0.5       5.7      43.9      9.69
   01/10/2020 10:10      59.9      57.9       34     30.3      0.00      7.42      54.2     0.47      1025.2     0.7     ESE   112   3.0      SE     136     264       252       0.4       5.6      43.4      9.69
   01/10/2020 10:00      57.9      56.8       39     32.5      0.00      7.42      54.3     0.47      1025.2     0.6      NE    46   2.0     NNE      29     265       239       0.3       5.5      43.1      9.69
   01/10/2020 09:50      56.9      55.8       40     32.5      0.00      7.42      54.3     0.47      1025.2     0.9      NE    38   2.4      NE      37     265       225       0.2       5.5      42.8      9.69
   01/10/2020 09:40      55.9      55.1       41     32.3      0.00      7.42      54.4     0.47      1025.1     1.1      NE    47   2.6     NNE      26     266       210       0.4       5.5      42.7      9.69
   01/10/2020 09:30      55.3      54.5       42     32.4      0.00      7.42      54.4     0.47      1024.8     1.4      NE    38   2.7     ENE      57     266       194       0.1       5.4      42.5      9.69
   01/10/2020 09:20      55.1      54.2       43     32.3      0.00      7.42      54.4     0.47      1024.6     1.0      NE    47   2.6       E      83     266       178       0.2       5.4      42.2      9.69
   01/10/2020 09:10      54.3      53.1       45     33.0      0.00      7.42      54.5     0.47      1024.3     0.6       N     6   2.2       N     355     266       162       0.0       5.3      41.9      9.69
   01/10/2020 09:00      53.4      52.7       46     33.1      0.00      7.42      54.5     0.47      1024.2     0.8      NE    44   1.8      NE      50     266       143       0.0       5.3      41.6      9.69
   01/10/2020 08:50      52.6      51.0       50     33.8      0.00      7.42      54.5     0.47      1024.1     0.3      NE    55   1.1     ENE      57     266       125       0.0       5.3      41.4      9.69
   01/10/2020 08:40      51.1      49.5       52     33.8      0.00      7.42      54.5     0.47      1024.0     0.3      NE    35   1.3     NNE      22     267       108       0.0       5.3      41.2      9.69
   01/10/2020 08:30      49.4      46.2       57     33.3      0.00      7.42      54.6     0.47      1023.9     0.2     ESE   104   1.1       E      83     267        91       0.0       5.3      40.9      9.69
   01/10/2020 08:20      46.1      43.1       63     33.0      0.00      7.42      54.6     0.47      1023.8     0.5      NE    54   1.3     NNE      22     267        73       0.0       5.3      40.6      9.69
   01/10/2020 08:10      43.3      41.5       67     32.0      0.00      7.42      54.6     0.47      1023.7     0.0     ESE   124   0.6       E      92     269        54       0.0       5.3      40.3      9.69
   01/10/2020 08:00      41.6      40.4       69     31.4      0.00      7.42      54.7     0.47      1023.5     0.0      SW   215   0.8      SW     215     270       -36       0.0       5.3      40.3      9.69
   01/10/2020 07:50      40.6      40.0       69     31.1      0.00      7.42      54.7     0.47      1023.2     0.0      SE   144   0.7      SE     130     270       -41       0.0       5.3      40.3      9.69
   01/10/2020 07:40      40.2      39.0       70     30.7      0.00      7.42      54.7     0.47      1023.1     0.3     ESE   121   0.9     SSE     150     270       -43       0.0       5.3      40.4      9.69
   01/10/2020 07:30      39.4      38.8       72     30.7      0.00      7.42      54.8     0.47      1022.9     0.7       S   176   1.6      SE     145     270       -46       0.0       5.3      40.5      9.69
   01/10/2020 07:20      39.8      39.3       69     30.2      0.00      7.42      54.8     0.47      1022.8     0.6     SSE   168   1.4     SSE     150     270       -51       0.1       5.3      40.6      9.69
   01/10/2020 07:10      40.4      39.6       68     30.3      0.00      7.42      54.8     0.47      1022.7     0.2       E    97   1.1     SSE     164     270       -55       0.0       5.3      40.8      9.69
   01/10/2020 07:00      41.2      40.0       66     30.2      0.00      7.42      54.8     0.47      1022.6     0.4       S   169   1.7      SE     144     270       -58       0.0       5.3      40.9      9.69
   01/10/2020 06:50      41.4      41.0       65     30.2      0.00      7.42      54.9     0.47      1022.5     0.5     SSE   150   2.1      SE     144     270       -61       0.0       5.2      41.0      9.69
   01/10/2020 06:40      42.0      41.2       63     29.8      0.00      7.42      54.9     0.47      1022.4     1.5     SSE   166   2.8      SE     135     269       -61       0.4       5.2      41.1      9.69
   01/10/2020 06:30      42.2      41.4       62     29.8      0.00      7.42      54.9     0.47      1022.3     1.4     SSE   150   2.9      SE     143     269       -62       0.3       5.2      41.3      9.69
   01/10/2020 06:20      41.5      41.2       64     30.0      0.00      7.42      55.0     0.47      1022.2     1.2     SSE   161   2.2       S     178     269       -62       0.5       5.1      41.4      9.69
   01/10/2020 06:10      41.9      41.2       64     30.0      0.00      7.42      55.0     0.47      1022.2     1.4      SE   145   2.6      SE     144     269       -63       0.4       5.0      41.5      9.70
   01/10/2020 06:00      41.2      39.5       68     30.4      0.00      7.42      55.0     0.47      1022.2     1.8     SSE   165   3.2      SE     143     269       -62       1.3       5.0      41.6      9.70
   01/10/2020 05:50      39.8      39.3       70     30.6      0.00      7.42      55.0     0.47      1022.2     1.4      SE   145   2.2       E      96     270       -61       0.6       4.8      41.8      9.70
   01/10/2020 05:40      40.7      39.9       67     30.2      0.00      7.42      55.0     0.47      1022.3     0.9     SSE   165   1.9      SE     140     269       -61       0.7       4.7      42.0      9.70
   01/10/2020 05:30      40.8      40.2       66     30.1      0.00      7.42      55.1     0.47      1022.0     1.0       S   176   2.4      SW     222     270       -62       0.4       4.6      42.2      9.70
   01/10/2020 05:20      42.3      40.6       64     30.1      0.00      7.42      55.1     0.47      1021.8     0.4      SE   143   1.6      SE     136     269       -64       0.0       4.5      42.4      9.70
   01/10/2020 05:10      44.3      42.3       60     30.2      0.00      7.42      55.1     0.47      1021.7     1.3      SE   141   2.2      SE     142     269       -64       0.2       4.5      42.6      9.70
   01/10/2020 05:00      47.5      44.1       52     29.5      0.00      7.42      55.2     0.47      1021.6     1.4       S   174   4.8       W     276     269       -65       0.5       4.5      42.7      9.70
   01/10/2020 04:50      47.5      46.5       49     29.1      0.00      7.42      55.2     0.47      1021.4     2.4     WSW   237   4.3       W     264     268       -66       1.3       4.4      42.7      9.70
   01/10/2020 04:40      46.4      42.7       58     30.0      0.00      7.42      55.2     0.47      1021.2     2.5       S   180   7.2     SSW     200     269       -63       1.4       4.2      42.8      9.70
   01/10/2020 04:30      43.7      42.8       61     30.5      0.00      7.42      55.2     0.47      1020.9     1.3      SE   142   2.7      SE     143     269       -64       0.4       3.9      43.0      9.70
   01/10/2020 04:20      46.1      43.6       56     30.0      0.00      7.42      55.3     0.47      1020.7     1.0     SSE   150   2.0      SE     144     269       -63       0.5       3.9      43.2      9.70
   01/10/2020 04:10      46.9      45.9       52     29.8      0.00      7.42      55.3     0.47      1020.7     1.5     SSW   212   3.1      SW     230     269       -64       0.6       3.8      43.4      9.70
   01/10/2020 04:00      47.5      46.7       51     29.9      0.00      7.42      55.3     0.47      1020.5     2.6       S   186   6.3     SSW     196     269       -66       1.6       3.7      43.5      9.70
   01/10/2020 03:50      47.0      45.4       53     30.0      0.00      7.42      55.3     0.47      1020.4     4.2      SW   223   7.2       S     187     269       -65       2.6       3.4      43.6      9.70
   01/10/2020 03:40      45.4      43.9       58     30.4      0.00      7.42      55.4     0.47      1020.3     2.8      SW   221   4.5      SW     219     269       -64       1.3       3.0      43.8      9.70
   01/10/2020 03:30      45.3      43.3       59     30.6      0.00      7.42      55.4     0.47      1020.3     1.9     SSE   166   4.8      SW     216     269       -65       1.2       2.8      43.9      9.70
   01/10/2020 03:20      45.4      44.9       57     30.7      0.00      7.42      55.4     0.47      1020.1     1.9      NW   322   4.4      NW     312     269       -65       0.9       2.6      44.0      9.70
   01/10/2020 03:10      45.8      45.0       56     30.6      0.00      7.42      55.5     0.47      1020.2     1.5      NW   322   3.3     NNW     332     269       -65       0.5       2.4      44.1      9.70
   01/10/2020 03:00      46.1      45.5       55     30.4      0.00      7.42      55.5     0.47      1020.5     2.1     WNW   291   3.7      NW     305     269       -64       0.8       2.3      44.3      9.70
   01/10/2020 02:50      49.1      45.9       52     30.4      0.00      7.42      55.5     0.47      1020.7     1.2     ESE   113   3.3     ESE     116     268       -65       0.3       2.2      44.4      9.70
   01/10/2020 02:40      49.5      47.9       48     29.9      0.00      7.42      55.5     0.47      1020.7     2.8       W   262   5.2       W     269     268       -64       1.7       2.2      44.6      9.70
   01/10/2020 02:30      49.0      48.3       49     30.1      0.00      7.42      55.5     0.47      1020.7     3.3      SW   228   4.8      SW     227     269       -65       1.9       1.9      44.7      9.70
   01/10/2020 02:20      48.6      47.8       50     30.2      0.00      7.42      55.6     0.47      1020.6     2.1     SSE   147   4.1     ESE     103     269       -67       0.9       1.6      44.8      9.70
   01/10/2020 02:10      49.0      47.7       49     30.1      0.00      7.42      55.6     0.47      1020.6     1.6     ESE   117   3.4     ESE     110     269       -65       0.7       1.4      44.9      9.70
   01/10/2020 02:00      48.7      44.3       52     30.2      0.00      7.42      55.6     0.47      1020.7     1.8       N     7   3.9      NW     326     269       -62       0.2       1.3      44.9      9.70
   01/10/2020 01:50      44.2      41.2       67     31.7      0.00      7.42      55.6     0.47      1020.5     1.5       N     6   4.6      NW     317     269       -61       0.2       1.2      45.0      9.70
   01/10/2020 01:40      42.9      41.4       66     31.6      0.00      7.42      55.7     0.47      1020.7     0.6     ESE   114   1.5     SSE     146     269       -63       0.2       1.2      45.2      9.70
   01/10/2020 01:30      44.2      42.9       62     31.4      0.00      7.42      55.7     0.47      1021.0     0.8       S   174   4.2      SW     219     269       -63       0.5       1.2      45.4      9.70
   01/10/2020 01:20      43.0      42.0       66     31.8      0.00      7.42      55.7     0.47      1020.8     1.0     SSW   200   4.1     WSW     240     269       -62       0.8       1.1      45.5      9.71
   01/10/2020 01:10      44.2      42.8       63     31.6      0.00      7.42      55.7     0.47      1020.6     0.7     SSE   168   2.7     SSW     200     269       -63       0.4       1.0      45.7      9.71
   01/10/2020 01:00      44.5      43.7       61     31.7      0.00      7.42      55.7     0.47      1020.6     2.3      SW   234   4.2     SSW     212     269       -63       1.7       0.9      45.9      9.71
   01/10/2020 00:50      44.2      43.5       62     31.7      0.00      7.42      55.8     0.47      1020.3     1.2       S   180   3.7      SE     132     269       -65       0.7       0.6      46.1      9.71
   01/10/2020 00:40      44.8      43.9       62     31.8      0.00      7.42      55.8     0.47      1020.2     1.1     NNW   338   2.8     WSW     242     269       -65       0.5       0.5      46.4      9.71
   01/10/2020 00:30      46.5      44.7       58     31.7      0.00      7.42      55.8     0.47      1019.9     1.1     SSE   147   3.0     SSE     164     269       -65       1.0       0.4      46.6      9.71
   01/10/2020 00:20      48.6      46.5       53     31.4      0.00      7.42      55.8     0.47      1019.8     0.6     SSE   152   1.6      SW     221     269       -65       0.2       0.3      46.8      9.71
   01/10/2020 00:10      50.0      48.7       49     31.3      0.00      7.42      55.9     0.47      1019.8     2.4      SW   229   4.0       W     263     268       -66       1.4       0.2      47.0      9.71
   01/10/2020 00:00      49.9      48.5       50     31.5      0.00      7.42      55.9     0.47      1019.6     2.0       N   358   4.4     NNE      19     268       -67       0.3      21.3      47.0      9.71
   01/09/2020 23:50      48.3      45.6       55     31.7      0.00      7.42      55.9     0.47      1019.4     1.8       N   358   5.8     NNE      17     269       -66       0.9      21.2      47.1      9.71
   01/09/2020 23:40      45.6      44.4       61     32.3      0.00      7.42      55.9     0.47      1019.3     2.5     SSE   165   4.7       S     177     269       -65       1.3      21.1      47.3      9.71
   01/09/2020 23:30      46.4      44.1       60     32.0      0.00      7.42      55.9     0.47      1019.4     1.4     SSE   154   4.7      SE     132     269       -65       0.4      20.8      47.4      9.71
   01/09/2020 23:20      46.6      45.9       57     31.9      0.00      7.42      55.9     0.47      1019.3     0.8       S   181   2.7       E      81     269       -65       0.7      20.8      47.6      9.71
   01/09/2020 23:10      48.0      46.5       56     32.1      0.00      7.42      55.9     0.47      1019.5     1.4      SE   141   3.4     SSW     210     269       -65       1.0      20.7      47.7      9.71
   01/09/2020 23:00      47.8      44.6       59     32.3      0.00      7.42      56.0     0.47      1019.4     2.8     SSW   203   5.1      SW     226     269       -64       1.9      20.5      47.9      9.71
   01/09/2020 22:50      45.5      43.8       62     32.6      0.00      7.42      56.0     0.47      1019.1     2.0       S   180   3.2       S     174     269       -64       1.4      20.2      48.2      9.71
   01/09/2020 22:40      44.2      43.4       65     32.8      0.00      7.42      56.0     0.47      1019.0     1.2       S   174   2.5       S     189     269       -64       1.0      19.9      48.5      9.71
   01/09/2020 22:30      45.6      43.5       62     32.3      0.00      7.42      56.0     0.47      1018.8     0.6     SSE   162   1.9     SSW     196     269       -66       0.3      19.8      48.7      9.71
   01/09/2020 22:20      47.5      45.5       58     32.4      0.00      7.42      56.0     0.47      1018.7     1.1      SE   136   3.4     SSW     202     268       -67       0.4      19.7      48.9      9.72
   01/09/2020 22:10      48.2      47.0       55     32.4      0.00      7.42      56.0     0.47      1018.6     2.0     SSW   194   3.2     SSW     206     268       -66       1.3      19.6      49.1      9.72
   01/09/2020 22:00      49.5      48.3       52     32.3      0.00      7.42      56.0     0.47      1018.5     2.9     SSW   200   4.6     SSW     208     268       -68       2.0      19.4      49.5      9.72
   01/09/2020 21:50      50.1      49.4       51     32.2      0.00      7.42      56.0     0.47      1018.3     2.5      SW   225   4.1      SW     228     268       -69       1.5      19.1      49.7      9.72
   01/09/2020 21:40      50.2      49.8       50     32.2      0.00      7.42      56.0     0.47      1018.1     1.8     WNW   295   4.4      NW     315     268       -70       0.9      18.8      49.9      9.72
   01/09/2020 21:30      50.3      49.5       50     32.3      0.00      7.42      56.0     0.47      1017.9     2.3     WNW   302   5.8      NW     311     268       -69       1.1      18.7      50.0      9.72
   01/09/2020 21:20      49.5      49.1       52     32.5      0.00      7.42      56.0     0.47      1017.7     1.8      NW   315   4.7     WNW     303     268       -68       0.5      18.5      50.1      9.72
   01/09/2020 21:10      49.6      49.2       52     32.5      0.00      7.42      56.0     0.47      1017.5     1.1     WNW   283   2.4     WSW     247     268       -67       0.5      18.4      50.3      9.72
   01/09/2020 21:00      49.9      48.3       52     32.6      0.00      7.42      56.0     0.47      1017.4     2.5       W   269   4.3      NW     313     268       -68       1.6      18.4      50.4      9.72
   01/09/2020 20:50      48.5      47.7       55     32.7      0.00      7.42      56.0     0.47      1017.2     2.4     WSW   248   3.6     WSW     246     268       -67       1.3      18.1      50.6      9.72
   01/09/2020 20:40      49.9      48.2       53     32.6      0.00      7.42      56.0     0.47      1017.1     1.7     SSW   211   2.2      SW     227     268       -68       0.7      17.9      50.9      9.72
   01/09/2020 20:30      50.6      49.9       51     32.8      0.00      7.42      56.0     0.47      1017.1     1.5       W   277   3.2       W     277     268       -70       1.0      17.8      51.2      9.72
   01/09/2020 20:20      50.8      50.3       51     32.8      0.00      7.42      56.0     0.47      1017.1     2.3     WNW   286   3.3       W     262     268       -69       1.7      17.6      51.3      9.72
   01/09/2020 20:10      51.9      50.5       49     32.7      0.00      7.42      56.0     0.47      1016.9     1.7     WNW   301   2.9     NNW     349     268       -69       1.1      17.3      51.5      9.72
   01/09/2020 20:00      51.9      51.2       47     32.3      0.00      7.42      56.0     0.47      1016.8     1.5       N     4   6.0     NNE      16     267       -69       0.2      17.1      51.7      9.72
   01/09/2020 19:50      51.4      50.7       49     32.5      0.00      7.42      56.0     0.47      1016.7     1.1       N     2   3.6     NNW     334     268       -69       0.0      17.1      51.8      9.72
   01/09/2020 19:40      51.1      50.8       49     32.4      0.00      7.42      56.0     0.47      1016.4     0.5       N   353   2.9     NNE      25     268       -70       0.1      17.1      52.0      9.73
   01/09/2020 19:30      51.4      51.0       49     32.5      0.00      7.42      56.0     0.47      1016.1     0.9     NNE    25   4.0      NE      38     267       -70       0.2      17.1      52.2      9.73
   01/09/2020 19:20      51.6      49.8       50     32.4      0.00      7.42      56.0     0.47      1016.0     1.4     ESE   115   4.0      NE      34     267       -70       0.3      17.0      52.4      9.73
   01/09/2020 19:10      52.7      51.7       47     32.7      0.00      7.42      56.0     0.47      1015.9     0.4       N     9   1.8       N     353     267       -71       0.0      17.0      52.6      9.73
   01/09/2020 19:00      53.3      52.6       45     32.4      0.00      7.42      55.9     0.47      1015.9     1.3     NNW   342   3.4     WSW     253     267       -73       0.2      17.0      52.8      9.73
   01/09/2020 18:50      54.0      53.1       44     32.3      0.00      7.42      55.9     0.47      1015.8     0.9     NNW   341   4.3       N     353     267       -75       0.3      16.9      53.0      9.73
   01/09/2020 18:40      54.3      53.6       43     32.1      0.00      7.42      55.9     0.47      1015.7     3.4      NW   317   7.3      NW     313     267       -75       1.7      16.9      53.2      9.73
   01/09/2020 18:30      54.4      53.4       43     31.9      0.00      7.42      55.9     0.47      1015.5     4.1      NW   316  17.4       W     277     267       -75       2.3      16.6      53.4      9.73
   01/09/2020 18:20      53.7      53.4       45     32.5      0.00      7.42      55.8     0.47      1015.5     3.6     NNW   332   6.9      NW     304     267       -75       1.6      16.2      53.6      9.73
   01/09/2020 18:10      53.8      53.3       45     32.6      0.00      7.42      55.8     0.47      1015.5     3.5       N   349   6.5      NW     304     267       -75       0.8      16.0      53.8      9.74
   01/09/2020 18:00      53.7      53.3       45     32.6      0.00      7.42      55.8     0.47      1015.5     2.3      NW   325   6.3      NW     315     267       -75       0.8      15.8      54.0      9.74
   01/09/2020 17:50      53.9      53.3       45     32.8      0.00      7.42      55.8     0.47      1015.5     1.9     NNW   334   4.1     NNW     349     267       -75       0.9      15.7      54.1      9.74
   01/09/2020 17:40      54.0      53.7       44     32.5      0.00      7.42      55.7     0.47      1015.3     2.7     NNW   341   6.6     WNW     287     267       -76       1.0      15.5      54.3      9.74
   01/09/2020 17:30      54.1      53.7       45     32.8      0.00      7.42      55.7     0.47      1014.9     3.9     NNE    23   9.0     NNE      13     267       -77       1.1      15.4      54.6      9.74
   01/09/2020 17:20      54.2      53.8       45     33.3      0.00      7.42      55.6     0.47      1014.7     3.6     NNE    18   8.7       N       0     267       -77       1.3      15.2      54.9      9.74
   01/09/2020 17:10      54.3      53.9       47     34.2      0.00      7.42      55.6     0.47      1014.8     3.5       N   356   7.8     NNE      15     267       -76       0.7      15.0      55.1      9.74
   01/09/2020 17:00      54.8      54.1       47     34.5      0.00      7.42      55.6     0.47      1014.4     2.1     NNE    31   5.1      NE      46     267       -73       0.3      14.8      55.3      9.75
   01/09/2020 16:50      55.5      54.6       45     34.2      0.00      7.42      55.5     0.47      1014.2     3.1       N     7   7.0       W     265     266       -71       0.9      14.8      55.6      9.75
   01/09/2020 16:40      56.4      55.5       44     34.1      0.00      7.42      55.5     0.47      1013.9     3.1       N   351   7.8       N       5     266       -68       0.7      14.6      55.9      9.75
   01/09/2020 16:30      57.1      56.3       42     33.7      0.00      7.42      55.5     0.47      1013.6     4.2     NNE    13   8.3       N       3     266       -47       1.3      14.5      56.1      9.75
   01/09/2020 16:20      58.1      57.1       42     34.9      0.00      7.42      55.4     0.47      1013.3     4.3       N   357  11.8     WNW     293     266       -31       1.5      14.3      56.2      9.75
   01/09/2020 16:10      58.4      57.8       44     36.1      0.00      7.42      55.4     0.47      1013.3     2.7       N   360   5.0     WNW     293     266       -13       0.8      14.1      56.2      9.76
   01/09/2020 16:00      59.0      58.3       47     38.3      0.00      7.42      55.4     0.47      1013.2     2.3     NNE    12   7.0     NNE      31     266        -2       0.8      13.9      56.2      9.76
   01/09/2020 15:50      60.0      58.9       48     39.9      0.00      7.42      55.3     0.47      1013.2     1.3      NW   317   4.9      NW     308     266        28       0.5      13.8      56.2      9.76
   01/09/2020 15:40      60.0      58.4       49     39.9      0.00      7.42      55.3     0.47      1013.2     0.6     NNW   341   2.5     WNW     288     266        53       0.4      13.7      56.1      9.76
   01/09/2020 15:30      58.6      57.7       51     40.0      0.00      7.42      55.2     0.47      1013.2     1.2      NW   318   3.7      SW     214     266        77       0.7      13.6      56.0      9.76
   01/09/2020 15:20      57.9      56.6       52     39.9      0.00      7.42      55.2     0.47      1013.0     1.3     NNW   330   3.2     NNW     334     266        87       0.2      13.5      55.9      9.76
   01/09/2020 15:10      57.2      56.6       53     40.1      0.00      7.42      55.1     0.47      1013.1     1.9     WNW   290   3.8     WNW     300     267        41       1.2      13.5      55.9      9.76
   01/09/2020 15:00      57.2      56.5       53     40.2      0.00      7.42      55.1     0.47      1013.1     2.2      NW   308   5.5     WNW     292     267        96       0.9      13.3      55.9      9.77
   01/09/2020 14:50      56.7      55.7       56     40.5      0.00      7.42      55.1     0.47      1013.0     2.6       W   260   4.8     NNW     347     267        67       2.0      13.1      55.8      9.77
   01/09/2020 14:40      56.3      55.6       57     40.8      0.00      7.42      55.0     0.47      1013.0     3.9     WSW   240   6.1       W     270     267        61       2.8      12.8      55.8      9.77
   01/09/2020 14:30      56.5      55.8       57     41.0      0.00      7.42      55.0     0.47      1013.0     1.7      SW   216   5.2      SW     214     267        91       1.4      12.3      55.7      9.77
   01/09/2020 14:20      55.8      55.4       57     40.8      0.00      7.42      55.0     0.47      1013.1     2.8      SW   215   6.4      SW     234     267       129       2.1      12.1      55.5      9.78
   01/09/2020 14:10      56.6      55.4       57     40.6      0.00      7.42      54.9     0.47      1013.1     4.4     SSW   206   7.9       S     184     267       210       3.2      11.7      55.2      9.78
   01/09/2020 14:00      57.3      56.4       55     41.0      0.00      7.42      54.9     0.47      1013.2     4.3     WSW   241   9.3       S     180     266       281       3.4      11.2      54.9      9.78
   01/09/2020 13:50      56.6      55.5       57     40.6      0.00      7.42      54.9     0.47      1013.2     4.1     WSW   243   7.6       W     267     266       252       3.1      10.6      54.5      9.78
   01/09/2020 13:40      56.8      55.6       55     40.2      0.00      7.42      54.8     0.47      1013.4     5.0      SW   230   9.7     WSW     254     267       135       3.7      10.1      54.1      9.79
   01/09/2020 13:30      57.4      56.8       51     39.2      0.00      7.42      54.8     0.47      1013.5     6.8      SW   234  10.6     SSW     202     266       267       5.0       9.5      53.8      9.79
   01/09/2020 13:20      58.2      57.4       46     37.0      0.00      7.42      54.8     0.47      1013.4     7.5      SW   227  13.4     SSW     211     266       318       5.5       8.7      53.3      9.80
   01/09/2020 13:10      58.5      57.7       41     34.7      0.00      7.42      54.8     0.47      1013.4     7.0      SW   235  11.3     WSW     252     266       302       5.4       7.7      53.0      9.80
   01/09/2020 13:00      59.7      58.1       38     33.4      0.00      7.42      54.8     0.47      1013.7     6.8     WSW   244  11.9     WSW     255     266       324       4.8       6.8      52.5      9.81
   01/09/2020 12:50      59.6      58.9       39     34.1      0.00      7.42      54.7     0.47      1013.8     4.9     WSW   246   9.5     WSW     254     266       327       3.8       6.0      52.1      9.81
   01/09/2020 12:40      59.3      58.5       42     35.7      0.00      7.42      54.7     0.47      1013.9     4.3     WSW   239   7.6      SW     234     266       264       3.1       5.4      51.6      9.82
   01/09/2020 12:30      59.5      58.0       44     36.9      0.00      7.42      54.7     0.47      1014.0     2.7      SW   235   6.4     WSW     257     266       315       2.3       4.9      51.2      9.82
   01/09/2020 12:20      58.3      57.9       46     37.4      0.00      7.42      54.7     0.47      1014.2     4.7     WSW   247   8.6       W     265     266       306       3.5       4.5      51.0      9.83
   01/09/2020 12:10      58.5      57.5       47     37.8      0.00      7.42      54.6     0.47      1014.4     4.0     WSW   241   9.7     WSW     242     266       256       3.2       3.9      50.4      9.84
   01/09/2020 12:00      58.5      57.8       47     38.3      0.00      7.42      54.8     0.47      1014.6     3.6     WSW   241   7.8     WSW     248     266       288       2.8       3.4      50.1      9.84
   01/09/2020 11:30      57.5      56.5       47     37.3      0.00      7.42      54.7     0.47      1014.9     2.7       S   177   7.3       S     184     267       322       2.0       3.4      48.3      9.87
   01/09/2020 11:20      58.8      57.8       46     37.8      0.00      7.42      54.8     0.47      1015.3     2.7       W   261   6.3      SE     142     290       286       1.9       3.0      47.9      9.89
   01/09/2020 11:10      58.3      56.5       49     38.3      0.00      7.42      54.8     0.47      1015.6     1.9      SW   235   6.8     WSW     253     298       315       1.8       2.7      47.6      9.90
   01/09/2020 11:00      58.1      57.4       49     38.6      0.00      7.42      54.8     0.47      1015.9     2.0     NNE    26   7.4     SSW     211     305       300       1.6       2.3      47.0      9.91
   01/09/2020 10:50      57.5      56.5       49     38.0      0.00      7.42      54.8     0.47      1016.0     1.0     NNE    19   2.2      NE      35     312       292       0.2       2.1      46.5      9.92
   01/09/2020 10:40      57.4      57.1       48     37.7      0.00      7.42      54.7     0.47      1016.1     1.8      NE    45   3.2      NE      36     266       248       0.9       0.1      46.1      9.93
   01/09/2020 10:30      57.5      56.6       46     36.6      0.00      7.42      54.8     0.47      1016.3     1.0      SE   145   3.3     NNE      28     266       270       0.5       0.0      45.6      9.94
   01/09/2020 10:20      56.2      55.1       45     34.5      0.00      7.42      54.9     0.47      1016.5     0.6       S   185   1.8       S     172     266       258       0.7       0.0      45.2      9.96
   01/09/2020 09:40      52.8      50.9       49     33.4      0.00      7.42      54.9     0.47      1017.0     1.1     SSE   157   3.3       S     179     267       191       1.2       2.2      44.3     10.03
   01/09/2020 09:30      50.9      49.3       53     33.5      0.00      7.42      55.0     0.47      1017.0     1.3     SSE   163   2.4     SSW     209     267       185       1.0       2.0      44.4     10.06
   01/09/2020 09:20      48.5      47.2       57     33.4      0.00      7.42      55.1     0.47      1017.0     1.2     SSE   164   2.1       S     182     268        68       0.8       1.8      43.7      9.98
   01/09/2020 09:10      47.4      45.9       60     33.3      0.00      7.42      55.1     0.47      1017.2     1.2      SW   226   2.5     WSW     241     269        95       0.7       1.7      43.4      9.63
   01/09/2020 09:00      46.0      45.0       64     34.1      0.00      7.42      55.1     0.47      1017.3     1.1     WSW   240   2.4     WSW     238     269        68       0.7       1.5      43.2      9.63
   01/09/2020 08:50      45.2      44.7       64     33.5      0.00      7.42      55.2     0.47      1017.2     2.0     WSW   254   4.0     WSW     252     269        63       1.4       1.4      43.1      9.63
   01/09/2020 08:40      45.4      44.7       65     33.8      0.00      7.42      55.2     0.47      1016.9     0.9     WNW   287   2.7     WNW     294     269        45       0.3       1.2      43.0      9.63
   01/09/2020 08:30      45.6      44.9       66     34.6      0.00      7.42      55.2     0.47      1016.8     1.3      NW   310   4.4      NW     310     269        89       0.5       1.2      42.8      9.63
   01/09/2020 08:20      44.9      43.1       69     34.7      0.00      7.42      55.2     0.47      1016.6     1.6      NW   309   4.0      NW     310     269        95       0.5       1.1      42.5      9.64
   01/09/2020 08:10      43.3      41.4       77     35.4      0.00      7.42      55.3     0.47      1016.3     0.7       W   264   1.8      NW     309     270        38       0.2       1.0      42.4      9.64
   01/09/2020 08:00      41.5      40.8       78     34.8      0.00      7.42      55.3     0.47      1016.2     0.0       N     0   0.0     SSE     148     271       -20       0.0       0.9      42.3      9.64
   01/09/2020 07:50      41.0      40.3       79     34.4      0.00      7.42      55.3     0.47      1016.4     0.0     SSE   149   0.7     SSE     149     271       -26       0.0       0.9      42.3      9.64
   01/09/2020 07:40      40.5      40.2       79     34.3      0.00      7.42      55.4     0.47      1016.7     0.0       N     0   0.0     SSE     147     271       -24       0.0       0.9      42.3      9.64
   01/09/2020 07:30      40.4      39.9       79     34.3      0.00      7.42      55.4     0.47      1016.7     0.0     SSE   161   0.8     SSE     160     271       -30       0.0       0.9      42.3      9.64
   01/09/2020 07:20      40.3      39.6       80     34.2      0.00      7.42      55.4     0.47      1016.6     0.3      SE   128   1.1      SE     144     271       -28       0.0       0.9      42.3      9.64
   01/09/2020 07:10      39.6      38.8       81     33.8      0.00      7.42      55.5     0.47      1016.6     0.4     SSE   165   1.2      SE     144     271       -17       0.1       0.9      42.3      9.64
   01/09/2020 07:00      39.5      38.7       80     33.3      0.00      7.42      55.5     0.47      1016.6     0.6     SSE   157   1.2      SE     144     271       -32       0.6       0.9      42.4      9.64
   01/09/2020 06:50      39.5      39.0       80     33.7      0.00      7.42      55.5     0.47      1016.6     0.3       N   359   1.0     NNE      12     271       -42       0.0       0.8      42.5      9.64
   01/09/2020 06:40      39.3      38.7       81     33.7      0.00      7.42      55.5     0.47      1016.3     0.2     SSE   160   0.9       S     172     271       -42       0.2       0.8      42.6      9.64
   01/09/2020 06:30      39.0      38.3       82     33.7      0.00      7.42      55.6     0.47      1016.3     0.1       N     8   1.0       N       7     271       -22       0.0       0.8      42.6      9.64
   01/09/2020 06:20      38.4      37.8       82     33.2      0.00      7.42      55.6     0.47      1016.1     0.3      SE   145   1.3      SE     131     271       -19       0.0       0.8      42.6      9.64
   01/09/2020 06:10      38.1      37.3       82     32.8      0.00      7.42      55.6     0.47      1016.2     0.4       S   177   1.6       S     180     271       -21       0.1       0.8      42.7      9.64
   01/09/2020 06:00      37.8      37.3       82     32.4      0.00      7.42      55.7     0.47      1016.1     0.5     SSE   161   1.3       S     183     271       -44       0.5       0.7      42.9      9.64
   01/09/2020 05:50      38.1      37.5       81     32.3      0.00      7.42      55.7     0.47      1016.2     0.3      SE   134   1.2      SE     142     271       -49       0.0       0.7      43.0      9.65
   01/09/2020 05:40      38.2      37.8       81     32.7      0.00      7.42      55.7     0.47      1016.1     0.5      NE    45   1.4      SE     136     271       -46       0.0       0.7      43.1      9.65
   01/09/2020 05:30      38.4      37.9       82     33.0      0.00      7.42      55.7     0.47      1015.9     0.3     SSE   160   1.4      SE     137     271       -45       0.0       0.6      43.2      9.65
   01/09/2020 05:20      38.1      37.3       82     32.6      0.00      7.42      55.8     0.47      1015.8     0.0     SSE   168   0.7       S     169     271       -46       0.0       0.6      43.3      9.65
   01/09/2020 05:10      38.1      37.4       81     32.4      0.00      7.42      55.8     0.47      1015.7     0.7     SSE   151   1.6       S     184     271       -52       0.3       0.6      43.5      9.65
   01/09/2020 05:00      38.2      37.7       80     32.4      0.00      7.42      55.8     0.47      1015.8     0.0      SE   143   0.8      SE     144     271       -54       0.0       0.6      43.6      9.65
   01/09/2020 04:50      38.7      38.1       80     32.7      0.00      7.42      55.9     0.47      1015.8     0.0     SSW   206   0.9      SW     232     271       -55       0.0       0.6      43.8      9.65
   01/09/2020 04:40      38.7      38.2       80     32.6      0.00      7.42      55.9     0.47      1015.8     0.2       S   171   1.9      SE     136     271       -56       0.0       0.6      44.0      9.65
   01/09/2020 04:30      38.4      37.9       80     32.5      0.00      7.42      55.9     0.47      1015.8     0.5       S   175   2.0      SE     139     271       -56       0.2       0.6      44.1      9.65
   01/09/2020 04:20      38.5      38.2       80     32.5      0.00      7.42      55.9     0.47      1015.7     0.9      SE   144   1.9      SE     144     271       -56       0.2       0.6      44.2      9.65
   01/09/2020 04:10      38.5      38.1       80     32.6      0.00      7.42      56.0     0.47      1016.1     0.8      SE   145   1.4      SE     143     271       -57       0.4       0.5      44.4      9.65
   01/09/2020 04:00      38.7      38.2       79     32.6      0.00      7.42      56.0     0.47      1016.4     0.7     SSE   158   1.2     SSE     168     271       -56       0.3       0.5      44.6      9.65
   01/09/2020 03:50      39.0      38.4       78     32.6      0.00      7.42      56.0     0.47      1016.6     0.5     SSE   168   1.1      SW     216     271       -56       0.0       0.4      44.8      9.65
   01/09/2020 03:40      39.0      38.4       78     32.4      0.00      7.42      56.0     0.47      1016.3     0.5     SSW   202   1.4      SW     233     271       -57       0.1       0.4      45.0      9.66
   01/09/2020 03:30      39.3      38.8       77     32.3      0.00      7.42      56.1     0.47      1016.3     0.6     SSE   148   1.9      SE     138     271       -57       0.3       0.4      45.2      9.66
   01/09/2020 03:20      39.8      39.2       75     32.2      0.00      7.42      56.1     0.47      1016.3     0.2     SSE   155   0.9     SSE     153     271       -57       0.0       0.4      45.4      9.66
   01/09/2020 03:10      39.9      39.3       75     32.4      0.00      7.42      56.1     0.47      1016.3     0.2     SSE   160   0.7     SSE     159     270       -57       0.0       0.3      45.6      9.66
   01/09/2020 03:00      39.9      39.5       75     32.4      0.00      7.42      56.1     0.47      1016.3     0.0     SSE   157   0.5     SSE     157     270       -57       0.0       0.3      45.8      9.66
   01/09/2020 02:50      40.1      39.7       75     32.6      0.00      7.42      56.2     0.47      1016.3     0.4       S   171   1.1     SSE     155     270       -57       0.0       0.3      46.0      9.66
   01/09/2020 02:40      40.5      39.8       75     32.9      0.00      7.42      56.2     0.47      1016.3     0.0      SE   143   0.5      SE     143     270       -58       0.0       0.3      46.2      9.66
   01/09/2020 02:30      40.9      40.4       74     33.1      0.00      7.42      56.2     0.47      1016.4     0.0      SE   143   0.6      SE     143     270       -59       0.0       0.3      46.4      9.66
   01/09/2020 02:20      41.0      40.5       73     32.9      0.00      7.42      56.2     0.47      1016.3     0.2     SSE   165   1.1      SE     144     270       -59       0.0       0.3      46.6      9.66
   01/09/2020 02:10      41.8      40.6       72     33.0      0.00      7.42      56.2     0.47      1016.4     0.6     SSE   154   2.1      SE     138     269       -61       0.2       0.3      46.8      9.66
   01/09/2020 02:00      42.5      41.8       71     33.3      0.00      7.42      56.3     0.47      1016.6     0.3     SSE   147   1.0     SSE     148     269       -61       0.0       0.3      47.0      9.66
   01/09/2020 01:50      43.3      42.3       69     33.5      0.00      7.42      56.3     0.47      1016.6     0.1      SE   144   1.2      SE     144     269       -61       0.0       0.3      47.2      9.66
   01/09/2020 01:40      43.6      43.1       69     34.0      0.00      7.42      56.3     0.47      1016.5     0.0     NNW   327   0.8     WNW     303     269       -50       0.0       0.3      47.4      9.67
   01/09/2020 01:30      43.9      43.3       69     34.1      0.00      7.42      56.3     0.47      1016.3     0.2      SW   222   0.9       W     265     269       -50       0.0       0.3      47.6      9.67
   01/09/2020 01:20      43.9      43.5       69     34.3      0.00      7.42      56.4     0.47      1016.5     0.0       N     0   0.0     SSE     149     269       -35       0.0       0.3      47.6      9.67
   01/09/2020 01:10      43.9      43.6       69     34.2      0.00      7.42      56.4     0.47      1016.5     0.6     SSE   147   1.8      SE     135     269       -28       0.0       0.3      47.7      9.67
   01/09/2020 01:00      44.1      43.7       68     34.2      0.00      7.42      56.4     0.47      1016.7     0.0     SSE   150   0.7      SE     141     269       -30       0.0       0.3      47.8      9.67
   01/09/2020 00:50      43.8      43.3       70     34.3      0.00      7.42      56.4     0.47      1016.7     1.1     SSE   160   2.1     SSE     149     269       -33       0.2       0.3      47.9      9.67
   01/09/2020 00:40      43.4      43.1       71     34.4      0.00      7.42      56.5     0.47      1016.9     1.1     SSE   159   2.8      SE     143     269       -32       0.4       0.2      48.0      9.67
   01/09/2020 00:30      43.4      42.9       70     34.0      0.00      7.42      56.5     0.47      1016.9     1.2       S   183   2.0     SSW     195     269       -30       0.7       0.2      48.1      9.67
   01/09/2020 00:20      43.3      42.8       69     33.6      0.00      7.42      56.5     0.47      1016.9     0.7       S   174   1.6       S     191     269       -32       0.3       0.0      48.3      9.67
   01/09/2020 00:10      43.2      42.8       69     33.5      0.00      7.42      56.5     0.47      1016.8     0.2      NE    52   1.1     NNE      17     269       -30       0.0       0.0      48.4      9.67
   01/09/2020 00:00      43.3      42.9       68     33.2      0.00      7.42      56.5     0.47      1016.8     0.0      SE   132   0.6      SE     136     269       -29       0.0      18.8      48.5      9.67
   01/08/2020 23:50      43.2      43.0       66     32.6      0.00      7.42      56.6     0.47      1016.6     0.3      SE   136   1.2      SE     136     269       -30       0.0      18.8      48.6      9.67
   01/08/2020 23:40      43.1      42.6       67     32.6      0.00      7.42      56.6     0.47      1016.5     0.1      SE   133   0.9      SE     133     269       -29       0.0      18.8      48.7      9.67
   01/08/2020 23:30      42.9      42.5       68     32.7      0.00      7.42      56.6     0.47      1016.3     0.0       N     0   0.0       S     181     269       -33       0.0      18.8      48.8      9.68
   01/08/2020 23:20      43.0      42.5       67     32.6      0.00      7.42      56.6     0.47      1016.4     0.0       S   180   0.4       S     180     269       -37       0.0      18.8      49.0      9.68
   01/08/2020 23:10      43.3      42.7       66     32.5      0.00      7.42      56.6     0.47      1016.6     0.7     SSE   150   2.2     SSE     146     269       -45       0.2      18.8      49.1      9.68
   01/08/2020 23:00      43.3      42.8       65     32.0      0.00      7.42      56.7     0.47      1016.8     0.9     SSE   167   2.4      SE     138     269       -48       0.2      18.8      49.2      9.68
   01/08/2020 22:50      43.3      42.6       65     32.0      0.00      7.42      56.7     0.47      1016.7     0.7       S   172   2.6      SE     133     269       -47       0.3      18.8      49.4      9.68
   01/08/2020 22:40      43.3      43.0       63     31.6      0.00      7.42      56.7     0.47      1016.8     0.2     SSE   155   0.9     SSE     147     269       -51       0.0      18.7      49.6      9.68
   01/08/2020 22:30      43.4      43.0       64     31.9      0.00      7.42      56.7     0.47      1016.9     0.1     ENE    78   1.2      NE      40     269       -56       0.0      18.7      49.8      9.68
   01/08/2020 22:20      43.6      43.1       63     31.8      0.00      7.42      56.7     0.47      1016.8     0.7     SSE   162   2.3     SSE     162     269       -59       0.5      18.7      49.9      9.68
   01/08/2020 22:10      43.7      43.1       64     32.0      0.00      7.42      56.7     0.47      1016.9     1.0     SSE   147   2.5      SE     146     269       -61       0.5      18.6      50.1      9.68
   01/08/2020 22:00      43.6      43.1       64     32.0      0.00      7.42      56.7     0.47      1016.9     1.1     SSE   152   2.4      SE     145     269       -63       0.5      18.5      50.3      9.69
   01/08/2020 21:50      43.7      43.1       63     31.7      0.00      7.42      56.7     0.47      1017.0     1.2       S   177   2.8     SSW     205     269       -63       0.7      18.5      50.6      9.69
   01/08/2020 21:40      43.8      43.2       62     31.6      0.00      7.42      56.7     0.47      1016.8     1.1     SSE   160   2.7     WSW     236     269       -63       0.4      18.4      50.8      9.69
   01/08/2020 21:30      45.0      43.4       60     31.0      0.00      7.42      56.8     0.47      1016.7     0.9       S   181   2.5      SW     233     269       -64       0.7      18.3      51.1      9.69
   01/08/2020 21:20      45.6      44.9       57     30.9      0.00      7.42      56.8     0.47      1016.8     0.4     ESE   103   1.6       S     190     268       -65       0.4      18.2      51.4      9.69
   01/08/2020 21:10      46.1      45.5       55     30.7      0.00      7.42      56.8     0.47      1016.6     0.2     SSE   150   1.2       S     180     268       -67       0.0      18.1      51.6      9.69
   01/08/2020 21:00      46.0      45.2       58     31.6      0.00      7.42      56.8     0.47      1016.5     0.9     SSE   152   2.4      SE     137     268       -68       0.2      18.1      51.8      9.69
   01/08/2020 20:50      45.8      45.1       60     32.5      0.00      7.42      56.8     0.47      1016.3     1.4     SSE   151   2.6      SE     143     269       -69       0.5      18.1      52.0      9.69
   01/08/2020 20:40      45.6      45.1       61     32.9      0.00      7.42      56.8     0.47      1016.1     1.4     SSE   151   2.7     SSE     148     268       -69       0.7      18.0      52.3      9.70
   01/08/2020 20:30      46.5      45.5       60     32.7      0.00      7.42      56.8     0.47      1016.2     1.0     SSE   156   2.0      SE     142     268       -68       0.3      17.9      52.5      9.70
   01/08/2020 20:20      47.0      46.5       57     32.5      0.00      7.42      56.8     0.47      1016.1     1.1     SSE   167   1.9     SSE     164     268       -68       0.5      17.8      52.8      9.70
   01/08/2020 20:10      47.2      46.7       58     32.8      0.00      7.42      56.7     0.47      1016.1     0.9     SSE   159   2.6       S     175     268       -70       0.6      17.7      53.0      9.70
   01/08/2020 20:00      47.2      46.7       59     33.3      0.00      7.42      56.7     0.47      1016.1     1.6      SE   146   3.2     SSE     150     268       -71       0.5      17.6      53.2      9.70
   01/08/2020 19:50      47.1      46.7       59     33.5      0.00      7.42      56.7     0.47      1016.0     1.0     SSE   167   1.7       S     174     268       -70       1.3      17.6      53.5      9.70
   01/08/2020 19:40      48.1      47.0       58     33.5      0.00      7.42      56.7     0.47      1016.0     0.7     SSE   163   1.3     SSE     155     268       -70       0.5      17.4      53.7      9.70
   01/08/2020 19:30      48.9      48.0       56     33.3      0.00      7.42      56.7     0.47      1016.0     1.5       S   176   3.0       S     173     268       -70       1.2      17.3      54.0      9.71
   01/08/2020 19:20      49.1      48.3       56     33.8      0.00      7.42      56.6     0.47      1016.0     1.9       S   184   2.8     SSW     202     268       -70       1.6      17.1      54.3      9.71
   01/08/2020 19:10      49.7      48.9       55     33.9      0.00      7.42      56.6     0.47      1015.9     0.9     SSE   157   1.7      SE     142     268       -71       0.5      16.8      54.6      9.71
   01/08/2020 19:00      50.5      49.4       54     34.1      0.00      7.42      56.6     0.47      1015.9     1.9      SE   145   3.9     SSE     147     268       -71       0.9      16.7      54.9      9.71
   01/08/2020 18:50      50.6      50.1       53     34.1      0.00      7.42      56.6     0.47      1016.1     2.1      SE   141   3.2      SE     136     268       -71       0.8      16.6      55.1      9.71
   01/08/2020 18:40      51.6      50.6       52     34.0      0.00      7.42      56.6     0.47      1016.3     1.2     SSE   151   2.7      SE     141     267       -71       0.6      16.4      55.5      9.72
   01/08/2020 18:30      52.2      51.4       50     34.0      0.00      7.42      56.5     0.47      1016.2     1.1      SE   139   2.8      SE     145     267       -72       0.6      16.3      55.7      9.72
   01/08/2020 18:20      52.0      51.4       52     34.6      0.00      7.42      56.5     0.47      1016.1     1.7     ESE   122   2.7     ESE     102     267       -72       0.5      16.2      56.0      9.72
   01/08/2020 18:10      52.9      51.6       52     35.1      0.00      7.42      56.5     0.47      1016.0     1.0     SSE   149   2.6      SE     145     267       -71       0.3      16.1      56.2      9.72
   01/08/2020 18:00      53.8      52.7       50     35.1      0.00      7.42      56.4     0.47      1015.9     0.5      SE   128   1.6      SE     141     267       -70       0.0      16.1      56.5      9.72
   01/08/2020 17:50      54.8      53.6       48     35.2      0.00      7.42      56.4     0.47      1015.8     0.6       E    97   2.1       E      96     267       -72       0.0      16.1      56.7      9.73
   01/08/2020 17:40      55.0      54.6       47     35.2      0.00      7.42      56.4     0.47      1015.7     1.0     ESE   104   2.5       E      92     267       -73       0.0      16.1      56.9      9.73
   01/08/2020 17:30      56.1      54.9       49     36.6      0.00      7.42      56.3     0.47      1015.6     0.8     ESE   113   2.1       E      95     267       -73       0.2      16.1      57.1      9.73
   01/08/2020 17:20      57.1      56.0       49     37.6      0.00      7.42      56.3     0.47      1015.6     0.6       E    79   2.9     NNE      19     267       -74       0.1      16.0      57.3      9.73
   01/08/2020 17:10      57.4      56.7       52     39.5      0.00      7.42      56.2     0.47      1015.6     1.9      NE    53   4.6      NE      34     267       -70       0.3      16.0      57.5      9.73
   01/08/2020 17:00      57.8      57.2       50     38.9      0.00      7.42      56.2     0.47      1015.4     1.9     WSW   250   3.4     WSW     243     267       -67       1.0      16.0      57.7      9.74
   01/08/2020 16:50      58.3      57.6       50     39.4      0.00      7.42      56.1     0.47      1015.3     2.5      SW   231   3.8       W     260     267       -67       1.6      15.8      57.9      9.74
   01/08/2020 16:40      59.1      58.2       50     39.8      0.00      7.42      56.1     0.47      1015.2     2.1     WSW   238   4.5       W     265     266       -64       1.4      15.5      58.3      9.74
   01/08/2020 16:30      59.9      59.0       49     40.4      0.00      7.42      56.0     0.47      1015.1     4.1     WSW   238   6.3     WSW     252     266       -45       2.8      15.3      58.6      9.74
   01/08/2020 16:20      60.2      59.8       50     41.3      0.00      7.42      56.0     0.47      1015.1     3.7     WSW   249   6.1     WSW     238     266       -22       2.8      14.8      58.6      9.75
   01/08/2020 16:10      60.2      59.8       49     40.5      0.00      7.42      55.9     0.47      1015.1     3.5      SW   227   7.0     WSW     253     266        -3       2.5      14.4      58.6      9.75
   01/08/2020 16:00      60.6      59.9       45     39.0      0.00      7.42      55.9     0.47      1015.0     4.3      SW   230   6.9      SW     235     266       -19       3.2      13.9      58.7      9.75
   01/08/2020 15:50      61.6      60.6       43     38.3      0.00      7.42      55.9     0.47      1014.7     3.1      SW   232   6.1      SW     224     266        -7       2.2      13.4      58.9      9.75
   01/08/2020 15:40      62.5      61.3       42     38.5      0.00      7.42      55.8     0.47      1014.5     2.4     WSW   249   4.8      SW     214     266        11       1.9      13.0      59.0      9.76
   01/08/2020 15:30      62.3      61.5       45     40.4      0.00      7.42      55.7     0.47      1014.4     3.0       W   269   6.7     WSW     253     266        94       2.3      12.7      59.0      9.76
   01/08/2020 15:20      61.6      60.8       54     44.3      0.00      7.42      55.7     0.47      1014.2     3.4      SW   215   6.2     SSW     194     266       129       2.4      12.3      58.8      9.76
   01/08/2020 15:10      61.4      60.2       55     44.3      0.00      7.42      55.6     0.47      1014.2     3.3     SSW   201   6.2       S     185     266       105       2.4      11.9      58.7      9.77
   01/08/2020 15:00      60.6      60.0       56     44.3      0.00      7.42      55.6     0.47      1014.4     2.4       S   186   5.7       S     175     266        22       1.5      11.5      58.6      9.77
   01/08/2020 14:50      61.1      60.3       54     44.1      0.00      7.42      55.6     0.47      1014.5     3.0     SSE   153   6.5      SE     138     266        74       2.1      11.3      58.5      9.77
   01/08/2020 14:40      60.6      59.5       56     44.2      0.00      7.42      55.5     0.47      1014.5     4.8     SSE   150   9.9       S     172     266       172       2.9      10.9      58.4      9.78
   01/08/2020 14:30      61.1      59.8       56     44.6      0.00      7.42      55.5     0.47      1014.5     4.9     SSE   150   9.1      SE     139     266       117       2.9      10.5      58.2      9.78
   01/08/2020 14:20      63.5      61.0       51     43.5      0.00      7.42      55.4     0.47      1014.5     4.6       S   186   7.6     SSE     168     266       122       3.7      10.0      58.1      9.78
   01/08/2020 14:10      65.4      63.6       32     34.0      0.00      7.42      55.4     0.47      1014.3     4.1      SW   218   8.6       S     173     264       119       3.1       9.4      57.9      9.79
   01/08/2020 14:00      65.7      64.8       25     28.9      0.00      7.42      55.3     0.47      1014.3     1.6      SW   225   4.6     WSW     241     264       132       1.3       8.8      57.6      9.79
   01/08/2020 13:50      66.2      65.7       24     28.2      0.00      7.42      55.3     0.47      1014.4     1.8     NNW   337   6.0     WSW     245     264       182       1.4       8.6      57.3      9.79
   01/08/2020 13:40      65.7      65.2       24     27.8      0.00      7.42      55.3     0.47      1014.4     1.7     NNE    20   4.3     SSW     205     264       234       0.8       8.4      57.0      9.79
   01/08/2020 13:30      65.4      64.8       26     29.3      0.00      7.42      55.3     0.47      1014.7     2.7     WSW   255   4.8     SSW     202     264       232       1.7       8.3      56.5      9.80
   01/08/2020 13:20      65.7      64.3       27     30.1      0.00      7.42      55.2     0.47      1014.8     3.5      SW   226   7.9     WSW     256     264       212       2.6       8.0      56.1      9.80
   01/08/2020 13:10      66.9      65.7       27     30.9      0.00      7.42      55.2     0.47      1014.9     2.3     WSW   259   6.2     WSW     250     264       266       2.1       7.5      55.6      9.80
   01/08/2020 13:00      66.1      64.3       27     30.6      0.00      7.42      55.2     0.47      1015.1     2.0     WSW   247   5.9       W     273     264       305       1.7       7.2      55.2      9.81
   01/08/2020 12:50      64.6      63.8       27     29.8      0.00      7.42      55.1     0.47      1015.2     3.2     WSW   251   5.5     WSW     239     264       313       2.6       6.9      54.8      9.81
   01/08/2020 12:40      64.4      63.7       28     30.1      0.00      7.42      55.1     0.47      1015.3     3.4     WSW   240   6.4     WSW     252     264       308       2.6       6.5      54.4      9.82
   01/08/2020 12:30      64.0      63.1       28     30.2      0.00      7.42      55.1     0.47      1015.5     3.7      SW   225   7.0      SW     220     264       292       2.9       6.0      53.9      9.82
   01/08/2020 12:20      64.9      63.9       28     30.7      0.00      7.42      55.1     0.47      1015.5     2.6      SW   224   6.9      SW     223     264       287       2.3       5.6      53.5      9.82
   01/08/2020 12:10      64.3      63.5       27     29.8      0.00      7.42      55.1     0.47      1015.5     2.3      SW   221   4.5     SSW     195     264       297       1.8       5.2      53.0      9.83
   01/08/2020 12:00      63.6      63.0       28     30.0      0.00      7.42      55.1     0.47      1015.7     3.1      SW   227   7.6      SW     228     264       334       2.6       4.9      52.5      9.83
   01/08/2020 11:50      63.4      62.9       29     30.6      0.00      7.42      55.1     0.47      1015.7     1.8       W   276   4.7     WSW     253     264       328       1.6       4.5      52.0      9.84
   01/08/2020 11:40      64.6      63.2       29     30.8      0.00      7.42      55.1     0.47      1016.1     2.1       S   185   4.3       W     268     265       305       1.7       4.2      51.5      9.84
   01/08/2020 11:30      64.3      62.4       29     30.7      0.00      7.42      55.1     0.47      1016.5     1.3       W   267   4.1      SW     230     265       310       1.0       3.9      51.0      9.85
   01/08/2020 11:20      63.1      62.3       30     30.7      0.00      7.42      55.1     0.47      1016.7     1.3      NE    50   3.7      SE     135     265       309       0.8       3.7      50.7      9.86
   01/08/2020 11:10      62.9      62.3       32     32.6      0.00      7.42      55.1     0.47      1016.9     1.8     ESE   102   3.6       N       9     265       305       1.0       3.6      50.2      9.86
   01/08/2020 11:00      62.4      61.4       33     32.8      0.00      7.42      55.1     0.47      1017.0     1.6     ESE   102   3.9     ESE     120     266       299       1.2       3.4      49.7      9.87
   01/08/2020 10:50      62.0      61.3       36     34.3      0.00      7.42      55.1     0.47      1017.3     1.5      NE    52   5.3     ESE     111     265       287       1.0       3.2      49.1      9.88
   01/08/2020 10:40      61.8      60.4       39     36.0      0.00      7.42      55.1     0.47      1017.5     1.0       N     4   3.6     NNW     346     265       278       0.8       3.1      48.6      9.88
   01/08/2020 10:30      60.6      59.6       41     36.4      0.00      7.42      55.1     0.47      1017.6     1.0       W   270   3.2       E      94     266       267       0.9       3.0      48.1      9.89
   01/08/2020 10:20      60.0      58.4       44     37.3      0.00      7.42      55.1     0.47      1017.6     0.6      NE    48   1.9     NNE      25     266       256       0.4       2.8      47.7      9.91
   01/08/2020 10:10      58.3      57.3       46     37.2      0.00      7.42      55.1     0.47      1017.6     1.5       N   358   4.2       N     355     266       243       0.1       2.7      47.3      9.92
   01/08/2020 10:00      57.6      57.2       47     37.2      0.00      7.42      55.2     0.47      1017.5     1.1       N   349   3.2       N       5     266       230       0.5       2.7      47.0      9.93
   01/08/2020 09:50      58.0      56.1       47     36.9      0.00      7.42      55.2     0.47      1017.5     0.7      NE    37   2.2      NE      35     266       217       0.5       2.6      46.7      9.94
   01/08/2020 09:40      56.2      55.3       47     36.1      0.00      7.42      55.2     0.47      1017.5     1.5       E    83   3.6     ESE     105     266       201       0.7       2.5      46.6      9.95
   01/08/2020 09:30      55.4      54.6       49     36.3      0.00      7.42      55.2     0.47      1017.7     2.3     ESE   114   5.1      SE     137     266       186       1.3       2.4      46.4      9.96
   01/08/2020 09:20      54.9      54.0       58     39.9      0.00      7.42      55.2     0.47      1017.7     1.9      SE   141   3.5      SE     146     267       168       1.3       2.2      46.1      9.98
   01/08/2020 09:10      54.3      53.6       64     42.1      0.00      7.42      55.2     0.47      1017.7     2.3      SE   131   4.8      SE     139     267       152       1.1       2.0      45.8     10.00
   01/08/2020 09:00      54.6      53.8       66     43.3      0.00      7.42      55.2     0.47      1017.7     1.6     SSE   150   4.6     SSE     154     267       131       1.2       1.8      45.5     10.02
   01/08/2020 08:50      54.1      52.7       68     43.4      0.00      7.42      55.3     0.47      1017.5     1.2      SE   124   2.6      SE     128     267       112       0.5       1.6      45.5     10.06
   01/08/2020 08:40      52.8      51.5       71     43.1      0.00      7.42      55.3     0.47      1017.3     1.3      SE   134   2.7      SE     132     268        92       0.7       1.5      44.8      9.50
   01/08/2020 08:30      51.3      49.1       74     42.3      0.00      7.42      55.3     0.47      1017.1     1.3      SE   144   3.1     SSW     199     268        73       0.4       1.4      44.6      9.50
   01/08/2020 08:20      49.1      48.7       74     41.1      0.00      7.42      55.3     0.47      1017.2     1.5     SSE   152   3.4      SE     136     269       -27       1.0       1.3      44.5      9.50
   01/08/2020 08:10      48.8      48.1       72     39.8      0.00      7.42      55.4     0.47      1017.1     0.7      SE   136   1.6     SSE     161     269        11       0.3       1.2      44.5      9.50
   01/08/2020 08:00      48.2      47.7       71     38.9      0.00      7.42      55.4     0.47      1017.1     0.3       E    98   1.1      SE     145     269        21       0.0       1.1      44.4      9.50
   01/08/2020 07:50      47.9      47.1       71     38.6      0.00      7.42      55.4     0.47      1017.0     0.1       E    93   0.9     ENE      76     269        16       0.0       1.1      44.3      9.50
   01/08/2020 07:40      47.2      46.6       70     37.7      0.00      7.42      55.4     0.47      1017.0     0.5      SE   133   1.6      SE     131     269        11       0.0       1.1      44.2      9.50
   01/08/2020 07:30      47.0      46.5       70     37.3      0.00      7.42      55.4     0.47      1016.9     0.8     ESE   122   1.6      SE     132     269         6       0.1       1.1      44.2      9.50
   01/08/2020 07:20      46.6      46.2       70     37.0      0.00      7.42      55.5     0.47      1016.9     0.3       N     6   1.0       N      11     269         3       0.0       1.1      44.1      9.50
   01/08/2020 07:10      46.3      45.9       70     36.7      0.00      7.42      55.5     0.47      1016.9     0.3     NNE    22   1.0       E      80     269        -1       0.0       1.1      44.1      9.50
   01/08/2020 07:00      46.3      45.9       70     36.8      0.00      7.42      55.5     0.47      1016.7     0.4     ENE    64   0.9     ESE     103     269        -0       0.0       1.1      44.1      9.50
   01/08/2020 06:50      46.0      45.4       69     36.1      0.00      7.42      55.5     0.47      1016.7     0.0     WSW   244   0.6     WSW     247     269        -1       0.0       1.1      44.1      9.50
   01/08/2020 06:40      45.8      45.3       70     36.3      0.00      7.42      55.6     0.47      1016.6     0.4       E    96   1.7      NW     313     269        -3       0.0       1.1      44.0      9.50
   01/08/2020 06:30      45.5      45.1       70     36.0      0.00      7.42      55.6     0.47      1016.6     0.6       E    86   3.0      SE     138     269        -2       0.2       1.1      44.0      9.50
   01/08/2020 06:20      45.4      45.0       70     35.9      0.00      7.42      55.6     0.47      1016.7     0.5     NNE    16   1.6      NW     311     269        -3       0.0       1.0      44.0      9.50
   01/08/2020 06:10      45.2      44.7       71     36.0      0.00      7.42      55.6     0.47      1016.7     0.4      NE    44   1.7       E      98     269        -2       0.0       1.0      43.9      9.50
   01/08/2020 06:00      44.7      44.0       70     35.2      0.00      7.42      55.7     0.47      1016.7     0.4       S   174   1.5      SE     125     269        -1       0.0       1.0      43.9      9.50
   01/08/2020 05:50      44.2      42.9       70     34.5      0.00      7.42      55.7     0.47      1016.7     0.2      SE   136   2.4      SE     138     269         4       0.0       1.0      43.8      9.50
   01/08/2020 05:40      43.1      42.0       70     33.3      0.00      7.42      55.7     0.47      1016.8     0.5     SSE   166   2.5      SE     137     269        -0       0.1       1.0      43.8      9.50
   01/08/2020 05:30      42.1      41.5       67     31.7      0.00      7.42      55.8     0.47      1016.8     0.6      SE   144   2.1      SE     137     269        -9       0.0       1.0      43.8      9.50
   01/08/2020 05:20      41.9      41.6       66     31.2      0.00      7.42      55.8     0.47      1016.8     0.6     SSE   167   2.0     NNE      25     269       -25       0.2       1.0      43.9      9.50
   01/08/2020 05:10      42.1      41.5       65     30.8      0.00      7.42      55.8     0.47      1016.9     0.7       N     4   2.1       N       8     269       -23       0.0       1.0      44.0      9.50
   01/08/2020 05:00      42.5      42.0       65     31.5      0.00      7.42      55.9     0.47      1016.8     0.0     NNW   337   0.7      NW     324     269       -57       0.0       1.0      44.1      9.50
   01/08/2020 04:50      42.6      42.2       67     32.2      0.00      7.42      55.9     0.47      1016.9     0.1      NE    41   0.8     NNE      11     269       -19       0.0       1.0      44.1      9.50
   01/08/2020 04:40      42.4      41.9       68     32.3      0.00      7.42      55.9     0.47      1017.0     0.0       N     0   0.7     NNW     340     269       -11       0.0       1.0      44.1      9.50
   01/08/2020 04:30      42.2      41.8       70     33.0      0.00      7.42      56.0     0.47      1017.0     0.2     NNE    18   1.1     NNE      18     269       -19       0.0       1.0      44.1      9.50
   01/08/2020 04:20      42.3      41.7       72     33.9      0.00      7.42      56.0     0.47      1017.2     0.2      SE   131   0.9      SE     144     269       -20       0.0       1.0      44.1      9.50
   01/08/2020 04:10      41.9      41.5       70     32.8      0.00      7.42      56.0     0.47      1017.3     0.0      SW   217   0.9      SW     218     269       -19       0.2       1.0      44.1      9.50
   01/08/2020 04:00      41.7      41.3       71     32.9      0.00      7.42      56.0     0.47      1017.4     0.1     ESE   115   0.9     ESE     124     269       -10       0.0       0.9      44.1      9.50
   01/08/2020 03:50      41.9      41.0       72     33.3      0.00      7.42      56.1     0.47      1017.4     0.6       E    99   2.1      NE      47     269        -5       0.0       0.9      44.1      9.51
   01/08/2020 03:40      41.0      39.7       73     32.3      0.00      7.42      56.1     0.47      1017.3     0.3       S   171   1.1       S     173     269       -27       0.0       0.9      44.1      9.51
   01/08/2020 03:30      40.0      39.4       71     30.9      0.00      7.42      56.1     0.47      1017.3     0.4     SSE   150   1.8      SE     145     269       -33       0.2       0.9      44.2      9.51
   01/08/2020 03:20      39.5      39.2       70     30.5      0.00      7.42      56.1     0.47      1017.4     0.3     SSE   154   1.0     SSE     155     269       -46       0.0       0.9      44.4      9.51
   01/08/2020 03:10      39.8      39.3       68     29.9      0.00      7.42      56.2     0.47      1017.4     0.2       S   188   0.9     SSW     206     269       -55       0.0       0.9      44.5      9.51
   01/08/2020 03:00      39.9      39.5       67     29.8      0.00      7.42      56.2     0.47      1017.5     0.0       N     0   0.0      SE     131     269       -56       0.0       0.9      44.7      9.51
   01/08/2020 02:50      40.3      39.7       67     29.8      0.00      7.42      56.2     0.47      1017.6     0.0      SE   144   0.8      SE     144     268       -56       0.0       0.9      44.9      9.51
   01/08/2020 02:40      40.8      40.2       64     29.1      0.00      7.42      56.3     0.47      1017.6     0.5     SSE   160   1.1       S     182     268       -55       0.4       0.9      45.1      9.51
   01/08/2020 02:30      41.2      40.6       62     28.8      0.00      7.42      56.3     0.47      1017.7     0.4     SSE   167   1.4       S     179     268       -57       0.0       0.8      45.2      9.51
   01/08/2020 02:20      41.2      40.6       62     28.7      0.00      7.42      56.3     0.47      1017.8     1.4      SE   141   2.5      SE     131     268       -57       0.5       0.8      45.4      9.51
   01/08/2020 02:10      40.9      40.2       62     28.5      0.00      7.42      56.4     0.47      1017.9     1.1     SSE   155   2.4      SE     139     268       -56       0.3       0.7      45.5      9.51
   01/08/2020 02:00      41.4      40.3       61     28.4      0.00      7.42      56.4     0.47      1017.9     0.9     SSE   154   2.1      SE     137     268       -57       0.6       0.7      45.8      9.51
   01/08/2020 01:50      42.4      41.0       58     27.9      0.00      7.42      56.4     0.47      1018.0     0.8     SSE   158   1.7      SE     143     268       -58       0.4       0.6      46.0      9.51
   01/08/2020 01:40      42.4      41.4       57     27.9      0.00      7.42      56.4     0.47      1018.0     1.8     WSW   252   2.7       W     270     268       -59       0.7       0.5      46.2      9.51
   01/08/2020 01:30      41.8      41.4       58     27.9      0.00      7.42      56.5     0.47      1017.8     0.6     NNW   330   1.4       N     355     268       -60       0.0       0.4      46.3      9.51
   01/08/2020 01:20      42.6      41.6       56     27.7      0.00      7.42      56.5     0.47      1017.6     0.0       W   274   1.3       W     273     267       -60       0.0       0.4      46.5      9.51
   01/08/2020 01:10      42.6      42.2       55     27.6      0.00      7.42      56.5     0.47      1017.8     0.8     ESE   118   1.9       E      99     267       -61       0.1       0.4      46.6      9.51
   01/08/2020 01:00      43.3      42.4       54     27.6      0.00      7.42      56.5     0.47      1017.9     1.2     SSE   148   2.6      SE     141     267       -61       0.3       0.4      46.8      9.51
   01/08/2020 00:50      43.9      42.9       51     26.8      0.00      7.42      56.5     0.47      1017.9     1.1     SSW   197   2.2       W     261     267       -62       0.4       0.3      47.0      9.52
   01/08/2020 00:40      43.1      41.7       56     27.7      0.00      7.42      56.6     0.47      1017.8     2.4     SSE   154   5.0     SSE     147     267       -63       1.1       0.3      47.2      9.52
   01/08/2020 00:30      43.0      42.1       56     27.7      0.00      7.42      56.6     0.47      1017.9     1.3     SSE   152   2.5      SE     137     267       -62       0.4       0.0      47.5      9.52
   01/08/2020 00:20      43.3      42.7       55     27.7      0.00      7.42      56.6     0.47      1017.8     0.2       S   175   1.1      SE     138     267       -62       0.1       0.0      47.7      9.52
   01/08/2020 00:10      43.0      42.6       55     27.7      0.00      7.42      56.6     0.47      1017.7     0.2       S   183   0.9     SSE     159     267       -56       0.0       0.0      47.9      9.52
   01/08/2020 00:00      43.9      42.9       53     27.6      0.00      7.42      56.6     0.47      1017.5     0.8     SSE   161   1.4     SSW     197     267       -53       0.0      12.1      48.1      9.52
   01/07/2020 23:50      44.2      43.5       53     27.8      0.00      7.42      56.7     0.47      1017.6     0.3      SW   236   1.2       W     260     267       -58       0.0      12.1      48.3      9.52
   01/07/2020 23:40      44.9      44.0       50     27.3      0.00      7.42      56.7     0.47      1017.6     0.5     ENE    68   1.8       E      95     267       -55       0.0      12.1      48.5      9.52
   01/07/2020 23:30      44.7      44.0       52     27.6      0.00      7.42      56.7     0.47      1017.6     0.4       S   181   1.4      SE     141     267       -50       0.0      12.1      48.6      9.52
   01/07/2020 23:20      44.5      43.9       53     28.3      0.00      7.42      56.7     0.47      1017.7     1.3      SE   146   2.0      SE     137     267       -49       0.4      12.1      48.8      9.52
   01/07/2020 23:10      44.8      44.4       50     27.2      0.00      7.42      56.7     0.47      1018.0     0.4       S   186   1.7      SE     145     267       -46       0.2      12.0      49.0      9.52
   01/07/2020 23:00      44.7      44.1       51     27.5      0.00      7.42      56.7     0.47      1018.2     0.1      NW   307   1.4     WNW     302     267       -45       0.0      12.0      49.1      9.52
   01/07/2020 22:50      44.6      44.2       49     26.6      0.00      7.42      56.7     0.47      1018.3     0.6     SSE   156   1.7      SE     137     267       -51       0.3      12.0      49.3      9.52
   01/07/2020 22:40      44.5      44.2       50     26.8      0.00      7.42      56.8     0.47      1018.4     0.0     ESE   114   0.8      SE     143     267       -51       0.0      11.9      49.5      9.52
   01/07/2020 22:30      44.3      43.8       51     27.3      0.00      7.42      56.8     0.47      1018.4     0.5       S   169   1.8       S     187     267       -49       0.2      11.9      49.7      9.52
   01/07/2020 22:20      45.0      44.2       50     27.0      0.00      7.42      56.8     0.47      1018.4     0.4      SE   141   1.7      SE     143     266       -59       0.0      11.9      49.9      9.53
   01/07/2020 22:10      45.1      44.2       49     26.8      0.00      7.42      56.8     0.48      1018.6     0.8     SSE   152   1.6      SE     144     266       -62       0.3      11.9      50.0      9.53
   01/07/2020 22:00      46.6      45.1       45     25.9      0.00      7.42      56.8     0.47      1018.6     0.5      SE   138   1.2     SSE     162     266       -67       0.3      11.8      50.3      9.53
   01/07/2020 21:50      46.6      45.5       44     25.4      0.00      7.42      56.8     0.48      1018.5     1.3     SSW   201   2.8     WSW     247     266       -66       0.4      11.8      50.6      9.53
   01/07/2020 21:40      46.5      45.9       45     26.0      0.00      7.42      56.8     0.48      1018.6     0.3     SSE   152   1.1      SE     134     266       -68       0.0      11.7      50.9      9.53
   01/07/2020 21:30      47.2      46.4       43     25.5      0.00      7.42      56.8     0.48      1018.6     0.8     SSE   150   1.6      SE     139     266       -67       0.3      11.7      51.1      9.53
   01/07/2020 21:20      47.8      47.0       41     24.9      0.00      7.42      56.8     0.48      1018.6     0.8     SSE   161   1.3     SSE     151     266       -63       0.5      11.7      51.3      9.53
   01/07/2020 21:10      48.1      47.0       40     24.6      0.00      7.42      56.8     0.48      1018.6     1.0     SSE   165   1.6     SSE     158     266       -59       0.4      11.6      51.5      9.53
   01/07/2020 21:00      48.4      47.8       38     23.9      0.00      7.42      56.8     0.48      1018.6     1.0     SSW   200   1.7     SSW     211     266       -65       0.3      11.5      51.8      9.53
   01/07/2020 20:50      48.8      47.8       40     25.4      0.00      7.42      56.8     0.48      1018.5     0.5      SE   140   1.2     SSE     147     266       -68       0.2      11.5      52.0      9.53
   01/07/2020 20:40      49.4      48.4       39     24.9      0.00      7.42      56.8     0.48      1018.4     0.9     SSE   162   1.7      SE     137     266       -68       0.5      11.4      52.3      9.54
   01/07/2020 20:30      50.0      49.1       38     24.9      0.00      7.42      56.8     0.48      1018.3     0.5     SSW   192   1.8     SSW     211     266       -68       0.2      11.3      52.6      9.54
   01/07/2020 20:20      50.8      50.1       35     23.8      0.00      7.42      56.8     0.48      1018.3     0.5       S   171   1.5     SSE     148     266       -67       0.0      11.3      52.8      9.54
   01/07/2020 20:10      51.0      50.6       35     24.1      0.00      7.42      56.8     0.48      1018.2     0.1       S   180   0.9       S     181     266       -66       0.2      11.3      53.1      9.54
   01/07/2020 20:00      52.5      51.0       33     23.7      0.00      7.42      56.8     0.48      1018.2     0.9       S   181   2.3     SSE     168     266       -66       0.6      11.3      53.4      9.54
   01/07/2020 19:50      51.4      50.8       36     24.8      0.00      7.42      56.7     0.48      1018.2     1.6     SSE   154   2.7      SE     135     266       -66       0.6      11.2      53.6      9.54
   01/07/2020 19:40      51.8      50.8       34     23.9      0.00      7.42      56.7     0.48      1018.3     1.2       S   178   2.7       S     188     266       -66       0.7      11.1      53.9      9.54
   01/07/2020 19:30      54.0      51.5       34     25.2      0.00      7.42      56.7     0.48      1018.2     0.4     SSE   166   1.8     ESE     115     266       -68       0.0      11.0      54.1      9.54
   01/07/2020 19:20      56.5      54.0       29     23.7      0.00      7.42      56.7     0.48      1018.3     1.5     SSE   159   2.5     SSW     209     265       -69       0.9      11.0      54.3      9.55
   01/07/2020 19:10      57.9      56.0       26     22.8      0.00      7.42      56.7     0.48      1018.2     1.6       S   176   2.6     SSE     168     265       -70       0.9      10.8      54.5      9.55
   01/07/2020 19:00      59.4      57.9       24     22.0      0.00      7.42      56.6     0.48      1018.3     2.5       S   188   3.6       S     172     265       -68       1.8      10.7      54.7      9.55
   01/07/2020 18:50      59.1      57.3       24     21.5      0.00      7.42      56.6     0.48      1018.3     2.6       S   190   4.6       S     173     265       -62       1.6      10.4      54.9      9.55
   01/07/2020 18:40      57.7      55.5       27     22.8      0.00      7.42      56.6     0.48      1018.3     1.8       S   184   3.4     SSE     153     265       -65       1.1      10.1      55.1      9.55
   01/07/2020 18:30      56.7      55.5       30     24.8      0.00      7.42      56.5     0.48      1018.2     0.9       S   183   1.8      SW     217     266       -66       0.5       9.9      55.4      9.55
   01/07/2020 18:20      57.7      56.3       30     26.1      0.00      7.42      56.5     0.48      1018.1     1.5       S   185   2.0       S     186     265       -70       1.2       9.8      55.6      9.55
   01/07/2020 18:10      60.4      57.6       27     25.1      0.00      7.42      56.5     0.48      1018.1     1.8       S   188   2.7     SSW     213     265       -73       1.5       9.6      56.0      9.55
   01/07/2020 18:00      62.3      60.3       24     24.4      0.00      7.42      56.4     0.48      1018.1     1.5       S   186   2.5     SSW     197     265       -73       1.0       9.3      56.3      9.56
   01/07/2020 17:50      63.2      62.2       23     24.6      0.00      7.42      56.4     0.48      1018.2     2.1     SSW   200   3.4      SW     228     264       -75       1.2       9.2      56.6      9.56
   01/07/2020 17:40      63.8      62.9       25     26.5      0.00      7.42      56.3     0.48      1018.1     1.9     SSW   210   2.8     SSW     204     265       -76       1.2       9.0      56.8      9.56
   01/07/2020 17:30      64.5      63.6       26     28.7      0.00      7.42      56.3     0.48      1018.1     2.1     SSW   205   3.0     SSW     192     264       -77       1.3       8.8      57.1      9.56
   01/07/2020 17:20      65.4      64.5       26     29.7      0.00      7.42      56.2     0.48      1018.1     2.5     SSW   208   4.2      SW     221     264       -78       1.7       8.6      57.3      9.57
   01/07/2020 17:10      65.5      63.2       28     30.4      0.00      7.42      56.2     0.48      1018.0     2.5      SW   215   5.1       W     267     264       -76       1.6       8.3      57.5      9.57
   01/07/2020 17:00      64.4      63.0       30     32.0      0.00      7.42      56.1     0.48      1018.0     1.9     SSW   197   2.8     SSW     202     265       -71       1.6       8.0      57.7      9.57
   01/07/2020 16:50      66.0      63.5       32     34.1      0.00      7.42      56.1     0.48      1018.0     1.6       S   184   2.8      SW     217     264       -63       1.3       7.8      58.0      9.57
   01/07/2020 16:40      68.0      65.9       26     31.5      0.00      7.42      56.0     0.48      1018.0     1.6       S   187   2.2     SSW     192     264       -51       1.1       7.5      58.3      9.57
   01/07/2020 16:30      68.5      67.8       25     30.9      0.00      7.42      56.0     0.48      1018.0     2.0     SSW   201   2.4     SSW     201     264       -28       0.8       7.3      58.4      9.58
   01/07/2020 16:20      67.9      67.3       28     33.5      0.00      7.42      55.9     0.47      1018.0     1.4     SSW   194   2.3     SSW     206     264       -33       0.9       7.2      58.5      9.58
   01/07/2020 16:10      68.8      67.7       27     32.5      0.00      7.42      55.9     0.48      1018.0     1.5       S   187   2.0     SSW     195     264       -15       1.1       7.1      58.5      9.58
   01/07/2020 16:00      69.4      68.7       24     30.7      0.00      7.42      55.8     0.48      1018.0     1.0       S   189   1.8     SSW     213     263       -17       0.7       6.9      58.4      9.58
   01/07/2020 15:50      71.1      69.1       23     30.4      0.00      7.42      55.8     0.47      1018.1     1.7     SSW   213   2.4      SW     230     263         5       0.9       6.8      58.3      9.58
   01/07/2020 15:40      75.4      71.1       19     27.6      0.00      7.42      55.7     0.47      1018.0     1.7     SSW   205   2.9     SSW     206     263       -52       1.3       6.6      58.1      9.58
   01/07/2020 15:30      76.8      75.5       15     25.2      0.00      7.42      55.7     0.47      1017.9     0.6     WSW   246   2.0     WSW     252     262        -9       0.5       6.4      58.0      9.59
   01/07/2020 15:20      76.6      75.7       16     26.1      0.00      7.42      55.6     0.47      1017.9     1.4     WSW   249   2.8       W     271     262       104       1.0       6.3      57.8      9.59
   01/07/2020 15:10      75.5      74.0       16     25.8      0.00      7.42      55.6     0.47      1017.9     0.9     SSW   202   2.8     SSW     208     263       110       0.7       6.1      57.5      9.59
   01/07/2020 15:00      75.7      74.4       16     25.5      0.00      7.42      55.5     0.47      1017.9     1.6     SSW   200   3.4     SSW     201     262       125       1.3       6.0      57.3      9.59
   01/07/2020 14:50      75.2      74.0       16     26.0      0.00      7.42      55.5     0.47      1018.0     1.1     WSW   240   3.5     WSW     252     261       175       1.0       5.8      57.0      9.59
   01/07/2020 14:40      74.8      73.6       16     24.7      0.00      7.42      55.5     0.47      1018.0     0.7     SSW   205   2.3     SSW     198     262       121       0.6       5.7      56.7      9.59
   01/07/2020 14:30      73.8      72.7       15     23.2      0.00      7.42      55.4     0.47      1018.1     1.1     WSW   247   2.9      SW     231     262       118       0.9       5.6      56.4      9.59
   01/07/2020 14:20      73.2      72.3       14     20.8      0.00      7.42      55.4     0.47      1018.3     1.3      SW   230   2.8       W     266     262       124       0.8       5.4      56.1      9.59
   01/07/2020 14:10      73.4      72.3       13     18.9      0.00      7.42      55.3     0.47      1018.4     1.5      SW   218   2.4     SSW     211     263        47       1.1       5.3      55.8      9.59
   01/07/2020 14:00      73.5      73.0       13     19.8      0.00      7.42      55.3     0.47      1018.5     1.7      SW   234   3.1     WSW     258     262       148       1.2       5.1      55.4      9.59
   01/07/2020 13:50      74.0      73.0       13     20.3      0.00      7.42      55.3     0.47      1018.6     1.7     WSW   249   3.3     WSW     241     262        90       1.3       4.9      55.1      9.60
   01/07/2020 13:40      74.0      72.7       14     21.3      0.00      7.42      55.2     0.47      1018.7     1.2     WSW   243   3.2      SW     236     262       188       1.0       4.7      54.8      9.60
   01/07/2020 13:30      73.4      72.8       14     21.6      0.00      7.42      55.2     0.47      1018.8     1.5      SW   227   2.8      SW     221     263       144       1.4       4.5      54.5      9.60
   01/07/2020 13:20      73.0      71.4       14     20.4      0.00      7.42      55.1     0.47      1018.9     1.2      SW   229   2.8     SSW     199     262       198       0.8       4.3      54.0      9.60
   01/07/2020 13:10      72.9      71.5       14     20.1      0.00      7.42      55.1     0.47      1019.0     2.0     SSW   211   3.3     SSW     192     263        61       1.6       4.2      53.7      9.60
   01/07/2020 13:00      73.7      72.5       14     20.2      0.00      7.42      55.1     0.47      1019.1     1.8     SSW   202   3.1     WSW     243     262       218       1.3       3.9      53.2      9.60
   01/07/2020 12:50      74.5      73.5       14     21.0      0.00      7.42      55.1     0.47      1019.3     0.7     WSW   246   2.1     SSW     213     262       131       0.6       3.7      52.8      9.60
   01/07/2020 12:40      74.2      73.3       14     20.9      0.00      7.42      55.1     0.47      1019.5     0.5       W   265   2.5       S     186     262       153       0.6       3.6      52.4      9.60
   01/07/2020 12:30      73.5      72.3       14     20.1      0.00      7.42      55.1     0.47      1019.7     0.8      NW   310   2.1      NW     305     262       254       0.7       3.5      52.0      9.60
   01/07/2020 12:20      73.9      72.4       13     19.7      0.00      7.42      55.1     0.47      1020.0     1.1     ENE    58   3.6       N      11     262       288       0.7       3.3      51.5      9.60
   01/07/2020 12:10      73.3      72.3       14     19.9      0.00      7.42      55.1     0.47      1020.2     1.2       E    98   2.7     ENE      69     262       277       0.9       3.2      51.0      9.60
   01/07/2020 12:00      73.7      72.0       14     20.6      0.00      7.42      55.1     0.47      1020.4     1.2      SE   126   3.4      SE     128     262       183       0.8       3.1      50.6      9.60
   01/07/2020 11:50      73.9      72.6       15     22.1      0.00      7.42      55.1     0.47      1020.7     0.8     SSE   153   2.5     SSW     211     262       345       0.7       2.9      50.0      9.60
   01/07/2020 11:40      73.3      71.9       15     21.6      0.00      7.42      55.1     0.47      1020.9     1.0       S   178   3.4       S     183     262       360       0.9       2.8      49.4      9.60
   01/07/2020 11:30      71.9      71.2       15     21.8      0.00      7.42      55.1     0.47      1021.2     0.8     NNE    19   2.0     NNE      17     263       339       0.3       2.7      48.8      9.60
   01/07/2020 11:20      71.8      70.9       14     20.3      0.00      7.42      55.1     0.47      1021.3     0.7      SE   135   2.3     ESE     122     263       261       0.5       2.6      48.3      9.60
   01/07/2020 11:10      71.5      69.8       15     21.0      0.00      7.42      55.1     0.47      1021.5     0.6     SSW   203   2.1      SW     231     263       242       0.7       2.5      47.9      9.60
   01/07/2020 11:00      69.8      69.2       15     19.9      0.00      7.42      55.1     0.47      1021.7     1.4     SSW   209   3.2     WSW     244     263       239       1.1       2.4      47.3      9.60
   01/07/2020 10:50      69.8      69.1       15     20.3      0.00      7.42      55.2     0.47      1021.9     1.6     WSW   243   3.9       W     273     263       232       1.0       2.2      46.6      9.61
   01/07/2020 10:40      69.6      68.5       15     19.0      0.00      7.42      55.2     0.47      1022.0     0.8       W   276   3.4      SW     230     263       234       0.6       2.1      46.1      9.61
   01/07/2020 10:30      69.3      68.6       16     20.4      0.00      7.42      55.2     0.47      1022.1     1.4       W   262   3.1       W     266     262       231       1.1       1.9      45.6      9.61
   01/07/2020 10:20      69.0      67.8       17     21.5      0.00      7.42      55.3     0.47      1022.3     0.9     NNW   338   2.8       W     263     263       263       0.6       1.8      45.2      9.61
   01/07/2020 10:10      68.5      67.8       16     20.1      0.00      7.42      55.3     0.47      1022.5     2.4      SW   235   3.6      SW     216     263       272       1.8       1.7      44.8      9.61
   01/07/2020 10:00      68.8      68.2       20     25.3      0.00      7.42      55.4     0.47      1022.5     1.6      SW   228   2.9       S     176     264       258       1.1       1.4      44.4      9.61
   01/07/2020 09:50      68.4      64.7       22     26.2      0.00      7.42      55.4     0.47      1022.6     0.0       N   355   1.0      NW     311     264       234       0.1       1.2      44.0      9.61
   01/07/2020 09:40      64.7      63.2       33     34.4      0.00      7.42      55.4     0.47      1022.6     0.5     NNE    27   1.4     ENE      57     264       208       0.1       1.2      43.8      9.61
   01/07/2020 09:30      63.3      62.7       33     33.0      0.00      7.42      55.5     0.47      1022.6     0.8     NNE    31   1.3     NNE      30     264       215       0.2       1.1      43.6      9.61
   01/07/2020 09:20      62.8      61.0       33     32.3      0.00      7.42      55.5     0.47      1022.6     0.0      SW   236   0.5      SW     236     264       157       0.0       1.1      43.3      9.61
   01/07/2020 09:10      61.2      59.0       34     31.4      0.00      7.42      55.6     0.47      1022.7     0.0       N     0   0.0     NNE      12     264       144       0.0       1.1      43.0      9.61
   01/07/2020 09:00      59.5      57.4       34     30.4      0.00      7.42      55.6     0.47      1022.7     0.0       N     0   0.0       E      97     265       147       0.0       1.1      42.8      9.61
   01/07/2020 08:50      57.3      54.5       35     28.8      0.00      7.42      55.6     0.47      1022.7     0.0       N     0   0.0      NE      53     265       131       0.0       1.1      42.6      9.61
   01/07/2020 08:40      54.6      53.1       37     28.2      0.00      7.42      55.7     0.47      1022.6     0.0       N     0   0.0       N      10     266        86       0.0       1.1      42.4      9.61
   01/07/2020 08:30      53.3      50.1       43     29.5      0.00      7.42      55.7     0.47      1022.7     0.0     SSE   158   0.4     SSE     158     266        81       0.0       1.1      42.2      9.61
   01/07/2020 08:20      50.1      45.0       48     28.7      0.00      7.42      55.7     0.47      1022.7     0.0       N     0   0.0       E      97     266        78       0.0       1.1      41.9      9.61
   01/07/2020 08:10      45.1      43.4       52     27.8      0.00      7.42      55.8     0.47      1022.8     0.3      SE   135   1.8     SSE     150     267        42       0.0       1.1      41.7      9.62
   01/07/2020 08:00      43.6      42.2       50     25.8      0.00      7.42      55.8     0.47      1022.8     0.3       S   170   1.5     SSE     149     268       -21       0.0       1.1      41.6      9.62
   01/07/2020 07:50      42.2      40.8       52     25.3      0.00      7.42      55.8     0.47      1022.8     0.0     SSW   194   0.7     SSW     194     268       -28       0.0       1.1      41.6      9.62
   01/07/2020 07:40      40.9      40.3       54     25.2      0.00      7.42      55.9     0.47      1022.7     0.1     SSW   206   1.1      SW     216     268       -34       0.0       1.1      41.6      9.62
   01/07/2020 07:30      40.6      39.7       54     24.9      0.00      7.42      55.9     0.47      1022.6     0.3      SW   214   0.9     SSW     199     268       -37       0.0       1.1      41.7      9.62
   01/07/2020 07:20      40.3      39.8       54     24.6      0.00      7.42      56.0     0.47      1022.6     0.2     SSW   192   0.8     SSE     167     268       -43       0.0       1.1      41.8      9.62
   01/07/2020 07:10      40.0      39.6       55     24.8      0.00      7.42      56.0     0.47      1022.6     0.2      SW   234   1.0       S     183     268       -49       0.0       1.1      41.9      9.62
   01/07/2020 07:00      40.0      39.5       54     24.7      0.00      7.42      56.0     0.47      1022.6     0.2       S   181   1.0       S     182     268       -52       0.0       1.0      42.0      9.62
   01/07/2020 06:50      40.4      39.5       54     24.8      0.00      7.42      56.1     0.47      1022.6     0.0       S   171   0.6       S     170     268       -55       0.0       1.0      42.2      9.62
   01/07/2020 06:40      40.6      39.7       52     24.1      0.00      7.42      56.1     0.47      1022.6     0.6     SSE   161   1.5     SSE     163     268       -55       0.1       1.0      42.4      9.62
   01/07/2020 06:30      39.8      39.1       56     25.0      0.00      7.42      56.1     0.47      1022.5     0.5     SSE   150   1.4     SSE     166     268       -56       0.0       1.0      42.5      9.62
   01/07/2020 06:20      39.5      39.1       57     25.2      0.00      7.42      56.2     0.47      1022.6     0.3     NNW   349   1.5       N     349     268       -57       0.2       1.0      42.7      9.62
   01/07/2020 06:10      40.4      39.5       55     25.1      0.00      7.42      56.2     0.47      1022.6     0.0     SSE   147   0.7     SSE     158     268       -57       0.0       1.0      42.9      9.62
   01/07/2020 06:00      40.4      40.0       53     24.6      0.00      7.42      56.3     0.47      1022.6     0.2     SSW   202   0.9     SSW     199     268       -56       0.0       1.0      43.0      9.62
   01/07/2020 05:50      40.2      39.1       55     24.6      0.00      7.42      56.3     0.47      1022.6     1.0       S   184   3.3     SSW     193     268       -56       0.3       1.0      43.2      9.62
   01/07/2020 05:40      39.9      39.1       56     24.9      0.00      7.42      56.3     0.47      1022.7     1.1       S   191   3.5     SSW     195     267       -57       0.9       0.9      43.4      9.62
   01/07/2020 05:30      39.9      39.3       54     24.4      0.00      7.42      56.4     0.47      1022.8     0.2     SSE   166   1.2     SSE     149     267       -57       0.0       0.8      43.6      9.62
   01/07/2020 05:20      40.0      39.4       55     24.6      0.00      7.42      56.4     0.47      1022.8     0.2     SSE   163   1.2      SE     141     267       -57       0.1       0.8      43.8      9.63
   01/07/2020 05:10      40.5      39.7       54     24.6      0.00      7.42      56.4     0.47      1022.8     0.5      SE   125   1.5      SE     142     267       -57       0.0       0.7      44.0      9.63
   01/07/2020 05:00      40.8      40.2       52     24.3      0.00      7.42      56.4     0.47      1022.8     0.2      SW   226   1.4      SW     220     267       -57       0.2       0.7      44.2      9.63
   01/07/2020 04:50      40.9      40.4       52     24.4      0.00      7.42      56.5     0.47      1023.0     0.0     SSW   200   0.8     SSW     196     267       -57       0.0       0.7      44.3      9.63
   01/07/2020 04:40      40.8      40.3       52     24.4      0.00      7.42      56.5     0.47      1023.1     0.3     SSW   206   1.5     SSW     204     267       -57       0.5       0.7      44.5      9.63
   01/07/2020 04:30      40.7      40.3       53     24.6      0.00      7.42      56.6     0.47      1023.1     0.4      SW   225   1.8      SW     215     267       -58       0.2       0.6      44.7      9.63
   01/07/2020 04:20      41.4      40.3       52     24.8      0.00      7.42      56.6     0.47      1023.2     0.4     SSE   152   1.1       S     183     267       -58       0.3       0.6      44.9      9.63
   01/07/2020 04:10      41.6      41.2       50     24.1      0.00      7.42      56.6     0.48      1023.3     0.4     SSE   153   1.1       S     172     267       -58       0.0       0.5      45.1      9.63
   01/07/2020 04:00      42.2      41.2       51     24.7      0.00      7.42      56.7     0.48      1023.4     0.2      NE    51   0.9      SE     137     267       -59       0.0       0.5      45.3      9.63
   01/07/2020 03:50      43.1      42.2       48     24.2      0.00      7.42      56.7     0.48      1023.4     0.3      SE   146   1.1     SSE     166     267       -58       0.0       0.5      45.5      9.63
   01/07/2020 03:40      42.7      42.0       48     24.3      0.00      7.42      56.7     0.47      1023.4     0.6       S   180   1.3     SSW     213     267       -58       0.1       0.5      45.7      9.63
   01/07/2020 03:30      42.6      41.9       49     24.2      0.00      7.42      56.8     0.48      1023.5     0.6       S   182   1.3      SW     223     267       -58       0.2       0.5      45.9      9.63
   01/07/2020 03:20      42.8      42.3       48     24.1      0.00      7.42      56.8     0.48      1023.7     0.5     SSE   154   1.4     SSE     150     267       -58       0.0       0.5      46.1      9.63
   01/07/2020 03:10      42.5      42.0       48     24.0      0.00      7.42      56.8     0.48      1023.8     0.2     SSE   168   0.8     SSE     160     267       -59       0.0       0.5      46.3      9.63
   01/07/2020 03:00      42.4      41.7       49     24.4      0.00      7.42      56.9     0.48      1023.8     0.5     SSE   164   1.7       S     183     267       -60       0.2       0.5      46.5      9.63
   01/07/2020 02:50      43.3      42.3       49     24.7      0.00      7.42      56.9     0.48      1023.9     0.3       E    92   1.2       N     352     267       -60       0.1       0.4      46.8      9.64
   01/07/2020 02:40      44.1      43.1       47     24.6      0.00      7.42      56.9     0.48      1023.9     0.2     SSW   192   1.4     SSE     163     267       -59       0.0       0.4      47.0      9.64
   01/07/2020 02:30      43.8      43.1       47     24.5      0.00      7.42      57.0     0.48      1024.0     0.5     SSE   166   1.4     SSE     163     267       -59       0.0       0.4      47.2      9.64
   01/07/2020 02:20      43.3      43.0       48     24.8      0.00      7.42      57.0     0.48      1024.0     0.3     SSW   209   1.0      SW     232     267       -59       0.0       0.4      47.4      9.64
   01/07/2020 02:10      43.7      43.0       48     24.7      0.00      7.42      57.0     0.48      1024.1     0.1       S   181   1.2       S     173     267       -60       0.0       0.4      47.6      9.64
   01/07/2020 02:00      43.6      43.1       47     24.6      0.00      7.42      57.0     0.48      1024.2     0.9     SSE   152   2.3      SE     132     267       -60       0.3       0.4      47.8      9.64
   01/07/2020 01:50      43.4      42.6       49     24.9      0.00      7.42      57.1     0.48      1024.2     0.2     SSW   197   1.0      SE     137     267       -60       0.0       0.3      48.0      9.64
   01/07/2020 01:40      43.3      42.6       49     25.2      0.00      7.42      57.1     0.48      1024.2     0.3     SSE   165   1.2     SSE     169     267       -60       0.0       0.3      48.3      9.64
   01/07/2020 01:30      43.9      43.1       48     25.0      0.00      7.42      57.1     0.48      1024.4     0.5      SE   145   1.5      SE     143     267       -61       0.1       0.3      48.5      9.64
   01/07/2020 01:20      44.2      43.3       47     25.0      0.00      7.42      57.1     0.48      1024.4     0.5       S   175   1.5       S     186     267       -62       0.3       0.3      48.7      9.64
   01/07/2020 01:10      45.0      44.2       46     24.9      0.00      7.42      57.1     0.48      1024.4     0.3     ESE   108   1.1      SE     144     267       -61       0.0       0.2      49.0      9.64
   01/07/2020 01:00      45.1      44.7       44     24.6      0.00      7.42      57.2     0.48      1024.4     0.3       S   180   1.4       S     186     267       -60       0.1       0.2      49.2      9.64
   01/07/2020 00:50      44.9      44.3       46     25.0      0.00      7.42      57.2     0.48      1024.5     0.5       S   180   1.5     WSW     250     267       -60       0.1       0.2      49.4      9.64
   01/07/2020 00:40      45.1      44.4       46     25.1      0.00      7.42      57.2     0.48      1024.6     0.5       S   177   1.6     SSE     167     267       -62       0.0       0.2      49.7      9.65
   01/07/2020 00:30      46.6      45.1       44     25.0      0.00      7.42      57.3     0.48      1024.6     0.4      SE   144   1.6     SSE     164     267       -63       0.2       0.1      49.9      9.65
   01/07/2020 00:20      47.0      46.3       41     24.2      0.00      7.42      57.3     0.48      1024.7     0.6       S   178   1.8     SSW     196     267       -63       0.4       0.1      50.1      9.65
   01/07/2020 00:10      47.1      46.3       41     24.1      0.00      7.42      57.3     0.48      1024.8     1.2      SE   144   2.0      SE     141     267       -63       0.3       0.0      50.3      9.65
   01/07/2020 00:00      46.6      44.2       45     24.7      0.00      7.42      57.3     0.48      1024.9     1.0     SSE   166   2.5     SSE     166     267       -62       0.6      28.7      50.5      9.65
   01/06/2020 23:50      46.8      45.1       43     24.7      0.00      7.42      57.3     0.48      1024.9     1.1      SE   133   3.0     SSE     161     267       -62       0.8      28.6      50.8      9.65
   01/06/2020 23:40      45.9      44.8       44     24.5      0.00      7.42      57.4     0.48      1025.0     1.1       S   172   2.4     SSW     210     267       -62       0.6      28.4      51.0      9.65
   01/06/2020 23:30      45.9      44.9       44     24.6      0.00      7.42      57.4     0.48      1025.0     0.9     SSW   194   2.3     SSW     202     266       -62       0.7      28.3      51.3      9.65
   01/06/2020 23:20      45.6      44.9       46     25.6      0.00      7.42      57.4     0.48      1025.1     0.9      SE   143   2.0     NNE      24     267       -63       0.4      28.2      51.6      9.65
   01/06/2020 23:10      45.9      45.4       44     25.0      0.00      7.42      57.4     0.48      1025.2     0.2       S   183   0.9     SSE     154     266       -64       0.2      28.1      51.8      9.65
   01/06/2020 23:00      45.9      45.0       45     25.3      0.00      7.42      57.4     0.48      1025.2     0.3       S   185   1.3     SSE     165     267       -63       0.1      28.1      52.0      9.65
   01/06/2020 22:50      45.6      45.0       46     25.9      0.00      7.42      57.5     0.48      1025.2     0.8       S   171   2.5      SW     215     267       -65       0.6      28.1      52.2      9.65
   01/06/2020 22:40      46.3      45.3       45     25.9      0.00      7.42      57.5     0.48      1025.2     1.2     ESE   119   3.2     SSW     195     266       -65       0.8      28.0      52.5      9.66
   01/06/2020 22:30      46.1      45.1       46     25.9      0.00      7.42      57.5     0.48      1025.4     0.9     SSE   156   2.3       S     172     266       -64       0.4      27.9      52.8      9.66
   01/06/2020 22:20      46.4      45.6       45     25.9      0.00      7.42      57.5     0.48      1025.6     0.2       S   185   1.4       S     174     266       -65       0.2      27.8      53.1      9.66
   01/06/2020 22:10      46.4      45.9       45     25.7      0.00      7.42      57.5     0.48      1025.6     0.8     SSE   151   1.7       S     189     266       -64       0.3      27.8      53.4      9.66
   01/06/2020 22:00      46.6      46.1       44     25.8      0.00      7.42      57.5     0.48      1025.6     0.5     SSW   192   1.6       S     189     266       -65       0.4      27.7      53.6      9.66
   01/06/2020 21:50      47.2      46.3       45     26.4      0.00      7.42      57.5     0.48      1025.6     0.5      SE   145   1.7      SE     132     266       -66       0.3      27.6      53.9      9.66
   01/06/2020 21:40      47.7      47.2       42     25.5      0.00      7.42      57.5     0.48      1025.5     0.9     SSE   150   2.1       S     188     266       -66       0.5      27.6      54.2      9.66
   01/06/2020 21:30      48.5      47.5       40     24.9      0.00      7.42      57.5     0.48      1025.5     0.8     SSE   160   2.3     SSW     213     266       -66       0.6      27.5      54.5      9.66
   01/06/2020 21:20      48.1      47.6       41     25.2      0.00      7.42      57.5     0.48      1025.6     0.7       S   174   2.2       S     190     266       -66       0.3      27.4      54.8      9.66
   01/06/2020 21:10      48.1      47.6       43     26.3      0.00      7.42      57.5     0.48      1025.5     0.9     SSE   149   1.7     SSE     149     266       -67       0.4      27.4      55.1      9.66
   01/06/2020 21:00      48.6      47.8       41     25.8      0.00      7.42      57.5     0.48      1025.5     1.1     SSE   153   1.9      SE     141     266       -67       0.2      27.3      55.4      9.67
   01/06/2020 20:50      48.8      48.0       40     25.0      0.00      7.42      57.5     0.48      1025.5     0.6     SSE   160   1.6      SE     136     266       -68       0.2      27.3      55.7      9.67
   01/06/2020 20:40      50.0      48.4       39     25.2      0.00      7.42      57.5     0.48      1025.4     0.7     SSE   163   2.0      SE     146     266       -69       0.3      27.2      56.0      9.67
   01/06/2020 20:30      50.1      49.7       37     24.5      0.00      7.42      57.5     0.48      1025.3     0.2      SE   141   1.1      SE     145     266       -70       0.0      27.2      56.3      9.67
   01/06/2020 20:20      51.2      49.8       38     25.8      0.00      7.42      57.5     0.48      1025.3     1.3     SSE   159   3.1      SE     140     266       -70       0.8      27.2      56.6      9.67
   01/06/2020 20:10      50.8      50.3       37     25.6      0.00      7.42      57.5     0.48      1025.3     1.3     SSE   152   2.3      SE     132     266       -71       0.8      27.0      56.8      9.67
   01/06/2020 20:00      51.8      50.3       37     25.8      0.00      7.42      57.5     0.48      1025.3     1.0       S   170   2.2       S     172     266       -71       0.8      26.9      57.1      9.67
   01/06/2020 19:50      52.2      51.6       36     25.5      0.00      7.42      57.5     0.48      1025.3     1.3     SSE   149   2.1      SE     136     266       -72       0.6      26.8      57.5      9.67
   01/06/2020 19:40      52.1      51.4       34     24.6      0.00      7.42      57.5     0.48      1025.3     1.2     SSE   153   2.5     SSW     208     265       -72       0.5      26.7      57.7      9.67
   01/06/2020 19:30      52.6      51.6       35     25.2      0.00      7.42      57.5     0.48      1025.3     1.2     SSE   163   2.6      SE     140     265       -72       0.6      26.6      58.0      9.68
   01/06/2020 19:20      53.2      51.9       35     25.3      0.00      7.42      57.4     0.48      1025.3     1.2       S   173   2.8       S     183     265       -73       0.8      26.5      58.4      9.68
   01/06/2020 19:10      53.1      52.5       34     25.0      0.00      7.42      57.4     0.48      1025.3     1.2     SSE   161   3.1      SE     146     265       -74       0.6      26.4      58.6      9.68
   01/06/2020 19:00      54.0      52.9       32     24.7      0.00      7.42      57.4     0.48      1025.4     1.0     SSE   162   2.4       S     173     265       -74       0.8      26.3      59.0      9.68
   01/06/2020 18:50      54.3      53.5       32     24.5      0.00      7.42      57.4     0.48      1025.4     1.1     SSE   154   3.7     SSE     158     264       -75       0.7      26.1      59.2      9.68
   01/06/2020 18:40      53.6      52.7       34     25.5      0.00      7.42      57.3     0.48      1025.4     1.8       S   184   3.9       S     174     264       -75       1.4      26.0      59.6      9.68
   01/06/2020 18:30      55.2      53.2       31     24.5      0.00      7.42      57.3     0.48      1025.5     1.2       S   175   2.7      SE     138     265       -75       0.5      25.8      60.0      9.69
   01/06/2020 18:20      55.7      54.3       31     24.8      0.00      7.42      57.3     0.48      1025.4     1.6     SSE   154   3.2      SE     143     264       -77       0.3      25.7      60.3      9.69
   01/06/2020 18:10      56.1      55.5       28     23.4      0.00      7.42      57.2     0.48      1025.4     2.1     SSE   156   4.7      SE     139     264       -78       1.2      25.6      60.6      9.69
   01/06/2020 18:00      56.1      55.5       29     23.7      0.00      7.42      57.2     0.48      1025.4     2.1     SSE   152   3.9       S     170     264       -78       0.9      25.4      60.9      9.69
   01/06/2020 17:50      57.2      55.8       27     22.6      0.00      7.42      57.1     0.48      1025.4     1.1     SSE   165   2.7     SSW     197     264       -79       0.6      25.3      61.2      9.69
   01/06/2020 17:40      59.4      57.0       27     24.4      0.00      7.42      57.1     0.48      1025.3     1.1     SSE   163   2.3     SSE     161     264       -81       0.5      25.2      61.6      9.70
   01/06/2020 17:30      60.6      59.1       23     21.5      0.00      7.42      57.0     0.48      1025.2     1.1       S   170   2.9       S     187     264       -83       0.8      25.1      61.9      9.70
   01/06/2020 17:20      62.0      60.5       21     20.4      0.00      7.42      57.0     0.48      1025.1     0.9     SSE   163   2.2      SE     140     264       -84       0.7      24.9      62.2      9.70
   01/06/2020 17:10      64.0      62.0       18     19.0      0.00      7.42      57.0     0.48      1025.0     1.7       S   175   3.0     SSW     205     264       -85       1.1      24.9      62.6      9.70
   01/06/2020 17:00      65.2      63.5       17     18.8      0.00      7.42      56.9     0.48      1025.0     1.0      SE   138   2.4       S     188     263       -86       0.8      24.7      63.0      9.71
   01/06/2020 16:50      68.3      65.0       15     17.1      0.00      7.42      56.9     0.48      1024.9     0.7       S   179   1.9     SSW     196     263       -85       0.6      24.5      63.3      9.71
   01/06/2020 16:40      69.3      68.2       13     16.7      0.00      7.42      56.8     0.48      1024.9     1.2     NNW   336   2.8       N     354     263       -87       0.2      24.4      63.7      9.71
   01/06/2020 16:30      70.2      69.3       13     17.5      0.00      7.42      56.8     0.48      1024.9     1.2     NNW   345   3.9      SW     228     262       -69       0.5      24.4      64.0      9.72
   01/06/2020 16:20      70.8      70.2       13     17.3      0.00      7.42      56.7     0.48      1025.0     1.8       N   351   4.3       N     354     261       -51       0.6      24.3      64.4      9.72
   01/06/2020 16:10      71.1      70.6       13     18.2      0.00      7.42      56.6     0.48      1025.0     2.3     NNW   345   5.2       N      11     261       -32       0.6      24.2      64.5      9.73
   01/06/2020 16:00      71.3      70.7       14     18.7      0.00      7.42      56.6     0.48      1025.0     3.3       N     0   9.2     NNW     347     262       -11       0.8      24.1      64.5      9.73
   01/06/2020 15:50      71.5      71.0       14     19.4      0.00      7.42      56.5     0.48      1025.0     3.1     NNW   348   7.7       N     350     262        11       1.0      24.0      64.6      9.73
   01/06/2020 15:40      71.7      71.1       14     19.9      0.00      7.42      56.5     0.48      1025.0     4.1       N    10   9.5      NE      42     261        33       1.1      23.8      64.6      9.74
   01/06/2020 15:30      72.3      71.5       14     20.6      0.00      7.42      56.5     0.48      1025.1     3.5       N     2   8.1     NNW     337     262        54       0.9      23.6      64.5      9.74
   01/06/2020 15:20      72.7      72.0       14     20.9      0.00      7.42      56.4     0.48      1025.1     2.9       N     6   6.0     NNE      26     262        76       0.8      23.4      64.5      9.75
   01/06/2020 15:10      72.3      71.7       14     20.6      0.00      7.42      56.4     0.48      1025.2     3.6       N     5  10.9     NNE      21     262        99       1.2      23.3      64.4      9.75
   01/06/2020 15:00      72.6      71.8       14     20.4      0.00      7.42      56.3     0.48      1025.2     5.3     NNE    12   9.6      NE      36     261       120       1.5      23.1      64.3      9.76
   01/06/2020 14:50      73.1      72.4       14     21.1      0.00      7.42      56.3     0.48      1025.2     4.2       N     2   8.6     NNE      22     261       139       1.1      22.9      64.1      9.76
   01/06/2020 14:40      74.5      72.8       14     21.0      0.00      7.42      56.2     0.48      1025.2     3.9       N   354   7.5       N      10     261       158       0.9      22.7      63.8      9.77
   01/06/2020 14:30      74.3      73.0       14     20.7      0.00      7.42      56.2     0.48      1025.2     2.7       N   356   6.8       N       0     261       176       0.7      22.5      63.6      9.77
   01/06/2020 14:20      73.5      73.0       13     19.5      0.00      7.42      56.1     0.47      1025.2     4.0       N     5   8.3     NNE      14     261       193       1.2      22.4      63.4      9.77
   01/06/2020 14:10      73.7      73.3       13     19.1      0.00      7.42      56.1     0.48      1025.2     4.5     NNE    15   9.6      NE      35     261       208       1.3      22.2      63.1      9.78
   01/06/2020 14:00      73.9      73.4       12     18.4      0.00      7.42      56.1     0.48      1025.3     3.8       N     9   8.0     NNE      28     261       222       1.7      22.0      62.8      9.78
   01/06/2020 13:50      74.2      73.5       12     17.7      0.00      7.42      56.0     0.47      1025.3     3.6       N     2   7.8       N     354     261       234       1.1      21.7      62.5      9.78
   01/06/2020 13:40      74.2      73.3       12     17.2      0.00      7.42      56.0     0.47      1025.3     4.1       N     5   9.5     NNW     346     261       248       1.1      21.5      62.2      9.79
   01/06/2020 13:30      73.7      72.4       12     17.0      0.00      7.42      56.0     0.47      1025.4     3.8       N     6   8.4     WNW     301     261       261       1.0      21.3      61.8      9.79
   01/06/2020 13:20      73.4      72.3       12     16.6      0.00      7.42      55.9     0.47      1025.4     6.1       N     5  10.8       N       8     261       274       1.8      21.2      61.5      9.80
   01/06/2020 13:10      73.5      72.9       12     16.8      0.00      7.42      55.9     0.47      1025.5     5.4       N     6  10.4       N       0     261       281       1.4      20.9      61.0      9.80
   01/06/2020 13:00      73.7      73.0       12     16.9      0.00      7.42      55.9     0.47      1025.6     3.6       N     7  10.1     NNW     340     261       290       1.3      20.6      60.7      9.81
   01/06/2020 12:50      73.4      72.1       11     16.1      0.00      7.42      55.8     0.47      1025.7     4.8       N     2  10.0       N       5     261       299       1.2      20.4      60.4      9.81
   01/06/2020 12:40      72.6      72.0       11     15.5      0.00      7.42      55.8     0.47      1025.8     5.9       N   359  12.7       N       0     261       306       1.5      20.2      60.0      9.82
   01/06/2020 12:30      72.6      72.0       11     15.3      0.00      7.42      55.8     0.47      1026.0     5.0       N   354   9.2     NNW     342     262       310       1.7      20.0      59.6      9.82
   01/06/2020 12:20      72.8      72.3       11     15.0      0.00      7.42      55.8     0.47      1026.1     4.6       N   354  10.3     NNW     349     261       315       1.5      19.7      59.2      9.83
   01/06/2020 12:10      72.5      71.8       11     14.3      0.00      7.42      55.8     0.47      1026.1     5.2       N     3  11.3     NNE      21     261       318       1.5      19.5      58.7      9.84
   01/06/2020 12:00      72.3      71.6       11     14.1      0.00      7.42      55.8     0.47      1026.2     5.9       N     3  12.1       N       0     262       320       1.4      19.2      58.3      9.84
   01/06/2020 11:50      72.3      71.3       11     14.2      0.00      7.42      55.8     0.47      1026.4     5.4       N     9  11.6      NW     305     262       319       1.7      19.0      57.8      9.85
   01/06/2020 11:40      71.7      71.3       11     14.1      0.00      7.42      55.7     0.47      1026.5     5.8       N     1  11.6       N     351     262       318       1.5      18.7      57.3      9.85
   01/06/2020 11:30      71.4      70.7       11     13.8      0.00      7.42      55.7     0.47      1026.7     5.9       N   359  10.6       N     349     262       315       1.9      18.4      56.9      9.86
   01/06/2020 11:20      71.3      70.4       11     13.8      0.00      7.42      55.7     0.47      1026.9     6.6       N     5  14.4       W     266     263       310       2.2      18.1      56.5      9.86
   01/06/2020 11:10      71.3      70.6       11     14.4      0.00      7.42      55.7     0.47      1027.0     5.2       N     3  13.1       N       5     262       302       1.7      17.8      56.0      9.87
   01/06/2020 11:00      71.2      70.4       11     13.8      0.00      7.42      55.7     0.47      1027.2     5.5       N     8  16.6      NE      38     262       296       1.9      17.5      55.5      9.88
   01/06/2020 10:50      70.8      70.2       11     13.9      0.00      7.42      55.7     0.47      1027.3     4.9       N   355  12.5      NW     304     262       286       1.6      17.1      55.0      9.88
   01/06/2020 10:40      70.4      69.7       11     13.7      0.00      7.42      55.7     0.47      1027.4     5.1       N     6  13.4     NNE      32     262       278       1.6      16.9      54.5      9.89
   01/06/2020 10:30      69.9      69.5       11     13.7      0.00      7.42      55.7     0.47      1027.5     5.0       N     1  13.9     NNE      28     262       268       1.8      16.6      54.1      9.90
   01/06/2020 10:20      69.7      68.9       12     13.9      0.00      7.42      55.8     0.47      1027.5     4.8       N     5  11.7       N       8     262       256       1.5      16.3      53.7      9.91
   01/06/2020 10:10      69.2      68.8       12     13.6      0.00      7.42      55.8     0.47      1027.5     5.0       N   357  11.2      NE      38     262       243       1.5      16.1      53.2      9.92
   01/06/2020 10:00      69.0      68.4       12     14.1      0.00      7.42      55.8     0.47      1027.4     4.6     NNE    12   8.9     NNW     336     262       230       1.5      15.8      52.9      9.94
   01/06/2020 09:50      68.9      68.1       12     14.2      0.00      7.42      55.8     0.47      1027.5     4.3       N     4  11.1      NW     312     262       214       1.6      15.6      51.8      9.95
   01/06/2020 09:40      68.2      67.4       13     15.3      0.00      7.42      55.8     0.47      1027.5     3.5       N   354   8.5     NNW     330     262       198       1.3      15.3      51.0      9.03
   01/06/2020 09:30      67.5      66.2       14     15.9      0.00      7.42      55.8     0.47      1027.6     3.2       N     7   8.9     NNE      31     262       182       0.9      15.1      50.8      9.03
   01/06/2020 09:20      66.2      65.8       14     15.6      0.00      7.42      55.8     0.47      1027.5     5.4       N     7  10.9       N       4     263       166       1.7      15.0      50.5      9.03
   01/06/2020 09:10      66.1      65.3       14     15.7      0.00      7.42      55.8     0.47      1027.5     4.2     NNE    12  10.5       N       9     262       147       1.3      14.7      50.1      9.03
   01/06/2020 09:00      65.3      64.7       15     15.6      0.00      7.42      55.9     0.47      1027.4     5.6       N     6  11.4     NNE      19     263       129       1.3      14.5      49.8      9.03
   01/06/2020 08:50      64.9      63.8       15     16.2      0.00      7.42      55.9     0.47      1027.3     4.7     NNE    12  11.0     NNW     339     263       109       1.5      14.2      49.5      9.03
   01/06/2020 08:40      63.9      63.3       16     16.6      0.00      7.42      55.9     0.47      1027.2     5.8     NNE    14  12.1       N     351     263        89       1.9      14.0      49.4      9.03
   01/06/2020 08:30      63.4      62.6       17     17.1      0.00      7.42      55.9     0.47      1027.0     5.6       N     3  14.5     NNE      33     263        70       1.8      13.7      49.2      9.03
   01/06/2020 08:20      62.6      61.9       17     17.1      0.00      7.42      55.9     0.47      1026.9     6.8     NNE    15  12.6       N       6     263        50       2.2      13.4      49.0      9.03
   01/06/2020 08:10      62.1      61.4       18     17.6      0.00      7.42      55.9     0.47      1026.8     5.8       N     6  15.6      NE      49     264        35       2.1      13.0      48.9      9.03
   01/06/2020 08:00      61.7      61.3       18     17.7      0.00      7.42      55.9     0.47      1026.8     5.2       N     3  12.4     NNW     340     264       -62       1.7      12.7      48.9      9.04
   01/06/2020 07:50      61.7      61.2       18     17.4      0.00      7.42      55.9     0.47      1026.6     4.9     NNE    16  11.9       N       8     264       -68       1.8      12.4      48.9      9.04
   01/06/2020 07:40      61.4      60.9       18     17.4      0.00      7.42      55.9     0.47      1026.4     6.5       N     0  14.0      NE      53     264       -71       1.9      12.1      48.9      9.04
   01/06/2020 07:30      61.4      60.9       18     17.5      0.00      7.42      55.9     0.47      1026.3     4.5       N   355  11.4      SW     236     264       -74       1.6      11.8      48.8      9.04
   01/06/2020 07:20      61.4      60.8       18     17.3      0.00      7.42      55.9     0.47      1026.2     5.2       N   357  10.5      NE      54     264       -78       1.6      11.5      48.9      9.04
   01/06/2020 07:10      61.5      60.8       18     17.5      0.00      7.42      55.9     0.47      1026.1     4.1       N     5   9.2       N     353     264       -82       1.3      11.2      49.0      9.04
   01/06/2020 07:00      61.4      60.9       18     17.7      0.00      7.42      55.9     0.47      1026.0     6.2       N    11  15.2     NNE      13     264       -85       1.9      11.0      49.0      9.04
   01/06/2020 06:50      61.0      60.7       19     18.3      0.00      7.42      56.0     0.47      1025.9     5.0     NNE    12  12.1     NNE      19     264       -85       1.3      10.7      49.0      9.04
   01/06/2020 06:40      61.6      60.9       19     18.2      0.00      7.42      56.0     0.47      1026.0     4.5       N     8   8.5     NNE      32     264       -86       1.1      10.5      49.1      9.04
   01/06/2020 06:30      61.6      61.1       18     18.0      0.00      7.42      56.0     0.48      1025.9     4.6       N     0  11.6       N     349     264       -86       1.4      10.3      49.1      9.05
   01/06/2020 06:20      61.8      61.4       18     17.3      0.00      7.42      56.0     0.47      1025.8     4.5       N     8   8.6       N      11     264       -86       1.2      10.1      49.2      9.05
   01/06/2020 06:10      62.0      61.3       18     17.3      0.00      7.42      56.0     0.48      1025.7     4.5       N   358  13.6     NNE      24     264       -87       1.4       9.9      49.3      9.05
   01/06/2020 06:00      62.5      61.9       17     16.8      0.00      7.42      56.0     0.47      1025.5     5.5       N     7  11.7     NNE      15     264       -87       1.6       9.6      49.4      9.05
   01/06/2020 05:50      62.3      61.9       17     16.8      0.00      7.42      56.0     0.48      1025.4     6.2       N     0  11.7     NNW     346     264       -87       1.7       9.4      49.4      9.05
   01/06/2020 05:40      62.2      61.4       17     16.9      0.00      7.42      56.0     0.47      1025.3     6.0       N   360  10.9     NNW     341     264       -87       1.9       9.1      49.4      9.05
   01/06/2020 05:30      61.9      61.4       18     17.6      0.00      7.42      56.0     0.48      1025.2     4.6       N     7  10.5     NNE      23     264       -87       1.1       8.8      49.5      9.05
   01/06/2020 05:20      62.0      61.7       18     17.6      0.00      7.42      56.0     0.48      1025.0     5.1       N     2  10.0     NNE      18     264       -87       1.2       8.6      49.5      9.05
   01/06/2020 05:10      62.1      61.7       18     17.5      0.00      7.42      56.0     0.48      1025.0     5.6       N     3  12.0      NE      42     264       -87       1.6       8.4      49.6      9.05
   01/06/2020 05:00      62.0      61.4       18     18.0      0.00      7.42      56.0     0.48      1025.0     5.2       N    10   9.3     NNE      15     264       -87       1.4       8.1      49.6      9.06
   01/06/2020 04:50      62.1      61.4       19     18.5      0.00      7.42      56.0     0.48      1025.0     5.1       N     2  11.3     NNE      16     264       -88       1.6       7.9      49.7      9.06
   01/06/2020 04:40      62.3      61.7       18     18.4      0.00      7.42      56.1     0.48      1024.9     7.0       N     6  13.8       N       7     264       -88       2.1       7.6      49.8      9.06
   01/06/2020 04:30      62.5      62.0       18     18.3      0.00      7.42      56.1     0.48      1025.0     5.9       N     9  11.6     NNE      15     264       -87       1.7       7.3      49.8      9.06
   01/06/2020 04:20      62.2      61.8       19     18.8      0.00      7.42      56.1     0.48      1025.0     6.1       N     0  13.9       N       8     264       -87       1.9       7.0      49.8      9.06
   01/06/2020 04:10      62.1      61.4       19     19.6      0.00      7.42      56.1     0.48      1025.1     5.7       N    10  13.5     WNW     292     264       -86       1.4       6.7      49.9      9.06
   01/06/2020 04:00      62.3      61.7       19     19.6      0.00      7.42      56.1     0.48      1025.3     5.5       N     3  10.0      NE      36     264       -86       1.4       6.4      49.9      9.06
   01/06/2020 03:50      62.3      61.7       20     19.9      0.00      7.42      56.1     0.48      1025.3     6.2       N     6  12.1       N     351     264       -86       1.8       6.2      50.0      9.06
   01/06/2020 03:40      61.9      61.5       20     20.4      0.00      7.42      56.1     0.48      1025.3     4.7       N     5  11.5     NNE      33     264       -86       1.5       5.9      50.0      9.06
   01/06/2020 03:30      62.0      61.4       20     20.7      0.00      7.42      56.1     0.48      1025.3     5.4       N     3  11.8     NNW     347     264       -86       1.5       5.6      50.1      9.06
   01/06/2020 03:20      62.1      61.4       20     20.7      0.00      7.42      56.1     0.48      1025.3     6.1     NNE    13  12.2       N     355     264       -86       1.9       5.4      50.2      9.07
   01/06/2020 03:10      61.9      61.4       21     21.0      0.00      7.42      56.1     0.48      1025.4     6.2       N     8  11.5     NNW     348     264       -86       1.7       5.1      50.3      9.07
   01/06/2020 03:00      61.7      61.3       21     21.4      0.00      7.42      56.1     0.48      1025.5     7.6     NNE    15  14.6     NNE      14     264       -85       2.2       4.8      50.3      9.07
   01/06/2020 02:50      61.6      61.2       21     21.5      0.00      7.42      56.2     0.48      1025.6     5.8       N     7  12.1       E      86     264       -85       1.6       4.4      50.3      9.07
   01/06/2020 02:40      61.9      61.4       21     21.1      0.00      7.42      56.1     0.48      1025.6     4.5       N     7  12.9       N       0     264       -85       1.5       4.2      50.4      9.07
   01/06/2020 02:30      62.0      61.6       20     20.8      0.00      7.42      56.2     0.48      1025.7     4.9       N     0  12.6     NNW     335     264       -85       1.6       3.9      50.5      9.07
   01/06/2020 02:20      62.4      61.6       20     20.6      0.00      7.42      56.2     0.48      1025.7     6.0       N   360  11.7      NW     323     264       -84       1.6       3.6      50.5      9.07
   01/06/2020 02:10      62.1      61.5       21     21.3      0.00      7.42      56.2     0.48      1025.6     4.5     NNE    18  10.6       N       7     265       -84       1.4       3.4      50.5      9.07
   01/06/2020 02:00      62.2      61.7       21     21.4      0.00      7.42      56.2     0.48      1025.6     4.5       N     3   9.7      NE      38     265       -84       1.8       3.2      50.6      9.07
   01/06/2020 01:50      62.0      61.4       21     21.9      0.00      7.42      56.2     0.48      1025.4     5.5       N    10  14.7     NNE      30     265       -84       1.6       2.8      50.7      9.07
   01/06/2020 01:40      62.0      61.4       22     22.1      0.00      7.42      56.2     0.48      1025.4     5.7     NNE    12  12.8     NNE      17     264       -83       1.8       2.6      50.8      9.08
   01/06/2020 01:30      61.6      61.3       22     22.5      0.00      7.42      56.2     0.48      1025.4     5.4       N     2  10.7      NE      36     265       -83       1.6       2.3      50.9      9.08
   01/06/2020 01:20      61.6      61.2       22     22.7      0.00      7.42      56.2     0.48      1025.3     5.2     NNE    19  10.8      NE      46     265       -83       1.8       2.0      50.9      9.08
   01/06/2020 01:10      61.4      60.9       23     23.1      0.00      7.42      56.2     0.48      1025.2     4.4     NNE    16  12.2       N      10     265       -83       1.5       1.7      51.0      9.08
   01/06/2020 01:00      61.5      60.6       23     23.5      0.00      7.42      56.2     0.48      1025.3     4.2     NNE    13  10.9      NE      47     265       -82       1.6       1.4      51.1      9.08
   01/06/2020 00:50      61.1      60.5       25     24.5      0.00      7.42      56.2     0.48      1025.3     4.2       N     9  12.0       N     352     265       -83       1.6       1.2      51.2      9.08
   01/06/2020 00:40      60.7      60.2       26     25.4      0.00      7.42      56.2     0.48      1025.3     4.4     NNE    14  11.5     NNW     337     266       -82       1.7       0.9      51.3      9.08
   01/06/2020 00:30      60.3      59.9       27     26.4      0.00      7.42      56.2     0.48      1025.3     3.9       N    11   9.4     NNE      13     266       -81       1.3       0.6      51.4      9.08
   01/06/2020 00:20      60.0      59.5       29     27.3      0.00      7.42      56.3     0.48      1025.4     4.5       N     7  10.9       N       0     266       -81       1.2       0.4      51.4      9.09
   01/06/2020 00:10      60.0      59.4       29     27.0      0.00      7.42      56.3     0.48      1025.5     3.0     NNE    14   9.6      NE      47     266       -81       1.3       0.2      51.5      9.09
   01/06/2020 00:00      60.0      59.3       29     27.2      0.00      7.42      56.3     0.48      1025.4     3.0       N     8   8.4       N       0     266       -81       1.2      20.1      51.6      9.09
   01/05/2020 23:50      59.8      59.3       30     28.1      0.00      7.42      56.3     0.48      1025.6     2.7     NNE    22   6.3      NE      35     266       -81       0.8      19.9      51.7      9.09
   01/05/2020 23:40      59.8      59.5       31     28.6      0.00      7.42      56.3     0.48      1025.6     4.6     NNW   347  11.1     NNW     332     266       -82       1.5      19.7      51.9      9.09
   01/05/2020 23:30      59.8      59.4       31     29.1      0.00      7.42      56.3     0.48      1025.8     5.3       N     2  10.7     NNW     347     266       -81       1.5      19.5      51.9      9.09
   01/05/2020 23:20      59.7      59.4       32     29.5      0.00      7.42      56.3     0.48      1025.9     5.5       N     4   9.9       N       0     266       -81       1.4      19.2      52.0      9.09
   01/05/2020 23:10      59.7      59.4       32     29.7      0.00      7.42      56.3     0.48      1026.0     5.5       N     5  13.0     NNW     344     266       -81       1.9      19.0      52.1      9.09
   01/05/2020 23:00      59.8      59.4       32     29.8      0.00      7.42      56.3     0.48      1026.1     5.1       N   357  14.5       N       9     266       -82       1.6      18.7      52.3      9.09
   01/05/2020 22:50      59.7      59.4       32     29.7      0.00      7.42      56.3     0.48      1026.1     5.6       N     4  12.4      NE      42     266       -82       1.7      18.4      52.3      9.10
   01/05/2020 22:40      59.7      59.4       32     29.4      0.00      7.42      56.3     0.48      1026.0     6.9       N    11  16.6     NNE      12     266       -82       2.4      18.1      52.5      9.10
   01/05/2020 22:30      59.5      59.0       32     29.3      0.00      7.42      56.3     0.48      1025.9     6.8       N     8  13.0       S     185     266       -82       2.1      17.8      52.6      9.10
   01/05/2020 22:20      59.3      59.0       32     29.1      0.00      7.42      56.3     0.48      1026.1     6.7       N     6  10.5     NNE      25     266       -81       2.2      17.4      52.7      9.10
   01/05/2020 22:10      59.4      59.0       31     28.9      0.00      7.42      56.3     0.48      1026.1     5.9       N   359  15.6      NE      37     266       -81       1.6      17.0      52.8      9.10
   01/05/2020 22:00      59.9      59.3       31     28.5      0.00      7.42      56.3     0.48      1026.1     6.5       N     5  14.4     NNE      18     266       -80       2.3      16.8      53.0      9.10
   01/05/2020 21:50      59.7      59.4       30     28.4      0.00      7.42      56.3     0.48      1025.9     4.7       N   356   9.9       N       6     266       -80       1.5      16.4      53.0      9.10
   01/05/2020 21:40      59.5      59.2       31     28.5      0.00      7.42      56.3     0.48      1025.9     4.3       N   359  10.8     ENE      57     265       -79       1.2      16.1      53.2      9.10
   01/05/2020 21:30      59.5      59.3       31     28.4      0.00      7.42      56.3     0.48      1025.9     5.5       N     2  12.9     NNE      32     266       -79       1.5      15.9      53.3      9.10
   01/05/2020 21:20      59.4      58.3       32     28.6      0.00      7.42      56.3     0.48      1026.1     4.5       N     4  10.6       N       3     266       -77       1.5      15.7      53.3      9.10
   01/05/2020 21:10      58.6      58.1       32     28.6      0.00      7.42      56.3     0.48      1026.0     2.5       N     5   8.4      NE      35     266       -78       1.1      15.4      53.4      9.11
   01/05/2020 21:00      58.3      57.6       32     28.6      0.00      7.42      56.2     0.48      1025.9     2.5       N   350   8.3       W     275     266       -77       1.0      15.2      53.5      9.11
   01/05/2020 20:50      57.8      57.4       33     28.6      0.00      7.42      56.2     0.48      1026.1     1.9      NW   322   6.0       N     352     266       -76       0.9      15.1      53.7      9.11
   01/05/2020 20:40      58.2      57.4       33     28.7      0.00      7.42      56.2     0.48      1026.1     2.2      SW   215   5.4      SW     235     266       -77       1.6      14.9      53.8      9.11
   01/05/2020 20:30      57.5      57.0       34     29.1      0.00      7.42      56.2     0.48      1025.9     2.0       E    83   5.7     NNE      31     266       -78       1.3      14.7      54.0      9.11
   01/05/2020 20:20      57.8      57.4       34     29.4      0.00      7.42      56.2     0.48      1025.8     1.6     NNE    17   4.4       N     350     266       -80       0.7      14.4      54.3      9.11
   01/05/2020 20:10      57.9      57.5       34     29.6      0.00      7.42      56.2     0.48      1025.8     2.2     NNE    15   7.5     NNW     332     266       -81       1.5      14.3      54.5      9.11
   01/05/2020 20:00      58.2      57.7       34     29.8      0.00      7.42      56.1     0.48      1025.6     3.8       N     7  10.6       N       5     266       -81       1.3      14.1      54.7      9.11
   01/05/2020 19:50      58.2      57.9       34     29.9      0.00      7.42      56.1     0.48      1025.5     3.3       N     9   7.4      NW     317     266       -82       1.1      13.8      54.9      9.11
   01/05/2020 19:40      58.6      58.0       34     30.1      0.00      7.42      56.1     0.48      1025.5     5.0       N     6  10.3     NNE      12     266       -83       1.8      13.7      55.0      9.11
   01/05/2020 19:30      58.7      58.4       34     30.1      0.00      7.42      56.1     0.48      1025.4     6.8       N     3  15.4     WNW     300     265       -84       2.5      13.4      55.3      9.12
   01/05/2020 19:20      58.7      58.4       34     30.1      0.00      7.42      56.0     0.48      1025.2     6.0       N   358  13.1       N     352     266       -83       2.0      12.9      55.5      9.12
   01/05/2020 19:10      58.9      58.4       33     29.9      0.00      7.42      56.0     0.48      1025.0     6.2       N     6  11.3       N       5     266       -83       2.1      12.6      55.7      9.12
   01/05/2020 19:00      59.3      58.7       33     29.9      0.00      7.42      56.0     0.48      1024.9     6.8       N     6  12.6      NW     309     265       -84       2.4      12.3      55.9      9.12
   01/05/2020 18:50      59.6      59.1       32     29.6      0.00      7.42      56.0     0.48      1024.7     7.0       N     2  17.6     NNE      21     265       -85       1.9      11.9      56.1      9.12
   01/05/2020 18:40      59.9      59.3       32     29.5      0.00      7.42      55.9     0.48      1024.6     7.7       N   359  14.3      NW     307     265       -85       2.0      11.6      56.4      9.12
   01/05/2020 18:30      60.2      59.8       31     28.9      0.00      7.42      55.9     0.48      1024.5     8.1     NNE    12  18.1      NE      41     265       -85       2.3      11.2      56.6      9.13
   01/05/2020 18:20      60.5      60.1       30     28.6      0.00      7.42      55.9     0.48      1024.7     5.7       N    10  14.9      NE      46     265       -85       1.9      10.8      56.8      9.13
   01/05/2020 18:10      61.0      60.4       29     28.2      0.00      7.42      55.8     0.48      1024.5     6.0     NNE    19  13.1      NE      42     265       -85       2.7      10.5      57.0      9.13
   01/05/2020 18:00      61.4      60.9       28     27.7      0.00      7.42      55.8     0.48      1024.2     8.1       N   356  17.2     NNW     344     264       -84       2.4      10.1      57.2      9.13
   01/05/2020 17:50      61.6      61.0       28     27.5      0.00      7.42      55.7     0.48      1024.2     7.9       N     3  14.3       N       8     265       -83       1.6       9.7      57.5      9.13
   01/05/2020 17:40      62.1      61.3       27     27.1      0.00      7.42      55.7     0.48      1024.5     6.7       N     0  14.6      NW     315     264       -82       1.3       9.4      57.8      9.13
   01/05/2020 17:30      62.7      61.8       25     26.4      0.00      7.42      55.6     0.48      1024.5     6.2       N     0  12.3     ENE      63     264       -81       1.3       9.2      58.0      9.14
   01/05/2020 17:20      63.1      62.5       24     25.8      0.00      7.42      55.6     0.48      1024.5     6.3       N    11  13.1     NNW     328     264       -79       1.5       9.0      58.1      9.14
   01/05/2020 17:10      63.2      62.8       24     25.9      0.00      7.42      55.5     0.48      1024.4     3.6     NNE    21   7.3     ENE      58     264       -78       1.1       8.7      58.3      9.14
   01/05/2020 17:00      63.9      62.9       24     25.9      0.00      7.42      55.5     0.48      1024.3     4.0       N     4   9.7     NNE      13     264       -78       0.9       8.6      58.5      9.14
   01/05/2020 16:50      64.9      63.8       24     26.3      0.00      7.42      55.5     0.48      1024.3     3.0       N   356   6.0     ENE      58     264       -70       0.6       8.4      58.7      9.14
   01/05/2020 16:40      65.5      64.8       23     26.2      0.00      7.42      55.4     0.48      1024.4     4.1       N     2   7.6     NNE      30     264       -65       0.6       8.3      58.8      9.14
   01/05/2020 16:30      66.1      65.5       23     26.6      0.00      7.42      55.3     0.48      1024.4     4.0       N   359   8.5      NE      38     264       -54       1.0       8.2      59.0      9.15
   01/05/2020 16:20      66.8      66.0       23     27.0      0.00      7.42      55.3     0.48      1024.3     4.3       N   358   7.8       N       7     264       -39       1.0       8.0      59.1      9.15
   01/05/2020 16:10      67.4      66.7       21     26.1      0.00      7.42      55.2     0.48      1024.4     4.1       N     0   7.4       N      10     264       -26       0.8       7.9      59.2      9.15
   01/05/2020 16:00      67.8      67.4       20     25.2      0.00      7.42      55.2     0.48      1024.2     3.9       N   349   7.9     NNE      16     264       -12       0.9       7.7      59.3      9.15
   01/05/2020 15:50      68.6      67.6       19     24.7      0.00      7.42      55.1     0.48      1024.2     3.9     NNE    16   9.8     NNE      24     264       -18       1.0       7.6      59.3      9.15
   01/05/2020 15:40      69.4      68.5       18     23.9      0.00      7.42      55.1     0.48      1024.1     3.2       N     4   8.9     NNE      23     264        -0       1.0       7.4      59.3      9.16
   01/05/2020 15:30      70.2      69.2       17     23.3      0.00      7.42      55.0     0.48      1024.0     2.7       N   360   6.9      NW     311     263        -2       0.5       7.2      59.2      9.16
   01/05/2020 15:20      70.7      70.0       16     21.7      0.00      7.42      55.0     0.47      1023.8     4.4       N     3   9.6     NNW     340     263        45       0.9       7.2      59.1      9.16
   01/05/2020 15:10      71.4      70.5       15     20.7      0.00      7.42      54.9     0.48      1023.8     4.5       N     5   9.7       N       9     263        40       0.9       7.0      59.0      9.16
   01/05/2020 15:00      72.1      71.2       14     20.3      0.00      7.42      54.9     0.47      1023.8     3.7       N   355   7.9     NNW     343     262        81       0.8       6.9      58.8      9.16
   01/05/2020 14:50      72.2      71.8       15     21.0      0.00      7.42      54.8     0.47      1023.8     3.8       N     3   7.2     NNW     328     263       120       0.6       6.7      58.5      9.16
   01/05/2020 14:40      72.5      71.8       14     21.2      0.00      7.42      54.8     0.47      1023.8     3.4       N   355   7.5       N     352     263       114       0.9       6.6      58.1      9.17
   01/05/2020 14:30      73.1      72.1       15     21.9      0.00      7.42      54.7     0.47      1023.9     3.6       N     5   7.8       N       8     263       145       0.8       6.5      57.7      9.17
   01/05/2020 14:20      72.6      72.1       15     21.8      0.00      7.42      54.7     0.47      1024.0     3.4       N     6   7.6      NE      47     263       158       0.6       6.3      57.3      9.17
   01/05/2020 14:10      73.4      72.3       14     21.6      0.00      7.42      54.7     0.47      1024.0     5.0       N     8   8.8       N      11     263       197       1.1       6.2      56.9      9.17
   01/05/2020 14:00      74.0      73.3       14     21.3      0.00      7.42      54.6     0.47      1024.1     3.0       N   358   8.7     NNE      33     262       243       0.8       6.1      56.4      9.17
   01/05/2020 13:50      73.4      72.7       14     20.3      0.00      7.42      54.6     0.47      1024.1     2.5     NNW   328   5.9     NNE      30     263       211       1.1       5.9      55.9      9.17
   01/05/2020 13:40      72.9      72.1       14     20.4      0.00      7.42      54.6     0.47      1024.2     2.6     NNW   330   5.9      NW     325     263       223       1.0       5.7      55.5      9.17
   01/05/2020 13:30      72.4      71.8       14     20.0      0.00      7.42      54.5     0.47      1024.3     3.5      NW   312   8.7      NW     306     263       181       2.5       5.6      55.0      9.17
   01/05/2020 13:20      73.4      72.3       15     22.5      0.00      7.42      54.5     0.47      1024.4     3.3      NW   322   7.4      NW     322     263       249       1.5       5.2      54.4      9.17
   01/05/2020 13:10      73.2      72.5       15     23.0      0.00      7.42      54.5     0.47      1024.4     2.4      NW   322   5.7     NNW     326     263       273       1.7       4.9      53.9      9.17
   01/05/2020 13:00      72.9      72.3       15     22.5      0.00      7.42      54.5     0.47      1024.4     2.4       N   356   4.9     NNW     347     263       276       0.7       4.6      53.3      9.17
   01/05/2020 12:50      73.5      72.6       17     26.3      0.00      7.42      54.4     0.47      1024.6     1.3       N   355   5.6     NNE      29     263       203       0.6       4.5      52.9      9.17
   01/05/2020 12:40      72.7      72.0       18     26.7      0.00      7.42      54.4     0.47      1024.7     0.6       W   277   2.1       N     353     263       217       0.4       4.4      52.4      9.17
   01/05/2020 12:30      72.9      72.1       19     27.4      0.00      7.42      54.4     0.47      1024.8     1.0      NE    46   2.4     ESE     103     263       195       0.5       4.3      52.0      9.17
   01/05/2020 12:20      72.8      71.9       18     25.9      0.00      7.42      54.4     0.47      1024.9     0.9     WSW   255   3.3     WSW     258     263       233       1.0       4.3      51.5      9.17
   01/05/2020 12:10      73.3      72.0       18     26.5      0.00      7.42      54.4     0.47      1025.0     0.8     SSE   167   3.6      SE     135     263       285       0.5       4.1      51.0      9.17
   01/05/2020 12:00      73.0      71.1       19     27.9      0.00      7.42      54.4     0.47      1025.2     0.2       E    91   1.4     ESE     121     263       260       0.2       4.0      50.4      9.17
   01/05/2020 11:50      71.9      71.0       21     29.1      0.00      7.42      54.4     0.47      1025.4     1.1     WSW   244   3.3      SW     226     264       266       1.0       4.0      49.8      9.17
   01/05/2020 11:40      71.0      69.4       22     29.8      0.00      7.42      54.4     0.47      1025.5     0.7     WNW   285   2.8       W     277     264       299       0.9       3.8      49.3      9.17
   01/05/2020 11:30      70.0      69.4       24     30.9      0.00      7.42      54.4     0.47      1025.8     1.7       W   261   3.5       W     262     265       311       1.3       3.7      48.9      9.17
   01/05/2020 11:20      69.6      68.5       25     31.8      0.00      7.42      54.4     0.47      1025.9     1.5     SSW   195   4.0      SW     218     266       309       1.3       3.4      48.3      9.17
   01/05/2020 11:10      68.7      67.1       28     33.4      0.00      7.42      54.4     0.47      1026.2     1.2     WSW   246   3.7      SW     224     265       308       1.1       3.2      47.8      9.17
   01/05/2020 11:00      67.4      66.4       28     32.8      0.00      7.42      54.5     0.47      1026.5     1.3     SSW   198   3.7     SSW     194     266       240       1.0       3.0      47.3      9.18
   01/05/2020 10:50      66.7      65.5       30     34.0      0.00      7.42      54.5     0.47      1026.7     1.9      SW   224   3.3      SW     217     266       269       1.5       2.9      46.8      9.18
   01/05/2020 10:40      66.1      65.5       30     33.4      0.00      7.42      54.5     0.47      1027.0     1.8     SSW   197   4.0      SW     217     266       237       1.3       2.6      46.2      9.18
   01/05/2020 10:30      67.0      65.9       32     35.3      0.00      7.42      54.5     0.47      1027.2     1.1     SSW   212   3.4     SSW     203     266       244       0.8       2.4      45.6      9.18
   01/05/2020 10:20      66.8      64.7       33     36.0      0.00      7.42      54.6     0.47      1027.4     0.8       S   184   3.3     WSW     247     266       284       0.7       2.3      45.1      9.17
   01/05/2020 10:10      64.7      62.3       37     37.1      0.00      7.42      54.6     0.47      1027.5     0.7       W   268   1.9       E      97     266       276       0.6       2.2      44.6      9.18
   01/05/2020 10:00      62.3      61.7       42     38.7      0.00      7.42      54.6     0.47      1027.6     0.8      NE    36   1.7     ENE      60     266       270       0.0       2.1      44.1      9.18
   01/05/2020 09:50      61.9      59.9       44     38.8      0.00      7.42      54.7     0.47      1027.7     0.2     WNW   300   0.8     WNW     290     266       255       0.1       2.1      43.8      9.17
   01/05/2020 09:40      60.0      57.4       48     39.1      0.00      7.42      54.7     0.47      1027.7     0.3     NNW   331   1.1      NW     315     266       226       0.2       2.0      43.6      9.18
   01/05/2020 09:30      57.6      56.4       51     39.0      0.00      7.42      54.7     0.47      1027.6     0.7     NNW   346   3.0     NNE      17     267       196       0.1       2.0      43.5      9.18
   01/05/2020 09:20      56.5      54.5       54     38.9      0.00      7.42      54.8     0.47      1027.6     0.5       N   356   2.4     WNW     303     267       186       0.3       2.0      43.2      9.18
   01/05/2020 09:10      54.6      51.6       56     38.1      0.00      7.42      54.8     0.47      1027.6     0.1      SE   128   1.0       S     183     268       169       0.0       1.9      42.9      9.18
   01/05/2020 09:00      51.5      48.7       62     37.6      0.00      7.42      54.9     0.47      1027.6     0.7       W   279   3.1     NNW     344     268       159       0.1       1.9      42.6      9.17
   01/05/2020 08:50      48.7      46.9       65     36.7      0.00      7.42      54.9     0.47      1027.5     1.1     SSE   150   2.3     SSW     192     269       119       0.6       1.9      42.4      9.18
   01/05/2020 08:40      47.1      45.2       69     36.5      0.00      7.42      54.9     0.47      1027.4     0.9     NNE    31   2.0      SE     130     269        91       0.1       1.8      42.2      9.17
   01/05/2020 08:30      45.2      43.0       74     36.1      0.00      7.42      54.9     0.47      1027.4     1.0     SSW   213   2.4     WSW     246     270       101       0.6       1.8      42.0      9.17
   01/05/2020 08:20      43.1      41.3       78     35.7      0.00      7.42      55.0     0.47      1027.2     0.7     NNE    13   1.6       W     278     271        67       0.0       1.7      41.8      9.18
   01/05/2020 08:10      41.3      40.7       80     35.2      0.00      7.42      55.0     0.47      1027.0     0.9     WSW   247   2.0     WSW     240     276        34       0.8       1.7      41.7      9.18
   01/05/2020 08:00      41.0      40.3       80     35.1      0.00      7.42      55.0     0.47      1027.0     1.1     ESE   113   2.8     ENE      77     285        21       0.6       1.6      41.6      9.18
   01/05/2020 07:50      40.3      39.2       83     34.9      0.00      7.42      55.1     0.47      1027.1     1.6      SE   142   3.5     SSW     200     295        11       0.9       1.5      41.6      9.18
   01/05/2020 07:40      39.4      38.4       84     34.5      0.00      7.42      55.1     0.47      1027.0     0.4      NW   314   1.7     NNE      22     304         4       0.2       1.3      41.6      9.18
   01/05/2020 07:30      38.7      37.7       86     34.4      0.00      7.42      55.1     0.47      1026.6     0.8     WSW   246   1.9     WSW     258     308        -0       0.4       1.3      41.6      9.18
   01/05/2020 07:20      37.8      37.4       86     33.6      0.00      7.42      55.2     0.47      1026.3     0.5      NE    51   1.9     NNE      22     312       -11       0.1       1.2      41.6      9.18
   01/05/2020 07:10      37.8      37.5       85     33.6      0.00      7.42      55.2     0.47      1026.4     1.7     ESE   107   3.7      SE     130     312       -20       0.8       1.2      41.7      9.18
   01/05/2020 07:00      37.6      37.1       86     33.5      0.00      7.42      55.3     0.47      1026.7     1.1       W   278   3.2     SSE     167     314       -24       0.6       1.1      41.8      9.18
   01/05/2020 06:50      37.6      36.7       86     33.4      0.00      7.42      55.3     0.47      1026.3     1.2     SSE   154   2.2     ENE      65     314       -27       0.4       1.0      42.0      9.18
   01/05/2020 06:40      37.5      36.7       85     33.0      0.00      7.42      55.3     0.47      1026.2     0.6     ESE   121   2.6      SE     142     314       -28       0.2       0.9      42.1      9.18
   01/05/2020 06:30      38.1      37.3       85     33.5      0.00      7.42      55.3     0.47      1026.1     0.8       E    99   1.8      SE     126     312       -29       0.4       0.8      42.3      9.18
   01/05/2020 06:20      38.3      37.2       85     33.5      0.00      7.42      55.4     0.47      1025.8     0.9     SSE   148   2.0      SW     216     311       -29       0.4       0.8      42.4      9.18
   01/05/2020 06:10      38.5      38.0       85     34.2      0.00      7.42      55.4     0.47      1025.7     0.1      SW   236   0.8      SW     234     310       -29       0.0       0.7      42.6      9.18
   01/05/2020 06:00      38.6      38.1       86     34.6      0.00      7.42      55.4     0.47      1025.6     0.5      NE    51   2.4      SE     138     308       -28       0.0       0.7      42.7      9.18
   01/05/2020 05:50      38.5      37.5       87     34.3      0.00      7.42      55.5     0.47      1025.6     0.6       S   181   1.5       S     179     305       -29       0.0       0.7      42.9      9.18
   01/05/2020 05:40      38.0      37.5       86     33.9      0.00      7.42      55.5     0.47      1025.7     0.6      SE   136   1.6      SE     139     303       -30       0.0       0.7      43.0      9.18
   01/05/2020 05:30      38.4      37.6       85     34.0      0.00      7.42      55.5     0.47      1025.7     0.7     SSE   160   2.1      SE     133     301       -30       0.3       0.7      43.1      9.18
   01/05/2020 05:20      38.5      38.2       86     34.4      0.00      7.42      55.6     0.47      1025.8     0.2     SSE   163   1.4     SSE     150     299       -32       0.2       0.6      43.4      9.18
   01/05/2020 05:10      38.5      38.1       86     34.4      0.00      7.42      55.6     0.47      1025.7     0.2     SSW   193   0.7      SW     228     296       -33       0.0       0.6      43.5      9.18
   01/05/2020 05:00      38.5      37.9       85     34.0      0.00      7.42      55.6     0.48      1025.7     0.0      SW   222   0.7      SW     228     294       -34       0.0       0.6      43.7      9.18
   01/05/2020 04:50      38.8      38.4       85     34.3      0.00      7.42      55.7     0.47      1025.8     0.1      SE   134   0.6     ENE      71     292       -35       0.0       0.6      43.9      9.18
   01/05/2020 04:40      38.9      38.5       84     34.4      0.00      7.42      55.7     0.47      1025.7     0.1     SSW   194   0.9     SSW     194     290       -37       0.0       0.6      44.0      9.18
   01/05/2020 04:30      39.0      38.4       85     34.7      0.00      7.42      55.7     0.48      1025.7     0.4     SSW   213   1.0     SSW     211     288       -37       0.0       0.6      44.2      9.18
   01/05/2020 04:20      39.0      38.4       85     34.4      0.00      7.42      55.8     0.48      1025.8     0.1     SSE   150   0.6     SSE     148     286       -40       0.0       0.6      44.4      9.18
   01/05/2020 04:10      39.3      38.9       84     34.8      0.00      7.42      55.8     0.48      1025.9     0.3     SSE   163   1.0     SSE     163     284       -41       0.0       0.6      44.6      9.18
   01/05/2020 04:00      39.4      39.0       84     34.8      0.00      7.42      55.8     0.48      1025.9     0.2     SSE   155   0.8     SSE     153     281       -43       0.0       0.6      44.8      9.18
   01/05/2020 03:50      39.7      39.2       83     34.8      0.00      7.42      55.9     0.48      1026.0     0.3     SSE   167   1.3       S     176     279       -44       0.0       0.6      45.0      9.18
   01/05/2020 03:40      40.0      39.4       82     34.8      0.00      7.42      55.9     0.48      1026.0     0.0     SSE   165   0.9     SSE     165     276       -46       0.0       0.6      45.2      9.18
   01/05/2020 03:30      40.2      39.8       83     35.1      0.00      7.42      55.9     0.48      1026.0     0.0     NNE    33   0.0     NNE      32     275       -46       0.0       0.6      45.3      9.18
   01/05/2020 03:20      40.1      39.8       83     35.3      0.00      7.42      55.9     0.48      1026.0     0.3     SSE   164   1.2     SSE     154     273       -48       0.1       0.6      45.5      9.18
   01/05/2020 03:10      40.1      39.5       84     35.2      0.00      7.42      56.0     0.48      1026.0     0.8     SSE   149   1.7      SE     138     272       -50       0.2       0.5      45.7      9.18
   01/05/2020 03:00      40.2      39.6       82     34.8      0.00      7.42      56.0     0.48      1026.0     0.7     SSE   150   1.8      SE     140     271       -51       0.3       0.5      45.8      9.18
   01/05/2020 02:50      40.5      40.0       82     35.2      0.00      7.42      56.0     0.48      1026.1     0.2       S   176   0.8     SSW     202     271       -52       0.0       0.5      46.1      9.18
   01/05/2020 02:40      40.5      40.2       83     35.5      0.00      7.42      56.0     0.48      1026.0     0.0       N     0   0.0     SSE     159     271       -53       0.0       0.4      46.3      9.18
   01/05/2020 02:30      40.5      40.1       83     35.4      0.00      7.42      56.1     0.48      1025.9     0.8     SSE   164   1.5       S     174     271       -53       0.5       0.4      46.4      9.18
   01/05/2020 02:20      40.4      39.5       83     35.1      0.00      7.42      56.1     0.48      1026.0     0.5     SSE   164   1.2      SE     141     271       -54       0.0       0.4      46.6      9.18
   01/05/2020 02:10      40.6      39.6       81     34.6      0.00      7.42      56.1     0.48      1026.0     0.5     SSE   159   1.1     SSE     151     271       -55       0.0       0.4      46.8      9.18
   01/05/2020 02:00      40.9      40.3       80     35.0      0.00      7.42      56.1     0.48      1026.1     0.3     SSE   155   0.9      SE     146     272       -54       0.0       0.4      47.0      9.18
   01/05/2020 01:50      40.8      40.4       80     35.0      0.00      7.42      56.2     0.48      1026.1     0.1     SSW   195   0.7     SSW     198     272       -54       0.0       0.4      47.2      9.18
   01/05/2020 01:40      41.0      40.4       80     34.8      0.00      7.42      56.2     0.48      1026.1     0.2     SSW   195   1.4     SSW     198     271       -55       0.0       0.4      47.4      9.18
   01/05/2020 01:30      41.4      40.7       79     35.0      0.00      7.42      56.2     0.48      1026.1     0.5     SSE   162   1.6       S     184     271       -55       0.3       0.4      47.5      9.18
   01/05/2020 01:20      41.6      41.0       78     34.9      0.00      7.42      56.2     0.48      1026.2     0.4     SSE   165   1.3     SSE     165     271       -56       0.3       0.3      47.7      9.18
   01/05/2020 01:10      41.7      41.2       77     34.7      0.00      7.42      56.3     0.48      1026.2     0.5     SSE   168   1.4     SSE     149     271       -56       0.4       0.3      48.0      9.18
   01/05/2020 01:00      41.6      41.2       77     34.8      0.00      7.42      56.3     0.48      1026.2     0.4      SW   215   1.2       W     260     271       -57       0.0       0.2      48.2      9.18
   01/05/2020 00:50      41.7      41.2       77     34.9      0.00      7.42      56.3     0.48      1026.1     0.5     SSE   164   1.4       S     176     271       -57       0.3       0.2      48.4      9.18
   01/05/2020 00:40      42.0      41.4       76     34.7      0.00      7.42      56.3     0.48      1026.1     0.3      SE   137   1.1       S     171     270       -59       0.2       0.1      48.6      9.18
   01/05/2020 00:30      42.3      41.7       75     34.7      0.00      7.42      56.3     0.48      1026.1     0.4     SSE   165   1.6      SE     146     271       -60       0.3       0.1      48.8      9.18
   01/05/2020 00:20      42.6      42.1       74     34.7      0.00      7.42      56.4     0.48      1026.3     0.3     SSE   153   1.3      SE     140     270       -60       0.0       0.0      49.0      9.18
   01/05/2020 00:10      42.8      42.3       73     34.6      0.00      7.42      56.4     0.48      1026.4     0.7     SSE   157   2.4     SSW     193     270       -61       0.3       0.0      49.2      9.18
   01/05/2020 00:00      43.0      42.6       72     34.4      0.00      7.42      56.4     0.48      1026.4     0.5     SSE   158   1.6     SSE     152     270       -61       0.2      11.7      49.4      9.18
   01/04/2020 23:50      43.3      42.6       72     34.6      0.00      7.42      56.4     0.48      1026.4     0.6     SSE   162   1.9       S     182     270       -62       0.5      11.7      49.7      9.18
   01/04/2020 23:40      43.7      43.1       70     34.3      0.00      7.42      56.4     0.48      1026.5     0.7     SSE   165   1.7     SSE     151     270       -61       0.5      11.6      49.9      9.18
   01/04/2020 23:30      44.0      43.5       70     34.5      0.00      7.42      56.4     0.48      1026.6     0.7      SW   217   1.8       S     177     269       -62       0.5      11.5      50.2      9.19
   01/04/2020 23:20      44.7      43.7       68     34.4      0.00      7.42      56.4     0.48      1026.6     0.7     SSE   166   2.2     SSW     195     269       -62       0.3      11.4      50.4      9.19
   01/04/2020 23:10      44.7      44.0       68     34.6      0.00      7.42      56.5     0.48      1026.8     0.9       S   182   2.1       S     189     269       -61       0.7      11.4      50.6      9.19
   01/04/2020 23:00      45.3      44.4       66     34.1      0.00      7.42      56.5     0.48      1026.8     1.2     SSE   159   2.2       S     191     269       -61       0.6      11.3      50.9      9.19
   01/04/2020 22:50      45.6      44.9       65     34.1      0.00      7.42      56.5     0.48      1026.8     0.7     SSE   168   2.3       S     188     269       -60       0.3      11.2      51.1      9.19
   01/04/2020 22:40      45.8      45.2       65     34.4      0.00      7.42      56.5     0.48      1026.8     0.7     SSW   213   1.6      SW     235     269       -61       0.4      11.1      51.4      9.19
   01/04/2020 22:30      46.1      45.5       64     34.4      0.00      7.42      56.5     0.48      1026.8     1.1       E    86   3.1     ENE      63     269       -60       0.1      11.1      51.6      9.19
   01/04/2020 22:20      46.1      45.5       64     34.3      0.00      7.42      56.5     0.48      1026.8     1.3      SE   140   2.1      SE     144     269       -58       0.5      11.0      51.7      9.19
   01/04/2020 22:10      45.9      45.3       64     34.3      0.00      7.42      56.5     0.48      1026.9     1.6       S   179   3.7      SE     141     269       -58       0.9      10.9      52.0      9.19
   01/04/2020 22:00      46.2      45.3       64     34.1      0.00      7.42      56.5     0.48      1026.9     1.1       S   188   3.2      SW     222     269       -58       0.8      10.8      52.3      9.19
   01/04/2020 21:50      47.0      46.0       62     34.3      0.00      7.42      56.5     0.48      1027.0     0.0     ENE    59   1.0     ENE      63     269       -60       0.0      10.7      52.5      9.19
   01/04/2020 21:40      47.5      46.8       61     34.3      0.00      7.42      56.5     0.48      1026.9     0.1     SSE   158   1.0       S     185     269       -60       0.0      10.7      52.7      9.19
   01/04/2020 21:30      46.8      46.1       63     34.4      0.00      7.42      56.5     0.48      1026.9     1.0       S   175   2.4     SSE     161     269       -62       0.4      10.6      52.9      9.19
   01/04/2020 21:20      46.3      45.9       66     35.5      0.00      7.42      56.5     0.48      1026.9     1.3     SSE   159   3.0       S     183     269       -62       0.8      10.6      53.1      9.19
   01/04/2020 21:10      46.9      46.1       65     35.4      0.00      7.42      56.5     0.48      1026.9     0.8     SSE   160   1.4      SE     139     269       -61       0.5      10.4      53.4      9.19
   01/04/2020 21:00      47.0      46.4       64     35.3      0.00      7.42      56.5     0.48      1026.8     1.0       S   178   2.9     SSW     210     269       -61       0.9      10.3      53.6      9.19
   01/04/2020 20:50      48.0      46.9       62     35.0      0.00      7.42      56.5     0.48      1026.7     0.7       S   171   1.8       S     181     269       -60       0.6      10.2      53.9      9.19
   01/04/2020 20:40      48.1      47.4       61     35.0      0.00      7.42      56.5     0.48      1026.6     0.9       S   184   1.9     SSW     208     268       -61       0.5      10.1      54.1      9.19
   01/04/2020 20:30      48.4      47.3       61     35.3      0.00      7.42      56.5     0.48      1026.5     0.6     ENE    68   2.1     SSW     212     268       -63       0.4      10.0      54.4      9.19
   01/04/2020 20:20      49.0      48.2       59     35.2      0.00      7.42      56.5     0.48      1026.4     0.5     SSE   157   1.1      SE     138     268       -62       0.2       9.9      54.6      9.20
   01/04/2020 20:10      49.4      48.7       59     35.2      0.00      7.42      56.5     0.48      1026.4     0.7       S   176   1.5       S     175     268       -63       0.3       9.9      54.9      9.20
   01/04/2020 20:00      49.4      48.8       59     35.3      0.00      7.42      56.5     0.48      1026.4     0.6     SSE   159   1.4     SSE     158     268       -63       0.3       9.9      55.1      9.20
   01/04/2020 19:50      49.7      48.9       59     35.5      0.00      7.42      56.4     0.48      1026.4     0.9     SSE   162   2.0      SE     128     268       -63       0.5       9.8      55.4      9.20
   01/04/2020 19:40      51.0      49.7       55     34.7      0.00      7.42      56.4     0.48      1026.4     1.5       S   179   3.3       S     189     268       -61       1.3       9.7      55.6      9.20
   01/04/2020 19:30      50.9      50.6       54     34.8      0.00      7.42      56.4     0.48      1026.4     0.5       S   176   1.8       S     186     268       -61       0.0       9.5      56.0      9.20
   01/04/2020 19:20      51.4      50.5       56     35.5      0.00      7.42      56.4     0.48      1026.3     0.6     SSE   161   2.0     SSW     209     268       -64       0.2       9.5      56.2      9.20
   01/04/2020 19:10      52.7      51.4       53     35.3      0.00      7.42      56.4     0.48      1026.2     0.7     SSE   158   1.3     SSE     158     267       -65       0.3       9.5      56.4      9.20
   01/04/2020 19:00      54.9      52.7       47     34.1      0.00      7.42      56.3     0.48      1026.1     1.1       S   177   2.9     SSW     209     267       -64       0.1       9.4      56.7      9.20
   01/04/2020 18:50      54.7      53.3       48     34.3      0.00      7.42      56.3     0.48      1026.1     1.4       S   180   2.8     SSW     210     267       -65       0.8       9.4      57.0      9.20
   01/04/2020 18:40      55.5      54.0       45     34.1      0.00      7.42      56.3     0.48      1025.9     0.9     SSE   150   1.5     SSE     168     267       -67       0.4       9.3      57.2      9.21
   01/04/2020 18:30      56.7      55.2       44     34.0      0.00      7.42      56.2     0.48      1025.9     0.6     SSE   161   2.0       S     181     266       -68       0.3       9.2      57.5      9.21
   01/04/2020 18:20      58.4      56.8       40     33.6      0.00      7.42      56.2     0.48      1025.8     0.8       S   175   2.0     SSW     202     266       -72       0.3       9.2      57.8      9.20
   01/04/2020 18:10      58.9      58.1       38     33.2      0.00      7.42      56.1     0.48      1025.8     1.2     SSW   213   3.6      SW     219     266       -73       0.4       9.1      58.0      9.21
   01/04/2020 18:00      59.1      58.5       37     32.4      0.00      7.42      56.1     0.48      1025.7     1.1      SW   225   2.7     SSE     158     266       -74       0.4       9.1      58.2      9.21
   01/04/2020 17:50      59.0      58.6       36     32.0      0.00      7.42      56.0     0.48      1025.6     1.4     SSW   209   2.5      SW     221     266       -73       0.8       9.0      58.4      9.21
   01/04/2020 17:40      59.3      58.8       36     31.9      0.00      7.42      56.0     0.48      1025.7     1.6     WSW   240   2.6     WSW     240     266       -72       0.6       8.8      58.6      9.21
   01/04/2020 17:30      59.3      58.9       36     32.0      0.00      7.42      56.0     0.48      1025.6     1.0     SSW   212   1.7     WSW     240     266       -73       0.6       8.7      58.9      9.21
   01/04/2020 17:20      60.4      59.1       36     32.5      0.00      7.42      55.9     0.48      1025.6     0.9     SSW   196   1.8     SSW     207     266       -73       0.2       8.6      59.2      9.21
   01/04/2020 17:10      61.5      60.3       32     31.2      0.00      7.42      55.8     0.48      1025.5     0.9      SW   221   2.5      SW     223     266       -75       0.4       8.6      59.5      9.22
   01/04/2020 17:00      62.4      61.4       31     30.9      0.00      7.42      55.8     0.48      1025.5     1.5     SSW   202   2.8       W     265     266       -74       0.8       8.5      59.8      9.22
   01/04/2020 16:50      63.6      62.2       29     30.3      0.00      7.42      55.7     0.48      1025.5     1.7      SW   217   3.2     WSW     242     265       -72       1.0       8.4      60.2      9.22
   01/04/2020 16:40      64.4      63.5       28     30.4      0.00      7.42      55.7     0.48      1025.6     2.4      SW   233   4.3     WSW     237     265       -66       1.3       8.3      60.4      9.22
   01/04/2020 16:30      65.7      64.4       28     31.4      0.00      7.42      55.6     0.48      1025.6     2.9     WSW   239   4.9      SW     236     265       -59       1.9       8.0      60.5      9.22
   01/04/2020 16:20      66.5      65.7       31     34.4      0.00      7.42      55.5     0.48      1025.6     2.6     WSW   242   4.9      SW     234     264       -37       1.9       7.7      60.6      9.23
   01/04/2020 16:10      67.0      66.3       32     35.9      0.00      7.42      55.5     0.48      1025.6     3.3       W   275   5.1       W     266     264       -20       2.5       7.4      60.6      9.23
   01/04/2020 16:00      67.6      66.9       32     36.2      0.00      7.42      55.5     0.48      1025.6     3.7       W   272   6.4     WNW     297     264         2       2.5       7.0      60.6      9.23
   01/04/2020 15:50      68.0      67.4       31     36.3      0.00      7.42      55.4     0.48      1025.6     2.9     WNW   300   6.1       W     267     264        15       1.5       6.6      60.6      9.23
   01/04/2020 15:40      68.7      67.9       30     35.9      0.00      7.42      55.3     0.48      1025.6     2.2     WNW   302   4.3       W     272     264        35       1.2       6.3      60.5      9.23
   01/04/2020 15:30      69.6      68.6       29     36.0      0.00      7.42      55.3     0.48      1025.6     2.7     WNW   299   7.0     WSW     237     264        63       1.6       6.1      60.3      9.23
   01/04/2020 15:20      69.7      69.2       30     36.6      0.00      7.42      55.2     0.48      1025.6     2.5     WNW   289   4.3       W     262     264        97       1.7       5.9      60.1      9.23
   01/04/2020 15:10      69.5      68.8       30     36.5      0.00      7.42      55.2     0.48      1025.5     3.0     WNW   285   6.0       W     264     264        90       2.1       5.6      59.8      9.24
   01/04/2020 15:00      69.8      69.2       30     36.5      0.00      7.42      55.1     0.48      1025.5     3.0     WNW   289   7.6     WNW     291     263       108       2.1       5.2      59.5      9.23
   01/04/2020 14:50      70.4      69.6       29     36.4      0.00      7.42      55.1     0.48      1025.5     3.0     WNW   293   6.0     WSW     256     264       145       1.8       4.9      59.2      9.24
   01/04/2020 14:40      71.3      69.8       28     36.2      0.00      7.42      55.0     0.48      1025.5     3.4     WNW   296   6.6       W     275     264       131       2.0       4.6      58.9      9.24
   01/04/2020 14:30      71.9      70.7       28     36.3      0.00      7.42      55.0     0.48      1025.5     3.0     WNW   284   8.0       W     265     264       163       2.1       4.3      58.5      9.24
   01/04/2020 14:20      71.9      71.2       26     34.9      0.00      7.42      55.0     0.48      1025.5     1.2     SSE   164   6.8       W     265     263       167       1.2       3.9      58.2      9.24
   01/04/2020 14:10      72.5      71.3       26     35.1      0.00      7.42      54.9     0.48      1025.5     2.2     SSE   160   4.4       S     180     263       213       1.3       3.7      57.7      9.24
   01/04/2020 14:00      72.6      70.7       26     35.2      0.00      7.42      54.9     0.48      1025.6     1.0      SW   230   3.7     WSW     247     263       222       0.8       3.5      57.3      9.24
   01/04/2020 13:50      71.6      70.7       27     35.8      0.00      7.42      54.8     0.48      1025.7     1.8      SW   218   5.3       S     186     264       224       1.5       3.4      56.8      9.24
   01/04/2020 13:40      71.5      70.5       27     35.6      0.00      7.42      54.8     0.48      1025.8     1.7      SW   226   3.8      SW     215     264       200       1.5       3.1      56.4      9.24
   01/04/2020 13:30      71.5      70.5       27     35.2      0.00      7.42      54.8     0.48      1025.9     1.0     SSE   151   4.3       S     175     264       236       1.0       2.9      56.0      9.24
   01/04/2020 13:20      71.8      70.3       27     35.4      0.00      7.42      54.8     0.47      1026.0     1.6       S   186   3.8     SSW     207     264       224       1.3       2.7      55.4      9.24
   01/04/2020 13:10      71.9      71.0       28     36.4      0.00      7.42      54.7     0.47      1026.1     0.8     NNW   326   1.9     NNW     336     263       247       0.9       2.5      54.9      9.24
   01/04/2020 13:00      71.3      70.3       28     36.0      0.00      7.42      54.7     0.47      1026.2     1.2       N     7   4.8     NNE      27     264       288       0.6       2.3      54.4      9.24
   01/04/2020 12:50      70.5      69.5       27     35.0      0.00      7.42      54.7     0.47      1026.3     1.4     NNE    24   3.1       E      99     264       293       0.8       2.2      53.9      9.24
   01/04/2020 12:40      70.6      69.7       28     35.2      0.00      7.42      54.7     0.47      1026.4     0.8     NNE    15   2.8     NNE      19     264       282       0.5       2.1      53.5      9.24
   01/04/2020 12:30      71.2      69.1       28     35.4      0.00      7.42      54.7     0.47      1026.6     0.6     NNE    17   2.5       E      97     264       273       0.3       2.0      53.0      9.24
   01/04/2020 12:20      69.5      69.0       28     34.7      0.00      7.42      54.6     0.47      1026.6     1.3       E    96   3.1     ESE     110     264       283       0.8       2.0      52.5      9.24
   01/04/2020 12:10      69.3      68.7       28     34.3      0.00      7.42      54.7     0.47      1026.8     0.9     NNW   334   2.8     NNE      16     264       285       0.7       1.8      52.0      9.24
   01/04/2020 12:00      69.3      68.6       28     34.5      0.00      7.42      54.6     0.47      1026.9     0.9       N     9   2.6     NNE      15     264       302       0.6       1.7      51.5      9.24
   01/04/2020 11:50      69.3      68.5       28     34.6      0.00      7.42      54.7     0.47      1027.1     0.9       N     4   2.6     NNW     343     265       305       0.4       1.6      50.9      9.24
   01/04/2020 11:40      68.8      67.4       31     35.8      0.00      7.42      54.7     0.47      1027.2     0.4       N   354   1.8       N       0     265       307       0.3       1.6      50.4      9.24
   01/04/2020 11:30      67.9      66.7       31     35.8      0.00      7.42      54.7     0.47      1027.5     0.7     NNW   340   2.8     NNE      12     266       311       0.4       1.5      49.9      9.24
   01/04/2020 11:20      66.8      65.5       32     35.6      0.00      7.42      54.7     0.47      1027.7     0.5     NNW   346   2.0       N     355     266       282       0.3       1.5      49.4      9.24
   01/04/2020 11:10      65.7      64.5       34     36.4      0.00      7.42      54.7     0.47      1028.0     0.9      NW   312   2.6     WSW     259     266       317       0.9       1.4      48.9      9.24
   01/04/2020 11:00      64.6      63.3       37     36.9      0.00      7.42      54.8     0.47      1028.1     0.6     NNW   342   1.8     NNW     340     266       290       0.4       1.3      48.4      9.24
   01/04/2020 10:50      63.3      62.4       38     37.0      0.00      7.42      54.8     0.47      1028.4     1.2       N     1   2.6       N     355     266       273       0.3       1.2      47.8      9.24
   01/04/2020 10:40      63.5      62.3       38     37.3      0.00      7.42      54.8     0.47      1028.6     0.9     NNE    15   2.4     NNE      16     266       246       0.3       1.1      47.2      9.24
   01/04/2020 10:30      62.4      61.3       40     37.5      0.00      7.42      54.8     0.47      1028.7     1.4     WSW   255   3.1     WSW     252     266       252       1.0       1.1      46.7      9.24
   01/04/2020 10:20      61.4      60.7       42     37.5      0.00      7.42      54.8     0.47      1028.9     1.2      NW   323   3.4     NNE      16     266       232       0.6       0.9      46.3      9.24
   01/04/2020 10:10      61.0      60.3       43     38.1      0.00      7.42      54.9     0.47      1029.0     0.8       N     9   2.3      NW     305     266       212       0.3       0.8      45.9      9.24
   01/04/2020 10:00      60.8      60.3       44     38.5      0.00      7.42      54.9     0.47      1029.1     1.0     NNE    25   1.9      NE      49     266       210       0.5       0.8      45.6      9.24
   01/04/2020 09:50      60.9      59.8       45     38.8      0.00      7.42      55.0     0.47      1029.1     0.3     NNE    20   1.4       N       7     266       211       0.0       0.7      45.3      9.24
   01/04/2020 09:40      59.9      57.9       47     38.8      0.00      7.42      55.0     0.47      1029.2     0.2     NNW   329   1.6     WNW     299     266       194       0.1       0.7      45.0      9.24
   01/04/2020 09:30      57.9      57.2       50     38.9      0.00      7.42      55.0     0.47      1029.2     0.7       N     2   1.8     NNE      27     267       201       0.0       0.7      44.9      9.24
   01/04/2020 09:20      57.4      55.9       52     39.2      0.00      7.42      55.1     0.47      1029.2     0.3       N     0   1.4       N     351     267       189       0.0       0.7      44.6      9.24
   01/04/2020 09:10      56.1      54.7       55     39.2      0.00      7.42      55.1     0.47      1029.1     0.5       N     2   1.3     WNW     300     267       173       0.0       0.6      44.3      9.24
   01/04/2020 09:00      54.8      53.6       54     38.0      0.00      7.42      55.1     0.47      1029.0     0.2      NE    37   0.8      NE      47     267       156       0.0       0.6      44.0      9.24
   01/04/2020 08:50      53.6      53.0       55     37.6      0.00      7.42      55.2     0.47      1029.0     0.0       N     3   0.4       N       0     268       116       0.0       0.6      43.9      9.24
   01/04/2020 08:40      53.2      51.7       57     37.8      0.00      7.42      55.2     0.48      1028.8     0.0       N     0   0.0     ENE      76     268        92       0.0       0.6      43.7      9.24
   01/04/2020 08:30      51.7      47.3       65     37.7      0.00      7.42      55.2     0.48      1028.8     0.0     NNE    20   0.6     NNE      20     269       113       0.0       0.6      43.5      9.24
   01/04/2020 08:20      47.3      44.1       73     37.6      0.00      7.42      55.3     0.48      1028.6     0.0     NNE    17   0.5       N      11     270       116       0.0       0.6      43.3      9.24
   01/04/2020 08:10      44.3      41.6       81     37.4      0.00      7.42      55.3     0.48      1028.4     0.1      SE   138   1.2      SE     138     290       106       0.0       0.6      43.0      9.24
   01/04/2020 08:00      41.7      40.3       85     37.0      0.00      7.42      55.3     0.48      1028.4     0.0      SE   138   0.8      SE     138     301        21       0.0       0.6      42.9      9.24
   01/04/2020 07:50      40.2      39.3       86     36.0      0.00      7.42      55.4     0.48      1028.3     0.0     SSE   164   0.5       S     171     306         6       0.0       0.6      42.9      9.24
   01/04/2020 07:40      39.4      38.5       87     35.3      0.00      7.42      55.4     0.48      1028.3     0.0     SSE   152   0.8     SSE     152     305        -5       0.0       0.6      42.9      9.24
   01/04/2020 07:30      38.9      38.5       86     34.9      0.00      7.42      55.4     0.48      1028.3     0.0     SSE   163   0.5     SSE     166     305       -14       0.0       0.6      42.9      9.24
   01/04/2020 07:20      38.8      38.4       86     34.8      0.00      7.42      55.5     0.48      1028.3     0.3     SSE   169   0.8     SSE     151     303       -20       0.1       0.6      43.0      9.24
   01/04/2020 07:10      38.6      38.2       86     34.7      0.00      7.42      55.5     0.48      1028.2     0.1     SSW   208   0.8      SW     216     301       -25       0.0       0.6      43.2      9.24
   01/04/2020 07:00      38.7      38.1       86     34.5      0.00      7.42      55.5     0.48      1028.0     0.0       S   172   0.0       S     172     299       -30       0.0       0.6      43.3      9.24
   01/04/2020 06:50      39.0      38.3       85     34.4      0.00      7.42      55.6     0.48      1028.0     0.9     SSE   151   2.2      SE     141     297       -33       0.6       0.6      43.5      9.24
   01/04/2020 06:40      39.1      38.0       86     34.6      0.00      7.42      55.6     0.48      1028.0     0.8     SSW   200   1.8       S     190     295       -33       0.3       0.5      43.7      9.24
   01/04/2020 06:30      38.7      38.2       85     34.2      0.00      7.42      55.6     0.48      1027.8     0.3      SE   141   1.1      SE     141     294       -36       0.0       0.4      43.8      9.24
   01/04/2020 06:20      39.6      38.6       84     34.8      0.00      7.42      55.7     0.48      1027.8     0.8       E    88   1.4      SE     143     291       -36       0.0       0.4      44.0      9.24
   01/04/2020 06:10      39.5      39.2       84     35.0      0.00      7.42      55.7     0.48      1027.5     0.1       N   360   0.9       N       7     289       -36       0.0       0.4      44.1      9.24
   01/04/2020 06:00      39.9      39.3       84     34.9      0.00      7.42      55.7     0.48      1027.3     0.2      SE   138   1.0      SE     137     285       -37       0.0       0.4      44.3      9.24
   01/04/2020 05:50      40.0      39.7       83     35.2      0.00      7.42      55.8     0.48      1027.4     0.4      SE   144   0.8      SE     145     282       -38       0.0       0.4      44.5      9.24
   01/04/2020 05:40      40.1      39.8       83     35.2      0.00      7.42      55.8     0.48      1027.2     0.0      SE   140   0.7      SE     140     280       -40       0.0       0.4      44.6      9.24
   01/04/2020 05:30      40.0      39.2       84     35.2      0.00      7.42      55.8     0.48      1027.1     0.8     SSW   201   1.7      SW     217     277       -41       0.3       0.4      44.8      9.24
   01/04/2020 05:20      40.0      39.3       83     34.8      0.00      7.42      55.9     0.48      1027.0     0.0     SSE   148   0.9     SSE     147     277       -43       0.0       0.4      45.0      9.24
   01/04/2020 05:10      40.3      39.8       83     35.2      0.00      7.42      55.9     0.48      1026.9     0.3     SSE   158   0.9     SSE     150     275       -44       0.0       0.4      45.2      9.24
   01/04/2020 05:00      40.4      39.8       83     35.3      0.00      7.42      55.9     0.48      1026.7     0.1     SSE   152   0.9     SSE     151     274       -46       0.0       0.4      45.4      9.25
   01/04/2020 04:50      40.3      40.0       83     35.3      0.00      7.42      56.0     0.48      1026.7     0.0       N     0   0.0     SSE     149     272       -48       0.0       0.4      45.6      9.24
   01/04/2020 04:40      40.4      40.0       82     35.2      0.00      7.42      56.0     0.48      1026.7     0.1     SSE   150   0.9      SE     146     271       -49       0.0       0.4      45.7      9.24
   01/04/2020 04:30      40.9      40.2       81     35.0      0.00      7.42      56.0     0.48      1026.7     0.1     SSE   152   0.9     SSE     152     271       -52       0.0       0.4      45.9      9.24
   01/04/2020 04:20      41.2      40.8       81     35.4      0.00      7.42      56.0     0.48      1026.7     0.0     SSW   211   0.8     SSW     211     271       -51       0.1       0.4      46.1      9.24
   01/04/2020 04:10      41.4      40.7       81     35.8      0.00      7.42      56.1     0.48      1026.7     0.0      SE   124   0.5     ESE     124     271       -53       0.0       0.4      46.3      9.25
   01/04/2020 04:00      40.9      40.1       83     35.8      0.00      7.42      56.1     0.48      1026.7     0.7     SSW   193   1.8     WSW     246     271       -53       0.4       0.4      46.4      9.25
   01/04/2020 03:50      40.4      40.1       83     35.4      0.00      7.42      56.1     0.48      1026.9     0.7     SSE   162   1.2     SSE     166     271       -55       0.6       0.3      46.7      9.25
   01/04/2020 03:40      40.6      40.2       82     35.1      0.00      7.42      56.2     0.48      1027.0     0.3     SSE   164   0.9     SSE     153     271       -57       0.0       0.2      46.9      9.25
   01/04/2020 03:30      41.3      40.3       79     34.9      0.00      7.42      56.2     0.48      1027.0     1.1     SSE   151   2.5      SE     144     272       -58       0.1       0.2      47.0      9.25
   01/04/2020 03:20      41.4      40.9       79     35.2      0.00      7.42      56.2     0.48      1027.1     0.3      SW   231   1.3     WSW     252     272       -56       0.0       0.2      47.2      9.25
   01/04/2020 03:10      41.4      40.8       79     35.1      0.00      7.42      56.3     0.48      1026.9     0.4     SSE   162   1.1       S     184     272       -56       0.0       0.2      47.4      9.25
   01/04/2020 03:00      41.4      41.0       79     35.3      0.00      7.42      56.3     0.48      1027.0     0.0       N     0   0.0     SSW     208     272       -56       0.0       0.2      47.6      9.25
   01/04/2020 02:50      41.7      41.1       78     35.2      0.00      7.42      56.3     0.48      1027.0     0.0       N     0   0.0     SSE     160     272       -56       0.0       0.2      47.9      9.25
   01/04/2020 02:40      42.1      41.6       78     35.6      0.00      7.42      56.3     0.48      1027.0     0.1     SSE   162   0.5     SSE     162     271       -56       0.0       0.2      48.0      9.25
   01/04/2020 02:30      41.8      41.2       78     35.3      0.00      7.42      56.4     0.48      1027.1     0.3     SSE   163   0.7       S     171     271       -56       0.0       0.2      48.2      9.25
   01/04/2020 02:20      42.3      41.7       77     35.3      0.00      7.42      56.4     0.48      1027.2     0.1     SSE   154   0.7     SSE     153     271       -56       0.0       0.2      48.4      9.25
   01/04/2020 02:10      42.5      42.2       76     35.2      0.00      7.42      56.4     0.48      1027.2     0.4     SSE   151   1.0     SSE     147     271       -56       0.0       0.2      48.6      9.25
   01/04/2020 02:00      42.8      42.3       76     35.4      0.00      7.42      56.4     0.48      1027.1     0.3      SE   137   1.1      SE     135     271       -57       0.0       0.2      48.9      9.25
   01/04/2020 01:50      43.0      42.6       75     35.4      0.00      7.42      56.5     0.48      1027.1     0.0     SSE   151   0.6     SSE     151     271       -56       0.0       0.2      49.0      9.25
   01/04/2020 01:40      43.2      42.5       74     35.2      0.00      7.42      56.5     0.48      1027.1     0.2     SSE   161   0.9     SSE     156     271       -56       0.0       0.2      49.2      9.25
   01/04/2020 01:30      43.3      42.8       74     35.5      0.00      7.42      56.5     0.48      1027.1     0.3      SE   145   1.1      SE     146     270       -56       0.0       0.2      49.4      9.25
   01/04/2020 01:20      43.9      43.0       73     35.3      0.00      7.42      56.5     0.48      1027.1     0.8     SSE   165   1.4      SE     142     271       -56       0.6       0.2      49.6      9.25
   01/04/2020 01:10      43.9      43.4       73     35.5      0.00      7.42      56.5     0.48      1027.1     0.5     SSE   164   1.1     SSE     151     270       -56       0.1       0.0      49.8      9.25
   01/04/2020 01:00      44.2      43.7       72     35.6      0.00      7.42      56.6     0.48      1027.0     0.5     SSE   153   1.4     SSE     148     270       -56       0.2       0.0      50.0      9.25
   01/04/2020 00:50      44.5      43.9       70     35.3      0.00      7.42      56.6     0.48      1027.0     0.5     SSE   155   0.9     SSE     148     270       -56       0.0       0.0      50.2      9.25
   01/04/2020 00:40      44.8      44.3       69     35.0      0.00      7.42      56.6     0.48      1027.1     0.0       N     0   0.0     SSW     197     270       -55       0.0       0.0      50.5      9.25
   01/04/2020 00:30      44.9      44.4       69     35.0      0.00      7.42      56.6     0.48      1027.1     0.4       S   175   0.8     SSE     155     270       -55       0.0       0.0      50.7      9.25
   01/04/2020 00:20      44.5      44.0       71     35.4      0.00      7.42      56.6     0.48      1027.1     0.5       S   172   1.1       S     185     270       -56       0.0       0.0      50.9      9.25
   01/04/2020 00:10      44.8      44.2       72     35.8      0.00      7.42      56.6     0.48      1027.1     0.0       N     0   0.0     SSE     154     270       -56       0.0       0.0      51.1      9.25
   01/04/2020 00:00      45.1      44.7       70     35.8      0.00      7.42      56.7     0.48      1027.3     0.0     SSE   154   0.7     SSE     155     270       -56       0.0      10.3      51.3      9.25
   01/03/2020 23:50      45.2      44.7       71     36.0      0.00      7.42      56.7     0.48      1027.4     0.4     SSE   155   1.2     SSE     160     270       -56       0.0      10.3      51.5      9.25
   01/03/2020 23:40      45.1      44.5       71     35.9      0.00      7.42      56.7     0.48      1027.4     0.4     SSE   160   1.2     SSE     164     270       -56       0.0      10.3      51.7      9.25
   01/03/2020 23:30      45.8      45.0       69     35.7      0.00      7.42      56.7     0.48      1027.6     0.6     SSE   154   1.2      SE     146     269       -56       0.0      10.3      51.9      9.25
   01/03/2020 23:20      46.0      45.5       68     35.9      0.00      7.42      56.7     0.48      1027.5     0.6     SSE   154   1.0     SSE     151     269       -56       0.0      10.3      52.2      9.25
   01/03/2020 23:10      45.8      45.4       68     35.7      0.00      7.42      56.7     0.48      1027.5     0.4     SSE   165   1.0     SSE     151     269       -57       0.0      10.3      52.4      9.25
   01/03/2020 23:00      46.1      45.5       68     36.0      0.00      7.42      56.8     0.48      1027.5     0.0       S   176   0.8     SSE     152     269       -58       0.0      10.3      52.7      9.26
   01/03/2020 22:50      46.4      45.9       67     35.9      0.00      7.42      56.8     0.48      1027.5     0.2     SSE   156   0.8     SSE     152     269       -57       0.0      10.2      52.9      9.25
   01/03/2020 22:40      46.4      45.9       68     36.2      0.00      7.42      56.8     0.48      1027.5     0.5     SSE   161   0.9     SSE     153     269       -58       0.0      10.2      53.1      9.26
   01/03/2020 22:30      47.0      46.4       67     36.3      0.00      7.42      56.8     0.48      1027.5     0.4     SSE   155   0.9     SSE     146     269       -58       0.0      10.2      53.4      9.26
   01/03/2020 22:20      47.2      46.9       66     36.1      0.00      7.42      56.8     0.48      1027.4     0.5     SSE   155   1.0     SSE     146     269       -58       0.0      10.2      53.6      9.26
   01/03/2020 22:10      47.1      46.9       67     36.6      0.00      7.42      56.8     0.48      1027.4     0.4       S   175   1.2     SSW     206     269       -59       0.1      10.2      53.9      9.26
   01/03/2020 22:00      47.7      47.0       67     36.8      0.00      7.42      56.8     0.48      1027.3     0.4     SSE   161   1.3     SSW     195     269       -59       0.0      10.2      54.1      9.26
   01/03/2020 21:50      47.9      47.4       66     37.0      0.00      7.42      56.8     0.48      1027.2     0.6     SSE   162   1.0     SSE     156     269       -59       0.0      10.2      54.3      9.26
   01/03/2020 21:40      48.3      47.7       65     36.9      0.00      7.42      56.8     0.48      1027.1     0.5     SSE   151   1.0      SE     140     269       -59       0.0      10.2      54.6      9.26
   01/03/2020 21:30      48.7      48.0       64     36.8      0.00      7.42      56.8     0.48      1027.0     0.5      SE   145   1.1      SE     145     269       -60       0.0      10.2      54.8      9.26
   01/03/2020 21:20      48.8      48.3       63     36.4      0.00      7.42      56.8     0.48      1026.9     0.6       S   178   1.2       S     183     268       -60       0.0      10.2      55.1      9.26
   01/03/2020 21:10      48.9      48.1       65     37.2      0.00      7.42      56.8     0.48      1026.8     0.3       S   179   1.3     SSW     196     268       -61       0.0      10.2      55.3      9.26
   01/03/2020 21:00      49.6      48.8       63     37.3      0.00      7.42      56.8     0.48      1026.7     0.1     SSE   148   1.2      SE     146     268       -61       0.0      10.2      55.5      9.26
   01/03/2020 20:50      50.1      49.3       63     37.4      0.00      7.42      56.8     0.48      1026.6     0.6     SSE   152   1.1     SSE     149     268       -60       0.0      10.2      55.8      9.26
   01/03/2020 20:40      50.1      49.7       63     37.7      0.00      7.42      56.8     0.48      1026.5     0.5     SSE   148   1.1     SSE     152     268       -60       0.0      10.2      56.0      9.26
   01/03/2020 20:30      50.8      50.1       62     37.8      0.00      7.42      56.7     0.48      1026.4     0.7     SSE   167   1.3      SE     146     268       -61       0.2      10.2      56.3      9.26
   01/03/2020 20:20      50.6      50.0       63     38.3      0.00      7.42      56.7     0.48      1026.4     0.8     SSE   159   1.5     SSE     161     268       -62       0.4      10.1      56.5      9.26
   01/03/2020 20:10      51.8      50.0       61     37.7      0.00      7.42      56.7     0.48      1026.3     0.7     SSE   156   1.7     SSE     167     268       -62       0.3      10.1      56.8      9.27
   01/03/2020 20:00      52.0      51.6       59     37.7      0.00      7.42      56.7     0.48      1026.3     0.6       S   175   1.7       S     186     268       -62       0.3      10.0      57.1      9.27
   01/03/2020 19:50      52.3      51.7       58     37.4      0.00      7.42      56.7     0.48      1026.2     0.8     SSW   200   2.3     SSW     203     268       -63       0.4      10.0      57.3      9.27
   01/03/2020 19:40      52.3      51.8       58     37.9      0.00      7.42      56.7     0.48      1026.1     0.4       S   181   1.2       S     184     268       -64       0.3       9.9      57.6      9.27
   01/03/2020 19:30      52.9      52.2       57     37.7      0.00      7.42      56.6     0.48      1026.0     0.1     SSE   163   0.9     SSE     168     268       -64       0.0       9.8      57.9      9.27
   01/03/2020 19:20      53.1      52.5       57     38.0      0.00      7.42      56.6     0.48      1025.9     0.1       S   182   1.7     SSW     200     268       -65       0.0       9.8      58.1      9.27
   01/03/2020 19:10      53.4      52.9       57     38.2      0.00      7.42      56.6     0.48      1025.8     0.4      SE   140   1.3      SE     129     268       -66       0.1       9.8      58.4      9.27
   01/03/2020 19:00      54.4      53.2       55     38.0      0.00      7.42      56.5     0.48      1025.8     0.0      SE   141   0.9       E      88     268       -66       0.1       9.8      58.6      9.27
   01/03/2020 18:50      54.9      54.1       54     38.4      0.00      7.42      56.5     0.48      1025.6     0.9      SE   135   1.8      SE     140     267       -67       0.2       9.8      58.8      9.27
   01/03/2020 18:40      56.0      54.9       52     38.0      0.00      7.42      56.5     0.48      1025.6     1.2     SSE   168   1.7       S     174     267       -66       1.4       9.8      59.0      9.27
   01/03/2020 18:30      56.2      55.5       51     37.8      0.00      7.42      56.4     0.48      1025.5     1.4       S   170   2.3       S     178     267       -67       1.0       9.5      59.3      9.28
   01/03/2020 18:20      56.6      55.6       50     37.9      0.00      7.42      56.4     0.48      1025.4     1.4     SSE   168   2.4       S     177     267       -67       1.3       9.3      59.6      9.28
   01/03/2020 18:10      57.1      56.5       49     37.9      0.00      7.42      56.3     0.48      1025.3     1.4       S   173   2.7       S     177     267       -68       1.0       9.1      59.9      9.28
   01/03/2020 18:00      57.2      56.7       49     38.2      0.00      7.42      56.3     0.48      1025.2     1.3       S   172   2.4       S     186     267       -68       1.1       9.0      60.2      9.28
   01/03/2020 17:50      58.6      57.4       47     37.5      0.00      7.42      56.2     0.48      1025.2     1.1       S   176   1.8       S     171     267       -67       0.1       8.8      60.5      9.28
   01/03/2020 17:40      60.1      58.5       44     37.6      0.00      7.42      56.2     0.48      1025.2     1.0       S   181   1.8     SSW     210     266       -68       0.4       8.8      60.8      9.28
   01/03/2020 17:30      61.1      59.9       43     37.9      0.00      7.42      56.1     0.48      1025.1     0.3     SSW   202   1.2      SW     217     266       -70       0.1       8.7      61.1      9.28
   01/03/2020 17:20      63.5      61.1       41     38.1      0.00      7.42      56.1     0.48      1024.9     0.8     SSW   200   1.6      SW     218     266       -71       0.2       8.7      61.4      9.28
   01/03/2020 17:10      64.6      63.5       38     38.0      0.00      7.42      56.0     0.48      1024.8     1.7      SW   218   3.0     WSW     251     266       -73       1.0       8.6      61.6      9.29
   01/03/2020 17:00      64.8      64.1       35     36.3      0.00      7.42      55.9     0.48      1024.7     1.4     WSW   258   2.8     WNW     292     266       -72       0.7       8.5      61.9      9.29
   01/03/2020 16:50      65.8      64.3       33     35.0      0.00      7.42      55.9     0.48      1024.6     0.9     WSW   251   1.9      SW     234     266       -70       0.5       8.3      62.2      9.29
   01/03/2020 16:40      67.6      65.8       29     33.5      0.00      7.42      55.8     0.48      1024.5     2.0     SSW   202   3.6     WSW     243     265       -70       1.3       8.3      62.5      9.29
   01/03/2020 16:30      69.8      67.6       26     32.5      0.00      7.42      55.8     0.48      1024.5     2.7      SW   223   4.4     SSW     214     264       -58       1.7       8.1      62.8      9.29
   01/03/2020 16:20      70.6      69.8       25     33.2      0.00      7.42      55.7     0.48      1024.3     2.6     WSW   237   5.3      SW     221     263       -41       2.1       7.8      62.9      9.30
   01/03/2020 16:10      70.9      70.4       25     32.7      0.00      7.42      55.7     0.48      1024.2     1.7      SE   139   4.8     SSW     192     263       -22       0.7       7.4      62.9      9.30
   01/03/2020 16:00      71.9      70.7       25     33.3      0.00      7.42      55.6     0.48      1024.2     3.0      SE   145   5.3       S     189     263        -4       1.5       7.3      62.9      9.30
   01/03/2020 15:50      72.5      71.7       25     34.6      0.00      7.42      55.5     0.48      1024.1     3.1     SSE   166   5.0      SW     216     263        16       1.8       7.1      62.8      9.30
   01/03/2020 15:40      72.9      72.3       25     35.0      0.00      7.42      55.5     0.48      1024.0     2.9       S   178   5.5       S     177     263        37       2.1       6.8      62.7      9.30
   01/03/2020 15:30      73.4      72.8       24     33.6      0.00      7.42      55.4     0.48      1023.9     3.8       S   187   6.7      SW     216     263        56       2.9       6.4      62.5      9.31
   01/03/2020 15:20      73.8      73.3       23     33.3      0.00      7.42      55.4     0.48      1023.9     3.2      SE   145   6.3     SSW     200     263        69       1.9       5.9      62.1      9.31
   01/03/2020 15:10      74.6      73.7       22     32.6      0.00      7.42      55.3     0.48      1023.8     3.1      SE   143   5.2      SE     143     263        84       1.5       5.6      61.8      9.31
   01/03/2020 15:00      75.5      74.6       21     32.3      0.00      7.42      55.3     0.48      1023.7     2.8     ESE   118   5.2     SSW     192     263       108       1.3       5.3      61.5      9.31
   01/03/2020 14:50      76.7      75.7       22     34.8      0.00      7.42      55.2     0.48      1023.7     1.9       E    88   4.4     ENE      68     263       135       0.9       5.1      61.1      9.31
   01/03/2020 14:40      77.5      75.7       23     35.4      0.00      7.42      55.1     0.48      1023.6     1.4     ESE   124   4.0      SE     127     263       158       0.7       5.0      60.7      9.31
   01/03/2020 14:30      77.3      76.0       23     36.0      0.00      7.42      55.1     0.48      1023.6     0.7     SSE   164   3.8      SE     137     263       174       0.7       4.9      60.3      9.31
   01/03/2020 14:20      77.4      75.9       23     36.1      0.00      7.42      55.0     0.48      1023.6     1.0     NNE    28   2.3     NNE      32     263       189       0.5       4.7      59.9      9.31
   01/03/2020 14:10      77.7      76.6       22     35.9      0.00      7.42      55.0     0.48      1023.6     0.6     NNW   339   1.8     NNE      14     263       203       1.0       4.7      59.4      9.31
   01/03/2020 14:00      76.6      75.5       23     35.3      0.00      7.42      55.0     0.48      1023.6     1.0     NNW   337   3.1       W     270     263       205       0.9       4.5      59.0      9.31
   01/03/2020 13:50      76.4      74.7       23     34.9      0.00      7.42      54.9     0.48      1023.6     1.1       S   178   3.5      SE     140     263       231       1.1       4.4      58.6      9.31
   01/03/2020 13:40      76.8      75.4       22     35.0      0.00      7.42      54.9     0.48      1023.6     1.2     ESE   105   3.7     ESE     113     263       236       0.9       4.2      58.1      9.31
   01/03/2020 13:30      75.8      74.6       23     34.5      0.00      7.42      54.9     0.48      1023.6     0.9     ENE    64   2.3     ENE      74     263       254       0.3       4.0      57.6      9.31
   01/03/2020 13:20      74.7      74.2       23     34.3      0.00      7.42      54.8     0.48      1023.7     1.7     NNE    15   3.6     ENE      64     263       267       0.9       4.0      57.1      9.31
   01/03/2020 13:10      75.5      74.7       22     33.9      0.00      7.42      54.8     0.48      1023.8     1.1     NNE    18   2.6     ENE      57     263       275       0.4       3.8      56.5      9.31
   01/03/2020 13:00      75.5      74.0       23     34.5      0.00      7.42      54.8     0.48      1023.8     0.8     NNW   328   2.0     WNW     300     263       287       0.9       3.8      56.0      9.31
   01/03/2020 12:50      74.3      73.7       23     33.7      0.00      7.42      54.8     0.48      1023.8     1.4       N   355   3.7     NNE      27     263       286       0.3       3.6      55.5      9.31
   01/03/2020 12:40      74.5      74.1       22     33.5      0.00      7.42      54.8     0.48      1023.9     1.1      NE    42   2.9     ESE     110     263       290       0.5       3.6      55.1      9.31
   01/03/2020 12:30      74.6      73.7       23     33.5      0.00      7.42      54.8     0.48      1024.0     1.0     ESE   106   3.5     SSW     207     263       294       0.8       3.5      54.6      9.31
   01/03/2020 12:20      74.4      73.1       23     33.5      0.00      7.42      54.8     0.48      1024.1     1.1      NE    54   2.8       E      81     263       315       0.6       3.3      54.0      9.32
   01/03/2020 12:10      74.4      72.9       23     33.2      0.00      7.42      54.7     0.47      1024.3     1.4     ENE    57   3.4       E      85     263       305       0.5       3.2      53.5      9.32
   01/03/2020 12:00      73.7      72.6       23     33.2      0.00      7.42      54.7     0.47      1024.4     0.9      NE    53   2.8     ENE      73     264       307       0.5       3.1      53.0      9.32
   01/03/2020 11:50      73.4      71.8       24     33.8      0.00      7.42      54.7     0.47      1024.4     0.9     NNE    22   2.5       E      92     264       325       0.4       3.1      52.4      9.32
   01/03/2020 11:40      72.3      71.7       24     32.9      0.00      7.42      54.7     0.47      1024.5     1.4       E    98   3.5       E      98     264       312       0.9       3.0      51.9      9.32
   01/03/2020 11:30      71.8      70.2       25     33.2      0.00      7.42      54.8     0.47      1024.7     1.1     ENE    73   2.5      NE      44     264       302       0.4       2.8      51.3      9.32
   01/03/2020 11:20      70.4      69.8       26     33.2      0.00      7.42      54.8     0.47      1024.8     1.8     ESE   115   3.7      SE     132     266       310       0.9       2.8      50.9      9.32
   01/03/2020 11:10      70.7      69.5       26     33.9      0.00      7.42      54.8     0.47      1025.0     1.4     ESE   112   3.9     ESE     102     266       282       0.9       2.6      50.3      9.32
   01/03/2020 11:00      69.5      69.1       28     34.7      0.00      7.42      54.8     0.47      1025.0     1.0     NNE    17   2.2     NNE      26     265       269       0.4       2.5      49.8      9.31
   01/03/2020 10:50      69.3      68.5       29     35.0      0.00      7.42      54.8     0.47      1025.0     1.2     NNE    11   2.8      NE      45     265       276       0.2       2.4      49.3      9.32
   01/03/2020 10:40      69.2      67.8       30     36.0      0.00      7.42      54.9     0.47      1025.1     0.6     WSW   250   2.4       S     179     266       283       0.5       2.4      48.7      9.31
   01/03/2020 10:30      68.4      66.5       32     36.9      0.00      7.42      54.9     0.48      1025.3     0.7     SSW   196   2.7     SSW     205     266       289       0.8       2.3      48.1      9.31
   01/03/2020 10:20      66.4      63.5       36     37.8      0.00      7.42      54.9     0.47      1025.4     0.2     NNW   332   1.3       N       5     266       264       0.2       2.1      47.7      9.32
   01/03/2020 10:10      63.5      62.0       40     38.1      0.00      7.42      54.9     0.48      1025.4     0.7     WNW   303   2.7     NNE      27     266       216       0.4       2.1      47.3      9.32
   01/03/2020 10:00      62.7      61.2       42     38.9      0.00      7.42      55.0     0.48      1025.5     0.5       N    11   2.2     NNE      23     266       218       0.1       2.1      47.0      9.32
   01/03/2020 09:50      61.2      60.4       44     38.8      0.00      7.42      55.0     0.48      1025.5     0.5     NNW   340   1.8     NNW     342     266       177       0.0       2.0      46.8      9.32
   01/03/2020 09:40      60.4      59.0       44     38.0      0.00      7.42      55.0     0.48      1025.5     0.4      NW   315   1.1     WNW     284     266       174       0.0       2.0      46.6      9.32
   01/03/2020 09:30      59.1      56.5       46     37.0      0.00      7.42      55.1     0.48      1025.4     0.1       N     3   1.1     NNW     348     266       180       0.0       2.0      46.4      9.32
   01/03/2020 09:20      56.5      55.5       49     36.9      0.00      7.42      55.1     0.48      1025.3     0.6       N     7   1.6       N       0     267       135       0.0       2.0      46.2      9.32
   01/03/2020 09:10      55.6      54.4       51     37.1      0.00      7.42      55.1     0.48      1025.3     0.4       N     5   1.4       N     353     267       125       0.0       2.0      46.0      9.32
   01/03/2020 09:00      54.5      53.5       52     36.6      0.00      7.42      55.1     0.48      1025.2     0.8     NNE    23   1.8     NNE      17     267       122       0.2       2.0      45.8      9.31
   01/03/2020 08:50      53.5      52.8       52     36.0      0.00      7.42      55.2     0.48      1025.0     0.4     NNE    31   1.3     NNE      28     267       104       0.0       2.0      45.6      9.32
   01/03/2020 08:40      53.1      51.0       54     36.0      0.00      7.42      55.2     0.48      1024.9     0.2     NNE    30   1.2     NNE      21     267        96       0.0       2.0      45.5      9.32
   01/03/2020 08:30      51.3      49.8       58     36.2      0.00      7.42      55.3     0.48      1024.7     0.4     NNE    27   1.4     NNE      27     268        67       0.0       2.0      45.4      9.32
   01/03/2020 08:20      50.0      46.3       62     36.0      0.00      7.42      55.3     0.48      1024.5     0.4      NE    39   1.5     NNE      23     268        85       0.0       1.9      45.1      9.32
   01/03/2020 08:10      46.3      43.8       69     35.6      0.00      7.42      55.3     0.48      1024.4     0.2       N     5   1.1       N       3     269        67       0.0       1.9      44.9      9.32
   01/03/2020 08:00      43.7      42.2       74     35.3      0.00      7.42      55.4     0.48      1024.1     0.2       S   182   1.1       S     172     270        -8       0.0       1.9      44.8      9.32
   01/03/2020 07:50      42.5      41.9       74     34.4      0.00      7.42      55.4     0.48      1023.9     0.3      SE   145   1.2      SE     145     270       -24       0.0       1.9      44.8      9.32
   01/03/2020 07:40      42.0      41.6       74     34.1      0.00      7.42      55.4     0.48      1023.7     0.0       N     9   0.9       N       8     270       -32       0.2       1.9      44.8      9.32
   01/03/2020 07:30      42.0      41.5       74     34.0      0.00      7.42      55.4     0.48      1023.5     0.2      SE   135   1.0      SE     136     271       -37       0.0       1.9      44.9      9.32
   01/03/2020 07:20      41.6      40.9       75     34.0      0.00      7.42      55.5     0.48      1023.3     0.2       S   187   0.7       S     183     270       -42       0.0       1.9      45.0      9.32
   01/03/2020 07:10      41.7      41.0       74     33.5      0.00      7.42      55.5     0.48      1023.3     0.2     SSE   153   0.9       S     170     270       -48       0.2       1.9      45.1      9.32
   01/03/2020 07:00      41.5      41.2       73     33.5      0.00      7.42      55.5     0.48      1023.1     0.2       S   189   0.9       S     186     270       -50       0.0       1.8      45.2      9.32
   01/03/2020 06:50      42.1      41.4       72     33.6      0.00      7.42      55.5     0.48      1023.0     0.0      SE   130   1.1      SE     130     270       -52       0.0       1.8      45.4      9.32
   01/03/2020 06:40      41.9      41.1       74     33.6      0.00      7.42      55.6     0.48      1022.8     0.3       S   174   1.1     SSE     152     270       -52       0.1       1.8      45.5      9.32
   01/03/2020 06:30      41.5      41.2       74     33.8      0.00      7.42      55.6     0.48      1022.7     0.4       S   189   1.2     SSW     193     270       -52       0.5       1.8      45.7      9.32
   01/03/2020 06:20      42.0      41.2       72     33.3      0.00      7.42      55.6     0.48      1022.6     0.5     SSE   159   1.5     SSW     192     270       -50       0.3       1.7      45.8      9.32
   01/03/2020 06:10      42.2      41.7       71     33.3      0.00      7.42      55.7     0.48      1022.5     0.5       S   179   1.3     SSW     205     270       -51       0.4       1.7      46.0      9.32
   01/03/2020 06:00      42.2      41.8       71     33.2      0.00      7.42      55.7     0.48      1022.3     0.4       S   179   1.7       N       2     270       -51       0.4       1.6      46.1      9.32
   01/03/2020 05:50      42.2      41.5       71     33.3      0.00      7.42      55.7     0.48      1022.2     0.5       S   172   1.3     SSE     152     270       -49       0.3       1.6      46.3      9.32
   01/03/2020 05:40      42.1      41.6       72     33.4      0.00      7.42      55.8     0.48      1022.1     0.1     SSE   161   1.1       S     182     270       -50       0.1       1.5      46.5      9.32
   01/03/2020 05:30      42.5      42.0       72     33.9      0.00      7.42      55.8     0.48      1022.1     0.0      SE   137   0.7      SE     138     270       -51       0.0       1.5      46.7      9.32
   01/03/2020 05:20      42.9      42.3       70     33.5      0.00      7.42      55.8     0.48      1022.0     0.4     SSE   157   0.9     SSE     161     270       -51       0.0       1.5      46.8      9.32
   01/03/2020 05:10      42.8      42.4       70     33.6      0.00      7.42      55.8     0.48      1022.0     0.3     SSE   166   0.9       S     171     270       -52       0.2       1.5      47.0      9.32
   01/03/2020 05:00      42.6      42.3       70     33.6      0.00      7.42      55.8     0.48      1021.9     0.2     SSE   167   1.0       S     173     270       -52       0.0       1.4      47.2      9.32
   01/03/2020 04:50      42.8      42.4       71     33.8      0.00      7.42      55.9     0.48      1021.8     0.0     SSE   153   0.6     SSE     153     270       -52       0.0       1.4      47.3      9.32
   01/03/2020 04:40      42.9      42.6       69     33.5      0.00      7.42      55.9     0.48      1021.8     0.2     SSE   155   1.4     SSE     146     270       -52       0.1       1.4      47.5      9.32
   01/03/2020 04:30      43.2      42.7       69     33.5      0.00      7.42      55.9     0.48      1021.7     0.1     SSE   150   1.3       S     174     269       -52       0.0       1.4      47.6      9.32
   01/03/2020 04:20      43.1      42.6       70     33.5      0.00      7.42      55.9     0.48      1021.6     0.3       S   181   1.6     SSW     192     269       -51       0.3       1.4      47.8      9.32
   01/03/2020 04:10      43.6      42.6       68     33.6      0.00      7.42      56.0     0.48      1021.7     0.2      SE   141   0.7      SE     141     269       -52       0.0       1.4      48.0      9.32
   01/03/2020 04:00      43.7      43.2       68     33.6      0.00      7.42      56.0     0.48      1021.5     0.3     WSW   242   1.4     WSW     251     269       -51       0.0       1.4      48.2      9.32
   01/03/2020 03:50      44.0      43.3       68     33.7      0.00      7.42      56.0     0.48      1021.5     0.1     SSW   192   0.7     SSW     193     269       -50       0.1       1.4      48.4      9.32
   01/03/2020 03:40      44.2      43.9       65     33.1      0.00      7.42      56.0     0.48      1021.5     0.2      SE   126   0.9       S     183     269       -49       0.3       1.3      48.5      9.32
   01/03/2020 03:30      44.3      43.9       66     33.6      0.00      7.42      56.0     0.48      1021.6     0.1     SSE   160   0.9     SSE     157     269       -49       0.0       1.3      48.7      9.32
   01/03/2020 03:20      44.3      43.9       67     33.7      0.00      7.42      56.1     0.48      1021.6     0.2     SSE   167   1.1     SSW     200     269       -49       0.1       1.3      48.9      9.32
   01/03/2020 03:10      44.5      44.0       65     33.4      0.00      7.42      56.1     0.48      1021.6     0.5     SSE   165   1.2     SSE     149     269       -48       0.0       1.3      49.0      9.32
   01/03/2020 03:00      44.7      44.0       66     33.4      0.00      7.42      56.1     0.48      1021.5     0.0      SE   133   0.7      SE     133     269       -49       0.0       1.3      49.2      9.32
   01/03/2020 02:50      45.0      44.5       65     33.5      0.00      7.42      56.1     0.48      1021.4     0.4     SSE   148   1.3     SSE     148     269       -51       0.3       1.3      49.3      9.32
   01/03/2020 02:40      45.2      44.7       63     33.1      0.00      7.42      56.2     0.48      1021.3     0.8     SSE   167   1.8     SSW     194     269       -52       0.6       1.2      49.5      9.32
   01/03/2020 02:30      45.1      44.8       63     33.1      0.00      7.42      56.2     0.48      1021.4     1.0     SSE   153   2.3       S     177     269       -53       0.6       1.1      49.7      9.32
   01/03/2020 02:20      44.7      44.4       65     33.6      0.00      7.42      56.2     0.48      1021.3     0.8       S   169   2.3       S     175     269       -53       0.7       1.0      49.9      9.32
   01/03/2020 02:10      44.9      44.4       64     33.3      0.00      7.42      56.2     0.48      1021.3     0.5     SSE   161   1.1     SSE     161     269       -54       0.1       0.9      50.1      9.32
   01/03/2020 02:00      45.7      44.8       62     33.2      0.00      7.42      56.3     0.48      1021.2     0.3     SSE   160   1.1      SE     146     269       -54       0.2       0.9      50.3      9.32
   01/03/2020 01:50      46.2      45.5       63     33.7      0.00      7.42      56.3     0.48      1021.1     0.0      SE   141   0.4      SE     141     269       -53       0.0       0.9      50.5      9.33
   01/03/2020 01:40      46.2      45.7       62     33.5      0.00      7.42      56.3     0.48      1021.1     0.8      SE   145   2.0      SE     144     269       -53       0.4       0.9      50.6      9.33
   01/03/2020 01:30      46.4      45.9       61     33.5      0.00      7.42      56.3     0.48      1021.0     0.6     SSE   163   1.6     SSE     168     269       -54       0.4       0.8      50.9      9.33
   01/03/2020 01:20      46.7      45.9       61     33.5      0.00      7.42      56.3     0.48      1020.9     0.4       S   189   2.1       S     176     269       -56       0.4       0.7      51.1      9.33
   01/03/2020 01:10      47.1      46.7       60     33.8      0.00      7.42      56.4     0.48      1020.7     0.9     WSW   237   1.8      SW     236     269       -55       0.6       0.7      51.3      9.33
   01/03/2020 01:00      48.4      46.9       59     33.9      0.00      7.42      56.4     0.48      1020.7     0.4       S   190   1.0     SSW     194     269       -57       0.6       0.6      51.5      9.33
   01/03/2020 00:50      49.4      47.2       55     33.2      0.00      7.42      56.4     0.48      1020.6     1.0      SE   125   3.2      SW     228     268       -57       0.6       0.5      51.6      9.33
   01/03/2020 00:40      47.2      46.1       62     34.1      0.00      7.42      56.4     0.48      1020.5     1.7       S   171   3.9      SE     137     269       -55       1.0       0.4      51.8      9.33
   01/03/2020 00:30      46.5      46.0       64     34.7      0.00      7.42      56.4     0.48      1020.5     0.7     SSE   152   1.9      SE     143     269       -53       0.3       0.2      52.0      9.33
   01/03/2020 00:20      47.2      46.4       61     34.2      0.00      7.42      56.4     0.48      1020.5     1.2       S   183   2.5     WSW     250     269       -53       0.5       0.2      52.2      9.33
   01/03/2020 00:10      47.6      46.6       61     34.3      0.00      7.42      56.5     0.48      1020.4     0.6     WSW   251   2.4     WSW     259     269       -54       0.5       0.0      52.5      9.33
   01/03/2020 00:00      48.0      47.2       60     34.3      0.00      7.42      56.5     0.48      1020.2     0.6     SSE   156   1.4     SSE     156     269       -53       0.1      28.1      52.6      9.33
   01/02/2020 23:50      48.0      47.3       60     34.5      0.00      7.42      56.5     0.48      1020.3     0.5     SSE   155   1.8      SE     142     269       -53       0.2      28.1      52.9      9.33
   01/02/2020 23:40      48.5      47.8       57     33.7      0.00      7.42      56.5     0.48      1020.3     0.4      SE   143   1.1      SE     140     268       -56       0.0      28.0      53.0      9.33
   01/02/2020 23:30      49.3      48.3       56     33.8      0.00      7.42      56.5     0.48      1020.3     0.3     SSE   158   1.3     SSE     160     268       -58       0.0      28.0      53.3      9.33
   01/02/2020 23:20      49.4      48.9       56     34.1      0.00      7.42      56.5     0.48      1020.3     0.2       S   170   0.9       S     184     268       -59       0.2      28.0      53.5      9.33
   01/02/2020 23:10      49.9      49.2       56     34.4      0.00      7.42      56.5     0.48      1020.2     0.7      SE   144   2.3      SE     141     268       -57       0.0      28.0      53.7      9.33
   01/02/2020 23:00      50.0      49.5       54     33.7      0.00      7.42      56.5     0.48      1020.0     1.1       S   182   2.2      SW     234     268       -50       0.3      28.0      53.9      9.33
   01/02/2020 22:50      50.5      49.7       54     34.0      0.00      7.42      56.5     0.48      1020.0     0.2       S   189   1.3       S     177     268       -51       0.2      27.9      54.1      9.33
   01/02/2020 22:40      51.1      50.2       52     33.7      0.00      7.42      56.5     0.48      1019.9     0.7     SSE   164   1.7      SW     215     268       -55       0.1      27.9      54.3      9.34
   01/02/2020 22:30      52.2      50.9       50     33.7      0.00      7.42      56.5     0.48      1019.9     0.8     SSE   167   1.8     SSW     209     268       -57       0.4      27.9      54.5      9.34
   01/02/2020 22:20      53.3      52.2       47     33.0      0.00      7.42      56.5     0.48      1020.0     0.6       S   189   1.6     SSW     209     267       -59       0.3      27.8      54.8      9.34
   01/02/2020 22:10      53.3      52.9       47     33.7      0.00      7.42      56.6     0.48      1019.8     0.8      SW   217   1.4       S     183     267       -57       0.2      27.8      54.9      9.34
   01/02/2020 22:00      53.1      52.6       49     34.3      0.00      7.42      56.6     0.48      1019.7     1.4     SSE   157   2.3      SE     142     267       -55       0.8      27.7      55.1      9.34
   01/02/2020 21:50      53.2      52.7       50     34.9      0.00      7.42      56.6     0.48      1019.6     1.6     SSE   150   2.7     SSE     149     268       -57       0.7      27.6      55.3      9.34
   01/02/2020 21:40      53.6      52.9       50     35.2      0.00      7.42      56.6     0.48      1019.6     1.5     SSE   149   2.8      SE     139     267       -55       0.5      27.5      55.5      9.34
   01/02/2020 21:30      53.4      53.0       51     35.4      0.00      7.42      56.6     0.48      1019.4     1.4     SSE   154   2.5      SE     144     267       -54       0.6      27.4      55.7      9.34
   01/02/2020 21:20      53.8      53.0       50     35.1      0.00      7.42      56.6     0.48      1019.4     1.5     SSE   162   3.1       S     172     267       -56       1.1      27.3      55.9      9.34
   01/02/2020 21:10      53.3      52.5       51     35.0      0.00      7.42      56.6     0.48      1019.2     1.2     SSE   160   2.2     SSE     166     267       -59       1.2      27.1      56.1      9.34
   01/02/2020 21:00      53.1      52.5       49     34.3      0.00      7.42      56.6     0.48      1019.1     2.0     SSE   148   3.2      SE     140     267       -58       0.9      26.9      56.3      9.34
   01/02/2020 20:50      52.9      52.2       49     34.1      0.00      7.42      56.6     0.48      1019.2     1.8     SSE   147   2.8      SE     139     267       -58       0.7      26.7      56.6      9.34
   01/02/2020 20:40      52.9      52.2       49     34.0      0.00      7.42      56.5     0.48      1019.1     2.2      SE   144   3.2      SE     145     267       -58       0.5      26.6      56.8      9.35
   01/02/2020 20:30      53.2      52.2       48     33.6      0.00      7.42      56.5     0.48      1019.0     1.9     SSE   148   3.2      SE     141     267       -59       0.8      26.5      57.0      9.35
   01/02/2020 20:20      53.5      52.5       48     33.7      0.00      7.42      56.5     0.48      1018.8     1.6     SSE   150   2.7      SE     141     267       -60       0.9      26.4      57.3      9.35
   01/02/2020 20:10      54.1      53.3       46     33.4      0.00      7.42      56.5     0.48      1018.8     0.9     SSE   152   2.6     SSE     160     267       -62       0.4      26.2      57.6      9.35
   01/02/2020 20:00      55.3      54.0       43     32.8      0.00      7.42      56.5     0.48      1018.6     1.2     SSE   162   3.0      SE     134     266       -64       0.7      26.2      57.8      9.35
   01/02/2020 19:50      55.7      54.7       42     32.4      0.00      7.42      56.5     0.48      1018.5     0.7       S   172   2.2       S     181     266       -65       0.3      26.1      58.0      9.35
   01/02/2020 19:40      58.4      55.0       41     33.0      0.00      7.42      56.5     0.48      1018.4     1.1     SSE   163   3.1      SE     141     266       -65       0.4      26.0      58.3      9.35
   01/02/2020 19:30      60.6      58.1       34     31.4      0.00      7.42      56.5     0.48      1018.2     1.3       S   183   3.6       W     267     266       -66       0.6      25.9      58.6      9.35
   01/02/2020 19:20      62.1      59.5       32     30.4      0.00      7.42      56.5     0.48      1018.1     1.6     SSW   199   3.5       W     261     266       -67       1.0      25.8      58.9      9.35
   01/02/2020 19:10      63.1      62.1       29     29.9      0.00      7.42      56.4     0.48      1017.9     0.3       N   350   1.3      NW     307     266       -69       0.2      25.7      59.2      9.36
   01/02/2020 19:00      63.4      62.9       28     29.9      0.00      7.42      56.4     0.48      1017.8     1.8       N     0   5.4       N     350     266       -70       0.4      25.6      59.4      9.36
   01/02/2020 18:50      63.4      63.2       28     29.9      0.00      7.42      56.4     0.48      1017.7     1.4     NNW   343   5.0     NNW     343     266       -70       0.3      25.6      59.5      9.36
   01/02/2020 18:40      63.4      62.9       29     30.3      0.00      7.42      56.4     0.48      1017.6     2.3       N     7   7.3      NE      44     266       -70       0.4      25.5      59.7      9.36
   01/02/2020 18:30      63.5      62.6       29     30.4      0.00      7.42      56.3     0.48      1017.4     2.7       N     8   5.4       N     354     266       -71       0.2      25.4      59.9      9.36
   01/02/2020 18:20      62.5      61.6       31     31.0      0.00      7.42      56.3     0.48      1017.3     1.6     NNE    12   6.0      NE      42     266       -69       0.3      25.4      60.1      9.36
   01/02/2020 18:10      62.9      61.5       31     31.4      0.00      7.42      56.3     0.48      1017.1     1.2       N     3   3.6      NE      43     266       -69       0.4      25.4      60.3      9.36
   01/02/2020 18:00      63.4      62.9       30     31.0      0.00      7.42      56.2     0.48      1017.0     1.7     NNE    17   5.0     NNE      28     266       -71       0.4      25.3      60.5      9.36
   01/02/2020 17:50      63.5      62.9       30     31.6      0.00      7.42      56.2     0.48      1017.0     1.6     NNE    23   3.7      NE      54     266       -71       0.3      25.2      60.7      9.37
   01/02/2020 17:40      64.0      63.3       30     31.4      0.00      7.42      56.1     0.48      1016.9     2.0     NNE    30   5.6       N     354     266       -71       0.4      25.2      60.9      9.37
   01/02/2020 17:30      63.9      63.4       30     32.0      0.00      7.42      56.1     0.48      1016.7     1.9     NNE    13   3.9     NNW     345     266       -72       0.2      25.1      61.1      9.37
   01/02/2020 17:20      63.7      63.4       32     33.1      0.00      7.42      56.1     0.48      1016.7     1.7       N     0   4.7      NE      41     266       -72       0.2      25.1      61.3      9.37
   01/02/2020 17:10      64.1      63.2       33     34.3      0.00      7.42      56.0     0.48      1016.6     1.6       N   355   5.0       N     353     266       -72       0.3      25.1      61.5      9.37
   01/02/2020 17:00      64.0      63.2       35     35.7      0.00      7.42      56.0     0.48      1016.5     0.6       N   358   2.9       N     354     266       -71       0.2      25.0      61.7      9.37
   01/02/2020 16:50      65.1      63.9       34     35.3      0.00      7.42      55.9     0.48      1016.5     0.6       N   349   3.1      NW     318     266       -69       0.4      25.0      61.9      9.37
   01/02/2020 16:40      66.0      65.2       32     34.6      0.00      7.42      55.9     0.48      1016.4     0.2      NE    41   1.4       N       2     266       -64       0.0      24.9      62.2      9.37
   01/02/2020 16:30      66.8      66.0       29     33.5      0.00      7.42      55.8     0.48      1016.3     1.0     NNE    16   2.6      NE      35     266       -54       0.2      24.9      62.4      9.38
   01/02/2020 16:20      67.0      66.5       28     33.0      0.00      7.42      55.8     0.48      1016.0     1.7     NNW   343   6.0     NNW     331     265       -40       0.3      24.9      62.6      9.38
   01/02/2020 16:10      67.3      66.8       28     33.2      0.00      7.42      55.7     0.48      1015.8     2.7       N   357   6.7     NNE      30     265       -22       0.5      24.8      62.7      9.38
   01/02/2020 16:00      67.4      67.1       28     33.4      0.00      7.42      55.7     0.48      1015.7     2.3       N   353   6.2      NW     322     265       -15       0.5      24.7      62.7      9.38
   01/02/2020 15:50      67.9      67.3       28     33.3      0.00      7.42      55.6     0.48      1015.6     2.6       N   360   6.1       N       0     265        -2       0.7      24.6      62.8      9.38
   01/02/2020 15:40      68.2      67.6       27     32.9      0.00      7.42      55.6     0.48      1015.6     2.5       N   350   7.0     NNW     348     264        17       0.6      24.5      62.9      9.38
   01/02/2020 15:30      68.4      68.1       27     33.1      0.00      7.42      55.5     0.48      1015.4     1.2       N     3   3.0       N     354     264        18       0.2      24.4      62.8      9.39
   01/02/2020 15:20      68.3      68.1       27     33.1      0.00      7.42      55.5     0.48      1015.3     1.4       N   359   3.9     NNE      13     264        23       0.6      24.4      62.8      9.39
   01/02/2020 15:10      68.4      68.1       27     32.8      0.00      7.42      55.5     0.48      1015.2     2.5      NW   316   7.0      NW     308     264        31       1.5      24.3      62.9      9.39
   01/02/2020 15:00      68.4      67.9       26     32.2      0.00      7.42      55.4     0.48      1015.0     3.7     NNW   340   8.5     NNW     337     264        56       1.0      24.0      62.9      9.39
   01/02/2020 14:50      68.7      68.1       26     32.1      0.00      7.42      55.3     0.48      1015.0     4.5       N     2   9.1      NE      55     264        50       1.8      23.9      62.9      9.39
   01/02/2020 14:40      69.3      68.5       26     32.2      0.00      7.42      55.3     0.48      1014.9     3.9       N   353  10.9     WSW     246     264        77       1.1      23.6      62.8      9.40
   01/02/2020 14:30      69.3      68.8       24     31.1      0.00      7.42      55.3     0.48      1014.8     4.5       N   357   9.5     NNE      19     264        82       0.9      23.4      62.7      9.40
   01/02/2020 14:20      69.6      69.2       24     31.3      0.00      7.42      55.2     0.48      1014.6     5.2       N   349  10.9       S     177     264       125       1.3      23.2      62.6      9.40
   01/02/2020 14:10      69.4      68.8       25     31.7      0.00      7.42      55.2     0.48      1014.6     4.8       N   353   9.3     NNW     339     264       160       0.9      23.0      62.4      9.40
   01/02/2020 14:00      69.4      68.8       25     31.9      0.00      7.42      55.1     0.48      1014.6     4.7       N   358  10.6     NNW     335     264       146       1.3      22.9      62.2      9.40
   01/02/2020 13:50      69.7      69.1       25     32.4      0.00      7.42      55.1     0.48      1014.5     5.2       N   356   9.8      NW     324     264       184       1.5      22.7      62.0      9.41
   01/02/2020 13:40      69.5      68.9       26     32.5      0.00      7.42      55.0     0.48      1014.6     4.5       N     7  11.5       N       2     264       206       1.8      22.4      61.7      9.41
   01/02/2020 13:30      69.3      68.6       26     32.5      0.00      7.42      55.0     0.48      1014.8     3.5       N    11   7.2      NW     310     264       203       1.6      22.1      61.5      9.41
   01/02/2020 13:20      69.0      68.7       26     32.7      0.00      7.42      55.0     0.48      1014.9     3.5       N   359   8.3     NNW     339     264       156       1.9      21.9      61.3      9.41
   01/02/2020 13:10      69.2      68.6       26     33.0      0.00      7.42      54.9     0.48      1015.1     3.1       N     2   6.6     NNE      30     264       171       1.5      21.5      61.1      9.41
   01/02/2020 13:00      68.7      68.3       27     33.3      0.00      7.42      54.9     0.48      1015.2     3.4       N     4  11.2       N     349     264       153       1.4      21.3      60.9      9.41
   01/02/2020 12:50      69.1      68.4       27     33.3      0.00      7.42      54.9     0.48      1015.2     4.2       N     2   9.7       N       4     264       146       1.2      21.1      60.6      9.41
   01/02/2020 12:40      69.5      68.7       27     33.5      0.00      7.42      54.9     0.48      1015.2     4.2       N   349   9.0      NE      44     264       227       1.3      20.9      60.2      9.42
   01/02/2020 12:30      69.6      68.7       27     33.9      0.00      7.42      54.8     0.48      1015.2     3.7     NNE    13  12.0     NNE      16     264       254       1.3      20.6      59.8      9.42
   01/02/2020 12:20      69.3      68.8       27     33.7      0.00      7.42      54.8     0.48      1015.4     4.2       N    11  12.6     NNE      20     264       246       1.5      20.4      59.4      9.42
   01/02/2020 12:10      69.6      68.7       27     34.0      0.00      7.42      54.8     0.48      1015.5     3.9     NNE    17   7.3     NNE      22     264       281       1.4      20.2      58.9      9.42
   01/02/2020 12:00      69.1      68.4       28     34.0      0.00      7.42      54.8     0.48      1015.6     4.6     NNE    14   9.0     NNE      25     264       298       1.9      19.9      58.4      9.42
   01/02/2020 11:50      69.3      68.3       29     35.2      0.00      7.42      54.8     0.48      1015.8     3.9       N     7   8.5     NNW     347     264       328       1.1      19.6      57.8      9.42
   01/02/2020 11:40      68.5      67.7       29     34.9      0.00      7.42      54.8     0.48      1016.0     3.7      NE    46   7.7      NE      34     264       315       1.3      19.4      57.4      9.42
   01/02/2020 11:30      68.0      67.7       29     34.5      0.00      7.42      54.7     0.48      1016.3     4.1     NNE    24   7.3      NE      40     265       310       1.3      19.2      56.9      9.42
   01/02/2020 11:20      68.7      67.9       29     35.2      0.00      7.42      54.7     0.48      1016.3     4.1     NNE    23   8.6      NE      46     266       302       1.4      19.0      56.4      9.42
   01/02/2020 11:10      68.5      67.5       30     35.4      0.00      7.42      54.7     0.48      1016.3     2.6       N   350   7.4       N       7     265       296       0.8      18.8      55.9      9.42
   01/02/2020 11:00      67.6      66.5       30     34.6      0.00      7.42      54.7     0.48      1016.5     2.8     NNE    12   6.0     NNE      11     265       292       1.2      18.7      55.4      9.42
   01/02/2020 10:50      66.8      66.3       30     34.2      0.00      7.42      54.7     0.48      1016.7     4.9     NNE    21   9.2     NNE      27     265       281       2.0      18.5      54.9      9.42
   01/02/2020 10:40      66.7      66.3       30     34.2      0.00      7.42      54.7     0.48      1016.9     4.5       N     5  10.5     NNW     341     265       275       0.8      18.1      54.4      9.42
   01/02/2020 10:30      67.0      66.3       30     34.0      0.00      7.42      54.7     0.48      1016.9     3.2       N     0  11.2     NNE      14     265       265       1.1      18.0      53.8      9.42
   01/02/2020 10:20      66.9      66.3       30     34.1      0.00      7.42      54.7     0.48      1016.9     2.8     NNE    14   5.1       N      11     264       254       0.9      17.8      53.4      9.42
   01/02/2020 10:10      66.6      65.5       30     33.8      0.00      7.42      54.7     0.48      1016.8     1.7     NNW   342   4.6     WSW     258     264       236       0.8      17.7      53.1      9.42
   01/02/2020 10:00      65.5      64.2       31     33.5      0.00      7.42      54.8     0.48      1016.5     1.6      NW   323   5.1       N       9     265       199       1.2      17.5      52.8      9.42
   01/02/2020 09:50      64.3      63.6       31     32.9      0.00      7.42      54.8     0.48      1016.4     4.0     WNW   301   9.6     WSW     252     265       164       2.5      17.3      52.5      9.43
   01/02/2020 09:40      64.8      63.7       31     33.3      0.00      7.42      54.8     0.48      1016.3     5.2       W   270  11.4       W     265     266       156       3.9      16.9      52.3      9.43
   01/02/2020 09:30      64.7      63.7       32     33.6      0.00      7.42      54.8     0.48      1016.5     2.4      SW   230   5.1       W     261     265       172       1.7      16.3      52.1      9.43
   01/02/2020 09:20      63.9      62.7       32     33.1      0.00      7.42      54.8     0.48      1016.5     3.0      NW   321   5.8       W     279     266       164       2.2      16.0      51.8      9.43
   01/02/2020 09:10      62.8      61.4       34     33.1      0.00      7.42      54.8     0.48      1016.3     2.9     NNW   337   8.2       N     352     266       134       1.5      15.6      51.5      9.43
   01/02/2020 09:00      61.5      61.0       35     33.1      0.00      7.42      54.8     0.48      1016.2     4.8     NNE    14   9.8     NNE      18     266        86       1.3      15.4      51.3      9.43
   01/02/2020 08:50      61.2      60.5       35     33.3      0.00      7.42      54.8     0.48      1016.2     5.5       N    10  11.2      NE      44     266        59       2.0      15.1      51.2      9.43
   01/02/2020 08:40      60.9      60.4       36     33.6      0.00      7.42      54.8     0.48      1016.0     6.0       N    10  11.4      NE      45     266        76       1.9      14.8      51.0      9.43
   01/02/2020 08:30      60.7      60.3       37     33.8      0.00      7.42      54.8     0.48      1015.8     5.4       N     6  10.8      NE      38     266        98       1.5      14.5      50.9      9.43
   01/02/2020 08:20      60.5      60.1       36     33.1      0.00      7.42      54.8     0.48      1015.7     6.9     NNE    14  13.2       N       9     266        40       1.8      14.2      50.7      9.43
   01/02/2020 08:10      60.7      60.2       35     32.5      0.00      7.42      54.8     0.48      1015.5     6.3       N    10  11.5       N      11     266         5       1.5      13.9      50.6      9.43
   01/02/2020 08:00      61.2      60.5       34     31.9      0.00      7.42      54.8     0.48      1015.4     6.4       N     5  11.7     NNW     338     266       -23       1.8      13.7      50.6      9.43
   01/02/2020 07:50      61.5      61.1       32     31.1      0.00      7.42      54.8     0.48      1015.3     6.2       N     6  13.1     NNW     345     266       -23       2.2      13.4      50.5      9.43
   01/02/2020 07:40      61.5      60.7       32     30.8      0.00      7.42      54.8     0.48      1015.4     6.8       N   358  13.9       W     265     266       -32       1.5      13.0      50.5      9.43
   01/02/2020 07:30      61.1      59.9       33     31.1      0.00      7.42      54.9     0.48      1015.6     6.3       N     1  11.1     NNE      17     266       -42       1.2      12.8      50.4      9.44
   01/02/2020 07:20      60.3      59.6       35     31.9      0.00      7.42      54.9     0.48      1015.5     4.4       N   358   8.0     NNW     345     266       -56       0.8      12.6      50.4      9.44
   01/02/2020 07:10      60.8      60.2       34     31.8      0.00      7.42      54.9     0.48      1015.3     5.0     NNW   344  10.7      NW     316     266       -65       1.4      12.4      50.5      9.44
   01/02/2020 07:00      60.9      60.3       34     31.9      0.00      7.42      54.9     0.48      1015.1     7.3       N     2  13.5     NNW     347     266       -70       1.8      12.2      50.5      9.44
   01/02/2020 06:50      61.0      60.3       34     32.0      0.00      7.42      54.9     0.48      1015.0     6.1     NNW   349  13.6       N       1     266       -73       2.0      11.9      50.5      9.44
   01/02/2020 06:40      60.9      60.3       34     32.3      0.00      7.42      54.9     0.48      1014.8     4.9       N   354  11.7      NE      35     266       -73       1.3      11.6      50.5      9.44
   01/02/2020 06:30      60.6      60.2       35     32.6      0.00      7.42      54.9     0.48      1014.6     4.3       N   350  10.5       N       7     266       -73       1.6      11.4      50.6      9.44
   01/02/2020 06:20      60.7      60.2       35     32.8      0.00      7.42      54.9     0.48      1014.4     5.2       N     5  12.4     NNE      16     266       -72       1.1      11.1      50.6      9.44
   01/02/2020 06:10      60.9      60.3       35     33.0      0.00      7.42      54.9     0.48      1014.4     5.0       N     6  12.7       N       0     267       -71       1.6      10.9      50.6      9.44
   01/02/2020 06:00      60.6      60.1       36     33.4      0.00      7.42      54.9     0.48      1014.3     4.7       N   354   9.3      NE      43     267       -68       1.2      10.6      50.7      9.44
   01/02/2020 05:50      60.3      59.8       37     34.0      0.00      7.42      54.9     0.48      1014.4     4.5       N   358  10.0       N       3     267       -68       1.2      10.4      50.6      9.44
   01/02/2020 05:40      60.3      59.5       38     34.2      0.00      7.42      55.0     0.48      1014.2     5.8       N     6  13.1       N      10     267       -68       1.5      10.2      50.7      9.44
   01/02/2020 05:30      60.2      59.5       38     34.3      0.00      7.42      55.0     0.48      1014.1     4.0       N     6   9.9     NNW     339     267       -68       0.7      10.0      50.7      9.44
   01/02/2020 05:20      61.0      60.1       37     34.0      0.00      7.42      55.0     0.48      1014.0     3.9       N   353   8.7     NNE      17     267       -68       0.8       9.9      50.8      9.44
   01/02/2020 05:10      60.9      60.6       37     34.0      0.00      7.42      55.0     0.48      1013.7     3.8     NNW   341  10.6       N     349     267       -68       1.5       9.7      50.8      9.44
   01/02/2020 05:00      61.2      60.6       36     34.0      0.00      7.42      55.0     0.48      1013.6     3.9       N   359   8.1     NNE      20     267       -67       1.0       9.5      50.9      9.44
   01/02/2020 04:50      61.0      59.3       38     34.3      0.00      7.42      55.0     0.48      1013.6     4.9       N   354  11.7       N       2     267       -65       0.9       9.3      50.9      9.45
   01/02/2020 04:40      59.7      59.0       40     35.0      0.00      7.42      55.0     0.48      1013.6     2.7     NNE    31   6.8     ENE      70     267       -66       0.5       9.2      51.0      9.45
   01/02/2020 04:30      59.2      58.5       41     35.3      0.00      7.42      55.0     0.48      1013.6     2.2     ENE    74   6.5     ENE      75     267       -66       1.4       9.1      51.0      9.45
   01/02/2020 04:20      59.5      59.1       40     35.0      0.00      7.42      55.0     0.48      1013.3     2.9     SSE   148   6.0       S     180     267       -68       2.0       8.8      51.1      9.45
   01/02/2020 04:10      60.8      59.4       38     34.7      0.00      7.42      55.0     0.48      1013.3     6.5       S   188  12.4     SSW     192     267       -69       4.7       8.5      51.1      9.45
   01/02/2020 04:00      61.6      60.3       37     34.4      0.00      7.42      55.1     0.48      1013.5     5.2       S   186  10.6     SSW     210     267       -68       3.9       7.7      51.2      9.45
   01/02/2020 03:50      62.4      61.6       35     33.7      0.00      7.42      55.1     0.48      1013.6     3.0     ESE   113   7.1      NE      51     267       -69       1.7       7.1      51.2      9.45
   01/02/2020 03:40      62.4      62.0       33     33.0      0.00      7.42      55.1     0.48      1013.4     5.0     NNE    12  14.1       N       2     267       -72       2.4       6.8      51.2      9.45
   01/02/2020 03:30      62.3      61.3       34     33.0      0.00      7.42      55.1     0.48      1013.3     5.3     NNW   334  14.5     NNW     330     267       -71       2.8       6.4      51.1      9.45
   01/02/2020 03:20      61.4      61.0       36     34.2      0.00      7.42      55.1     0.48      1013.4     3.2     WNW   301   8.4     WNW     294     267       -68       2.4       5.9      51.1      9.45
   01/02/2020 03:10      61.4      60.9       36     34.4      0.00      7.42      55.1     0.48      1013.4     3.9     WNW   295   8.7       W     279     267       -66       2.5       5.5      51.1      9.45
   01/02/2020 03:00      61.0      58.4       38     34.5      0.00      7.42      55.1     0.48      1013.5     3.5      NW   319   8.6       W     278     268       -63       1.8       5.1      51.0      9.45
   01/02/2020 02:50      58.4      53.0       47     35.2      0.00      7.42      55.1     0.48      1013.7     2.3       N     8  11.4     NNE      19     268       -62       1.0       4.8      51.0      9.45
   01/02/2020 02:40      55.2      52.6       52     36.2      0.00      7.42      55.1     0.48      1013.6     2.0      SW   223   4.9      SE     134     268       -62       0.9       4.7      51.3      9.45
   01/02/2020 02:30      59.1      55.4       45     36.0      0.00      7.42      55.1     0.48      1013.5     0.8      SE   145   2.5     SSW     195     268       -65       0.7       4.5      51.6      9.45
   01/02/2020 02:20      60.2      59.0       40     35.0      0.00      7.42      55.2     0.48      1013.4     3.7     SSW   205   7.7     SSW     202     267       -66       2.5       4.4      51.7      9.46
   01/02/2020 02:10      60.1      58.6       42     35.7      0.00      7.42      55.2     0.48      1013.4     3.1       S   187   5.7       S     184     268       -66       2.1       4.0      51.9      9.46
   01/02/2020 02:00      60.0      58.8       41     35.9      0.00      7.42      55.2     0.48      1013.3     3.3       S   189   5.8     SSW     198     267       -69       2.3       3.6      52.0      9.46
   01/02/2020 01:50      63.3      59.7       37     35.5      0.00      7.42      55.2     0.48      1013.3     3.3     SSE   168   7.9      SE     135     267       -71       2.2       3.2      52.1      9.46
   01/02/2020 01:40      63.6      63.2       33     33.9      0.00      7.42      55.2     0.48      1013.3     2.1     NNW   329   7.1     ENE      66     267       -71       1.6       2.9      52.1      9.46
   01/02/2020 01:30      63.4      62.1       34     34.0      0.00      7.42      55.2     0.48      1013.1     3.3       N   356   8.5     NNE      21     267       -70       1.8       2.6      52.1      9.46
   01/02/2020 01:20      62.1      55.1       40     35.6      0.00      7.42      55.2     0.48      1013.0     4.4       N     7  12.6     ESE     119     268       -67       2.8       2.3      52.0      9.46
   01/02/2020 01:10      56.7      55.1       55     40.0      0.00      7.42      55.2     0.48      1013.1     3.0      NE    38   7.8     ESE     104     269       -68       1.3       1.8      52.0      9.46
   01/02/2020 01:00      56.2      54.0       57     40.4      0.00      7.42      55.2     0.48      1012.9     4.1      SE   144  10.8     SSE     163     269       -67       2.6       1.6      52.1      9.46
   01/02/2020 00:50      54.2      53.1       64     41.7      0.00      7.42      55.2     0.48      1013.2     3.3       S   183   6.4       W     260     270       -66       2.0       1.2      52.2      9.46
   01/02/2020 00:40      53.7      52.2       67     42.4      0.00      7.42      55.2     0.48      1013.2     2.0     ESE   115   6.6      SE     144     270       -65       1.1       0.9      52.3      9.46
   01/02/2020 00:30      52.2      50.8       76     44.0      0.00      7.42      55.2     0.48      1013.2     2.1      SE   143   6.4      SE     128     270       -67       1.3       0.7      52.4      9.46
   01/02/2020 00:20      53.5      51.3       75     44.5      0.00      7.42      55.2     0.48      1013.2     2.1      SE   138   4.7      SE     133     270       -69       1.2       0.5      52.6      9.46
   01/02/2020 00:10      57.1      53.5       59     41.4      0.00      7.42      55.2     0.48      1013.4     2.8     ENE    63   6.4       N       8     269       -65       1.6       0.3      52.7      9.46
   01/02/2020 00:00      53.2      50.6       77     44.1      0.00      7.42      55.2     0.48      1013.8     1.0     NNE    12   7.1       N     351     270       -63       0.4      17.1      52.8      9.46
   01/01/2020 23:50      51.0      50.5       78     44.3      0.00      7.42      55.2     0.48      1014.1     1.1       N    11   3.2     NNE      14     270       -65       0.3      17.0      52.9      9.46
   01/01/2020 23:40      51.9      50.3       73     42.8      0.00      7.42      55.3     0.48      1014.0     0.8     NNE    26   2.4       W     277     270       -65       0.7      16.9      53.1      9.46
   01/01/2020 23:30      52.9      51.9       70     43.1      0.00      7.42      55.3     0.48      1014.0     0.2      NE    45   1.1      NE      55     269       -66       0.0      16.8      53.4      9.46
   01/01/2020 23:20      54.3      52.7       67     42.7      0.00      7.42      55.3     0.48      1014.1     0.7     NNW   337   2.8      SE     127     269       -68       0.6      16.8      53.6      9.46
   01/01/2020 23:10      56.8      54.3       62     42.5      0.00      7.42      55.3     0.48      1013.9     1.5       E    79   4.8     ENE      73     268       -69       0.5      16.7      53.9      9.46
   01/01/2020 23:00      60.0      57.0       50     40.5      0.00      7.42      55.2     0.48      1013.8     2.7     ENE    63   7.1      SE     128     268       -66       1.2      16.6      54.0      9.46
   01/01/2020 22:50      61.1      59.9       46     39.9      0.00      7.42      55.2     0.48      1013.7     2.6       N     2   5.7       N       3     268       -63       0.5      16.4      54.1      9.46
   01/01/2020 22:40      61.5      60.8       45     39.9      0.00      7.42      55.2     0.48      1013.7     3.4       N     5   8.0     NNE      19     268       -63       0.6      16.4      54.1      9.46
   01/01/2020 22:30      60.6      55.4       51     40.2      0.00      7.42      55.2     0.48      1013.9     3.8       N   353   8.5       N     353     268       -59       0.9      16.3      54.0      9.46
   01/01/2020 22:20      55.4      52.7       61     40.2      0.00      7.42      55.2     0.48      1013.9     2.4     NNW   330   5.3       N     350     268       -59       0.9      16.1      54.1      9.46
   01/01/2020 22:10      53.0      51.8       62     40.0      0.00      7.42      55.2     0.48      1013.9     2.5     WNW   299   4.4     WNW     293     268       -60       1.3      15.9      54.2      9.46
   01/01/2020 22:00      51.9      51.6       62     39.2      0.00      7.42      55.2     0.48      1014.0     1.0       N    10   3.1      NE      42     268       -59       0.3      15.7      54.4      9.46
   01/01/2020 21:50      52.5      51.4       62     39.1      0.00      7.42      55.2     0.48      1014.0     1.7      SW   216   3.8     WSW     243     268       -57       1.1      15.7      54.6      9.47
   01/01/2020 21:40      53.6      52.4       58     38.8      0.00      7.42      55.2     0.48      1013.9     1.2     NNE    32   3.7     WSW     242     268       -54       0.6      15.5      54.8      9.47
   01/01/2020 21:30      53.2      52.2       59     38.9      0.00      7.42      55.2     0.48      1014.0     2.0     SSW   204   4.1     WNW     283     268       -49       1.2      15.4      54.9      9.47
   01/01/2020 21:20      52.2      51.8       62     39.3      0.00      7.42      55.2     0.48      1014.1     1.2     SSW   204   5.5      NW     306     268       -44       0.9      15.2      55.0      9.47
   01/01/2020 21:10      52.1      51.5       63     39.4      0.00      7.42      55.1     0.48      1014.0     1.0     SSW   197   2.2     WNW     298     268       -44       0.4      15.1      55.2      9.47
   01/01/2020 21:00      52.4      51.6       62     39.4      0.00      7.42      55.1     0.48      1013.8     1.7       S   187   3.7      SE     138     268       -47       0.7      15.0      55.3      9.47
   01/01/2020 20:50      52.1      51.6       63     39.5      0.00      7.42      55.1     0.48      1013.9     1.3     SSW   201   2.8     WSW     244     268       -42       1.0      14.9      55.5      9.47
   01/01/2020 20:40      52.2      51.4       62     39.5      0.00      7.42      55.1     0.48      1013.8     1.7      SW   223   3.9     SSW     197     268       -37       0.7      14.7      55.7      9.47
   01/01/2020 20:30      52.5      51.8       62     39.6      0.00      7.42      55.1     0.48      1013.8     0.8       S   173   2.5     SSW     209     268       -37       0.6      14.6      55.9      9.47
   01/01/2020 20:20      53.5      52.4       60     39.6      0.00      7.42      55.0     0.48      1013.7     1.0     ENE    77   2.5      SE     144     268       -46       0.2      14.5      56.0      9.47
   01/01/2020 20:10      54.2      53.4       58     39.2      0.00      7.42      55.0     0.48      1013.4     1.0       S   179   1.8       S     191     268       -45       0.7      14.4      56.2      9.47
   01/01/2020 20:00      54.3      53.5       59     39.6      0.00      7.42      55.0     0.48      1013.7     1.8     SSW   211   3.7     WSW     240     268       -41       1.2      14.3      56.4      9.47
   01/01/2020 19:50      54.9      54.0       58     40.0      0.00      7.42      55.0     0.48      1013.8     1.0      NE    47   2.3       N       0     268       -47       0.3      14.1      56.5      9.47
   01/01/2020 19:40      54.9      54.6       57     39.9      0.00      7.42      54.9     0.48      1013.8     0.7       S   188   1.9       S     189     268       -47       0.4      14.1      56.7      9.48
   01/01/2020 19:30      56.0      54.6       58     40.7      0.00      7.42      54.9     0.48      1013.8     1.1     SSE   163   2.0     SSE     148     268       -46       0.9      14.0      56.9      9.48
   01/01/2020 19:20      56.5      55.9       56     40.6      0.00      7.42      54.9     0.48      1014.0     0.8     SSE   153   2.9     SSW     192     267       -42       0.5      13.9      57.1      9.48
   01/01/2020 19:10      56.6      56.2       56     40.8      0.00      7.42      54.8     0.48      1014.1     2.0     SSW   198   3.9     WSW     237     268       -48       1.3      13.8      57.2      9.48
   01/01/2020 19:00      56.9      56.5       55     40.7      0.00      7.42      54.8     0.48      1014.1     2.6     SSW   209   4.7      SW     231     267       -51       1.6      13.6      57.4      9.48
   01/01/2020 18:50      57.2      56.6       54     40.5      0.00      7.42      54.8     0.48      1014.2     2.1     SSW   194   3.8       S     185     267       -53       1.4      13.3      57.5      9.48
   01/01/2020 18:40      57.9      57.2       52     40.4      0.00      7.42      54.7     0.48      1014.2     1.4     WSW   242   3.9     SSW     192     267       -56       1.0      13.1      57.8      9.48
   01/01/2020 18:30      58.0      57.5       51     40.0      0.00      7.42      54.7     0.48      1014.2     3.2     WSW   245   6.3     WSW     237     267       -54       2.0      12.9      57.9      9.48
   01/01/2020 18:20      58.3      57.8       50     39.6      0.00      7.42      54.6     0.48      1014.2     2.0      SW   221   4.5      SW     216     267       -59       1.2      12.6      58.1      9.48
   01/01/2020 18:10      58.8      58.3       48     39.0      0.00      7.42      54.6     0.48      1014.1     2.1      SW   228   3.9     WSW     245     266       -57       1.5      12.4      58.3      9.48
   01/01/2020 18:00      59.1      58.5       48     39.1      0.00      7.42      54.5     0.48      1014.1     3.5      SW   231   5.2      SW     228     267       -53       2.3      12.1      58.5      9.48
   01/01/2020 17:50      59.9      59.1       48     39.5      0.00      7.42      54.5     0.48      1014.2     2.9     WSW   237   5.9     WSW     247     266       -58       1.8      11.7      58.6      9.49
   01/01/2020 17:40      60.5      59.8       47     39.8      0.00      7.42      54.4     0.48      1014.3     2.6      SW   231   6.0      SW     235     266       -62       1.7      11.4      58.8      9.49
   01/01/2020 17:30      61.3      60.3       45     39.5      0.00      7.42      54.4     0.48      1014.4     2.7      SW   228   5.0     WSW     251     266       -58       1.7      11.2      59.0      9.49
   01/01/2020 17:20      62.1      61.1       43     39.1      0.00      7.42      54.3     0.48      1014.2     2.7      SW   233   7.5      SW     234     266       -61       1.8      10.9      59.2      9.49
   01/01/2020 17:10      62.6      61.9       42     38.8      0.00      7.42      54.2     0.48      1014.2     4.5      SW   234   6.9       W     270     266       -53       3.1      10.6      59.4      9.49
   01/01/2020 17:00      63.1      62.5       42     39.1      0.00      7.42      54.2     0.48      1014.2     3.2     WSW   244   6.0      SW     235     266       -43       2.3      10.1      59.6      9.49
   01/01/2020 16:50      63.5      63.0       42     39.9      0.00      7.42      54.1     0.48      1014.3     2.9      SW   231   5.5      SW     227     266       -46       1.9       9.7      59.7      9.50
   01/01/2020 16:40      64.4      63.4       41     40.1      0.00      7.42      54.1     0.48      1014.3     3.4     SSW   214   6.1     SSW     209     266       -50       2.4       9.4      59.8      9.50
   01/01/2020 16:30      66.4      64.3       39     39.6      0.00      7.42      54.0     0.48      1014.5     3.8     SSW   213   5.5     SSW     197     266       -31       2.6       8.9      59.8      9.50
   01/01/2020 16:20      68.1      66.4       33     36.8      0.00      7.42      54.0     0.48      1014.8     2.9     WSW   250   5.6       W     260     264       -21       2.1       8.5      59.9      9.50
   01/01/2020 16:10      69.0      67.9       26     32.1      0.00      7.42      53.9     0.48      1014.9     2.4       W   272   5.4     WSW     247     264        14       1.9       8.2      59.8      9.50
   01/01/2020 16:00      69.3      68.6       25     31.9      0.00      7.42      53.8     0.48      1014.9     1.9     WSW   249   3.8     WSW     245     264        56       1.3       7.8      59.8      9.51
   01/01/2020 15:50      69.2      68.6       26     32.2      0.00      7.42      53.8     0.48      1014.9     1.5     WSW   252   4.1     WNW     303     264        67       0.8       7.6      59.5      9.51
   01/01/2020 15:40      69.7      68.6       25     32.1      0.00      7.42      53.7     0.48      1014.8     1.6     WNW   301   3.3     WNW     297     264        43       0.9       7.5      59.3      9.51
   01/01/2020 15:30      69.6      69.0       25     31.5      0.00      7.42      53.7     0.48      1014.5     0.8     WSW   246   2.1     WNW     282     263        53       0.8       7.3      59.1      9.51
   01/01/2020 15:20      69.3      68.5       25     31.6      0.00      7.42      53.6     0.48      1014.6     1.1     WNW   287   2.7     NNW     326     263        75       0.8       7.2      58.9      9.51
   01/01/2020 15:10      70.4      68.4       24     31.4      0.00      7.42      53.6     0.48      1014.5     2.4     WSW   236   4.5      SW     220     264        98       1.8       7.1      58.6      9.51
   01/01/2020 15:00      70.6      69.6       24     31.4      0.00      7.42      53.5     0.48      1014.8     0.8       W   278   3.0       W     262     263       117       0.5       6.8      58.4      9.51
   01/01/2020 14:50      69.5      68.3       25     31.2      0.00      7.42      53.5     0.47      1014.8     1.5     WSW   242   5.4     WNW     283     263       143       1.3       6.7      58.1      9.51
   01/01/2020 14:40      69.3      68.3       25     31.3      0.00      7.42      53.4     0.48      1014.9     1.1       S   182   3.6       W     264     263       155       1.2       6.5      57.8      9.51
   01/01/2020 14:30      69.4      68.7       24     31.0      0.00      7.42      53.4     0.47      1014.8     1.0       S   180   3.5       S     183     263       169       1.0       6.3      57.4      9.52
   01/01/2020 14:20      69.4      68.2       25     32.0      0.00      7.42      53.3     0.47      1015.1     1.2      NW   323   3.0     NNE      20     263       186       0.7       6.1      57.0      9.52
   01/01/2020 14:10      69.2      68.3       26     32.3      0.00      7.42      53.3     0.47      1015.3     1.3     WNW   302   4.2     WSW     246     263       202       1.0       6.0      56.6      9.52
   01/01/2020 14:00      69.2      67.6       27     33.6      0.00      7.42      53.3     0.47      1015.0     1.4      SW   216   4.0     WSW     255     263       208       1.2       5.8      56.2      9.52
   01/01/2020 13:50      68.2      67.6       28     33.9      0.00      7.42      53.2     0.47      1015.6     1.9     WSW   248   3.7     WNW     300     263       244       1.7       5.6      55.8      9.52
   01/01/2020 13:40      68.3      66.9       29     34.3      0.00      7.42      53.2     0.47      1016.1     1.3     NNW   337   4.3     WNW     286     263       235       0.7       5.3      55.4      9.52
   01/01/2020 13:30      67.7      66.7       29     33.8      0.00      7.42      53.2     0.47      1016.1     2.6     NNE    21   5.2       N       6     264       249       1.0       5.2      55.0      9.52
   01/01/2020 13:20      68.0      67.2       29     34.6      0.00      7.42      53.1     0.47      1016.1     1.9     NNW   328   5.0      NW     321     263       260       1.0       5.0      54.5      9.52
   01/01/2020 13:10      67.9      67.1       29     34.1      0.00      7.42      53.1     0.47      1015.6     1.0     NNW   343   3.3      NW     305     264       270       0.7       4.9      54.0      9.52
   01/01/2020 13:00      67.5      67.1       29     33.8      0.00      7.42      53.1     0.47      1015.6     1.1      NW   318   2.8       W     264     264       279       0.9       4.8      53.5      9.52
   01/01/2020 12:50      68.2      67.2       29     34.0      0.00      7.42      53.1     0.47      1015.8     1.2     NNW   340   3.2     NNE      29     264       286       0.8       4.6      53.1      9.52
   01/01/2020 12:40      67.6      66.2       30     34.3      0.00      7.42      53.0     0.47      1016.2     1.2      NW   312   3.1     WSW     246     264       296       1.3       4.5      52.6      9.52
   01/01/2020 12:30      67.3      66.3       30     34.6      0.00      7.42      53.0     0.47      1016.4     1.3     NNW   337   3.5     WNW     301     264       300       0.7       4.2      52.1      9.52
   01/01/2020 12:20      67.3      65.7       30     34.1      0.00      7.42      53.0     0.47      1016.5     0.9      NW   313   2.9     WNW     282     264       306       0.8       4.1      51.7      9.52
   01/01/2020 12:10      66.5      65.3       30     33.5      0.00      7.42      53.0     0.47      1016.8     0.7     WSW   246   2.3     WSW     240     264       310       0.8       4.0      51.2      9.52
   01/01/2020 12:00      65.3      64.3       31     33.4      0.00      7.42      53.0     0.47      1017.3     1.0       E    85   2.4       E      88     265       311       0.9       3.9      50.7      9.52
   01/01/2020 11:50      64.8      64.2       31     33.4      0.00      7.42      53.0     0.47      1017.7     1.5      NE    41   2.3     ENE      79     265       312       0.6       3.7      50.2      9.52
   01/01/2020 11:40      64.6      63.6       31     32.7      0.00      7.42      53.0     0.47      1018.1     1.3     ENE    62   3.3       E      86     265       310       0.8       3.6      49.7      9.52
   01/01/2020 11:30      64.3      63.1       31     32.1      0.00      7.42      53.0     0.47      1018.2     0.8     ESE   113   2.0      SE     132     265       308       0.7       3.5      49.2      9.52
   01/01/2020 11:20      64.0      63.1       31     32.0      0.00      7.42      53.0     0.47      1018.5     1.1      NW   323   3.0     WSW     256     266       303       1.0       3.4      48.8      9.52
   01/01/2020 11:10      63.6      62.5       30     31.5      0.00      7.42      53.1     0.47      1018.6     0.8       E    93   2.3     ESE     113     266       299       0.7       3.2      48.3      9.52
   01/01/2020 11:00      63.7      62.3       30     31.5      0.00      7.42      53.1     0.47      1018.9     0.9      NE    49   2.3      NE      52     265       295       0.5       3.1      47.8      9.52
   01/01/2020 10:50      62.2      60.3       32     31.2      0.00      7.42      53.1     0.47      1019.1     0.4     NNW   334   1.1       W     280     266       291       0.3       3.0      47.3      9.52
   01/01/2020 10:40      60.3      59.4       33     30.8      0.00      7.42      53.1     0.47      1019.2     1.1       N     2   2.7      NE      36     266       201       0.2       3.0      46.8      9.52
   01/01/2020 10:30      60.0      59.5       34     31.0      0.00      7.42      53.1     0.47      1019.4     0.9       N   353   3.0       N       2     266       213       0.4       2.9      46.5      9.52
   01/01/2020 10:20      60.4      59.5       34     31.4      0.00      7.42      53.2     0.47      1019.4     0.8       N   355   2.7     NNE      26     266       230       0.6       2.9      46.0      9.52
   01/01/2020 10:10      59.5      58.6       34     30.8      0.00      7.42      53.2     0.47      1019.5     0.8     NNE    30   2.9       E      95     266       181       0.3       2.8      45.7      9.52
   01/01/2020 10:00      59.3      58.6       36     31.9      0.00      7.42      53.2     0.47      1019.7     0.8       N   356   2.9     NNE      31     266       261       0.3       2.7      45.3      9.52
   01/01/2020 09:50      58.8      57.5       38     32.5      0.00      7.42      53.3     0.47      1019.9     0.7     NNE    29   1.9       E      88     266       200       0.3       2.7      45.0      9.52
   01/01/2020 09:40      58.1      57.2       38     32.5      0.00      7.42      53.3     0.47      1019.9     0.8     NNE    22   2.5      NE      35     266       199       0.2       2.6      44.8      9.53
   01/01/2020 09:30      57.3      55.9       41     33.2      0.00      7.42      53.3     0.47      1019.9     0.4     NNW   331   1.6       N       0     266       200       0.2       2.6      44.6      9.53
   01/01/2020 09:20      56.2      55.7       43     33.9      0.00      7.42      53.4     0.47      1019.9     0.6       N   355   1.6     NNW     346     266       170       0.0       2.5      44.4      9.52
   01/01/2020 09:10      56.2      54.9       44     33.6      0.00      7.42      53.4     0.47      1020.0     0.0       N   357   1.0       N     350     266       149       0.0       2.5      44.1      9.52
   01/01/2020 09:00      54.9      53.1       45     33.3      0.00      7.42      53.4     0.47      1020.1     0.0     WNW   299   0.6       N     353     266       132       0.0       2.5      43.9      9.52
   01/01/2020 08:50      53.1      51.3       47     32.4      0.00      7.42      53.5     0.47      1020.0     0.5     ESE   120   2.0      SE     134     267        95       0.2       2.5      43.8      9.53
   01/01/2020 08:40      51.3      49.6       49     31.9      0.00      7.42      53.5     0.47      1020.1     1.7     SSE   168   4.1      SE     133     267        95       0.9       2.5      43.6      9.52
   01/01/2020 08:30      49.7      47.7       52     31.8      0.00      7.42      53.5     0.47      1020.0     2.5      SW   225   4.0     SSW     202     268        78       1.8       2.3      43.4      9.53
   01/01/2020 08:20      47.8      44.6       59     33.0      0.00      7.42      53.5     0.47      1019.9     1.7       W   274   4.0     WNW     292     268        80       0.9       2.0      43.2      9.53
   01/01/2020 08:10      44.6      41.7       68     33.3      0.00      7.42      53.6     0.47      1019.2     0.5     NNE    17   2.4      NW     312     269        73       0.0       1.9      42.9      9.53
   01/01/2020 08:00      41.9      39.9       73     33.0      0.00      7.42      53.6     0.47      1019.2     0.9      SW   229   2.5     WNW     282     270        -8       0.2       1.9      42.8      9.53
   01/01/2020 07:50      40.1      39.3       75     32.3      0.00      7.42      53.6     0.47      1019.0     0.5     SSE   157   1.4      SE     130     270       -23       0.0       1.8      42.8      9.53
   01/01/2020 07:40      39.5      38.7       75     31.9      0.00      7.42      53.6     0.47      1018.8     0.0     SSE   155   0.4     SSE     155     271       -33       0.0       1.8      42.8      9.53
   01/01/2020 07:30      39.1      38.4       76     31.8      0.00      7.42      53.7     0.47      1018.6     0.3      SE   141   1.6     WNW     301     271       -42       0.0       1.8      42.8      9.53
   01/01/2020 07:20      38.7      38.3       77     31.7      0.00      7.42      53.7     0.47      1018.3     0.3     SSW   201   1.9     WNW     303     271       -45       0.1       1.8      42.9      9.53
   01/01/2020 07:10      38.4      38.0       77     31.8      0.00      7.42      53.7     0.47      1018.5     1.1      SE   140   1.8      SE     144     271       -50       0.2       1.8      43.0      9.53
   01/01/2020 07:00      38.7      38.0       76     31.5      0.00      7.42      53.8     0.47      1019.0     1.0     SSE   152   2.3      SE     141     271       -53       0.6       1.8      43.2      9.53
   01/01/2020 06:50      38.9      38.4       75     31.5      0.00      7.42      53.8     0.47      1019.2     1.0     SSW   208   1.7      SE     141     271       -52       0.2       1.7      43.4      9.53
   01/01/2020 06:40      38.7      38.0       77     31.7      0.00      7.42      53.8     0.47      1019.3     0.0       S   183   0.3       S     183     270       -52       0.0       1.7      43.6      9.53
   01/01/2020 06:30      38.7      38.0       76     31.5      0.00      7.42      53.8     0.47      1019.3     0.2      NW   322   1.3      NW     315     271       -53       0.0       1.7      43.7      9.53
   01/01/2020 06:20      39.1      38.3       75     31.4      0.00      7.42      53.9     0.47      1019.3     0.5      SE   135   1.2      SE     138     271       -54       0.0       1.7      43.9      9.53
   01/01/2020 06:10      39.5      38.9       72     31.1      0.00      7.42      53.9     0.47      1019.2     0.2     SSE   154   0.9     SSE     157     270       -55       0.0       1.7      44.1      9.53
   01/01/2020 06:00      39.6      39.3       72     31.1      0.00      7.42      53.9     0.47      1019.1     0.1      SE   128   0.9      SE     134     270       -55       0.0       1.7      44.2      9.53
   01/01/2020 05:50      39.6      39.3       73     31.3      0.00      7.42      53.9     0.47      1019.0     0.1     WSW   237   0.7      SW     229     270       -55       0.0       1.6      44.4      9.53
   01/01/2020 05:40      39.5      39.1       73     31.5      0.00      7.42      54.0     0.47      1019.0     0.2     SSE   153   0.8     SSE     150     270       -55       0.0       1.6      44.5      9.53
   01/01/2020 05:30      39.6      39.2       73     31.6      0.00      7.42      54.0     0.47      1019.0     0.4      SE   140   1.6      SE     141     270       -56       0.0       1.6      44.7      9.53
   01/01/2020 05:20      40.1      39.5       72     31.5      0.00      7.42      54.0     0.47      1019.3     0.9     SSE   166   2.9      SE     139     270       -56       0.3       1.6      44.9      9.53
   01/01/2020 05:10      40.7      40.0       71     31.5      0.00      7.42      54.0     0.48      1019.2     0.7     ENE    71   1.7      SE     139     270       -57       0.2       1.6      45.1      9.53
   01/01/2020 05:00      40.6      39.8       72     31.7      0.00      7.42      54.1     0.48      1019.2     1.4      SW   223   2.8     WSW     257     270       -57       0.7       1.6      45.3      9.53
   01/01/2020 04:50      41.2      40.1       70     31.6      0.00      7.42      54.1     0.47      1019.0     0.0      NE    50   0.1      NE      50     270       -58       0.0       1.4      45.5      9.53
   01/01/2020 04:40      41.0      40.7       70     31.8      0.00      7.42      54.1     0.48      1019.0     0.6      SE   144   1.1      SE     129     269       -57       0.2       1.4      45.7      9.53
   01/01/2020 04:30      41.6      40.8       68     31.5      0.00      7.42      54.1     0.48      1018.9     0.7     SSE   158   1.6      SE     139     269       -56       0.0       1.4      45.9      9.53
   01/01/2020 04:20      42.1      41.5       66     31.3      0.00      7.42      54.2     0.48      1018.8     0.9       S   182   1.8      SE     140     269       -54       0.0       1.4      46.1      9.53
   01/01/2020 04:10      42.5      41.7       66     31.3      0.00      7.42      54.2     0.48      1018.6     0.5     SSE   160   1.4      SE     135     269       -52       0.2       1.4      46.2      9.53
   01/01/2020 04:00      42.9      42.3       64     31.4      0.00      7.42      54.2     0.48      1018.7     0.5     NNE    13   2.3     NNW     342     269       -48       0.1       1.4      46.4      9.53
   01/01/2020 03:50      42.8      42.3       64     31.0      0.00      7.42      54.2     0.48      1018.6     0.3     NNW   333   1.7       N       1     269       -45       0.0       1.3      46.5      9.53
   01/01/2020 03:40      43.3      42.6       62     30.7      0.00      7.42      54.3     0.48      1018.8     0.4      SE   144   1.4     SSE     153     269       -47       0.2       1.3      46.6      9.53
   01/01/2020 03:30      43.7      43.1       61     30.7      0.00      7.42      54.3     0.48      1018.9     0.5       S   170   1.5       S     173     269       -51       0.2       1.3      46.7      9.53
   01/01/2020 03:20      43.8      43.3       60     30.8      0.00      7.42      54.3     0.48      1019.3     0.9       N     2   2.5     NNE      13     269       -51       0.3       1.3      46.8      9.53
   01/01/2020 03:10      43.8      42.6       61     30.8      0.00      7.42      54.3     0.48      1019.3     1.5      SE   127   3.6     SSE     154     269       -52       0.5       1.2      47.0      9.53
   01/01/2020 03:00      43.3      42.3       62     30.8      0.00      7.42      54.3     0.48      1019.5     2.2     SSE   149   4.0      SE     141     269       -56       0.8       1.1      47.1      9.54
   01/01/2020 02:50      43.3      43.0       61     30.6      0.00      7.42      54.4     0.48      1019.5     0.6       S   178   3.3       S     179     269       -58       0.4       1.0      47.4      9.54
   01/01/2020 02:40      43.4      43.0       61     30.8      0.00      7.42      54.4     0.48      1019.4     0.5     WSW   250   1.3       E      83     269       -58       0.0       0.9      47.5      9.54
   01/01/2020 02:30      43.3      42.7       62     30.8      0.00      7.42      54.4     0.48      1019.3     1.1     SSE   152   2.2      SE     144     269       -57       0.4       0.9      47.7      9.54
   01/01/2020 02:20      43.2      42.6       61     30.2      0.00      7.42      54.4     0.48      1019.6     1.7     SSE   161   3.2      SE     144     269       -55       0.7       0.9      47.9      9.54
   01/01/2020 02:10      43.1      42.5       62     30.5      0.00      7.42      54.4     0.48      1019.8     0.7     SSW   194   2.0       E      83     269       -57       0.5       0.7      48.1      9.54
   01/01/2020 02:00      43.7      42.9       60     30.4      0.00      7.42      54.4     0.48      1019.9     0.6     SSE   152   1.7      SE     130     269       -58       0.7       0.7      48.3      9.54
   01/01/2020 01:50      44.2      43.5       59     30.6      0.00      7.42      54.5     0.48      1019.7     0.6      NE    43   1.6     NNE      18     269       -59       0.4       0.5      48.5      9.54
   01/01/2020 01:40      44.5      43.8       58     30.2      0.00      7.42      54.5     0.48      1019.3     0.9      SE   131   1.8       S     169     269       -59       0.2       0.5      48.7      9.54
   01/01/2020 01:30      44.8      43.9       58     30.3      0.00      7.42      54.5     0.48      1019.3     0.8     SSE   147   1.6      SE     137     269       -59       0.2       0.5      48.9      9.54
   01/01/2020 01:20      45.1      44.4       56     29.8      0.00      7.42      54.5     0.48      1019.4     0.4     ENE    77   1.8       N       0     268       -60       0.1       0.4      49.0      9.54
   01/01/2020 01:10      44.8      44.3       57     30.3      0.00      7.42      54.5     0.48      1019.3     0.9     SSE   148   1.7     SSE     160     268       -60       0.3       0.4      49.2      9.54
   01/01/2020 01:00      44.8      44.0       57     30.1      0.00      7.42      54.5     0.48      1019.2     1.1     SSE   160   2.8       S     170     268       -59       0.9       0.4      49.4      9.54
   01/01/2020 00:50      45.7      44.5       56     30.2      0.00      7.42      54.5     0.48      1019.4     0.6     SSE   162   1.7      SE     143     268       -60       0.5       0.2      49.7      9.54
   01/01/2020 00:40      46.1      45.5       54     29.9      0.00      7.42      54.6     0.48      1019.1     0.0      SW   222   0.7     SSW     192     268       -60       0.0       0.1      49.9      9.54
   01/01/2020 00:30      46.5      45.9       54     30.3      0.00      7.42      54.6     0.48      1018.9     0.3     SSE   149   1.4      SE     143     268       -61       0.0       0.1      50.1      9.54
   01/01/2020 00:20      46.9      45.9       53     30.2      0.00      7.42      54.6     0.48      1018.8     0.9     SSE   152   1.7       S     187     268       -62       0.3       0.1      50.4      9.54
   01/01/2020 00:10      47.0      46.2       53     30.2      0.00      7.42      54.6     0.48      1018.8     1.1     SSE   152   1.9     ESE     122     268       -62       0.3       0.0      50.5      9.54
   01/01/2020 00:00      46.9      46.4       52     30.1      0.00      7.42      54.6     0.48      1018.9     0.8     SSE   163   1.7     SSE     159     268       -63       0.7      34.7      50.8      9.54


Back to data home page